<?xml version="1.0" encoding="UTF-8" standalone="no" ?>
<gpx xmlns="http://www.topografix.com/GPX/1/1" xmlns:xsi="http://www.w3.org/2001/XMLSchema-instance" xsi:schemaLocation="http://www.topografix.com/GPX/1/1 http://www.topografix.com/GPX/1/1/gpx.xsd" version="1.1" creator="VisuGPX - https://www.visugpx.com">
  <metadata>
    <name>mrt fort de la latte</name>
    <desc><![CDATA[depart plage du vieux - bourg,pointe du chateau serein,fort de la latte,cap frehel,]]></desc>
  </metadata>
  <trk>
    <name><![CDATA[mrt fort de la latte_1]]></name>
    <trkseg>
      <trkpt lat="48.65422" lon="-2.36496">
        <ele>14</ele>
        <time>2016-06-24T07:55:31Z</time>
      </trkpt>
      <trkpt lat="48.65404" lon="-2.36439">
        <ele>15</ele>
        <time>2016-06-24T07:56:44Z</time>
      </trkpt>
      <trkpt lat="48.65402" lon="-2.36434">
        <ele>15</ele>
        <time>2016-06-24T07:56:47Z</time>
      </trkpt>
      <trkpt lat="48.65401" lon="-2.36429">
        <ele>15</ele>
        <time>2016-06-24T07:56:50Z</time>
      </trkpt>
      <trkpt lat="48.65398" lon="-2.36423">
        <ele>15</ele>
        <time>2016-06-24T07:56:54Z</time>
      </trkpt>
      <trkpt lat="48.65396" lon="-2.36418">
        <ele>15</ele>
        <time>2016-06-24T07:56:58Z</time>
      </trkpt>
      <trkpt lat="48.65395" lon="-2.36413">
        <ele>15</ele>
        <time>2016-06-24T07:57:01Z</time>
      </trkpt>
      <trkpt lat="48.65393" lon="-2.36408">
        <ele>15</ele>
        <time>2016-06-24T07:57:04Z</time>
      </trkpt>
      <trkpt lat="48.6539" lon="-2.36403">
        <ele>14</ele>
        <time>2016-06-24T07:57:08Z</time>
      </trkpt>
      <trkpt lat="48.65387" lon="-2.36399">
        <ele>14</ele>
        <time>2016-06-24T07:57:12Z</time>
      </trkpt>
      <trkpt lat="48.65384" lon="-2.36396">
        <ele>14</ele>
        <time>2016-06-24T07:57:16Z</time>
      </trkpt>
      <trkpt lat="48.65382" lon="-2.36389">
        <ele>14</ele>
        <time>2016-06-24T07:57:20Z</time>
      </trkpt>
      <trkpt lat="48.65384" lon="-2.36384">
        <ele>14</ele>
        <time>2016-06-24T07:57:24Z</time>
      </trkpt>
      <trkpt lat="48.65387" lon="-2.3638">
        <ele>14</ele>
        <time>2016-06-24T07:57:30Z</time>
      </trkpt>
      <trkpt lat="48.65389" lon="-2.36376">
        <ele>14</ele>
        <time>2016-06-24T07:57:34Z</time>
      </trkpt>
      <trkpt lat="48.65392" lon="-2.36371">
        <ele>14</ele>
        <time>2016-06-24T07:57:38Z</time>
      </trkpt>
      <trkpt lat="48.65395" lon="-2.36367">
        <ele>14</ele>
        <time>2016-06-24T07:57:41Z</time>
      </trkpt>
      <trkpt lat="48.65396" lon="-2.36362">
        <ele>14</ele>
        <time>2016-06-24T07:57:45Z</time>
      </trkpt>
      <trkpt lat="48.65395" lon="-2.36357">
        <ele>14</ele>
        <time>2016-06-24T07:57:49Z</time>
      </trkpt>
      <trkpt lat="48.65393" lon="-2.36355">
        <ele>14</ele>
        <time>2016-06-24T07:57:52Z</time>
      </trkpt>
      <trkpt lat="48.6539" lon="-2.36352">
        <ele>15</ele>
        <time>2016-06-24T07:57:56Z</time>
      </trkpt>
      <trkpt lat="48.65387" lon="-2.3635">
        <ele>16</ele>
        <time>2016-06-24T07:57:59Z</time>
      </trkpt>
      <trkpt lat="48.65384" lon="-2.36348">
        <ele>16</ele>
        <time>2016-06-24T07:58:02Z</time>
      </trkpt>
      <trkpt lat="48.6538" lon="-2.36345">
        <ele>16</ele>
        <time>2016-06-24T07:58:05Z</time>
      </trkpt>
      <trkpt lat="48.65377" lon="-2.36342">
        <ele>16</ele>
        <time>2016-06-24T07:58:08Z</time>
      </trkpt>
      <trkpt lat="48.65373" lon="-2.36339">
        <ele>16</ele>
        <time>2016-06-24T07:58:11Z</time>
      </trkpt>
      <trkpt lat="48.65369" lon="-2.36335">
        <ele>16</ele>
        <time>2016-06-24T07:58:15Z</time>
      </trkpt>
      <trkpt lat="48.65366" lon="-2.36331">
        <ele>16</ele>
        <time>2016-06-24T07:58:18Z</time>
      </trkpt>
      <trkpt lat="48.65363" lon="-2.36327">
        <ele>16</ele>
        <time>2016-06-24T07:58:21Z</time>
      </trkpt>
      <trkpt lat="48.6536" lon="-2.36324">
        <ele>16</ele>
        <time>2016-06-24T07:58:24Z</time>
      </trkpt>
      <trkpt lat="48.65357" lon="-2.36318">
        <ele>16</ele>
        <time>2016-06-24T07:58:28Z</time>
      </trkpt>
      <trkpt lat="48.65357" lon="-2.36313">
        <ele>16</ele>
        <time>2016-06-24T07:58:31Z</time>
      </trkpt>
      <trkpt lat="48.65358" lon="-2.36307">
        <ele>16</ele>
        <time>2016-06-24T07:58:34Z</time>
      </trkpt>
      <trkpt lat="48.65358" lon="-2.36302">
        <ele>16</ele>
        <time>2016-06-24T07:58:37Z</time>
      </trkpt>
      <trkpt lat="48.65358" lon="-2.36297">
        <ele>16</ele>
        <time>2016-06-24T07:58:40Z</time>
      </trkpt>
      <trkpt lat="48.65358" lon="-2.36292">
        <ele>16</ele>
        <time>2016-06-24T07:58:43Z</time>
      </trkpt>
      <trkpt lat="48.65357" lon="-2.36285">
        <ele>16</ele>
        <time>2016-06-24T07:58:46Z</time>
      </trkpt>
      <trkpt lat="48.65356" lon="-2.36279">
        <ele>15</ele>
        <time>2016-06-24T07:58:49Z</time>
      </trkpt>
      <trkpt lat="48.65356" lon="-2.36271">
        <ele>14</ele>
        <time>2016-06-24T07:58:53Z</time>
      </trkpt>
      <trkpt lat="48.65354" lon="-2.36263">
        <ele>14</ele>
        <time>2016-06-24T07:58:56Z</time>
      </trkpt>
      <trkpt lat="48.65354" lon="-2.36257">
        <ele>14</ele>
        <time>2016-06-24T07:58:59Z</time>
      </trkpt>
      <trkpt lat="48.65355" lon="-2.36252">
        <ele>14</ele>
        <time>2016-06-24T07:59:02Z</time>
      </trkpt>
      <trkpt lat="48.65357" lon="-2.36246">
        <ele>14</ele>
        <time>2016-06-24T07:59:05Z</time>
      </trkpt>
      <trkpt lat="48.65358" lon="-2.36242">
        <ele>14</ele>
        <time>2016-06-24T07:59:08Z</time>
      </trkpt>
      <trkpt lat="48.65359" lon="-2.36238">
        <ele>14</ele>
        <time>2016-06-24T07:59:11Z</time>
      </trkpt>
      <trkpt lat="48.65361" lon="-2.36233">
        <ele>14</ele>
        <time>2016-06-24T07:59:14Z</time>
      </trkpt>
      <trkpt lat="48.65361" lon="-2.36227">
        <ele>14</ele>
        <time>2016-06-24T07:59:17Z</time>
      </trkpt>
      <trkpt lat="48.65363" lon="-2.36221">
        <ele>14</ele>
        <time>2016-06-24T07:59:22Z</time>
      </trkpt>
      <trkpt lat="48.65363" lon="-2.36213">
        <ele>14</ele>
        <time>2016-06-24T07:59:26Z</time>
      </trkpt>
      <trkpt lat="48.65363" lon="-2.36209">
        <ele>14</ele>
        <time>2016-06-24T07:59:29Z</time>
      </trkpt>
      <trkpt lat="48.65362" lon="-2.36204">
        <ele>14</ele>
        <time>2016-06-24T07:59:32Z</time>
      </trkpt>
      <trkpt lat="48.65361" lon="-2.36198">
        <ele>14</ele>
        <time>2016-06-24T07:59:35Z</time>
      </trkpt>
      <trkpt lat="48.65361" lon="-2.36191">
        <ele>14</ele>
        <time>2016-06-24T07:59:39Z</time>
      </trkpt>
      <trkpt lat="48.6536" lon="-2.36185">
        <ele>14</ele>
        <time>2016-06-24T07:59:42Z</time>
      </trkpt>
      <trkpt lat="48.65359" lon="-2.36179">
        <ele>14</ele>
        <time>2016-06-24T07:59:45Z</time>
      </trkpt>
      <trkpt lat="48.65358" lon="-2.36172">
        <ele>14</ele>
        <time>2016-06-24T07:59:48Z</time>
      </trkpt>
      <trkpt lat="48.65358" lon="-2.36165">
        <ele>15</ele>
        <time>2016-06-24T07:59:51Z</time>
      </trkpt>
      <trkpt lat="48.65358" lon="-2.36159">
        <ele>16</ele>
        <time>2016-06-24T07:59:54Z</time>
      </trkpt>
      <trkpt lat="48.65358" lon="-2.36153">
        <ele>17</ele>
        <time>2016-06-24T07:59:57Z</time>
      </trkpt>
      <trkpt lat="48.65359" lon="-2.36146">
        <ele>17</ele>
        <time>2016-06-24T08:00:00Z</time>
      </trkpt>
      <trkpt lat="48.65359" lon="-2.3614">
        <ele>19</ele>
        <time>2016-06-24T08:00:03Z</time>
      </trkpt>
      <trkpt lat="48.6536" lon="-2.36135">
        <ele>20</ele>
        <time>2016-06-24T08:00:06Z</time>
      </trkpt>
      <trkpt lat="48.65361" lon="-2.36129">
        <ele>21</ele>
        <time>2016-06-24T08:00:09Z</time>
      </trkpt>
      <trkpt lat="48.65362" lon="-2.36123">
        <ele>23</ele>
        <time>2016-06-24T08:00:13Z</time>
      </trkpt>
      <trkpt lat="48.65363" lon="-2.36118">
        <ele>23</ele>
        <time>2016-06-24T08:00:16Z</time>
      </trkpt>
      <trkpt lat="48.65364" lon="-2.36113">
        <ele>23</ele>
        <time>2016-06-24T08:00:19Z</time>
      </trkpt>
      <trkpt lat="48.65363" lon="-2.36107">
        <ele>23</ele>
        <time>2016-06-24T08:00:22Z</time>
      </trkpt>
      <trkpt lat="48.65364" lon="-2.36101">
        <ele>24</ele>
        <time>2016-06-24T08:00:25Z</time>
      </trkpt>
      <trkpt lat="48.65366" lon="-2.36096">
        <ele>24</ele>
        <time>2016-06-24T08:00:28Z</time>
      </trkpt>
      <trkpt lat="48.65367" lon="-2.3609">
        <ele>24</ele>
        <time>2016-06-24T08:00:31Z</time>
      </trkpt>
      <trkpt lat="48.65369" lon="-2.36085">
        <ele>24</ele>
        <time>2016-06-24T08:00:34Z</time>
      </trkpt>
      <trkpt lat="48.6537" lon="-2.3608">
        <ele>24</ele>
        <time>2016-06-24T08:00:37Z</time>
      </trkpt>
      <trkpt lat="48.65371" lon="-2.36074">
        <ele>24</ele>
        <time>2016-06-24T08:00:40Z</time>
      </trkpt>
      <trkpt lat="48.65373" lon="-2.3607">
        <ele>24</ele>
        <time>2016-06-24T08:00:43Z</time>
      </trkpt>
      <trkpt lat="48.65374" lon="-2.36065">
        <ele>23</ele>
        <time>2016-06-24T08:00:46Z</time>
      </trkpt>
      <trkpt lat="48.65375" lon="-2.3606">
        <ele>22</ele>
        <time>2016-06-24T08:00:49Z</time>
      </trkpt>
      <trkpt lat="48.65376" lon="-2.36054">
        <ele>22</ele>
        <time>2016-06-24T08:00:53Z</time>
      </trkpt>
      <trkpt lat="48.65377" lon="-2.36052">
        <ele>22</ele>
        <time>2016-06-24T08:00:57Z</time>
      </trkpt>
      <trkpt lat="48.65378" lon="-2.3605">
        <ele>22</ele>
        <time>2016-06-24T08:01:00Z</time>
      </trkpt>
      <trkpt lat="48.6538" lon="-2.36047">
        <ele>22</ele>
        <time>2016-06-24T08:01:05Z</time>
      </trkpt>
      <trkpt lat="48.65379" lon="-2.36042">
        <ele>22</ele>
        <time>2016-06-24T08:01:09Z</time>
      </trkpt>
      <trkpt lat="48.65381" lon="-2.36037">
        <ele>21</ele>
        <time>2016-06-24T08:01:13Z</time>
      </trkpt>
      <trkpt lat="48.65382" lon="-2.36031">
        <ele>20</ele>
        <time>2016-06-24T08:01:17Z</time>
      </trkpt>
      <trkpt lat="48.65383" lon="-2.36026">
        <ele>19</ele>
        <time>2016-06-24T08:01:20Z</time>
      </trkpt>
      <trkpt lat="48.65385" lon="-2.3602">
        <ele>19</ele>
        <time>2016-06-24T08:01:23Z</time>
      </trkpt>
      <trkpt lat="48.65385" lon="-2.36015">
        <ele>18</ele>
        <time>2016-06-24T08:01:26Z</time>
      </trkpt>
      <trkpt lat="48.65387" lon="-2.36009">
        <ele>18</ele>
        <time>2016-06-24T08:01:29Z</time>
      </trkpt>
      <trkpt lat="48.65388" lon="-2.36003">
        <ele>17</ele>
        <time>2016-06-24T08:01:32Z</time>
      </trkpt>
      <trkpt lat="48.65389" lon="-2.35998">
        <ele>16</ele>
        <time>2016-06-24T08:01:35Z</time>
      </trkpt>
      <trkpt lat="48.65391" lon="-2.35991">
        <ele>16</ele>
        <time>2016-06-24T08:01:39Z</time>
      </trkpt>
      <trkpt lat="48.65392" lon="-2.35985">
        <ele>16</ele>
        <time>2016-06-24T08:01:42Z</time>
      </trkpt>
      <trkpt lat="48.65393" lon="-2.3598">
        <ele>15</ele>
        <time>2016-06-24T08:01:45Z</time>
      </trkpt>
      <trkpt lat="48.65394" lon="-2.35974">
        <ele>15</ele>
        <time>2016-06-24T08:01:48Z</time>
      </trkpt>
      <trkpt lat="48.65395" lon="-2.35967">
        <ele>15</ele>
        <time>2016-06-24T08:01:51Z</time>
      </trkpt>
      <trkpt lat="48.65397" lon="-2.35962">
        <ele>15</ele>
        <time>2016-06-24T08:01:54Z</time>
      </trkpt>
      <trkpt lat="48.65398" lon="-2.35957">
        <ele>15</ele>
        <time>2016-06-24T08:01:57Z</time>
      </trkpt>
      <trkpt lat="48.654" lon="-2.35952">
        <ele>15</ele>
        <time>2016-06-24T08:02:00Z</time>
      </trkpt>
      <trkpt lat="48.65403" lon="-2.35946">
        <ele>15</ele>
        <time>2016-06-24T08:02:04Z</time>
      </trkpt>
      <trkpt lat="48.65404" lon="-2.35941">
        <ele>15</ele>
        <time>2016-06-24T08:02:07Z</time>
      </trkpt>
      <trkpt lat="48.65405" lon="-2.35935">
        <ele>15</ele>
        <time>2016-06-24T08:02:10Z</time>
      </trkpt>
      <trkpt lat="48.65404" lon="-2.35929">
        <ele>15</ele>
        <time>2016-06-24T08:02:13Z</time>
      </trkpt>
      <trkpt lat="48.65405" lon="-2.35924">
        <ele>15</ele>
        <time>2016-06-24T08:02:16Z</time>
      </trkpt>
      <trkpt lat="48.65406" lon="-2.35919">
        <ele>15</ele>
        <time>2016-06-24T08:02:19Z</time>
      </trkpt>
      <trkpt lat="48.65406" lon="-2.35913">
        <ele>15</ele>
        <time>2016-06-24T08:02:22Z</time>
      </trkpt>
      <trkpt lat="48.65406" lon="-2.35907">
        <ele>15</ele>
        <time>2016-06-24T08:02:25Z</time>
      </trkpt>
      <trkpt lat="48.65405" lon="-2.359">
        <ele>15</ele>
        <time>2016-06-24T08:02:28Z</time>
      </trkpt>
      <trkpt lat="48.65404" lon="-2.35895">
        <ele>15</ele>
        <time>2016-06-24T08:02:31Z</time>
      </trkpt>
      <trkpt lat="48.65403" lon="-2.35888">
        <ele>16</ele>
        <time>2016-06-24T08:02:34Z</time>
      </trkpt>
      <trkpt lat="48.654" lon="-2.35882">
        <ele>17</ele>
        <time>2016-06-24T08:02:37Z</time>
      </trkpt>
      <trkpt lat="48.65398" lon="-2.35876">
        <ele>18</ele>
        <time>2016-06-24T08:02:40Z</time>
      </trkpt>
      <trkpt lat="48.65397" lon="-2.35869">
        <ele>19</ele>
        <time>2016-06-24T08:02:43Z</time>
      </trkpt>
      <trkpt lat="48.65395" lon="-2.35864">
        <ele>20</ele>
        <time>2016-06-24T08:02:46Z</time>
      </trkpt>
      <trkpt lat="48.65394" lon="-2.35858">
        <ele>20</ele>
        <time>2016-06-24T08:02:49Z</time>
      </trkpt>
      <trkpt lat="48.65393" lon="-2.35853">
        <ele>20</ele>
        <time>2016-06-24T08:02:52Z</time>
      </trkpt>
      <trkpt lat="48.65392" lon="-2.35847">
        <ele>20</ele>
        <time>2016-06-24T08:02:55Z</time>
      </trkpt>
      <trkpt lat="48.65391" lon="-2.35841">
        <ele>21</ele>
        <time>2016-06-24T08:02:58Z</time>
      </trkpt>
      <trkpt lat="48.6539" lon="-2.35835">
        <ele>21</ele>
        <time>2016-06-24T08:03:01Z</time>
      </trkpt>
      <trkpt lat="48.6539" lon="-2.35829">
        <ele>21</ele>
        <time>2016-06-24T08:03:04Z</time>
      </trkpt>
      <trkpt lat="48.6539" lon="-2.35823">
        <ele>21</ele>
        <time>2016-06-24T08:03:07Z</time>
      </trkpt>
      <trkpt lat="48.6539" lon="-2.35817">
        <ele>21</ele>
        <time>2016-06-24T08:03:10Z</time>
      </trkpt>
      <trkpt lat="48.65391" lon="-2.35812">
        <ele>21</ele>
        <time>2016-06-24T08:03:13Z</time>
      </trkpt>
      <trkpt lat="48.65392" lon="-2.35806">
        <ele>21</ele>
        <time>2016-06-24T08:03:16Z</time>
      </trkpt>
      <trkpt lat="48.65392" lon="-2.35801">
        <ele>21</ele>
        <time>2016-06-24T08:03:19Z</time>
      </trkpt>
      <trkpt lat="48.65392" lon="-2.35795">
        <ele>21</ele>
        <time>2016-06-24T08:03:22Z</time>
      </trkpt>
      <trkpt lat="48.65392" lon="-2.35789">
        <ele>21</ele>
        <time>2016-06-24T08:03:25Z</time>
      </trkpt>
      <trkpt lat="48.65392" lon="-2.35784">
        <ele>21</ele>
        <time>2016-06-24T08:03:28Z</time>
      </trkpt>
      <trkpt lat="48.65391" lon="-2.35778">
        <ele>21</ele>
        <time>2016-06-24T08:03:31Z</time>
      </trkpt>
      <trkpt lat="48.6539" lon="-2.35773">
        <ele>21</ele>
        <time>2016-06-24T08:03:34Z</time>
      </trkpt>
      <trkpt lat="48.65388" lon="-2.35768">
        <ele>21</ele>
        <time>2016-06-24T08:03:37Z</time>
      </trkpt>
      <trkpt lat="48.65386" lon="-2.35763">
        <ele>21</ele>
        <time>2016-06-24T08:03:40Z</time>
      </trkpt>
      <trkpt lat="48.65384" lon="-2.35758">
        <ele>21</ele>
        <time>2016-06-24T08:03:43Z</time>
      </trkpt>
      <trkpt lat="48.65379" lon="-2.35754">
        <ele>21</ele>
        <time>2016-06-24T08:03:47Z</time>
      </trkpt>
      <trkpt lat="48.65376" lon="-2.35752">
        <ele>21</ele>
        <time>2016-06-24T08:03:50Z</time>
      </trkpt>
      <trkpt lat="48.65372" lon="-2.3575">
        <ele>21</ele>
        <time>2016-06-24T08:03:53Z</time>
      </trkpt>
      <trkpt lat="48.65369" lon="-2.35746">
        <ele>21</ele>
        <time>2016-06-24T08:03:56Z</time>
      </trkpt>
      <trkpt lat="48.65364" lon="-2.35742">
        <ele>21</ele>
        <time>2016-06-24T08:04:00Z</time>
      </trkpt>
      <trkpt lat="48.65361" lon="-2.3574">
        <ele>22</ele>
        <time>2016-06-24T08:04:03Z</time>
      </trkpt>
      <trkpt lat="48.65357" lon="-2.35737">
        <ele>22</ele>
        <time>2016-06-24T08:04:06Z</time>
      </trkpt>
      <trkpt lat="48.65353" lon="-2.35736">
        <ele>22</ele>
        <time>2016-06-24T08:04:09Z</time>
      </trkpt>
      <trkpt lat="48.65349" lon="-2.35734">
        <ele>22</ele>
        <time>2016-06-24T08:04:12Z</time>
      </trkpt>
      <trkpt lat="48.65346" lon="-2.35734">
        <ele>22</ele>
        <time>2016-06-24T08:04:15Z</time>
      </trkpt>
      <trkpt lat="48.65342" lon="-2.35733">
        <ele>23</ele>
        <time>2016-06-24T08:04:18Z</time>
      </trkpt>
      <trkpt lat="48.65338" lon="-2.35733">
        <ele>23</ele>
        <time>2016-06-24T08:04:21Z</time>
      </trkpt>
      <trkpt lat="48.65334" lon="-2.35732">
        <ele>23</ele>
        <time>2016-06-24T08:04:24Z</time>
      </trkpt>
      <trkpt lat="48.6533" lon="-2.35732">
        <ele>23</ele>
        <time>2016-06-24T08:04:27Z</time>
      </trkpt>
      <trkpt lat="48.65326" lon="-2.3573">
        <ele>23</ele>
        <time>2016-06-24T08:04:30Z</time>
      </trkpt>
      <trkpt lat="48.65322" lon="-2.35729">
        <ele>23</ele>
        <time>2016-06-24T08:04:33Z</time>
      </trkpt>
      <trkpt lat="48.65318" lon="-2.35728">
        <ele>23</ele>
        <time>2016-06-24T08:04:36Z</time>
      </trkpt>
      <trkpt lat="48.65314" lon="-2.35726">
        <ele>23</ele>
        <time>2016-06-24T08:04:39Z</time>
      </trkpt>
      <trkpt lat="48.6531" lon="-2.35724">
        <ele>23</ele>
        <time>2016-06-24T08:04:42Z</time>
      </trkpt>
      <trkpt lat="48.65306" lon="-2.35722">
        <ele>23</ele>
        <time>2016-06-24T08:04:45Z</time>
      </trkpt>
      <trkpt lat="48.65302" lon="-2.35721">
        <ele>23</ele>
        <time>2016-06-24T08:04:48Z</time>
      </trkpt>
      <trkpt lat="48.65298" lon="-2.35718">
        <ele>24</ele>
        <time>2016-06-24T08:04:51Z</time>
      </trkpt>
      <trkpt lat="48.65294" lon="-2.35715">
        <ele>25</ele>
        <time>2016-06-24T08:04:54Z</time>
      </trkpt>
      <trkpt lat="48.6529" lon="-2.35712">
        <ele>27</ele>
        <time>2016-06-24T08:04:57Z</time>
      </trkpt>
      <trkpt lat="48.65285" lon="-2.35708">
        <ele>28</ele>
        <time>2016-06-24T08:05:01Z</time>
      </trkpt>
      <trkpt lat="48.65282" lon="-2.35706">
        <ele>28</ele>
        <time>2016-06-24T08:05:04Z</time>
      </trkpt>
      <trkpt lat="48.65278" lon="-2.35704">
        <ele>28</ele>
        <time>2016-06-24T08:05:07Z</time>
      </trkpt>
      <trkpt lat="48.65274" lon="-2.35702">
        <ele>28</ele>
        <time>2016-06-24T08:05:10Z</time>
      </trkpt>
      <trkpt lat="48.65271" lon="-2.357">
        <ele>28</ele>
        <time>2016-06-24T08:05:13Z</time>
      </trkpt>
      <trkpt lat="48.65267" lon="-2.35699">
        <ele>28</ele>
        <time>2016-06-24T08:05:16Z</time>
      </trkpt>
      <trkpt lat="48.65263" lon="-2.35698">
        <ele>28</ele>
        <time>2016-06-24T08:05:19Z</time>
      </trkpt>
      <trkpt lat="48.6526" lon="-2.35697">
        <ele>28</ele>
        <time>2016-06-24T08:05:22Z</time>
      </trkpt>
      <trkpt lat="48.65256" lon="-2.35695">
        <ele>28</ele>
        <time>2016-06-24T08:05:25Z</time>
      </trkpt>
      <trkpt lat="48.65252" lon="-2.35695">
        <ele>28</ele>
        <time>2016-06-24T08:05:28Z</time>
      </trkpt>
      <trkpt lat="48.65248" lon="-2.35695">
        <ele>28</ele>
        <time>2016-06-24T08:05:31Z</time>
      </trkpt>
      <trkpt lat="48.65244" lon="-2.35693">
        <ele>28</ele>
        <time>2016-06-24T08:05:34Z</time>
      </trkpt>
      <trkpt lat="48.6524" lon="-2.35692">
        <ele>28</ele>
        <time>2016-06-24T08:05:37Z</time>
      </trkpt>
      <trkpt lat="48.65235" lon="-2.35692">
        <ele>29</ele>
        <time>2016-06-24T08:05:40Z</time>
      </trkpt>
      <trkpt lat="48.65231" lon="-2.35692">
        <ele>29</ele>
        <time>2016-06-24T08:05:43Z</time>
      </trkpt>
      <trkpt lat="48.65228" lon="-2.35692">
        <ele>30</ele>
        <time>2016-06-24T08:05:46Z</time>
      </trkpt>
      <trkpt lat="48.65223" lon="-2.35692">
        <ele>30</ele>
        <time>2016-06-24T08:05:49Z</time>
      </trkpt>
      <trkpt lat="48.6522" lon="-2.35693">
        <ele>30</ele>
        <time>2016-06-24T08:05:52Z</time>
      </trkpt>
      <trkpt lat="48.65216" lon="-2.35694">
        <ele>30</ele>
        <time>2016-06-24T08:05:55Z</time>
      </trkpt>
      <trkpt lat="48.65212" lon="-2.35694">
        <ele>30</ele>
        <time>2016-06-24T08:05:58Z</time>
      </trkpt>
      <trkpt lat="48.65208" lon="-2.35695">
        <ele>30</ele>
        <time>2016-06-24T08:06:01Z</time>
      </trkpt>
      <trkpt lat="48.65203" lon="-2.35694">
        <ele>30</ele>
        <time>2016-06-24T08:06:04Z</time>
      </trkpt>
      <trkpt lat="48.65199" lon="-2.35692">
        <ele>31</ele>
        <time>2016-06-24T08:06:07Z</time>
      </trkpt>
      <trkpt lat="48.65196" lon="-2.3569">
        <ele>31</ele>
        <time>2016-06-24T08:06:10Z</time>
      </trkpt>
      <trkpt lat="48.65192" lon="-2.35686">
        <ele>31</ele>
        <time>2016-06-24T08:06:13Z</time>
      </trkpt>
      <trkpt lat="48.65188" lon="-2.35681">
        <ele>31</ele>
        <time>2016-06-24T08:06:17Z</time>
      </trkpt>
      <trkpt lat="48.65186" lon="-2.35676">
        <ele>31</ele>
        <time>2016-06-24T08:06:20Z</time>
      </trkpt>
      <trkpt lat="48.65184" lon="-2.3567">
        <ele>31</ele>
        <time>2016-06-24T08:06:23Z</time>
      </trkpt>
      <trkpt lat="48.65184" lon="-2.35663">
        <ele>31</ele>
        <time>2016-06-24T08:06:27Z</time>
      </trkpt>
      <trkpt lat="48.65181" lon="-2.35661">
        <ele>31</ele>
        <time>2016-06-24T08:06:30Z</time>
      </trkpt>
      <trkpt lat="48.65178" lon="-2.35656">
        <ele>31</ele>
        <time>2016-06-24T08:06:33Z</time>
      </trkpt>
      <trkpt lat="48.65175" lon="-2.35651">
        <ele>31</ele>
        <time>2016-06-24T08:06:36Z</time>
      </trkpt>
      <trkpt lat="48.65173" lon="-2.35646">
        <ele>31</ele>
        <time>2016-06-24T08:06:39Z</time>
      </trkpt>
      <trkpt lat="48.65171" lon="-2.3564">
        <ele>31</ele>
        <time>2016-06-24T08:06:42Z</time>
      </trkpt>
      <trkpt lat="48.65168" lon="-2.35635">
        <ele>31</ele>
        <time>2016-06-24T08:06:45Z</time>
      </trkpt>
      <trkpt lat="48.65166" lon="-2.35629">
        <ele>31</ele>
        <time>2016-06-24T08:06:48Z</time>
      </trkpt>
      <trkpt lat="48.65165" lon="-2.35624">
        <ele>31</ele>
        <time>2016-06-24T08:06:51Z</time>
      </trkpt>
      <trkpt lat="48.65162" lon="-2.35619">
        <ele>31</ele>
        <time>2016-06-24T08:06:54Z</time>
      </trkpt>
      <trkpt lat="48.65159" lon="-2.35613">
        <ele>32</ele>
        <time>2016-06-24T08:06:58Z</time>
      </trkpt>
      <trkpt lat="48.65156" lon="-2.35608">
        <ele>32</ele>
        <time>2016-06-24T08:07:01Z</time>
      </trkpt>
      <trkpt lat="48.65154" lon="-2.35603">
        <ele>32</ele>
        <time>2016-06-24T08:07:04Z</time>
      </trkpt>
      <trkpt lat="48.65152" lon="-2.35597">
        <ele>32</ele>
        <time>2016-06-24T08:07:07Z</time>
      </trkpt>
      <trkpt lat="48.6515" lon="-2.35592">
        <ele>32</ele>
        <time>2016-06-24T08:07:10Z</time>
      </trkpt>
      <trkpt lat="48.65146" lon="-2.35586">
        <ele>32</ele>
        <time>2016-06-24T08:07:14Z</time>
      </trkpt>
      <trkpt lat="48.65142" lon="-2.3558">
        <ele>32</ele>
        <time>2016-06-24T08:07:18Z</time>
      </trkpt>
      <trkpt lat="48.65138" lon="-2.35576">
        <ele>32</ele>
        <time>2016-06-24T08:07:22Z</time>
      </trkpt>
      <trkpt lat="48.65135" lon="-2.35571">
        <ele>32</ele>
        <time>2016-06-24T08:07:25Z</time>
      </trkpt>
      <trkpt lat="48.65131" lon="-2.35566">
        <ele>32</ele>
        <time>2016-06-24T08:07:29Z</time>
      </trkpt>
      <trkpt lat="48.65127" lon="-2.35561">
        <ele>32</ele>
        <time>2016-06-24T08:07:32Z</time>
      </trkpt>
      <trkpt lat="48.65124" lon="-2.35558">
        <ele>32</ele>
        <time>2016-06-24T08:07:35Z</time>
      </trkpt>
      <trkpt lat="48.6512" lon="-2.35552">
        <ele>32</ele>
        <time>2016-06-24T08:07:39Z</time>
      </trkpt>
      <trkpt lat="48.65116" lon="-2.35547">
        <ele>32</ele>
        <time>2016-06-24T08:07:43Z</time>
      </trkpt>
      <trkpt lat="48.65112" lon="-2.35542">
        <ele>32</ele>
        <time>2016-06-24T08:07:47Z</time>
      </trkpt>
      <trkpt lat="48.65108" lon="-2.35537">
        <ele>32</ele>
        <time>2016-06-24T08:07:51Z</time>
      </trkpt>
      <trkpt lat="48.65105" lon="-2.35533">
        <ele>32</ele>
        <time>2016-06-24T08:07:54Z</time>
      </trkpt>
      <trkpt lat="48.65102" lon="-2.35529">
        <ele>32</ele>
        <time>2016-06-24T08:07:57Z</time>
      </trkpt>
      <trkpt lat="48.65098" lon="-2.35524">
        <ele>32</ele>
        <time>2016-06-24T08:08:01Z</time>
      </trkpt>
      <trkpt lat="48.65094" lon="-2.35518">
        <ele>32</ele>
        <time>2016-06-24T08:08:05Z</time>
      </trkpt>
      <trkpt lat="48.65091" lon="-2.35514">
        <ele>32</ele>
        <time>2016-06-24T08:08:08Z</time>
      </trkpt>
      <trkpt lat="48.65087" lon="-2.3551">
        <ele>32</ele>
        <time>2016-06-24T08:08:11Z</time>
      </trkpt>
      <trkpt lat="48.65083" lon="-2.35504">
        <ele>32</ele>
        <time>2016-06-24T08:08:15Z</time>
      </trkpt>
      <trkpt lat="48.65078" lon="-2.35499">
        <ele>32</ele>
        <time>2016-06-24T08:08:19Z</time>
      </trkpt>
      <trkpt lat="48.65074" lon="-2.35494">
        <ele>32</ele>
        <time>2016-06-24T08:08:23Z</time>
      </trkpt>
      <trkpt lat="48.6507" lon="-2.35489">
        <ele>32</ele>
        <time>2016-06-24T08:08:27Z</time>
      </trkpt>
      <trkpt lat="48.65067" lon="-2.35484">
        <ele>32</ele>
        <time>2016-06-24T08:08:31Z</time>
      </trkpt>
      <trkpt lat="48.65063" lon="-2.35479">
        <ele>32</ele>
        <time>2016-06-24T08:08:35Z</time>
      </trkpt>
      <trkpt lat="48.65059" lon="-2.35473">
        <ele>32</ele>
        <time>2016-06-24T08:08:39Z</time>
      </trkpt>
      <trkpt lat="48.65056" lon="-2.3547">
        <ele>32</ele>
        <time>2016-06-24T08:08:42Z</time>
      </trkpt>
      <trkpt lat="48.65053" lon="-2.35466">
        <ele>32</ele>
        <time>2016-06-24T08:08:46Z</time>
      </trkpt>
      <trkpt lat="48.6505" lon="-2.35459">
        <ele>32</ele>
        <time>2016-06-24T08:08:49Z</time>
      </trkpt>
      <trkpt lat="48.6505" lon="-2.35454">
        <ele>32</ele>
        <time>2016-06-24T08:08:52Z</time>
      </trkpt>
      <trkpt lat="48.65049" lon="-2.3545">
        <ele>32</ele>
        <time>2016-06-24T08:09:00Z</time>
      </trkpt>
      <trkpt lat="48.65048" lon="-2.35443">
        <ele>32</ele>
        <time>2016-06-24T08:09:03Z</time>
      </trkpt>
      <trkpt lat="48.6505" lon="-2.35437">
        <ele>32</ele>
        <time>2016-06-24T08:09:06Z</time>
      </trkpt>
      <trkpt lat="48.65052" lon="-2.35431">
        <ele>31</ele>
        <time>2016-06-24T08:09:09Z</time>
      </trkpt>
      <trkpt lat="48.65054" lon="-2.35425">
        <ele>31</ele>
        <time>2016-06-24T08:09:12Z</time>
      </trkpt>
      <trkpt lat="48.65054" lon="-2.3542">
        <ele>30</ele>
        <time>2016-06-24T08:09:15Z</time>
      </trkpt>
      <trkpt lat="48.65054" lon="-2.35414">
        <ele>30</ele>
        <time>2016-06-24T08:09:18Z</time>
      </trkpt>
      <trkpt lat="48.65052" lon="-2.35407">
        <ele>30</ele>
        <time>2016-06-24T08:09:21Z</time>
      </trkpt>
      <trkpt lat="48.65051" lon="-2.35402">
        <ele>30</ele>
        <time>2016-06-24T08:09:24Z</time>
      </trkpt>
      <trkpt lat="48.65049" lon="-2.35396">
        <ele>30</ele>
        <time>2016-06-24T08:09:27Z</time>
      </trkpt>
      <trkpt lat="48.65048" lon="-2.35389">
        <ele>30</ele>
        <time>2016-06-24T08:09:30Z</time>
      </trkpt>
      <trkpt lat="48.65046" lon="-2.35384">
        <ele>30</ele>
        <time>2016-06-24T08:09:33Z</time>
      </trkpt>
      <trkpt lat="48.65045" lon="-2.35378">
        <ele>30</ele>
        <time>2016-06-24T08:09:36Z</time>
      </trkpt>
      <trkpt lat="48.65044" lon="-2.35371">
        <ele>30</ele>
        <time>2016-06-24T08:09:39Z</time>
      </trkpt>
      <trkpt lat="48.65043" lon="-2.35365">
        <ele>30</ele>
        <time>2016-06-24T08:09:42Z</time>
      </trkpt>
      <trkpt lat="48.65041" lon="-2.35359">
        <ele>30</ele>
        <time>2016-06-24T08:09:45Z</time>
      </trkpt>
      <trkpt lat="48.6504" lon="-2.35353">
        <ele>30</ele>
        <time>2016-06-24T08:09:48Z</time>
      </trkpt>
      <trkpt lat="48.65039" lon="-2.35347">
        <ele>30</ele>
        <time>2016-06-24T08:09:51Z</time>
      </trkpt>
      <trkpt lat="48.65039" lon="-2.3534">
        <ele>30</ele>
        <time>2016-06-24T08:09:54Z</time>
      </trkpt>
      <trkpt lat="48.65038" lon="-2.35335">
        <ele>30</ele>
        <time>2016-06-24T08:09:57Z</time>
      </trkpt>
      <trkpt lat="48.65037" lon="-2.3533">
        <ele>30</ele>
        <time>2016-06-24T08:10:00Z</time>
      </trkpt>
      <trkpt lat="48.65036" lon="-2.35323">
        <ele>30</ele>
        <time>2016-06-24T08:10:03Z</time>
      </trkpt>
      <trkpt lat="48.65035" lon="-2.35317">
        <ele>30</ele>
        <time>2016-06-24T08:10:06Z</time>
      </trkpt>
      <trkpt lat="48.65034" lon="-2.35313">
        <ele>30</ele>
        <time>2016-06-24T08:10:09Z</time>
      </trkpt>
      <trkpt lat="48.65034" lon="-2.35306">
        <ele>30</ele>
        <time>2016-06-24T08:10:12Z</time>
      </trkpt>
      <trkpt lat="48.65033" lon="-2.353">
        <ele>30</ele>
        <time>2016-06-24T08:10:15Z</time>
      </trkpt>
      <trkpt lat="48.65032" lon="-2.35292">
        <ele>30</ele>
        <time>2016-06-24T08:10:18Z</time>
      </trkpt>
      <trkpt lat="48.65031" lon="-2.35286">
        <ele>30</ele>
        <time>2016-06-24T08:10:21Z</time>
      </trkpt>
      <trkpt lat="48.65031" lon="-2.3528">
        <ele>30</ele>
        <time>2016-06-24T08:10:24Z</time>
      </trkpt>
      <trkpt lat="48.6503" lon="-2.35273">
        <ele>30</ele>
        <time>2016-06-24T08:10:27Z</time>
      </trkpt>
      <trkpt lat="48.6503" lon="-2.35267">
        <ele>30</ele>
        <time>2016-06-24T08:10:30Z</time>
      </trkpt>
      <trkpt lat="48.65028" lon="-2.35261">
        <ele>30</ele>
        <time>2016-06-24T08:10:33Z</time>
      </trkpt>
      <trkpt lat="48.65028" lon="-2.35255">
        <ele>30</ele>
        <time>2016-06-24T08:10:36Z</time>
      </trkpt>
      <trkpt lat="48.65028" lon="-2.35249">
        <ele>30</ele>
        <time>2016-06-24T08:10:39Z</time>
      </trkpt>
      <trkpt lat="48.65028" lon="-2.35243">
        <ele>30</ele>
        <time>2016-06-24T08:10:42Z</time>
      </trkpt>
      <trkpt lat="48.65028" lon="-2.35237">
        <ele>30</ele>
        <time>2016-06-24T08:10:45Z</time>
      </trkpt>
      <trkpt lat="48.65027" lon="-2.35231">
        <ele>30</ele>
        <time>2016-06-24T08:10:48Z</time>
      </trkpt>
      <trkpt lat="48.65026" lon="-2.35225">
        <ele>30</ele>
        <time>2016-06-24T08:10:51Z</time>
      </trkpt>
      <trkpt lat="48.65024" lon="-2.35219">
        <ele>30</ele>
        <time>2016-06-24T08:10:54Z</time>
      </trkpt>
      <trkpt lat="48.65023" lon="-2.35213">
        <ele>30</ele>
        <time>2016-06-24T08:10:57Z</time>
      </trkpt>
      <trkpt lat="48.65021" lon="-2.35207">
        <ele>30</ele>
        <time>2016-06-24T08:11:00Z</time>
      </trkpt>
      <trkpt lat="48.65019" lon="-2.35201">
        <ele>30</ele>
        <time>2016-06-24T08:11:03Z</time>
      </trkpt>
      <trkpt lat="48.65017" lon="-2.35195">
        <ele>30</ele>
        <time>2016-06-24T08:11:06Z</time>
      </trkpt>
      <trkpt lat="48.65015" lon="-2.35189">
        <ele>30</ele>
        <time>2016-06-24T08:11:09Z</time>
      </trkpt>
      <trkpt lat="48.65013" lon="-2.35184">
        <ele>30</ele>
        <time>2016-06-24T08:11:12Z</time>
      </trkpt>
      <trkpt lat="48.6501" lon="-2.35178">
        <ele>30</ele>
        <time>2016-06-24T08:11:15Z</time>
      </trkpt>
      <trkpt lat="48.65007" lon="-2.35172">
        <ele>30</ele>
        <time>2016-06-24T08:11:18Z</time>
      </trkpt>
      <trkpt lat="48.65004" lon="-2.35166">
        <ele>30</ele>
        <time>2016-06-24T08:11:22Z</time>
      </trkpt>
      <trkpt lat="48.65002" lon="-2.35161">
        <ele>30</ele>
        <time>2016-06-24T08:11:25Z</time>
      </trkpt>
      <trkpt lat="48.64998" lon="-2.35156">
        <ele>30</ele>
        <time>2016-06-24T08:11:28Z</time>
      </trkpt>
      <trkpt lat="48.64995" lon="-2.3515">
        <ele>30</ele>
        <time>2016-06-24T08:11:31Z</time>
      </trkpt>
      <trkpt lat="48.64992" lon="-2.35145">
        <ele>30</ele>
        <time>2016-06-24T08:11:34Z</time>
      </trkpt>
      <trkpt lat="48.64989" lon="-2.35139">
        <ele>30</ele>
        <time>2016-06-24T08:11:38Z</time>
      </trkpt>
      <trkpt lat="48.64987" lon="-2.35133">
        <ele>30</ele>
        <time>2016-06-24T08:11:41Z</time>
      </trkpt>
      <trkpt lat="48.64986" lon="-2.35128">
        <ele>30</ele>
        <time>2016-06-24T08:11:44Z</time>
      </trkpt>
      <trkpt lat="48.64984" lon="-2.35122">
        <ele>30</ele>
        <time>2016-06-24T08:11:47Z</time>
      </trkpt>
      <trkpt lat="48.64983" lon="-2.35116">
        <ele>30</ele>
        <time>2016-06-24T08:11:50Z</time>
      </trkpt>
      <trkpt lat="48.64981" lon="-2.35109">
        <ele>30</ele>
        <time>2016-06-24T08:11:53Z</time>
      </trkpt>
      <trkpt lat="48.6498" lon="-2.35103">
        <ele>30</ele>
        <time>2016-06-24T08:11:56Z</time>
      </trkpt>
      <trkpt lat="48.6498" lon="-2.35097">
        <ele>30</ele>
        <time>2016-06-24T08:11:59Z</time>
      </trkpt>
      <trkpt lat="48.64979" lon="-2.3509">
        <ele>30</ele>
        <time>2016-06-24T08:12:02Z</time>
      </trkpt>
      <trkpt lat="48.64978" lon="-2.35084">
        <ele>30</ele>
        <time>2016-06-24T08:12:05Z</time>
      </trkpt>
      <trkpt lat="48.64977" lon="-2.35078">
        <ele>30</ele>
        <time>2016-06-24T08:12:08Z</time>
      </trkpt>
      <trkpt lat="48.64975" lon="-2.35072">
        <ele>30</ele>
        <time>2016-06-24T08:12:12Z</time>
      </trkpt>
      <trkpt lat="48.64972" lon="-2.35068">
        <ele>31</ele>
        <time>2016-06-24T08:12:18Z</time>
      </trkpt>
      <trkpt lat="48.64969" lon="-2.35068">
        <ele>31</ele>
        <time>2016-06-24T08:12:22Z</time>
      </trkpt>
      <trkpt lat="48.64965" lon="-2.35069">
        <ele>31</ele>
        <time>2016-06-24T08:12:26Z</time>
      </trkpt>
      <trkpt lat="48.64962" lon="-2.3507">
        <ele>31</ele>
        <time>2016-06-24T08:12:29Z</time>
      </trkpt>
      <trkpt lat="48.64959" lon="-2.35071">
        <ele>31</ele>
        <time>2016-06-24T08:12:32Z</time>
      </trkpt>
      <trkpt lat="48.64955" lon="-2.35072">
        <ele>31</ele>
        <time>2016-06-24T08:12:35Z</time>
      </trkpt>
      <trkpt lat="48.64951" lon="-2.35074">
        <ele>31</ele>
        <time>2016-06-24T08:12:39Z</time>
      </trkpt>
      <trkpt lat="48.64947" lon="-2.35074">
        <ele>31</ele>
        <time>2016-06-24T08:12:42Z</time>
      </trkpt>
      <trkpt lat="48.64943" lon="-2.35075">
        <ele>31</ele>
        <time>2016-06-24T08:12:46Z</time>
      </trkpt>
      <trkpt lat="48.64938" lon="-2.35075">
        <ele>31</ele>
        <time>2016-06-24T08:12:50Z</time>
      </trkpt>
      <trkpt lat="48.64935" lon="-2.35075">
        <ele>31</ele>
        <time>2016-06-24T08:12:53Z</time>
      </trkpt>
      <trkpt lat="48.64931" lon="-2.35075">
        <ele>31</ele>
        <time>2016-06-24T08:12:56Z</time>
      </trkpt>
      <trkpt lat="48.64927" lon="-2.35074">
        <ele>31</ele>
        <time>2016-06-24T08:12:59Z</time>
      </trkpt>
      <trkpt lat="48.64923" lon="-2.35074">
        <ele>31</ele>
        <time>2016-06-24T08:13:03Z</time>
      </trkpt>
      <trkpt lat="48.6492" lon="-2.35073">
        <ele>32</ele>
        <time>2016-06-24T08:13:07Z</time>
      </trkpt>
      <trkpt lat="48.64917" lon="-2.35071">
        <ele>33</ele>
        <time>2016-06-24T08:13:11Z</time>
      </trkpt>
      <trkpt lat="48.64914" lon="-2.35069">
        <ele>33</ele>
        <time>2016-06-24T08:13:15Z</time>
      </trkpt>
      <trkpt lat="48.6491" lon="-2.35066">
        <ele>33</ele>
        <time>2016-06-24T08:13:19Z</time>
      </trkpt>
      <trkpt lat="48.64907" lon="-2.35062">
        <ele>33</ele>
        <time>2016-06-24T08:13:23Z</time>
      </trkpt>
      <trkpt lat="48.64904" lon="-2.35058">
        <ele>33</ele>
        <time>2016-06-24T08:13:26Z</time>
      </trkpt>
      <trkpt lat="48.649" lon="-2.35055">
        <ele>33</ele>
        <time>2016-06-24T08:13:30Z</time>
      </trkpt>
      <trkpt lat="48.64896" lon="-2.3505">
        <ele>33</ele>
        <time>2016-06-24T08:13:34Z</time>
      </trkpt>
      <trkpt lat="48.64893" lon="-2.35047">
        <ele>33</ele>
        <time>2016-06-24T08:13:37Z</time>
      </trkpt>
      <trkpt lat="48.6489" lon="-2.35041">
        <ele>33</ele>
        <time>2016-06-24T08:13:41Z</time>
      </trkpt>
      <trkpt lat="48.64887" lon="-2.35038">
        <ele>33</ele>
        <time>2016-06-24T08:13:44Z</time>
      </trkpt>
      <trkpt lat="48.64885" lon="-2.35034">
        <ele>33</ele>
        <time>2016-06-24T08:13:48Z</time>
      </trkpt>
      <trkpt lat="48.64883" lon="-2.35029">
        <ele>33</ele>
        <time>2016-06-24T08:13:51Z</time>
      </trkpt>
      <trkpt lat="48.64883" lon="-2.35023">
        <ele>34</ele>
        <time>2016-06-24T08:13:54Z</time>
      </trkpt>
      <trkpt lat="48.64883" lon="-2.35017">
        <ele>34</ele>
        <time>2016-06-24T08:13:57Z</time>
      </trkpt>
      <trkpt lat="48.64884" lon="-2.3501">
        <ele>34</ele>
        <time>2016-06-24T08:14:00Z</time>
      </trkpt>
      <trkpt lat="48.64885" lon="-2.35004">
        <ele>34</ele>
        <time>2016-06-24T08:14:03Z</time>
      </trkpt>
      <trkpt lat="48.64885" lon="-2.34997">
        <ele>34</ele>
        <time>2016-06-24T08:14:06Z</time>
      </trkpt>
      <trkpt lat="48.64885" lon="-2.3499">
        <ele>34</ele>
        <time>2016-06-24T08:14:09Z</time>
      </trkpt>
      <trkpt lat="48.64884" lon="-2.34982">
        <ele>34</ele>
        <time>2016-06-24T08:14:12Z</time>
      </trkpt>
      <trkpt lat="48.64882" lon="-2.34977">
        <ele>34</ele>
        <time>2016-06-24T08:14:15Z</time>
      </trkpt>
      <trkpt lat="48.64879" lon="-2.34972">
        <ele>34</ele>
        <time>2016-06-24T08:14:18Z</time>
      </trkpt>
      <trkpt lat="48.64875" lon="-2.34967">
        <ele>34</ele>
        <time>2016-06-24T08:14:21Z</time>
      </trkpt>
      <trkpt lat="48.64871" lon="-2.34964">
        <ele>34</ele>
        <time>2016-06-24T08:14:24Z</time>
      </trkpt>
      <trkpt lat="48.64868" lon="-2.34962">
        <ele>35</ele>
        <time>2016-06-24T08:14:27Z</time>
      </trkpt>
      <trkpt lat="48.64865" lon="-2.34959">
        <ele>36</ele>
        <time>2016-06-24T08:14:30Z</time>
      </trkpt>
      <trkpt lat="48.64861" lon="-2.34955">
        <ele>36</ele>
        <time>2016-06-24T08:14:33Z</time>
      </trkpt>
      <trkpt lat="48.64856" lon="-2.34954">
        <ele>36</ele>
        <time>2016-06-24T08:14:36Z</time>
      </trkpt>
      <trkpt lat="48.64852" lon="-2.34952">
        <ele>36</ele>
        <time>2016-06-24T08:14:39Z</time>
      </trkpt>
      <trkpt lat="48.64848" lon="-2.3495">
        <ele>36</ele>
        <time>2016-06-24T08:14:42Z</time>
      </trkpt>
      <trkpt lat="48.64844" lon="-2.34949">
        <ele>36</ele>
        <time>2016-06-24T08:14:45Z</time>
      </trkpt>
      <trkpt lat="48.6484" lon="-2.34947">
        <ele>36</ele>
        <time>2016-06-24T08:14:48Z</time>
      </trkpt>
      <trkpt lat="48.64836" lon="-2.34946">
        <ele>36</ele>
        <time>2016-06-24T08:14:51Z</time>
      </trkpt>
      <trkpt lat="48.64832" lon="-2.34944">
        <ele>36</ele>
        <time>2016-06-24T08:14:54Z</time>
      </trkpt>
      <trkpt lat="48.64828" lon="-2.34942">
        <ele>36</ele>
        <time>2016-06-24T08:14:57Z</time>
      </trkpt>
      <trkpt lat="48.64824" lon="-2.34939">
        <ele>36</ele>
        <time>2016-06-24T08:15:00Z</time>
      </trkpt>
      <trkpt lat="48.6482" lon="-2.34937">
        <ele>36</ele>
        <time>2016-06-24T08:15:03Z</time>
      </trkpt>
      <trkpt lat="48.64816" lon="-2.34934">
        <ele>36</ele>
        <time>2016-06-24T08:15:06Z</time>
      </trkpt>
      <trkpt lat="48.64813" lon="-2.3493">
        <ele>36</ele>
        <time>2016-06-24T08:15:10Z</time>
      </trkpt>
      <trkpt lat="48.6481" lon="-2.34925">
        <ele>36</ele>
        <time>2016-06-24T08:15:14Z</time>
      </trkpt>
      <trkpt lat="48.6481" lon="-2.34923">
        <ele>36</ele>
        <time>2016-06-24T08:15:27Z</time>
      </trkpt>
      <trkpt lat="48.64812" lon="-2.34921">
        <ele>36</ele>
        <time>2016-06-24T08:15:30Z</time>
      </trkpt>
      <trkpt lat="48.64815" lon="-2.34915">
        <ele>36</ele>
        <time>2016-06-24T08:15:34Z</time>
      </trkpt>
      <trkpt lat="48.64817" lon="-2.34911">
        <ele>36</ele>
        <time>2016-06-24T08:15:37Z</time>
      </trkpt>
      <trkpt lat="48.64819" lon="-2.34905">
        <ele>36</ele>
        <time>2016-06-24T08:15:41Z</time>
      </trkpt>
      <trkpt lat="48.64821" lon="-2.349">
        <ele>36</ele>
        <time>2016-06-24T08:15:44Z</time>
      </trkpt>
      <trkpt lat="48.64823" lon="-2.34895">
        <ele>36</ele>
        <time>2016-06-24T08:15:47Z</time>
      </trkpt>
      <trkpt lat="48.64825" lon="-2.34889">
        <ele>35</ele>
        <time>2016-06-24T08:15:50Z</time>
      </trkpt>
      <trkpt lat="48.64826" lon="-2.34883">
        <ele>34</ele>
        <time>2016-06-24T08:15:53Z</time>
      </trkpt>
      <trkpt lat="48.64829" lon="-2.34878">
        <ele>34</ele>
        <time>2016-06-24T08:15:57Z</time>
      </trkpt>
      <trkpt lat="48.64829" lon="-2.34873">
        <ele>34</ele>
        <time>2016-06-24T08:16:01Z</time>
      </trkpt>
      <trkpt lat="48.6483" lon="-2.34867">
        <ele>34</ele>
        <time>2016-06-24T08:16:04Z</time>
      </trkpt>
      <trkpt lat="48.64831" lon="-2.3486">
        <ele>34</ele>
        <time>2016-06-24T08:16:07Z</time>
      </trkpt>
      <trkpt lat="48.64833" lon="-2.34854">
        <ele>34</ele>
        <time>2016-06-24T08:16:10Z</time>
      </trkpt>
      <trkpt lat="48.64835" lon="-2.34848">
        <ele>34</ele>
        <time>2016-06-24T08:16:13Z</time>
      </trkpt>
      <trkpt lat="48.64836" lon="-2.34841">
        <ele>34</ele>
        <time>2016-06-24T08:16:16Z</time>
      </trkpt>
      <trkpt lat="48.64838" lon="-2.34834">
        <ele>34</ele>
        <time>2016-06-24T08:16:19Z</time>
      </trkpt>
      <trkpt lat="48.6484" lon="-2.34828">
        <ele>34</ele>
        <time>2016-06-24T08:16:22Z</time>
      </trkpt>
      <trkpt lat="48.64841" lon="-2.34821">
        <ele>34</ele>
        <time>2016-06-24T08:16:25Z</time>
      </trkpt>
      <trkpt lat="48.64843" lon="-2.34815">
        <ele>34</ele>
        <time>2016-06-24T08:16:28Z</time>
      </trkpt>
      <trkpt lat="48.64845" lon="-2.34808">
        <ele>34</ele>
        <time>2016-06-24T08:16:31Z</time>
      </trkpt>
      <trkpt lat="48.64846" lon="-2.34803">
        <ele>34</ele>
        <time>2016-06-24T08:16:34Z</time>
      </trkpt>
      <trkpt lat="48.64848" lon="-2.34797">
        <ele>34</ele>
        <time>2016-06-24T08:16:37Z</time>
      </trkpt>
      <trkpt lat="48.6485" lon="-2.34791">
        <ele>34</ele>
        <time>2016-06-24T08:16:40Z</time>
      </trkpt>
      <trkpt lat="48.64852" lon="-2.34785">
        <ele>34</ele>
        <time>2016-06-24T08:16:43Z</time>
      </trkpt>
      <trkpt lat="48.64854" lon="-2.34779">
        <ele>34</ele>
        <time>2016-06-24T08:16:46Z</time>
      </trkpt>
      <trkpt lat="48.64856" lon="-2.34773">
        <ele>34</ele>
        <time>2016-06-24T08:16:49Z</time>
      </trkpt>
      <trkpt lat="48.64858" lon="-2.34767">
        <ele>34</ele>
        <time>2016-06-24T08:16:52Z</time>
      </trkpt>
      <trkpt lat="48.64859" lon="-2.3476">
        <ele>34</ele>
        <time>2016-06-24T08:16:55Z</time>
      </trkpt>
      <trkpt lat="48.64861" lon="-2.34753">
        <ele>34</ele>
        <time>2016-06-24T08:16:58Z</time>
      </trkpt>
      <trkpt lat="48.64862" lon="-2.34747">
        <ele>34</ele>
        <time>2016-06-24T08:17:01Z</time>
      </trkpt>
      <trkpt lat="48.64864" lon="-2.3474">
        <ele>34</ele>
        <time>2016-06-24T08:17:04Z</time>
      </trkpt>
      <trkpt lat="48.64866" lon="-2.34734">
        <ele>34</ele>
        <time>2016-06-24T08:17:07Z</time>
      </trkpt>
      <trkpt lat="48.64867" lon="-2.34728">
        <ele>34</ele>
        <time>2016-06-24T08:17:10Z</time>
      </trkpt>
      <trkpt lat="48.64869" lon="-2.34722">
        <ele>34</ele>
        <time>2016-06-24T08:17:13Z</time>
      </trkpt>
      <trkpt lat="48.64871" lon="-2.34717">
        <ele>34</ele>
        <time>2016-06-24T08:17:16Z</time>
      </trkpt>
      <trkpt lat="48.64873" lon="-2.34711">
        <ele>34</ele>
        <time>2016-06-24T08:17:19Z</time>
      </trkpt>
      <trkpt lat="48.64874" lon="-2.34705">
        <ele>34</ele>
        <time>2016-06-24T08:17:22Z</time>
      </trkpt>
      <trkpt lat="48.64876" lon="-2.34699">
        <ele>34</ele>
        <time>2016-06-24T08:17:25Z</time>
      </trkpt>
      <trkpt lat="48.64877" lon="-2.34693">
        <ele>34</ele>
        <time>2016-06-24T08:17:28Z</time>
      </trkpt>
      <trkpt lat="48.6488" lon="-2.34687">
        <ele>34</ele>
        <time>2016-06-24T08:17:31Z</time>
      </trkpt>
      <trkpt lat="48.64881" lon="-2.34682">
        <ele>34</ele>
        <time>2016-06-24T08:17:34Z</time>
      </trkpt>
      <trkpt lat="48.64883" lon="-2.34676">
        <ele>34</ele>
        <time>2016-06-24T08:17:37Z</time>
      </trkpt>
      <trkpt lat="48.64885" lon="-2.3467">
        <ele>34</ele>
        <time>2016-06-24T08:17:40Z</time>
      </trkpt>
      <trkpt lat="48.64886" lon="-2.34664">
        <ele>34</ele>
        <time>2016-06-24T08:17:43Z</time>
      </trkpt>
      <trkpt lat="48.64888" lon="-2.34658">
        <ele>34</ele>
        <time>2016-06-24T08:17:46Z</time>
      </trkpt>
      <trkpt lat="48.6489" lon="-2.34652">
        <ele>34</ele>
        <time>2016-06-24T08:17:49Z</time>
      </trkpt>
      <trkpt lat="48.64892" lon="-2.34646">
        <ele>34</ele>
        <time>2016-06-24T08:17:52Z</time>
      </trkpt>
      <trkpt lat="48.64893" lon="-2.34639">
        <ele>34</ele>
        <time>2016-06-24T08:17:55Z</time>
      </trkpt>
      <trkpt lat="48.64895" lon="-2.34632">
        <ele>34</ele>
        <time>2016-06-24T08:17:58Z</time>
      </trkpt>
      <trkpt lat="48.64897" lon="-2.34627">
        <ele>34</ele>
        <time>2016-06-24T08:18:01Z</time>
      </trkpt>
      <trkpt lat="48.64899" lon="-2.34621">
        <ele>34</ele>
        <time>2016-06-24T08:18:04Z</time>
      </trkpt>
      <trkpt lat="48.64901" lon="-2.34615">
        <ele>34</ele>
        <time>2016-06-24T08:18:07Z</time>
      </trkpt>
      <trkpt lat="48.64902" lon="-2.34609">
        <ele>34</ele>
        <time>2016-06-24T08:18:10Z</time>
      </trkpt>
      <trkpt lat="48.64904" lon="-2.34603">
        <ele>34</ele>
        <time>2016-06-24T08:18:13Z</time>
      </trkpt>
      <trkpt lat="48.64906" lon="-2.34597">
        <ele>34</ele>
        <time>2016-06-24T08:18:16Z</time>
      </trkpt>
      <trkpt lat="48.64907" lon="-2.34591">
        <ele>34</ele>
        <time>2016-06-24T08:18:19Z</time>
      </trkpt>
      <trkpt lat="48.64909" lon="-2.34585">
        <ele>34</ele>
        <time>2016-06-24T08:18:22Z</time>
      </trkpt>
      <trkpt lat="48.64911" lon="-2.34579">
        <ele>34</ele>
        <time>2016-06-24T08:18:25Z</time>
      </trkpt>
      <trkpt lat="48.64912" lon="-2.34573">
        <ele>34</ele>
        <time>2016-06-24T08:18:28Z</time>
      </trkpt>
      <trkpt lat="48.64914" lon="-2.34567">
        <ele>34</ele>
        <time>2016-06-24T08:18:31Z</time>
      </trkpt>
      <trkpt lat="48.64915" lon="-2.34561">
        <ele>34</ele>
        <time>2016-06-24T08:18:34Z</time>
      </trkpt>
      <trkpt lat="48.64917" lon="-2.34556">
        <ele>34</ele>
        <time>2016-06-24T08:18:37Z</time>
      </trkpt>
      <trkpt lat="48.64919" lon="-2.3455">
        <ele>34</ele>
        <time>2016-06-24T08:18:40Z</time>
      </trkpt>
      <trkpt lat="48.64921" lon="-2.34544">
        <ele>34</ele>
        <time>2016-06-24T08:18:43Z</time>
      </trkpt>
      <trkpt lat="48.64922" lon="-2.34538">
        <ele>34</ele>
        <time>2016-06-24T08:18:46Z</time>
      </trkpt>
      <trkpt lat="48.64924" lon="-2.34532">
        <ele>34</ele>
        <time>2016-06-24T08:18:49Z</time>
      </trkpt>
      <trkpt lat="48.64925" lon="-2.34526">
        <ele>34</ele>
        <time>2016-06-24T08:18:52Z</time>
      </trkpt>
      <trkpt lat="48.64927" lon="-2.3452">
        <ele>34</ele>
        <time>2016-06-24T08:18:55Z</time>
      </trkpt>
      <trkpt lat="48.64929" lon="-2.34514">
        <ele>34</ele>
        <time>2016-06-24T08:18:58Z</time>
      </trkpt>
      <trkpt lat="48.6493" lon="-2.34507">
        <ele>34</ele>
        <time>2016-06-24T08:19:01Z</time>
      </trkpt>
      <trkpt lat="48.64931" lon="-2.345">
        <ele>34</ele>
        <time>2016-06-24T08:19:04Z</time>
      </trkpt>
      <trkpt lat="48.64933" lon="-2.34494">
        <ele>34</ele>
        <time>2016-06-24T08:19:07Z</time>
      </trkpt>
      <trkpt lat="48.64935" lon="-2.34489">
        <ele>34</ele>
        <time>2016-06-24T08:19:10Z</time>
      </trkpt>
      <trkpt lat="48.64936" lon="-2.34482">
        <ele>34</ele>
        <time>2016-06-24T08:19:13Z</time>
      </trkpt>
      <trkpt lat="48.64938" lon="-2.34476">
        <ele>34</ele>
        <time>2016-06-24T08:19:16Z</time>
      </trkpt>
      <trkpt lat="48.64939" lon="-2.3447">
        <ele>34</ele>
        <time>2016-06-24T08:19:19Z</time>
      </trkpt>
      <trkpt lat="48.64941" lon="-2.34464">
        <ele>34</ele>
        <time>2016-06-24T08:19:22Z</time>
      </trkpt>
      <trkpt lat="48.64943" lon="-2.34458">
        <ele>34</ele>
        <time>2016-06-24T08:19:25Z</time>
      </trkpt>
      <trkpt lat="48.64944" lon="-2.34452">
        <ele>34</ele>
        <time>2016-06-24T08:19:28Z</time>
      </trkpt>
      <trkpt lat="48.64946" lon="-2.34446">
        <ele>34</ele>
        <time>2016-06-24T08:19:31Z</time>
      </trkpt>
      <trkpt lat="48.64948" lon="-2.3444">
        <ele>34</ele>
        <time>2016-06-24T08:19:34Z</time>
      </trkpt>
      <trkpt lat="48.6495" lon="-2.34434">
        <ele>34</ele>
        <time>2016-06-24T08:19:37Z</time>
      </trkpt>
      <trkpt lat="48.64951" lon="-2.34428">
        <ele>34</ele>
        <time>2016-06-24T08:19:40Z</time>
      </trkpt>
      <trkpt lat="48.64953" lon="-2.34421">
        <ele>34</ele>
        <time>2016-06-24T08:19:43Z</time>
      </trkpt>
      <trkpt lat="48.64955" lon="-2.34415">
        <ele>34</ele>
        <time>2016-06-24T08:19:46Z</time>
      </trkpt>
      <trkpt lat="48.64957" lon="-2.34409">
        <ele>34</ele>
        <time>2016-06-24T08:19:49Z</time>
      </trkpt>
      <trkpt lat="48.64958" lon="-2.34403">
        <ele>34</ele>
        <time>2016-06-24T08:19:52Z</time>
      </trkpt>
      <trkpt lat="48.6496" lon="-2.34397">
        <ele>35</ele>
        <time>2016-06-24T08:19:55Z</time>
      </trkpt>
      <trkpt lat="48.64962" lon="-2.34391">
        <ele>35</ele>
        <time>2016-06-24T08:19:58Z</time>
      </trkpt>
      <trkpt lat="48.64963" lon="-2.34384">
        <ele>35</ele>
        <time>2016-06-24T08:20:01Z</time>
      </trkpt>
      <trkpt lat="48.64965" lon="-2.34378">
        <ele>35</ele>
        <time>2016-06-24T08:20:04Z</time>
      </trkpt>
      <trkpt lat="48.64967" lon="-2.34372">
        <ele>35</ele>
        <time>2016-06-24T08:20:07Z</time>
      </trkpt>
      <trkpt lat="48.64969" lon="-2.34365">
        <ele>35</ele>
        <time>2016-06-24T08:20:10Z</time>
      </trkpt>
      <trkpt lat="48.6497" lon="-2.34359">
        <ele>36</ele>
        <time>2016-06-24T08:20:14Z</time>
      </trkpt>
      <trkpt lat="48.64973" lon="-2.34351">
        <ele>36</ele>
        <time>2016-06-24T08:20:17Z</time>
      </trkpt>
      <trkpt lat="48.64974" lon="-2.34345">
        <ele>36</ele>
        <time>2016-06-24T08:20:20Z</time>
      </trkpt>
      <trkpt lat="48.64976" lon="-2.34339">
        <ele>36</ele>
        <time>2016-06-24T08:20:23Z</time>
      </trkpt>
      <trkpt lat="48.64978" lon="-2.34332">
        <ele>36</ele>
        <time>2016-06-24T08:20:26Z</time>
      </trkpt>
      <trkpt lat="48.6498" lon="-2.34326">
        <ele>36</ele>
        <time>2016-06-24T08:20:29Z</time>
      </trkpt>
      <trkpt lat="48.64981" lon="-2.3432">
        <ele>36</ele>
        <time>2016-06-24T08:20:32Z</time>
      </trkpt>
      <trkpt lat="48.64983" lon="-2.34314">
        <ele>36</ele>
        <time>2016-06-24T08:20:35Z</time>
      </trkpt>
      <trkpt lat="48.64984" lon="-2.34308">
        <ele>37</ele>
        <time>2016-06-24T08:20:38Z</time>
      </trkpt>
      <trkpt lat="48.64986" lon="-2.34301">
        <ele>37</ele>
        <time>2016-06-24T08:20:41Z</time>
      </trkpt>
      <trkpt lat="48.64988" lon="-2.34295">
        <ele>37</ele>
        <time>2016-06-24T08:20:44Z</time>
      </trkpt>
      <trkpt lat="48.64989" lon="-2.3429">
        <ele>37</ele>
        <time>2016-06-24T08:20:47Z</time>
      </trkpt>
      <trkpt lat="48.64991" lon="-2.34284">
        <ele>37</ele>
        <time>2016-06-24T08:20:50Z</time>
      </trkpt>
      <trkpt lat="48.64992" lon="-2.34278">
        <ele>37</ele>
        <time>2016-06-24T08:20:53Z</time>
      </trkpt>
      <trkpt lat="48.64994" lon="-2.34273">
        <ele>37</ele>
        <time>2016-06-24T08:20:56Z</time>
      </trkpt>
      <trkpt lat="48.64995" lon="-2.34266">
        <ele>37</ele>
        <time>2016-06-24T08:20:59Z</time>
      </trkpt>
      <trkpt lat="48.64997" lon="-2.3426">
        <ele>37</ele>
        <time>2016-06-24T08:21:02Z</time>
      </trkpt>
      <trkpt lat="48.64999" lon="-2.34254">
        <ele>38</ele>
        <time>2016-06-24T08:21:05Z</time>
      </trkpt>
      <trkpt lat="48.65001" lon="-2.34247">
        <ele>38</ele>
        <time>2016-06-24T08:21:08Z</time>
      </trkpt>
      <trkpt lat="48.65003" lon="-2.34241">
        <ele>38</ele>
        <time>2016-06-24T08:21:11Z</time>
      </trkpt>
      <trkpt lat="48.65004" lon="-2.34235">
        <ele>38</ele>
        <time>2016-06-24T08:21:14Z</time>
      </trkpt>
      <trkpt lat="48.65006" lon="-2.34228">
        <ele>38</ele>
        <time>2016-06-24T08:21:17Z</time>
      </trkpt>
      <trkpt lat="48.65008" lon="-2.34222">
        <ele>38</ele>
        <time>2016-06-24T08:21:20Z</time>
      </trkpt>
      <trkpt lat="48.65009" lon="-2.34215">
        <ele>38</ele>
        <time>2016-06-24T08:21:23Z</time>
      </trkpt>
      <trkpt lat="48.65011" lon="-2.34209">
        <ele>38</ele>
        <time>2016-06-24T08:21:26Z</time>
      </trkpt>
      <trkpt lat="48.65013" lon="-2.34203">
        <ele>38</ele>
        <time>2016-06-24T08:21:29Z</time>
      </trkpt>
      <trkpt lat="48.65014" lon="-2.34197">
        <ele>38</ele>
        <time>2016-06-24T08:21:32Z</time>
      </trkpt>
      <trkpt lat="48.65016" lon="-2.34191">
        <ele>38</ele>
        <time>2016-06-24T08:21:35Z</time>
      </trkpt>
      <trkpt lat="48.65018" lon="-2.34184">
        <ele>38</ele>
        <time>2016-06-24T08:21:38Z</time>
      </trkpt>
      <trkpt lat="48.65019" lon="-2.34178">
        <ele>38</ele>
        <time>2016-06-24T08:21:41Z</time>
      </trkpt>
      <trkpt lat="48.6502" lon="-2.34172">
        <ele>38</ele>
        <time>2016-06-24T08:21:44Z</time>
      </trkpt>
      <trkpt lat="48.65022" lon="-2.34166">
        <ele>38</ele>
        <time>2016-06-24T08:21:47Z</time>
      </trkpt>
      <trkpt lat="48.65023" lon="-2.34159">
        <ele>38</ele>
        <time>2016-06-24T08:21:50Z</time>
      </trkpt>
      <trkpt lat="48.65025" lon="-2.34153">
        <ele>38</ele>
        <time>2016-06-24T08:21:53Z</time>
      </trkpt>
      <trkpt lat="48.65027" lon="-2.34147">
        <ele>38</ele>
        <time>2016-06-24T08:21:56Z</time>
      </trkpt>
      <trkpt lat="48.65028" lon="-2.34141">
        <ele>38</ele>
        <time>2016-06-24T08:21:59Z</time>
      </trkpt>
      <trkpt lat="48.6503" lon="-2.34135">
        <ele>38</ele>
        <time>2016-06-24T08:22:02Z</time>
      </trkpt>
      <trkpt lat="48.65031" lon="-2.34129">
        <ele>38</ele>
        <time>2016-06-24T08:22:05Z</time>
      </trkpt>
      <trkpt lat="48.65033" lon="-2.34123">
        <ele>38</ele>
        <time>2016-06-24T08:22:08Z</time>
      </trkpt>
      <trkpt lat="48.65034" lon="-2.34117">
        <ele>38</ele>
        <time>2016-06-24T08:22:11Z</time>
      </trkpt>
      <trkpt lat="48.65035" lon="-2.34111">
        <ele>38</ele>
        <time>2016-06-24T08:22:14Z</time>
      </trkpt>
      <trkpt lat="48.65036" lon="-2.34105">
        <ele>38</ele>
        <time>2016-06-24T08:22:17Z</time>
      </trkpt>
      <trkpt lat="48.65038" lon="-2.34098">
        <ele>38</ele>
        <time>2016-06-24T08:22:20Z</time>
      </trkpt>
      <trkpt lat="48.65039" lon="-2.34092">
        <ele>38</ele>
        <time>2016-06-24T08:22:23Z</time>
      </trkpt>
      <trkpt lat="48.6504" lon="-2.34086">
        <ele>38</ele>
        <time>2016-06-24T08:22:26Z</time>
      </trkpt>
      <trkpt lat="48.65041" lon="-2.3408">
        <ele>38</ele>
        <time>2016-06-24T08:22:29Z</time>
      </trkpt>
      <trkpt lat="48.6504" lon="-2.34075">
        <ele>38</ele>
        <time>2016-06-24T08:22:32Z</time>
      </trkpt>
      <trkpt lat="48.65037" lon="-2.3407">
        <ele>38</ele>
        <time>2016-06-24T08:22:36Z</time>
      </trkpt>
      <trkpt lat="48.65033" lon="-2.34066">
        <ele>38</ele>
        <time>2016-06-24T08:22:40Z</time>
      </trkpt>
      <trkpt lat="48.6503" lon="-2.34062">
        <ele>38</ele>
        <time>2016-06-24T08:22:43Z</time>
      </trkpt>
      <trkpt lat="48.65025" lon="-2.34057">
        <ele>38</ele>
        <time>2016-06-24T08:22:47Z</time>
      </trkpt>
      <trkpt lat="48.65021" lon="-2.34052">
        <ele>38</ele>
        <time>2016-06-24T08:22:51Z</time>
      </trkpt>
      <trkpt lat="48.65017" lon="-2.34049">
        <ele>38</ele>
        <time>2016-06-24T08:22:54Z</time>
      </trkpt>
      <trkpt lat="48.65014" lon="-2.34045">
        <ele>38</ele>
        <time>2016-06-24T08:22:57Z</time>
      </trkpt>
      <trkpt lat="48.6501" lon="-2.34041">
        <ele>38</ele>
        <time>2016-06-24T08:23:00Z</time>
      </trkpt>
      <trkpt lat="48.65007" lon="-2.34037">
        <ele>38</ele>
        <time>2016-06-24T08:23:03Z</time>
      </trkpt>
      <trkpt lat="48.65003" lon="-2.34033">
        <ele>38</ele>
        <time>2016-06-24T08:23:06Z</time>
      </trkpt>
      <trkpt lat="48.64999" lon="-2.3403">
        <ele>38</ele>
        <time>2016-06-24T08:23:09Z</time>
      </trkpt>
      <trkpt lat="48.64996" lon="-2.34026">
        <ele>38</ele>
        <time>2016-06-24T08:23:12Z</time>
      </trkpt>
      <trkpt lat="48.64993" lon="-2.34022">
        <ele>38</ele>
        <time>2016-06-24T08:23:15Z</time>
      </trkpt>
      <trkpt lat="48.64989" lon="-2.34018">
        <ele>38</ele>
        <time>2016-06-24T08:23:18Z</time>
      </trkpt>
      <trkpt lat="48.64985" lon="-2.34015">
        <ele>38</ele>
        <time>2016-06-24T08:23:21Z</time>
      </trkpt>
      <trkpt lat="48.64981" lon="-2.34011">
        <ele>38</ele>
        <time>2016-06-24T08:23:24Z</time>
      </trkpt>
      <trkpt lat="48.64978" lon="-2.34007">
        <ele>38</ele>
        <time>2016-06-24T08:23:27Z</time>
      </trkpt>
      <trkpt lat="48.64973" lon="-2.34004">
        <ele>38</ele>
        <time>2016-06-24T08:23:30Z</time>
      </trkpt>
      <trkpt lat="48.6497" lon="-2.34">
        <ele>38</ele>
        <time>2016-06-24T08:23:33Z</time>
      </trkpt>
      <trkpt lat="48.64967" lon="-2.33996">
        <ele>38</ele>
        <time>2016-06-24T08:23:36Z</time>
      </trkpt>
      <trkpt lat="48.64962" lon="-2.3399">
        <ele>38</ele>
        <time>2016-06-24T08:23:40Z</time>
      </trkpt>
      <trkpt lat="48.64959" lon="-2.33986">
        <ele>38</ele>
        <time>2016-06-24T08:23:43Z</time>
      </trkpt>
      <trkpt lat="48.64954" lon="-2.33981">
        <ele>38</ele>
        <time>2016-06-24T08:23:47Z</time>
      </trkpt>
      <trkpt lat="48.64951" lon="-2.33977">
        <ele>38</ele>
        <time>2016-06-24T08:23:50Z</time>
      </trkpt>
      <trkpt lat="48.6495" lon="-2.33971">
        <ele>38</ele>
        <time>2016-06-24T08:23:53Z</time>
      </trkpt>
      <trkpt lat="48.64951" lon="-2.33965">
        <ele>38</ele>
        <time>2016-06-24T08:23:56Z</time>
      </trkpt>
      <trkpt lat="48.64953" lon="-2.3396">
        <ele>38</ele>
        <time>2016-06-24T08:23:59Z</time>
      </trkpt>
      <trkpt lat="48.64956" lon="-2.33954">
        <ele>38</ele>
        <time>2016-06-24T08:24:03Z</time>
      </trkpt>
      <trkpt lat="48.6496" lon="-2.33949">
        <ele>38</ele>
        <time>2016-06-24T08:24:07Z</time>
      </trkpt>
      <trkpt lat="48.64964" lon="-2.33946">
        <ele>38</ele>
        <time>2016-06-24T08:24:10Z</time>
      </trkpt>
      <trkpt lat="48.64968" lon="-2.33941">
        <ele>38</ele>
        <time>2016-06-24T08:24:14Z</time>
      </trkpt>
      <trkpt lat="48.64972" lon="-2.33935">
        <ele>38</ele>
        <time>2016-06-24T08:24:18Z</time>
      </trkpt>
      <trkpt lat="48.64974" lon="-2.3393">
        <ele>38</ele>
        <time>2016-06-24T08:24:21Z</time>
      </trkpt>
      <trkpt lat="48.64976" lon="-2.33924">
        <ele>38</ele>
        <time>2016-06-24T08:24:24Z</time>
      </trkpt>
      <trkpt lat="48.64978" lon="-2.33918">
        <ele>38</ele>
        <time>2016-06-24T08:24:27Z</time>
      </trkpt>
      <trkpt lat="48.6498" lon="-2.33912">
        <ele>38</ele>
        <time>2016-06-24T08:24:30Z</time>
      </trkpt>
      <trkpt lat="48.64982" lon="-2.33906">
        <ele>38</ele>
        <time>2016-06-24T08:24:33Z</time>
      </trkpt>
      <trkpt lat="48.64983" lon="-2.339">
        <ele>38</ele>
        <time>2016-06-24T08:24:36Z</time>
      </trkpt>
      <trkpt lat="48.64986" lon="-2.33891">
        <ele>38</ele>
        <time>2016-06-24T08:24:40Z</time>
      </trkpt>
      <trkpt lat="48.64987" lon="-2.33885">
        <ele>38</ele>
        <time>2016-06-24T08:24:43Z</time>
      </trkpt>
      <trkpt lat="48.64988" lon="-2.33878">
        <ele>38</ele>
        <time>2016-06-24T08:24:46Z</time>
      </trkpt>
      <trkpt lat="48.6499" lon="-2.33872">
        <ele>38</ele>
        <time>2016-06-24T08:24:49Z</time>
      </trkpt>
      <trkpt lat="48.64991" lon="-2.33866">
        <ele>38</ele>
        <time>2016-06-24T08:24:52Z</time>
      </trkpt>
      <trkpt lat="48.64992" lon="-2.33859">
        <ele>38</ele>
        <time>2016-06-24T08:24:55Z</time>
      </trkpt>
      <trkpt lat="48.64994" lon="-2.33853">
        <ele>38</ele>
        <time>2016-06-24T08:24:58Z</time>
      </trkpt>
      <trkpt lat="48.64995" lon="-2.33847">
        <ele>38</ele>
        <time>2016-06-24T08:25:01Z</time>
      </trkpt>
      <trkpt lat="48.64997" lon="-2.3384">
        <ele>38</ele>
        <time>2016-06-24T08:25:04Z</time>
      </trkpt>
      <trkpt lat="48.64998" lon="-2.33834">
        <ele>38</ele>
        <time>2016-06-24T08:25:07Z</time>
      </trkpt>
      <trkpt lat="48.64999" lon="-2.33827">
        <ele>38</ele>
        <time>2016-06-24T08:25:10Z</time>
      </trkpt>
      <trkpt lat="48.65001" lon="-2.33821">
        <ele>39</ele>
        <time>2016-06-24T08:25:13Z</time>
      </trkpt>
      <trkpt lat="48.65002" lon="-2.33815">
        <ele>39</ele>
        <time>2016-06-24T08:25:16Z</time>
      </trkpt>
      <trkpt lat="48.65004" lon="-2.33809">
        <ele>39</ele>
        <time>2016-06-24T08:25:19Z</time>
      </trkpt>
      <trkpt lat="48.65005" lon="-2.33802">
        <ele>39</ele>
        <time>2016-06-24T08:25:22Z</time>
      </trkpt>
      <trkpt lat="48.65006" lon="-2.33796">
        <ele>40</ele>
        <time>2016-06-24T08:25:25Z</time>
      </trkpt>
      <trkpt lat="48.65007" lon="-2.3379">
        <ele>40</ele>
        <time>2016-06-24T08:25:28Z</time>
      </trkpt>
      <trkpt lat="48.65009" lon="-2.33784">
        <ele>40</ele>
        <time>2016-06-24T08:25:31Z</time>
      </trkpt>
      <trkpt lat="48.6501" lon="-2.33778">
        <ele>40</ele>
        <time>2016-06-24T08:25:34Z</time>
      </trkpt>
      <trkpt lat="48.65011" lon="-2.33772">
        <ele>40</ele>
        <time>2016-06-24T08:25:37Z</time>
      </trkpt>
      <trkpt lat="48.65011" lon="-2.33765">
        <ele>40</ele>
        <time>2016-06-24T08:25:40Z</time>
      </trkpt>
      <trkpt lat="48.65012" lon="-2.33759">
        <ele>40</ele>
        <time>2016-06-24T08:25:43Z</time>
      </trkpt>
      <trkpt lat="48.65012" lon="-2.33752">
        <ele>40</ele>
        <time>2016-06-24T08:25:46Z</time>
      </trkpt>
      <trkpt lat="48.65012" lon="-2.33746">
        <ele>40</ele>
        <time>2016-06-24T08:25:49Z</time>
      </trkpt>
      <trkpt lat="48.65012" lon="-2.3374">
        <ele>40</ele>
        <time>2016-06-24T08:25:52Z</time>
      </trkpt>
      <trkpt lat="48.65012" lon="-2.33735">
        <ele>41</ele>
        <time>2016-06-24T08:25:55Z</time>
      </trkpt>
      <trkpt lat="48.65013" lon="-2.3373">
        <ele>41</ele>
        <time>2016-06-24T08:25:58Z</time>
      </trkpt>
      <trkpt lat="48.65013" lon="-2.33724">
        <ele>41</ele>
        <time>2016-06-24T08:26:01Z</time>
      </trkpt>
      <trkpt lat="48.65012" lon="-2.33719">
        <ele>41</ele>
        <time>2016-06-24T08:26:04Z</time>
      </trkpt>
      <trkpt lat="48.65011" lon="-2.33714">
        <ele>42</ele>
        <time>2016-06-24T08:26:08Z</time>
      </trkpt>
      <trkpt lat="48.65009" lon="-2.3371">
        <ele>42</ele>
        <time>2016-06-24T08:26:12Z</time>
      </trkpt>
      <trkpt lat="48.65004" lon="-2.33704">
        <ele>42</ele>
        <time>2016-06-24T08:26:16Z</time>
      </trkpt>
      <trkpt lat="48.65001" lon="-2.33701">
        <ele>42</ele>
        <time>2016-06-24T08:26:19Z</time>
      </trkpt>
      <trkpt lat="48.64998" lon="-2.33698">
        <ele>42</ele>
        <time>2016-06-24T08:26:22Z</time>
      </trkpt>
      <trkpt lat="48.64995" lon="-2.33695">
        <ele>42</ele>
        <time>2016-06-24T08:26:25Z</time>
      </trkpt>
      <trkpt lat="48.64992" lon="-2.33692">
        <ele>42</ele>
        <time>2016-06-24T08:26:28Z</time>
      </trkpt>
      <trkpt lat="48.64989" lon="-2.33689">
        <ele>42</ele>
        <time>2016-06-24T08:26:31Z</time>
      </trkpt>
      <trkpt lat="48.64986" lon="-2.33685">
        <ele>42</ele>
        <time>2016-06-24T08:26:34Z</time>
      </trkpt>
      <trkpt lat="48.64981" lon="-2.33679">
        <ele>42</ele>
        <time>2016-06-24T08:26:38Z</time>
      </trkpt>
      <trkpt lat="48.64978" lon="-2.33675">
        <ele>42</ele>
        <time>2016-06-24T08:26:41Z</time>
      </trkpt>
      <trkpt lat="48.64975" lon="-2.3367">
        <ele>42</ele>
        <time>2016-06-24T08:26:45Z</time>
      </trkpt>
      <trkpt lat="48.64971" lon="-2.33664">
        <ele>43</ele>
        <time>2016-06-24T08:26:49Z</time>
      </trkpt>
      <trkpt lat="48.64968" lon="-2.33661">
        <ele>43</ele>
        <time>2016-06-24T08:26:52Z</time>
      </trkpt>
      <trkpt lat="48.64964" lon="-2.33657">
        <ele>43</ele>
        <time>2016-06-24T08:26:55Z</time>
      </trkpt>
      <trkpt lat="48.64961" lon="-2.33652">
        <ele>43</ele>
        <time>2016-06-24T08:26:59Z</time>
      </trkpt>
      <trkpt lat="48.64958" lon="-2.33648">
        <ele>43</ele>
        <time>2016-06-24T08:27:03Z</time>
      </trkpt>
      <trkpt lat="48.64955" lon="-2.33645">
        <ele>43</ele>
        <time>2016-06-24T08:27:06Z</time>
      </trkpt>
      <trkpt lat="48.64951" lon="-2.3364">
        <ele>43</ele>
        <time>2016-06-24T08:27:10Z</time>
      </trkpt>
      <trkpt lat="48.64948" lon="-2.33636">
        <ele>43</ele>
        <time>2016-06-24T08:27:14Z</time>
      </trkpt>
      <trkpt lat="48.64944" lon="-2.33631">
        <ele>43</ele>
        <time>2016-06-24T08:27:18Z</time>
      </trkpt>
      <trkpt lat="48.64941" lon="-2.33629">
        <ele>43</ele>
        <time>2016-06-24T08:27:21Z</time>
      </trkpt>
      <trkpt lat="48.64936" lon="-2.33626">
        <ele>43</ele>
        <time>2016-06-24T08:27:25Z</time>
      </trkpt>
      <trkpt lat="48.64931" lon="-2.33624">
        <ele>43</ele>
        <time>2016-06-24T08:27:28Z</time>
      </trkpt>
      <trkpt lat="48.64926" lon="-2.33623">
        <ele>43</ele>
        <time>2016-06-24T08:27:31Z</time>
      </trkpt>
      <trkpt lat="48.6492" lon="-2.33623">
        <ele>43</ele>
        <time>2016-06-24T08:27:35Z</time>
      </trkpt>
      <trkpt lat="48.64915" lon="-2.33623">
        <ele>44</ele>
        <time>2016-06-24T08:27:38Z</time>
      </trkpt>
      <trkpt lat="48.6491" lon="-2.33626">
        <ele>45</ele>
        <time>2016-06-24T08:27:41Z</time>
      </trkpt>
      <trkpt lat="48.64906" lon="-2.33629">
        <ele>46</ele>
        <time>2016-06-24T08:27:44Z</time>
      </trkpt>
      <trkpt lat="48.64902" lon="-2.3363">
        <ele>46</ele>
        <time>2016-06-24T08:27:47Z</time>
      </trkpt>
      <trkpt lat="48.64899" lon="-2.33632">
        <ele>47</ele>
        <time>2016-06-24T08:27:50Z</time>
      </trkpt>
      <trkpt lat="48.64895" lon="-2.33634">
        <ele>47</ele>
        <time>2016-06-24T08:27:53Z</time>
      </trkpt>
      <trkpt lat="48.64891" lon="-2.33635">
        <ele>47</ele>
        <time>2016-06-24T08:27:56Z</time>
      </trkpt>
      <trkpt lat="48.64887" lon="-2.33638">
        <ele>47</ele>
        <time>2016-06-24T08:27:59Z</time>
      </trkpt>
      <trkpt lat="48.64884" lon="-2.33639">
        <ele>48</ele>
        <time>2016-06-24T08:28:02Z</time>
      </trkpt>
      <trkpt lat="48.64879" lon="-2.33642">
        <ele>49</ele>
        <time>2016-06-24T08:28:05Z</time>
      </trkpt>
      <trkpt lat="48.64876" lon="-2.33644">
        <ele>50</ele>
        <time>2016-06-24T08:28:08Z</time>
      </trkpt>
      <trkpt lat="48.64873" lon="-2.33644">
        <ele>50</ele>
        <time>2016-06-24T08:28:12Z</time>
      </trkpt>
      <trkpt lat="48.6487" lon="-2.33642">
        <ele>50</ele>
        <time>2016-06-24T08:28:15Z</time>
      </trkpt>
      <trkpt lat="48.64866" lon="-2.33639">
        <ele>50</ele>
        <time>2016-06-24T08:28:18Z</time>
      </trkpt>
      <trkpt lat="48.64862" lon="-2.33636">
        <ele>50</ele>
        <time>2016-06-24T08:28:21Z</time>
      </trkpt>
      <trkpt lat="48.64859" lon="-2.33633">
        <ele>50</ele>
        <time>2016-06-24T08:28:24Z</time>
      </trkpt>
      <trkpt lat="48.64855" lon="-2.33628">
        <ele>50</ele>
        <time>2016-06-24T08:28:28Z</time>
      </trkpt>
      <trkpt lat="48.64851" lon="-2.33623">
        <ele>50</ele>
        <time>2016-06-24T08:28:32Z</time>
      </trkpt>
      <trkpt lat="48.64847" lon="-2.33618">
        <ele>50</ele>
        <time>2016-06-24T08:28:36Z</time>
      </trkpt>
      <trkpt lat="48.64843" lon="-2.33613">
        <ele>50</ele>
        <time>2016-06-24T08:28:40Z</time>
      </trkpt>
      <trkpt lat="48.64839" lon="-2.3361">
        <ele>50</ele>
        <time>2016-06-24T08:28:43Z</time>
      </trkpt>
      <trkpt lat="48.64836" lon="-2.33607">
        <ele>50</ele>
        <time>2016-06-24T08:28:46Z</time>
      </trkpt>
      <trkpt lat="48.64832" lon="-2.33604">
        <ele>50</ele>
        <time>2016-06-24T08:28:49Z</time>
      </trkpt>
      <trkpt lat="48.64829" lon="-2.336">
        <ele>50</ele>
        <time>2016-06-24T08:28:52Z</time>
      </trkpt>
      <trkpt lat="48.64825" lon="-2.33598">
        <ele>50</ele>
        <time>2016-06-24T08:28:55Z</time>
      </trkpt>
      <trkpt lat="48.64822" lon="-2.33595">
        <ele>50</ele>
        <time>2016-06-24T08:28:58Z</time>
      </trkpt>
      <trkpt lat="48.64818" lon="-2.33592">
        <ele>50</ele>
        <time>2016-06-24T08:29:01Z</time>
      </trkpt>
      <trkpt lat="48.64815" lon="-2.3359">
        <ele>50</ele>
        <time>2016-06-24T08:29:04Z</time>
      </trkpt>
      <trkpt lat="48.64811" lon="-2.33588">
        <ele>50</ele>
        <time>2016-06-24T08:29:07Z</time>
      </trkpt>
      <trkpt lat="48.64808" lon="-2.33587">
        <ele>50</ele>
        <time>2016-06-24T08:29:10Z</time>
      </trkpt>
      <trkpt lat="48.64804" lon="-2.33585">
        <ele>50</ele>
        <time>2016-06-24T08:29:14Z</time>
      </trkpt>
      <trkpt lat="48.64803" lon="-2.33583">
        <ele>50</ele>
        <time>2016-06-24T08:29:18Z</time>
      </trkpt>
      <trkpt lat="48.64799" lon="-2.3358">
        <ele>50</ele>
        <time>2016-06-24T08:29:21Z</time>
      </trkpt>
      <trkpt lat="48.64796" lon="-2.33577">
        <ele>50</ele>
        <time>2016-06-24T08:29:24Z</time>
      </trkpt>
      <trkpt lat="48.64792" lon="-2.33574">
        <ele>50</ele>
        <time>2016-06-24T08:29:28Z</time>
      </trkpt>
      <trkpt lat="48.64788" lon="-2.33572">
        <ele>50</ele>
        <time>2016-06-24T08:29:32Z</time>
      </trkpt>
      <trkpt lat="48.64785" lon="-2.3357">
        <ele>50</ele>
        <time>2016-06-24T08:29:35Z</time>
      </trkpt>
      <trkpt lat="48.6478" lon="-2.33566">
        <ele>50</ele>
        <time>2016-06-24T08:29:39Z</time>
      </trkpt>
      <trkpt lat="48.64777" lon="-2.33564">
        <ele>50</ele>
        <time>2016-06-24T08:29:42Z</time>
      </trkpt>
      <trkpt lat="48.64774" lon="-2.33563">
        <ele>50</ele>
        <time>2016-06-24T08:29:45Z</time>
      </trkpt>
      <trkpt lat="48.64769" lon="-2.3356">
        <ele>50</ele>
        <time>2016-06-24T08:29:49Z</time>
      </trkpt>
      <trkpt lat="48.64766" lon="-2.33559">
        <ele>50</ele>
        <time>2016-06-24T08:29:52Z</time>
      </trkpt>
      <trkpt lat="48.64762" lon="-2.33558">
        <ele>50</ele>
        <time>2016-06-24T08:29:55Z</time>
      </trkpt>
      <trkpt lat="48.64758" lon="-2.33558">
        <ele>50</ele>
        <time>2016-06-24T08:29:58Z</time>
      </trkpt>
      <trkpt lat="48.64754" lon="-2.33557">
        <ele>50</ele>
        <time>2016-06-24T08:30:01Z</time>
      </trkpt>
      <trkpt lat="48.64751" lon="-2.33557">
        <ele>50</ele>
        <time>2016-06-24T08:30:04Z</time>
      </trkpt>
      <trkpt lat="48.64747" lon="-2.33556">
        <ele>50</ele>
        <time>2016-06-24T08:30:07Z</time>
      </trkpt>
      <trkpt lat="48.64743" lon="-2.33556">
        <ele>50</ele>
        <time>2016-06-24T08:30:10Z</time>
      </trkpt>
      <trkpt lat="48.64737" lon="-2.33554">
        <ele>50</ele>
        <time>2016-06-24T08:30:14Z</time>
      </trkpt>
      <trkpt lat="48.64733" lon="-2.33552">
        <ele>50</ele>
        <time>2016-06-24T08:30:17Z</time>
      </trkpt>
      <trkpt lat="48.6473" lon="-2.33551">
        <ele>50</ele>
        <time>2016-06-24T08:30:20Z</time>
      </trkpt>
      <trkpt lat="48.64725" lon="-2.3355">
        <ele>50</ele>
        <time>2016-06-24T08:30:23Z</time>
      </trkpt>
      <trkpt lat="48.64721" lon="-2.33548">
        <ele>50</ele>
        <time>2016-06-24T08:30:26Z</time>
      </trkpt>
      <trkpt lat="48.64717" lon="-2.33546">
        <ele>50</ele>
        <time>2016-06-24T08:30:29Z</time>
      </trkpt>
      <trkpt lat="48.64713" lon="-2.33544">
        <ele>50</ele>
        <time>2016-06-24T08:30:32Z</time>
      </trkpt>
      <trkpt lat="48.64709" lon="-2.33542">
        <ele>50</ele>
        <time>2016-06-24T08:30:35Z</time>
      </trkpt>
      <trkpt lat="48.64705" lon="-2.3354">
        <ele>50</ele>
        <time>2016-06-24T08:30:38Z</time>
      </trkpt>
      <trkpt lat="48.64701" lon="-2.33538">
        <ele>50</ele>
        <time>2016-06-24T08:30:41Z</time>
      </trkpt>
      <trkpt lat="48.64697" lon="-2.33536">
        <ele>50</ele>
        <time>2016-06-24T08:30:44Z</time>
      </trkpt>
      <trkpt lat="48.64693" lon="-2.33533">
        <ele>50</ele>
        <time>2016-06-24T08:30:47Z</time>
      </trkpt>
      <trkpt lat="48.6469" lon="-2.3353">
        <ele>50</ele>
        <time>2016-06-24T08:30:50Z</time>
      </trkpt>
      <trkpt lat="48.64686" lon="-2.33528">
        <ele>50</ele>
        <time>2016-06-24T08:30:53Z</time>
      </trkpt>
      <trkpt lat="48.64682" lon="-2.33526">
        <ele>50</ele>
        <time>2016-06-24T08:30:56Z</time>
      </trkpt>
      <trkpt lat="48.64678" lon="-2.33524">
        <ele>50</ele>
        <time>2016-06-24T08:30:59Z</time>
      </trkpt>
      <trkpt lat="48.64675" lon="-2.3352">
        <ele>50</ele>
        <time>2016-06-24T08:31:02Z</time>
      </trkpt>
      <trkpt lat="48.64671" lon="-2.33517">
        <ele>50</ele>
        <time>2016-06-24T08:31:05Z</time>
      </trkpt>
      <trkpt lat="48.64667" lon="-2.33514">
        <ele>50</ele>
        <time>2016-06-24T08:31:08Z</time>
      </trkpt>
      <trkpt lat="48.64663" lon="-2.3351">
        <ele>50</ele>
        <time>2016-06-24T08:31:11Z</time>
      </trkpt>
      <trkpt lat="48.6466" lon="-2.33506">
        <ele>50</ele>
        <time>2016-06-24T08:31:14Z</time>
      </trkpt>
      <trkpt lat="48.64657" lon="-2.33502">
        <ele>50</ele>
        <time>2016-06-24T08:31:17Z</time>
      </trkpt>
      <trkpt lat="48.64653" lon="-2.33498">
        <ele>50</ele>
        <time>2016-06-24T08:31:20Z</time>
      </trkpt>
      <trkpt lat="48.6465" lon="-2.33494">
        <ele>50</ele>
        <time>2016-06-24T08:31:23Z</time>
      </trkpt>
      <trkpt lat="48.64647" lon="-2.3349">
        <ele>50</ele>
        <time>2016-06-24T08:31:26Z</time>
      </trkpt>
      <trkpt lat="48.64644" lon="-2.33487">
        <ele>50</ele>
        <time>2016-06-24T08:31:30Z</time>
      </trkpt>
      <trkpt lat="48.64641" lon="-2.33484">
        <ele>50</ele>
        <time>2016-06-24T08:31:34Z</time>
      </trkpt>
      <trkpt lat="48.64639" lon="-2.3348">
        <ele>50</ele>
        <time>2016-06-24T08:31:38Z</time>
      </trkpt>
      <trkpt lat="48.64636" lon="-2.33477">
        <ele>50</ele>
        <time>2016-06-24T08:31:47Z</time>
      </trkpt>
      <trkpt lat="48.64634" lon="-2.33476">
        <ele>52</ele>
        <time>2016-06-24T08:32:00Z</time>
      </trkpt>
      <trkpt lat="48.64631" lon="-2.33471">
        <ele>52</ele>
        <time>2016-06-24T08:32:04Z</time>
      </trkpt>
      <trkpt lat="48.64628" lon="-2.33467">
        <ele>52</ele>
        <time>2016-06-24T08:32:07Z</time>
      </trkpt>
      <trkpt lat="48.64624" lon="-2.33463">
        <ele>52</ele>
        <time>2016-06-24T08:32:10Z</time>
      </trkpt>
      <trkpt lat="48.64621" lon="-2.33458">
        <ele>52</ele>
        <time>2016-06-24T08:32:13Z</time>
      </trkpt>
      <trkpt lat="48.64617" lon="-2.33452">
        <ele>52</ele>
        <time>2016-06-24T08:32:17Z</time>
      </trkpt>
      <trkpt lat="48.64614" lon="-2.33448">
        <ele>52</ele>
        <time>2016-06-24T08:32:20Z</time>
      </trkpt>
      <trkpt lat="48.6461" lon="-2.33443">
        <ele>52</ele>
        <time>2016-06-24T08:32:23Z</time>
      </trkpt>
      <trkpt lat="48.64606" lon="-2.33438">
        <ele>52</ele>
        <time>2016-06-24T08:32:27Z</time>
      </trkpt>
      <trkpt lat="48.64602" lon="-2.33433">
        <ele>52</ele>
        <time>2016-06-24T08:32:30Z</time>
      </trkpt>
      <trkpt lat="48.64599" lon="-2.33429">
        <ele>52</ele>
        <time>2016-06-24T08:32:33Z</time>
      </trkpt>
      <trkpt lat="48.64595" lon="-2.33423">
        <ele>52</ele>
        <time>2016-06-24T08:32:37Z</time>
      </trkpt>
      <trkpt lat="48.64592" lon="-2.33419">
        <ele>52</ele>
        <time>2016-06-24T08:32:40Z</time>
      </trkpt>
      <trkpt lat="48.64588" lon="-2.33415">
        <ele>52</ele>
        <time>2016-06-24T08:32:43Z</time>
      </trkpt>
      <trkpt lat="48.64585" lon="-2.33411">
        <ele>52</ele>
        <time>2016-06-24T08:32:46Z</time>
      </trkpt>
      <trkpt lat="48.64581" lon="-2.33407">
        <ele>52</ele>
        <time>2016-06-24T08:32:49Z</time>
      </trkpt>
      <trkpt lat="48.64577" lon="-2.33402">
        <ele>52</ele>
        <time>2016-06-24T08:32:52Z</time>
      </trkpt>
      <trkpt lat="48.64573" lon="-2.33399">
        <ele>52</ele>
        <time>2016-06-24T08:32:55Z</time>
      </trkpt>
      <trkpt lat="48.64569" lon="-2.33396">
        <ele>52</ele>
        <time>2016-06-24T08:32:58Z</time>
      </trkpt>
      <trkpt lat="48.64566" lon="-2.33391">
        <ele>52</ele>
        <time>2016-06-24T08:33:02Z</time>
      </trkpt>
      <trkpt lat="48.64562" lon="-2.33388">
        <ele>52</ele>
        <time>2016-06-24T08:33:05Z</time>
      </trkpt>
      <trkpt lat="48.64559" lon="-2.33383">
        <ele>52</ele>
        <time>2016-06-24T08:33:09Z</time>
      </trkpt>
      <trkpt lat="48.64555" lon="-2.3338">
        <ele>52</ele>
        <time>2016-06-24T08:33:13Z</time>
      </trkpt>
      <trkpt lat="48.64552" lon="-2.33376">
        <ele>52</ele>
        <time>2016-06-24T08:33:16Z</time>
      </trkpt>
      <trkpt lat="48.64549" lon="-2.33373">
        <ele>52</ele>
        <time>2016-06-24T08:33:19Z</time>
      </trkpt>
      <trkpt lat="48.64545" lon="-2.33369">
        <ele>52</ele>
        <time>2016-06-24T08:33:22Z</time>
      </trkpt>
      <trkpt lat="48.64542" lon="-2.33365">
        <ele>52</ele>
        <time>2016-06-24T08:33:25Z</time>
      </trkpt>
      <trkpt lat="48.64539" lon="-2.33362">
        <ele>52</ele>
        <time>2016-06-24T08:33:28Z</time>
      </trkpt>
      <trkpt lat="48.64535" lon="-2.33358">
        <ele>52</ele>
        <time>2016-06-24T08:33:31Z</time>
      </trkpt>
      <trkpt lat="48.64532" lon="-2.33354">
        <ele>52</ele>
        <time>2016-06-24T08:33:34Z</time>
      </trkpt>
      <trkpt lat="48.64527" lon="-2.33349">
        <ele>52</ele>
        <time>2016-06-24T08:33:38Z</time>
      </trkpt>
      <trkpt lat="48.64523" lon="-2.33343">
        <ele>52</ele>
        <time>2016-06-24T08:33:42Z</time>
      </trkpt>
      <trkpt lat="48.64523" lon="-2.33341">
        <ele>52</ele>
        <time>2016-06-24T08:33:46Z</time>
      </trkpt>
      <trkpt lat="48.64522" lon="-2.3334">
        <ele>52</ele>
        <time>2016-06-24T08:33:53Z</time>
      </trkpt>
      <trkpt lat="48.64519" lon="-2.33335">
        <ele>52</ele>
        <time>2016-06-24T08:33:57Z</time>
      </trkpt>
      <trkpt lat="48.64515" lon="-2.3333">
        <ele>52</ele>
        <time>2016-06-24T08:34:01Z</time>
      </trkpt>
      <trkpt lat="48.64512" lon="-2.33326">
        <ele>52</ele>
        <time>2016-06-24T08:34:04Z</time>
      </trkpt>
      <trkpt lat="48.64509" lon="-2.33321">
        <ele>52</ele>
        <time>2016-06-24T08:34:07Z</time>
      </trkpt>
      <trkpt lat="48.64507" lon="-2.33316">
        <ele>52</ele>
        <time>2016-06-24T08:34:10Z</time>
      </trkpt>
      <trkpt lat="48.64504" lon="-2.33311">
        <ele>52</ele>
        <time>2016-06-24T08:34:13Z</time>
      </trkpt>
      <trkpt lat="48.64502" lon="-2.33306">
        <ele>52</ele>
        <time>2016-06-24T08:34:16Z</time>
      </trkpt>
      <trkpt lat="48.64499" lon="-2.33301">
        <ele>52</ele>
        <time>2016-06-24T08:34:20Z</time>
      </trkpt>
      <trkpt lat="48.64495" lon="-2.33297">
        <ele>52</ele>
        <time>2016-06-24T08:34:24Z</time>
      </trkpt>
      <trkpt lat="48.64492" lon="-2.33294">
        <ele>52</ele>
        <time>2016-06-24T08:34:27Z</time>
      </trkpt>
      <trkpt lat="48.64489" lon="-2.33292">
        <ele>52</ele>
        <time>2016-06-24T08:34:31Z</time>
      </trkpt>
      <trkpt lat="48.64487" lon="-2.33287">
        <ele>52</ele>
        <time>2016-06-24T08:34:34Z</time>
      </trkpt>
      <trkpt lat="48.64486" lon="-2.33282">
        <ele>52</ele>
        <time>2016-06-24T08:34:37Z</time>
      </trkpt>
      <trkpt lat="48.64483" lon="-2.33275">
        <ele>52</ele>
        <time>2016-06-24T08:34:41Z</time>
      </trkpt>
      <trkpt lat="48.64481" lon="-2.3327">
        <ele>52</ele>
        <time>2016-06-24T08:34:45Z</time>
      </trkpt>
      <trkpt lat="48.64479" lon="-2.33264">
        <ele>52</ele>
        <time>2016-06-24T08:34:49Z</time>
      </trkpt>
      <trkpt lat="48.64478" lon="-2.3326">
        <ele>52</ele>
        <time>2016-06-24T08:34:54Z</time>
      </trkpt>
      <trkpt lat="48.64477" lon="-2.33258">
        <ele>52</ele>
        <time>2016-06-24T08:35:07Z</time>
      </trkpt>
      <trkpt lat="48.64477" lon="-2.33254">
        <ele>52</ele>
        <time>2016-06-24T08:35:34Z</time>
      </trkpt>
      <trkpt lat="48.64479" lon="-2.33252">
        <ele>52</ele>
        <time>2016-06-24T08:35:37Z</time>
      </trkpt>
      <trkpt lat="48.6448" lon="-2.33249">
        <ele>52</ele>
        <time>2016-06-24T08:36:04Z</time>
      </trkpt>
      <trkpt lat="48.64481" lon="-2.33247">
        <ele>52</ele>
        <time>2016-06-24T08:36:22Z</time>
      </trkpt>
      <trkpt lat="48.64483" lon="-2.33242">
        <ele>52</ele>
        <time>2016-06-24T08:36:26Z</time>
      </trkpt>
      <trkpt lat="48.64485" lon="-2.33237">
        <ele>52</ele>
        <time>2016-06-24T08:36:29Z</time>
      </trkpt>
      <trkpt lat="48.64487" lon="-2.33232">
        <ele>52</ele>
        <time>2016-06-24T08:36:32Z</time>
      </trkpt>
      <trkpt lat="48.64491" lon="-2.33227">
        <ele>52</ele>
        <time>2016-06-24T08:36:36Z</time>
      </trkpt>
      <trkpt lat="48.64494" lon="-2.33222">
        <ele>52</ele>
        <time>2016-06-24T08:36:40Z</time>
      </trkpt>
      <trkpt lat="48.64498" lon="-2.33217">
        <ele>52</ele>
        <time>2016-06-24T08:36:44Z</time>
      </trkpt>
      <trkpt lat="48.64501" lon="-2.33215">
        <ele>52</ele>
        <time>2016-06-24T08:36:58Z</time>
      </trkpt>
      <trkpt lat="48.64502" lon="-2.33214">
        <ele>52</ele>
        <time>2016-06-24T08:37:04Z</time>
      </trkpt>
      <trkpt lat="48.64502" lon="-2.33212">
        <ele>52</ele>
        <time>2016-06-24T08:37:12Z</time>
      </trkpt>
      <trkpt lat="48.64504" lon="-2.33206">
        <ele>52</ele>
        <time>2016-06-24T08:37:15Z</time>
      </trkpt>
      <trkpt lat="48.64507" lon="-2.33201">
        <ele>52</ele>
        <time>2016-06-24T08:37:18Z</time>
      </trkpt>
      <trkpt lat="48.6451" lon="-2.33195">
        <ele>52</ele>
        <time>2016-06-24T08:37:21Z</time>
      </trkpt>
      <trkpt lat="48.64513" lon="-2.33191">
        <ele>52</ele>
        <time>2016-06-24T08:37:24Z</time>
      </trkpt>
      <trkpt lat="48.64516" lon="-2.33186">
        <ele>52</ele>
        <time>2016-06-24T08:37:27Z</time>
      </trkpt>
      <trkpt lat="48.64518" lon="-2.3318">
        <ele>52</ele>
        <time>2016-06-24T08:37:30Z</time>
      </trkpt>
      <trkpt lat="48.64521" lon="-2.33175">
        <ele>52</ele>
        <time>2016-06-24T08:37:33Z</time>
      </trkpt>
      <trkpt lat="48.64524" lon="-2.3317">
        <ele>52</ele>
        <time>2016-06-24T08:37:36Z</time>
      </trkpt>
      <trkpt lat="48.64526" lon="-2.33164">
        <ele>52</ele>
        <time>2016-06-24T08:37:39Z</time>
      </trkpt>
      <trkpt lat="48.6453" lon="-2.33157">
        <ele>52</ele>
        <time>2016-06-24T08:37:43Z</time>
      </trkpt>
      <trkpt lat="48.64532" lon="-2.33151">
        <ele>52</ele>
        <time>2016-06-24T08:37:46Z</time>
      </trkpt>
      <trkpt lat="48.64535" lon="-2.33145">
        <ele>52</ele>
        <time>2016-06-24T08:37:49Z</time>
      </trkpt>
      <trkpt lat="48.64537" lon="-2.3314">
        <ele>52</ele>
        <time>2016-06-24T08:37:52Z</time>
      </trkpt>
      <trkpt lat="48.6454" lon="-2.33135">
        <ele>52</ele>
        <time>2016-06-24T08:37:55Z</time>
      </trkpt>
      <trkpt lat="48.64544" lon="-2.33128">
        <ele>52</ele>
        <time>2016-06-24T08:37:59Z</time>
      </trkpt>
      <trkpt lat="48.64546" lon="-2.33123">
        <ele>52</ele>
        <time>2016-06-24T08:38:02Z</time>
      </trkpt>
      <trkpt lat="48.6455" lon="-2.33117">
        <ele>52</ele>
        <time>2016-06-24T08:38:06Z</time>
      </trkpt>
      <trkpt lat="48.64552" lon="-2.33112">
        <ele>52</ele>
        <time>2016-06-24T08:38:09Z</time>
      </trkpt>
      <trkpt lat="48.64554" lon="-2.33106">
        <ele>52</ele>
        <time>2016-06-24T08:38:12Z</time>
      </trkpt>
      <trkpt lat="48.64555" lon="-2.331">
        <ele>52</ele>
        <time>2016-06-24T08:38:15Z</time>
      </trkpt>
      <trkpt lat="48.64556" lon="-2.33094">
        <ele>52</ele>
        <time>2016-06-24T08:38:18Z</time>
      </trkpt>
      <trkpt lat="48.64558" lon="-2.33088">
        <ele>52</ele>
        <time>2016-06-24T08:38:21Z</time>
      </trkpt>
      <trkpt lat="48.6456" lon="-2.33083">
        <ele>52</ele>
        <time>2016-06-24T08:38:24Z</time>
      </trkpt>
      <trkpt lat="48.64561" lon="-2.33077">
        <ele>52</ele>
        <time>2016-06-24T08:38:27Z</time>
      </trkpt>
      <trkpt lat="48.64561" lon="-2.33071">
        <ele>52</ele>
        <time>2016-06-24T08:38:30Z</time>
      </trkpt>
      <trkpt lat="48.64563" lon="-2.33064">
        <ele>52</ele>
        <time>2016-06-24T08:38:34Z</time>
      </trkpt>
      <trkpt lat="48.64563" lon="-2.33057">
        <ele>52</ele>
        <time>2016-06-24T08:38:37Z</time>
      </trkpt>
      <trkpt lat="48.64563" lon="-2.33051">
        <ele>52</ele>
        <time>2016-06-24T08:38:40Z</time>
      </trkpt>
      <trkpt lat="48.64564" lon="-2.33046">
        <ele>52</ele>
        <time>2016-06-24T08:38:43Z</time>
      </trkpt>
      <trkpt lat="48.64565" lon="-2.33041">
        <ele>52</ele>
        <time>2016-06-24T08:38:46Z</time>
      </trkpt>
      <trkpt lat="48.64565" lon="-2.33036">
        <ele>52</ele>
        <time>2016-06-24T08:38:49Z</time>
      </trkpt>
      <trkpt lat="48.64565" lon="-2.33029">
        <ele>52</ele>
        <time>2016-06-24T08:38:52Z</time>
      </trkpt>
      <trkpt lat="48.64566" lon="-2.33021">
        <ele>52</ele>
        <time>2016-06-24T08:38:55Z</time>
      </trkpt>
      <trkpt lat="48.64566" lon="-2.33013">
        <ele>52</ele>
        <time>2016-06-24T08:38:58Z</time>
      </trkpt>
      <trkpt lat="48.64568" lon="-2.33008">
        <ele>52</ele>
        <time>2016-06-24T08:39:01Z</time>
      </trkpt>
      <trkpt lat="48.64569" lon="-2.33002">
        <ele>52</ele>
        <time>2016-06-24T08:39:04Z</time>
      </trkpt>
      <trkpt lat="48.6457" lon="-2.32997">
        <ele>52</ele>
        <time>2016-06-24T08:39:07Z</time>
      </trkpt>
      <trkpt lat="48.64571" lon="-2.32991">
        <ele>52</ele>
        <time>2016-06-24T08:39:10Z</time>
      </trkpt>
      <trkpt lat="48.64572" lon="-2.32985">
        <ele>52</ele>
        <time>2016-06-24T08:39:13Z</time>
      </trkpt>
      <trkpt lat="48.64573" lon="-2.32979">
        <ele>52</ele>
        <time>2016-06-24T08:39:16Z</time>
      </trkpt>
      <trkpt lat="48.64573" lon="-2.32973">
        <ele>52</ele>
        <time>2016-06-24T08:39:19Z</time>
      </trkpt>
      <trkpt lat="48.64573" lon="-2.32967">
        <ele>52</ele>
        <time>2016-06-24T08:39:22Z</time>
      </trkpt>
      <trkpt lat="48.64573" lon="-2.32961">
        <ele>52</ele>
        <time>2016-06-24T08:39:26Z</time>
      </trkpt>
      <trkpt lat="48.64572" lon="-2.32954">
        <ele>52</ele>
        <time>2016-06-24T08:39:29Z</time>
      </trkpt>
      <trkpt lat="48.64573" lon="-2.32948">
        <ele>52</ele>
        <time>2016-06-24T08:39:32Z</time>
      </trkpt>
      <trkpt lat="48.64573" lon="-2.32943">
        <ele>52</ele>
        <time>2016-06-24T08:39:35Z</time>
      </trkpt>
      <trkpt lat="48.64573" lon="-2.32938">
        <ele>52</ele>
        <time>2016-06-24T08:39:38Z</time>
      </trkpt>
      <trkpt lat="48.64572" lon="-2.32932">
        <ele>52</ele>
        <time>2016-06-24T08:39:41Z</time>
      </trkpt>
      <trkpt lat="48.64572" lon="-2.32925">
        <ele>52</ele>
        <time>2016-06-24T08:39:44Z</time>
      </trkpt>
      <trkpt lat="48.64571" lon="-2.32919">
        <ele>52</ele>
        <time>2016-06-24T08:39:47Z</time>
      </trkpt>
      <trkpt lat="48.64572" lon="-2.32913">
        <ele>52</ele>
        <time>2016-06-24T08:39:50Z</time>
      </trkpt>
      <trkpt lat="48.64573" lon="-2.32907">
        <ele>52</ele>
        <time>2016-06-24T08:39:53Z</time>
      </trkpt>
      <trkpt lat="48.64573" lon="-2.32901">
        <ele>52</ele>
        <time>2016-06-24T08:39:56Z</time>
      </trkpt>
      <trkpt lat="48.64572" lon="-2.32894">
        <ele>52</ele>
        <time>2016-06-24T08:39:59Z</time>
      </trkpt>
      <trkpt lat="48.64571" lon="-2.32887">
        <ele>52</ele>
        <time>2016-06-24T08:40:02Z</time>
      </trkpt>
      <trkpt lat="48.64571" lon="-2.3288">
        <ele>52</ele>
        <time>2016-06-24T08:40:05Z</time>
      </trkpt>
      <trkpt lat="48.64569" lon="-2.32874">
        <ele>52</ele>
        <time>2016-06-24T08:40:08Z</time>
      </trkpt>
      <trkpt lat="48.64569" lon="-2.32868">
        <ele>52</ele>
        <time>2016-06-24T08:40:11Z</time>
      </trkpt>
      <trkpt lat="48.64568" lon="-2.32862">
        <ele>52</ele>
        <time>2016-06-24T08:40:14Z</time>
      </trkpt>
      <trkpt lat="48.64567" lon="-2.32856">
        <ele>52</ele>
        <time>2016-06-24T08:40:17Z</time>
      </trkpt>
      <trkpt lat="48.64567" lon="-2.32849">
        <ele>52</ele>
        <time>2016-06-24T08:40:20Z</time>
      </trkpt>
      <trkpt lat="48.64567" lon="-2.32842">
        <ele>52</ele>
        <time>2016-06-24T08:40:23Z</time>
      </trkpt>
      <trkpt lat="48.64567" lon="-2.32836">
        <ele>52</ele>
        <time>2016-06-24T08:40:26Z</time>
      </trkpt>
      <trkpt lat="48.64566" lon="-2.32829">
        <ele>52</ele>
        <time>2016-06-24T08:40:29Z</time>
      </trkpt>
      <trkpt lat="48.64565" lon="-2.32822">
        <ele>52</ele>
        <time>2016-06-24T08:40:32Z</time>
      </trkpt>
      <trkpt lat="48.64566" lon="-2.32815">
        <ele>52</ele>
        <time>2016-06-24T08:40:35Z</time>
      </trkpt>
      <trkpt lat="48.64566" lon="-2.32808">
        <ele>52</ele>
        <time>2016-06-24T08:40:38Z</time>
      </trkpt>
      <trkpt lat="48.64565" lon="-2.32801">
        <ele>52</ele>
        <time>2016-06-24T08:40:41Z</time>
      </trkpt>
      <trkpt lat="48.64564" lon="-2.32793">
        <ele>52</ele>
        <time>2016-06-24T08:40:44Z</time>
      </trkpt>
      <trkpt lat="48.64564" lon="-2.32786">
        <ele>52</ele>
        <time>2016-06-24T08:40:47Z</time>
      </trkpt>
      <trkpt lat="48.64565" lon="-2.3278">
        <ele>52</ele>
        <time>2016-06-24T08:40:50Z</time>
      </trkpt>
      <trkpt lat="48.64566" lon="-2.32774">
        <ele>52</ele>
        <time>2016-06-24T08:40:53Z</time>
      </trkpt>
      <trkpt lat="48.64566" lon="-2.32768">
        <ele>52</ele>
        <time>2016-06-24T08:40:56Z</time>
      </trkpt>
      <trkpt lat="48.64566" lon="-2.32761">
        <ele>52</ele>
        <time>2016-06-24T08:40:59Z</time>
      </trkpt>
      <trkpt lat="48.64566" lon="-2.32754">
        <ele>52</ele>
        <time>2016-06-24T08:41:02Z</time>
      </trkpt>
      <trkpt lat="48.64566" lon="-2.32748">
        <ele>52</ele>
        <time>2016-06-24T08:41:05Z</time>
      </trkpt>
      <trkpt lat="48.64565" lon="-2.3274">
        <ele>52</ele>
        <time>2016-06-24T08:41:08Z</time>
      </trkpt>
      <trkpt lat="48.64564" lon="-2.32732">
        <ele>52</ele>
        <time>2016-06-24T08:41:11Z</time>
      </trkpt>
      <trkpt lat="48.64563" lon="-2.32725">
        <ele>52</ele>
        <time>2016-06-24T08:41:14Z</time>
      </trkpt>
      <trkpt lat="48.64563" lon="-2.32718">
        <ele>52</ele>
        <time>2016-06-24T08:41:17Z</time>
      </trkpt>
      <trkpt lat="48.64562" lon="-2.32711">
        <ele>52</ele>
        <time>2016-06-24T08:41:20Z</time>
      </trkpt>
      <trkpt lat="48.64561" lon="-2.32703">
        <ele>52</ele>
        <time>2016-06-24T08:41:23Z</time>
      </trkpt>
      <trkpt lat="48.6456" lon="-2.32696">
        <ele>52</ele>
        <time>2016-06-24T08:41:26Z</time>
      </trkpt>
      <trkpt lat="48.6456" lon="-2.32688">
        <ele>51</ele>
        <time>2016-06-24T08:41:29Z</time>
      </trkpt>
      <trkpt lat="48.64559" lon="-2.32681">
        <ele>51</ele>
        <time>2016-06-24T08:41:32Z</time>
      </trkpt>
      <trkpt lat="48.64559" lon="-2.32676">
        <ele>51</ele>
        <time>2016-06-24T08:41:35Z</time>
      </trkpt>
      <trkpt lat="48.64559" lon="-2.32669">
        <ele>51</ele>
        <time>2016-06-24T08:41:38Z</time>
      </trkpt>
      <trkpt lat="48.6456" lon="-2.32662">
        <ele>51</ele>
        <time>2016-06-24T08:41:42Z</time>
      </trkpt>
      <trkpt lat="48.6456" lon="-2.32656">
        <ele>51</ele>
        <time>2016-06-24T08:41:45Z</time>
      </trkpt>
      <trkpt lat="48.6456" lon="-2.32649">
        <ele>51</ele>
        <time>2016-06-24T08:41:48Z</time>
      </trkpt>
      <trkpt lat="48.6456" lon="-2.32643">
        <ele>51</ele>
        <time>2016-06-24T08:41:51Z</time>
      </trkpt>
      <trkpt lat="48.6456" lon="-2.32637">
        <ele>51</ele>
        <time>2016-06-24T08:41:54Z</time>
      </trkpt>
      <trkpt lat="48.6456" lon="-2.3263">
        <ele>51</ele>
        <time>2016-06-24T08:41:57Z</time>
      </trkpt>
      <trkpt lat="48.6456" lon="-2.32624">
        <ele>51</ele>
        <time>2016-06-24T08:42:00Z</time>
      </trkpt>
      <trkpt lat="48.64559" lon="-2.32617">
        <ele>51</ele>
        <time>2016-06-24T08:42:03Z</time>
      </trkpt>
      <trkpt lat="48.64558" lon="-2.3261">
        <ele>51</ele>
        <time>2016-06-24T08:42:06Z</time>
      </trkpt>
      <trkpt lat="48.64557" lon="-2.32605">
        <ele>51</ele>
        <time>2016-06-24T08:42:09Z</time>
      </trkpt>
      <trkpt lat="48.64556" lon="-2.32598">
        <ele>51</ele>
        <time>2016-06-24T08:42:13Z</time>
      </trkpt>
      <trkpt lat="48.64555" lon="-2.32592">
        <ele>51</ele>
        <time>2016-06-24T08:42:16Z</time>
      </trkpt>
      <trkpt lat="48.64554" lon="-2.32586">
        <ele>51</ele>
        <time>2016-06-24T08:42:19Z</time>
      </trkpt>
      <trkpt lat="48.64553" lon="-2.32579">
        <ele>51</ele>
        <time>2016-06-24T08:42:22Z</time>
      </trkpt>
      <trkpt lat="48.64552" lon="-2.32573">
        <ele>51</ele>
        <time>2016-06-24T08:42:25Z</time>
      </trkpt>
      <trkpt lat="48.6455" lon="-2.32566">
        <ele>51</ele>
        <time>2016-06-24T08:42:28Z</time>
      </trkpt>
      <trkpt lat="48.64548" lon="-2.32559">
        <ele>51</ele>
        <time>2016-06-24T08:42:31Z</time>
      </trkpt>
      <trkpt lat="48.64547" lon="-2.32553">
        <ele>51</ele>
        <time>2016-06-24T08:42:34Z</time>
      </trkpt>
      <trkpt lat="48.64545" lon="-2.32547">
        <ele>51</ele>
        <time>2016-06-24T08:42:37Z</time>
      </trkpt>
      <trkpt lat="48.64545" lon="-2.32541">
        <ele>51</ele>
        <time>2016-06-24T08:42:40Z</time>
      </trkpt>
      <trkpt lat="48.64544" lon="-2.32536">
        <ele>51</ele>
        <time>2016-06-24T08:42:43Z</time>
      </trkpt>
      <trkpt lat="48.64543" lon="-2.3253">
        <ele>51</ele>
        <time>2016-06-24T08:42:47Z</time>
      </trkpt>
      <trkpt lat="48.64542" lon="-2.32528">
        <ele>52</ele>
        <time>2016-06-24T08:42:57Z</time>
      </trkpt>
      <trkpt lat="48.64541" lon="-2.32523">
        <ele>52</ele>
        <time>2016-06-24T08:43:00Z</time>
      </trkpt>
      <trkpt lat="48.64539" lon="-2.32518">
        <ele>53</ele>
        <time>2016-06-24T08:43:03Z</time>
      </trkpt>
      <trkpt lat="48.64537" lon="-2.32512">
        <ele>53</ele>
        <time>2016-06-24T08:43:06Z</time>
      </trkpt>
      <trkpt lat="48.64536" lon="-2.32506">
        <ele>53</ele>
        <time>2016-06-24T08:43:09Z</time>
      </trkpt>
      <trkpt lat="48.64534" lon="-2.32501">
        <ele>53</ele>
        <time>2016-06-24T08:43:12Z</time>
      </trkpt>
      <trkpt lat="48.64532" lon="-2.32495">
        <ele>53</ele>
        <time>2016-06-24T08:43:15Z</time>
      </trkpt>
      <trkpt lat="48.6453" lon="-2.32489">
        <ele>53</ele>
        <time>2016-06-24T08:43:18Z</time>
      </trkpt>
      <trkpt lat="48.64528" lon="-2.32483">
        <ele>53</ele>
        <time>2016-06-24T08:43:21Z</time>
      </trkpt>
      <trkpt lat="48.64526" lon="-2.32478">
        <ele>53</ele>
        <time>2016-06-24T08:43:24Z</time>
      </trkpt>
      <trkpt lat="48.64525" lon="-2.32472">
        <ele>53</ele>
        <time>2016-06-24T08:43:27Z</time>
      </trkpt>
      <trkpt lat="48.64523" lon="-2.32467">
        <ele>53</ele>
        <time>2016-06-24T08:43:30Z</time>
      </trkpt>
      <trkpt lat="48.64521" lon="-2.32461">
        <ele>53</ele>
        <time>2016-06-24T08:43:33Z</time>
      </trkpt>
      <trkpt lat="48.64518" lon="-2.32455">
        <ele>53</ele>
        <time>2016-06-24T08:43:36Z</time>
      </trkpt>
      <trkpt lat="48.64517" lon="-2.32449">
        <ele>53</ele>
        <time>2016-06-24T08:43:39Z</time>
      </trkpt>
      <trkpt lat="48.64516" lon="-2.32442">
        <ele>53</ele>
        <time>2016-06-24T08:43:42Z</time>
      </trkpt>
      <trkpt lat="48.64516" lon="-2.32435">
        <ele>53</ele>
        <time>2016-06-24T08:43:45Z</time>
      </trkpt>
      <trkpt lat="48.64517" lon="-2.32428">
        <ele>53</ele>
        <time>2016-06-24T08:43:48Z</time>
      </trkpt>
      <trkpt lat="48.64518" lon="-2.32422">
        <ele>53</ele>
        <time>2016-06-24T08:43:51Z</time>
      </trkpt>
      <trkpt lat="48.64519" lon="-2.32415">
        <ele>53</ele>
        <time>2016-06-24T08:43:54Z</time>
      </trkpt>
      <trkpt lat="48.6452" lon="-2.32409">
        <ele>53</ele>
        <time>2016-06-24T08:43:57Z</time>
      </trkpt>
      <trkpt lat="48.64521" lon="-2.32403">
        <ele>53</ele>
        <time>2016-06-24T08:44:00Z</time>
      </trkpt>
      <trkpt lat="48.64521" lon="-2.32397">
        <ele>53</ele>
        <time>2016-06-24T08:44:03Z</time>
      </trkpt>
      <trkpt lat="48.64522" lon="-2.32391">
        <ele>53</ele>
        <time>2016-06-24T08:44:06Z</time>
      </trkpt>
      <trkpt lat="48.64523" lon="-2.32384">
        <ele>53</ele>
        <time>2016-06-24T08:44:09Z</time>
      </trkpt>
      <trkpt lat="48.64523" lon="-2.32378">
        <ele>53</ele>
        <time>2016-06-24T08:44:12Z</time>
      </trkpt>
      <trkpt lat="48.64524" lon="-2.32371">
        <ele>53</ele>
        <time>2016-06-24T08:44:15Z</time>
      </trkpt>
      <trkpt lat="48.64525" lon="-2.32365">
        <ele>53</ele>
        <time>2016-06-24T08:44:18Z</time>
      </trkpt>
      <trkpt lat="48.64526" lon="-2.32359">
        <ele>53</ele>
        <time>2016-06-24T08:44:21Z</time>
      </trkpt>
      <trkpt lat="48.64527" lon="-2.32353">
        <ele>53</ele>
        <time>2016-06-24T08:44:24Z</time>
      </trkpt>
      <trkpt lat="48.64529" lon="-2.32346">
        <ele>53</ele>
        <time>2016-06-24T08:44:28Z</time>
      </trkpt>
      <trkpt lat="48.6453" lon="-2.32341">
        <ele>53</ele>
        <time>2016-06-24T08:44:31Z</time>
      </trkpt>
      <trkpt lat="48.6453" lon="-2.32335">
        <ele>53</ele>
        <time>2016-06-24T08:44:34Z</time>
      </trkpt>
      <trkpt lat="48.64528" lon="-2.32329">
        <ele>53</ele>
        <time>2016-06-24T08:44:38Z</time>
      </trkpt>
      <trkpt lat="48.64524" lon="-2.32324">
        <ele>53</ele>
        <time>2016-06-24T08:44:41Z</time>
      </trkpt>
      <trkpt lat="48.64521" lon="-2.3232">
        <ele>53</ele>
        <time>2016-06-24T08:44:44Z</time>
      </trkpt>
      <trkpt lat="48.64518" lon="-2.32314">
        <ele>53</ele>
        <time>2016-06-24T08:44:48Z</time>
      </trkpt>
      <trkpt lat="48.64516" lon="-2.32309">
        <ele>53</ele>
        <time>2016-06-24T08:44:51Z</time>
      </trkpt>
      <trkpt lat="48.64513" lon="-2.32304">
        <ele>53</ele>
        <time>2016-06-24T08:44:55Z</time>
      </trkpt>
      <trkpt lat="48.64511" lon="-2.32299">
        <ele>53</ele>
        <time>2016-06-24T08:45:00Z</time>
      </trkpt>
      <trkpt lat="48.64506" lon="-2.32292">
        <ele>54</ele>
        <time>2016-06-24T08:45:04Z</time>
      </trkpt>
      <trkpt lat="48.64502" lon="-2.32288">
        <ele>54</ele>
        <time>2016-06-24T08:45:07Z</time>
      </trkpt>
      <trkpt lat="48.64499" lon="-2.32285">
        <ele>54</ele>
        <time>2016-06-24T08:45:10Z</time>
      </trkpt>
      <trkpt lat="48.64496" lon="-2.32283">
        <ele>55</ele>
        <time>2016-06-24T08:45:14Z</time>
      </trkpt>
      <trkpt lat="48.64492" lon="-2.3228">
        <ele>55</ele>
        <time>2016-06-24T08:45:17Z</time>
      </trkpt>
      <trkpt lat="48.64489" lon="-2.32277">
        <ele>55</ele>
        <time>2016-06-24T08:45:20Z</time>
      </trkpt>
      <trkpt lat="48.64486" lon="-2.32273">
        <ele>55</ele>
        <time>2016-06-24T08:45:24Z</time>
      </trkpt>
      <trkpt lat="48.64484" lon="-2.32271">
        <ele>55</ele>
        <time>2016-06-24T08:45:27Z</time>
      </trkpt>
      <trkpt lat="48.64479" lon="-2.32266">
        <ele>55</ele>
        <time>2016-06-24T08:45:30Z</time>
      </trkpt>
      <trkpt lat="48.64475" lon="-2.32263">
        <ele>55</ele>
        <time>2016-06-24T08:45:33Z</time>
      </trkpt>
      <trkpt lat="48.64471" lon="-2.32258">
        <ele>55</ele>
        <time>2016-06-24T08:45:36Z</time>
      </trkpt>
      <trkpt lat="48.64468" lon="-2.32254">
        <ele>55</ele>
        <time>2016-06-24T08:45:39Z</time>
      </trkpt>
      <trkpt lat="48.64464" lon="-2.32248">
        <ele>55</ele>
        <time>2016-06-24T08:45:42Z</time>
      </trkpt>
      <trkpt lat="48.64461" lon="-2.32243">
        <ele>55</ele>
        <time>2016-06-24T08:45:45Z</time>
      </trkpt>
      <trkpt lat="48.64458" lon="-2.32237">
        <ele>55</ele>
        <time>2016-06-24T08:45:48Z</time>
      </trkpt>
      <trkpt lat="48.64456" lon="-2.32231">
        <ele>55</ele>
        <time>2016-06-24T08:45:51Z</time>
      </trkpt>
      <trkpt lat="48.64454" lon="-2.32225">
        <ele>55</ele>
        <time>2016-06-24T08:45:54Z</time>
      </trkpt>
      <trkpt lat="48.64452" lon="-2.3222">
        <ele>55</ele>
        <time>2016-06-24T08:45:57Z</time>
      </trkpt>
      <trkpt lat="48.6445" lon="-2.32215">
        <ele>55</ele>
        <time>2016-06-24T08:46:00Z</time>
      </trkpt>
      <trkpt lat="48.64448" lon="-2.3221">
        <ele>55</ele>
        <time>2016-06-24T08:46:03Z</time>
      </trkpt>
      <trkpt lat="48.64446" lon="-2.32204">
        <ele>55</ele>
        <time>2016-06-24T08:46:06Z</time>
      </trkpt>
      <trkpt lat="48.64444" lon="-2.32198">
        <ele>55</ele>
        <time>2016-06-24T08:46:09Z</time>
      </trkpt>
      <trkpt lat="48.64442" lon="-2.32193">
        <ele>55</ele>
        <time>2016-06-24T08:46:12Z</time>
      </trkpt>
      <trkpt lat="48.6444" lon="-2.32187">
        <ele>55</ele>
        <time>2016-06-24T08:46:15Z</time>
      </trkpt>
      <trkpt lat="48.64439" lon="-2.32182">
        <ele>55</ele>
        <time>2016-06-24T08:46:18Z</time>
      </trkpt>
      <trkpt lat="48.64437" lon="-2.32177">
        <ele>55</ele>
        <time>2016-06-24T08:46:21Z</time>
      </trkpt>
      <trkpt lat="48.64435" lon="-2.32171">
        <ele>55</ele>
        <time>2016-06-24T08:46:24Z</time>
      </trkpt>
      <trkpt lat="48.64433" lon="-2.32166">
        <ele>55</ele>
        <time>2016-06-24T08:46:27Z</time>
      </trkpt>
      <trkpt lat="48.64431" lon="-2.3216">
        <ele>55</ele>
        <time>2016-06-24T08:46:30Z</time>
      </trkpt>
      <trkpt lat="48.64429" lon="-2.32155">
        <ele>55</ele>
        <time>2016-06-24T08:46:33Z</time>
      </trkpt>
      <trkpt lat="48.64427" lon="-2.32149">
        <ele>55</ele>
        <time>2016-06-24T08:46:36Z</time>
      </trkpt>
      <trkpt lat="48.64426" lon="-2.32143">
        <ele>55</ele>
        <time>2016-06-24T08:46:39Z</time>
      </trkpt>
      <trkpt lat="48.64424" lon="-2.32138">
        <ele>55</ele>
        <time>2016-06-24T08:46:42Z</time>
      </trkpt>
      <trkpt lat="48.64422" lon="-2.32132">
        <ele>55</ele>
        <time>2016-06-24T08:46:45Z</time>
      </trkpt>
      <trkpt lat="48.6442" lon="-2.32127">
        <ele>55</ele>
        <time>2016-06-24T08:46:48Z</time>
      </trkpt>
      <trkpt lat="48.64418" lon="-2.32121">
        <ele>55</ele>
        <time>2016-06-24T08:46:51Z</time>
      </trkpt>
      <trkpt lat="48.64415" lon="-2.32116">
        <ele>55</ele>
        <time>2016-06-24T08:46:54Z</time>
      </trkpt>
      <trkpt lat="48.64413" lon="-2.32111">
        <ele>55</ele>
        <time>2016-06-24T08:46:57Z</time>
      </trkpt>
      <trkpt lat="48.64412" lon="-2.32105">
        <ele>55</ele>
        <time>2016-06-24T08:47:00Z</time>
      </trkpt>
      <trkpt lat="48.64408" lon="-2.32099">
        <ele>55</ele>
        <time>2016-06-24T08:47:04Z</time>
      </trkpt>
      <trkpt lat="48.64404" lon="-2.32092">
        <ele>55</ele>
        <time>2016-06-24T08:47:08Z</time>
      </trkpt>
      <trkpt lat="48.644" lon="-2.32086">
        <ele>55</ele>
        <time>2016-06-24T08:47:12Z</time>
      </trkpt>
      <trkpt lat="48.64397" lon="-2.32082">
        <ele>55</ele>
        <time>2016-06-24T08:47:15Z</time>
      </trkpt>
      <trkpt lat="48.64394" lon="-2.32075">
        <ele>55</ele>
        <time>2016-06-24T08:47:19Z</time>
      </trkpt>
      <trkpt lat="48.64392" lon="-2.3207">
        <ele>55</ele>
        <time>2016-06-24T08:47:22Z</time>
      </trkpt>
      <trkpt lat="48.6439" lon="-2.32065">
        <ele>55</ele>
        <time>2016-06-24T08:47:25Z</time>
      </trkpt>
      <trkpt lat="48.64388" lon="-2.32059">
        <ele>55</ele>
        <time>2016-06-24T08:47:28Z</time>
      </trkpt>
      <trkpt lat="48.64384" lon="-2.32052">
        <ele>55</ele>
        <time>2016-06-24T08:47:32Z</time>
      </trkpt>
      <trkpt lat="48.64382" lon="-2.32047">
        <ele>55</ele>
        <time>2016-06-24T08:47:35Z</time>
      </trkpt>
      <trkpt lat="48.6438" lon="-2.32043">
        <ele>55</ele>
        <time>2016-06-24T08:47:38Z</time>
      </trkpt>
      <trkpt lat="48.64376" lon="-2.32037">
        <ele>54</ele>
        <time>2016-06-24T08:47:42Z</time>
      </trkpt>
      <trkpt lat="48.64373" lon="-2.32031">
        <ele>54</ele>
        <time>2016-06-24T08:47:46Z</time>
      </trkpt>
      <trkpt lat="48.64369" lon="-2.32025">
        <ele>54</ele>
        <time>2016-06-24T08:47:50Z</time>
      </trkpt>
      <trkpt lat="48.64365" lon="-2.32019">
        <ele>54</ele>
        <time>2016-06-24T08:47:54Z</time>
      </trkpt>
      <trkpt lat="48.64362" lon="-2.32014">
        <ele>54</ele>
        <time>2016-06-24T08:47:58Z</time>
      </trkpt>
      <trkpt lat="48.64358" lon="-2.3201">
        <ele>54</ele>
        <time>2016-06-24T08:48:01Z</time>
      </trkpt>
      <trkpt lat="48.64355" lon="-2.32007">
        <ele>54</ele>
        <time>2016-06-24T08:48:04Z</time>
      </trkpt>
      <trkpt lat="48.64351" lon="-2.32003">
        <ele>54</ele>
        <time>2016-06-24T08:48:07Z</time>
      </trkpt>
      <trkpt lat="48.64348" lon="-2.32">
        <ele>54</ele>
        <time>2016-06-24T08:48:10Z</time>
      </trkpt>
      <trkpt lat="48.64344" lon="-2.31998">
        <ele>54</ele>
        <time>2016-06-24T08:48:13Z</time>
      </trkpt>
      <trkpt lat="48.6434" lon="-2.31996">
        <ele>54</ele>
        <time>2016-06-24T08:48:16Z</time>
      </trkpt>
      <trkpt lat="48.64336" lon="-2.31993">
        <ele>54</ele>
        <time>2016-06-24T08:48:19Z</time>
      </trkpt>
      <trkpt lat="48.64333" lon="-2.31991">
        <ele>54</ele>
        <time>2016-06-24T08:48:23Z</time>
      </trkpt>
      <trkpt lat="48.64328" lon="-2.3199">
        <ele>55</ele>
        <time>2016-06-24T08:48:27Z</time>
      </trkpt>
      <trkpt lat="48.64324" lon="-2.31988">
        <ele>55</ele>
        <time>2016-06-24T08:48:31Z</time>
      </trkpt>
      <trkpt lat="48.64321" lon="-2.31985">
        <ele>55</ele>
        <time>2016-06-24T08:48:34Z</time>
      </trkpt>
      <trkpt lat="48.64317" lon="-2.31982">
        <ele>55</ele>
        <time>2016-06-24T08:48:38Z</time>
      </trkpt>
      <trkpt lat="48.64315" lon="-2.31981">
        <ele>55</ele>
        <time>2016-06-24T08:48:42Z</time>
      </trkpt>
      <trkpt lat="48.64312" lon="-2.31978">
        <ele>55</ele>
        <time>2016-06-24T08:48:46Z</time>
      </trkpt>
      <trkpt lat="48.64307" lon="-2.31974">
        <ele>55</ele>
        <time>2016-06-24T08:48:50Z</time>
      </trkpt>
      <trkpt lat="48.64304" lon="-2.31973">
        <ele>55</ele>
        <time>2016-06-24T08:48:53Z</time>
      </trkpt>
      <trkpt lat="48.64301" lon="-2.31971">
        <ele>55</ele>
        <time>2016-06-24T08:48:57Z</time>
      </trkpt>
      <trkpt lat="48.64299" lon="-2.31969">
        <ele>55</ele>
        <time>2016-06-24T08:49:00Z</time>
      </trkpt>
      <trkpt lat="48.64298" lon="-2.31968">
        <ele>56</ele>
        <time>2016-06-24T08:49:06Z</time>
      </trkpt>
      <trkpt lat="48.64297" lon="-2.31967">
        <ele>57</ele>
        <time>2016-06-24T08:49:09Z</time>
      </trkpt>
      <trkpt lat="48.64294" lon="-2.31964">
        <ele>58</ele>
        <time>2016-06-24T08:49:12Z</time>
      </trkpt>
      <trkpt lat="48.64291" lon="-2.3196">
        <ele>59</ele>
        <time>2016-06-24T08:49:15Z</time>
      </trkpt>
      <trkpt lat="48.64287" lon="-2.31958">
        <ele>59</ele>
        <time>2016-06-24T08:49:18Z</time>
      </trkpt>
      <trkpt lat="48.64284" lon="-2.31956">
        <ele>59</ele>
        <time>2016-06-24T08:49:22Z</time>
      </trkpt>
      <trkpt lat="48.64281" lon="-2.31954">
        <ele>59</ele>
        <time>2016-06-24T08:49:26Z</time>
      </trkpt>
      <trkpt lat="48.64279" lon="-2.31951">
        <ele>59</ele>
        <time>2016-06-24T08:49:29Z</time>
      </trkpt>
      <trkpt lat="48.64275" lon="-2.31948">
        <ele>59</ele>
        <time>2016-06-24T08:49:32Z</time>
      </trkpt>
      <trkpt lat="48.64271" lon="-2.31943">
        <ele>59</ele>
        <time>2016-06-24T08:49:36Z</time>
      </trkpt>
      <trkpt lat="48.64269" lon="-2.31941">
        <ele>59</ele>
        <time>2016-06-24T08:49:40Z</time>
      </trkpt>
      <trkpt lat="48.64265" lon="-2.31937">
        <ele>60</ele>
        <time>2016-06-24T08:49:44Z</time>
      </trkpt>
      <trkpt lat="48.64262" lon="-2.31935">
        <ele>60</ele>
        <time>2016-06-24T08:49:47Z</time>
      </trkpt>
      <trkpt lat="48.64258" lon="-2.31933">
        <ele>60</ele>
        <time>2016-06-24T08:49:51Z</time>
      </trkpt>
      <trkpt lat="48.64255" lon="-2.31932">
        <ele>60</ele>
        <time>2016-06-24T08:49:54Z</time>
      </trkpt>
      <trkpt lat="48.64252" lon="-2.31931">
        <ele>60</ele>
        <time>2016-06-24T08:49:57Z</time>
      </trkpt>
      <trkpt lat="48.64249" lon="-2.31929">
        <ele>60</ele>
        <time>2016-06-24T08:50:01Z</time>
      </trkpt>
      <trkpt lat="48.64246" lon="-2.31929">
        <ele>60</ele>
        <time>2016-06-24T08:50:05Z</time>
      </trkpt>
      <trkpt lat="48.64242" lon="-2.31927">
        <ele>60</ele>
        <time>2016-06-24T08:50:08Z</time>
      </trkpt>
      <trkpt lat="48.64238" lon="-2.31926">
        <ele>60</ele>
        <time>2016-06-24T08:50:11Z</time>
      </trkpt>
      <trkpt lat="48.64235" lon="-2.31925">
        <ele>60</ele>
        <time>2016-06-24T08:50:14Z</time>
      </trkpt>
      <trkpt lat="48.64233" lon="-2.31923">
        <ele>60</ele>
        <time>2016-06-24T08:50:18Z</time>
      </trkpt>
      <trkpt lat="48.6423" lon="-2.31921">
        <ele>60</ele>
        <time>2016-06-24T08:50:21Z</time>
      </trkpt>
      <trkpt lat="48.64227" lon="-2.31919">
        <ele>60</ele>
        <time>2016-06-24T08:50:24Z</time>
      </trkpt>
      <trkpt lat="48.64222" lon="-2.31917">
        <ele>60</ele>
        <time>2016-06-24T08:50:27Z</time>
      </trkpt>
      <trkpt lat="48.6422" lon="-2.31913">
        <ele>60</ele>
        <time>2016-06-24T08:50:30Z</time>
      </trkpt>
      <trkpt lat="48.64215" lon="-2.3191">
        <ele>60</ele>
        <time>2016-06-24T08:50:34Z</time>
      </trkpt>
      <trkpt lat="48.64212" lon="-2.31907">
        <ele>60</ele>
        <time>2016-06-24T08:50:37Z</time>
      </trkpt>
      <trkpt lat="48.64208" lon="-2.31903">
        <ele>60</ele>
        <time>2016-06-24T08:50:40Z</time>
      </trkpt>
      <trkpt lat="48.64205" lon="-2.319">
        <ele>60</ele>
        <time>2016-06-24T08:50:43Z</time>
      </trkpt>
      <trkpt lat="48.64201" lon="-2.31896">
        <ele>60</ele>
        <time>2016-06-24T08:50:47Z</time>
      </trkpt>
      <trkpt lat="48.64196" lon="-2.31891">
        <ele>60</ele>
        <time>2016-06-24T08:50:51Z</time>
      </trkpt>
      <trkpt lat="48.64194" lon="-2.31886">
        <ele>60</ele>
        <time>2016-06-24T08:50:54Z</time>
      </trkpt>
      <trkpt lat="48.64191" lon="-2.31882">
        <ele>60</ele>
        <time>2016-06-24T08:50:57Z</time>
      </trkpt>
      <trkpt lat="48.64188" lon="-2.31878">
        <ele>60</ele>
        <time>2016-06-24T08:51:01Z</time>
      </trkpt>
      <trkpt lat="48.64185" lon="-2.31874">
        <ele>60</ele>
        <time>2016-06-24T08:51:04Z</time>
      </trkpt>
      <trkpt lat="48.64181" lon="-2.31867">
        <ele>60</ele>
        <time>2016-06-24T08:51:08Z</time>
      </trkpt>
      <trkpt lat="48.64178" lon="-2.31862">
        <ele>60</ele>
        <time>2016-06-24T08:51:11Z</time>
      </trkpt>
      <trkpt lat="48.64177" lon="-2.31858">
        <ele>60</ele>
        <time>2016-06-24T08:51:14Z</time>
      </trkpt>
      <trkpt lat="48.64176" lon="-2.31852">
        <ele>60</ele>
        <time>2016-06-24T08:51:18Z</time>
      </trkpt>
      <trkpt lat="48.64176" lon="-2.31847">
        <ele>60</ele>
        <time>2016-06-24T08:51:21Z</time>
      </trkpt>
      <trkpt lat="48.64177" lon="-2.31842">
        <ele>60</ele>
        <time>2016-06-24T08:51:25Z</time>
      </trkpt>
      <trkpt lat="48.64177" lon="-2.3184">
        <ele>60</ele>
        <time>2016-06-24T08:51:28Z</time>
      </trkpt>
      <trkpt lat="48.64177" lon="-2.31836">
        <ele>60</ele>
        <time>2016-06-24T08:51:32Z</time>
      </trkpt>
      <trkpt lat="48.64177" lon="-2.31834">
        <ele>60</ele>
        <time>2016-06-24T08:51:35Z</time>
      </trkpt>
      <trkpt lat="48.64177" lon="-2.31832">
        <ele>60</ele>
        <time>2016-06-24T08:51:40Z</time>
      </trkpt>
      <trkpt lat="48.64177" lon="-2.31827">
        <ele>60</ele>
        <time>2016-06-24T08:51:44Z</time>
      </trkpt>
      <trkpt lat="48.64178" lon="-2.31821">
        <ele>60</ele>
        <time>2016-06-24T08:51:47Z</time>
      </trkpt>
      <trkpt lat="48.64178" lon="-2.31816">
        <ele>60</ele>
        <time>2016-06-24T08:51:50Z</time>
      </trkpt>
      <trkpt lat="48.64179" lon="-2.3181">
        <ele>60</ele>
        <time>2016-06-24T08:51:53Z</time>
      </trkpt>
      <trkpt lat="48.64179" lon="-2.31804">
        <ele>60</ele>
        <time>2016-06-24T08:51:56Z</time>
      </trkpt>
      <trkpt lat="48.6418" lon="-2.318">
        <ele>60</ele>
        <time>2016-06-24T08:51:59Z</time>
      </trkpt>
      <trkpt lat="48.6418" lon="-2.31794">
        <ele>60</ele>
        <time>2016-06-24T08:52:02Z</time>
      </trkpt>
      <trkpt lat="48.64182" lon="-2.31789">
        <ele>60</ele>
        <time>2016-06-24T08:52:05Z</time>
      </trkpt>
      <trkpt lat="48.64183" lon="-2.31782">
        <ele>60</ele>
        <time>2016-06-24T08:52:09Z</time>
      </trkpt>
      <trkpt lat="48.64184" lon="-2.31776">
        <ele>60</ele>
        <time>2016-06-24T08:52:12Z</time>
      </trkpt>
      <trkpt lat="48.64185" lon="-2.3177">
        <ele>60</ele>
        <time>2016-06-24T08:52:15Z</time>
      </trkpt>
      <trkpt lat="48.64186" lon="-2.31764">
        <ele>60</ele>
        <time>2016-06-24T08:52:18Z</time>
      </trkpt>
      <trkpt lat="48.64188" lon="-2.31758">
        <ele>60</ele>
        <time>2016-06-24T08:52:21Z</time>
      </trkpt>
      <trkpt lat="48.64188" lon="-2.31752">
        <ele>60</ele>
        <time>2016-06-24T08:52:24Z</time>
      </trkpt>
      <trkpt lat="48.64189" lon="-2.31747">
        <ele>60</ele>
        <time>2016-06-24T08:52:27Z</time>
      </trkpt>
      <trkpt lat="48.6419" lon="-2.31741">
        <ele>60</ele>
        <time>2016-06-24T08:52:30Z</time>
      </trkpt>
      <trkpt lat="48.6419" lon="-2.31735">
        <ele>60</ele>
        <time>2016-06-24T08:52:33Z</time>
      </trkpt>
      <trkpt lat="48.64192" lon="-2.31729">
        <ele>60</ele>
        <time>2016-06-24T08:52:36Z</time>
      </trkpt>
      <trkpt lat="48.64193" lon="-2.31723">
        <ele>59</ele>
        <time>2016-06-24T08:52:39Z</time>
      </trkpt>
      <trkpt lat="48.64194" lon="-2.31717">
        <ele>59</ele>
        <time>2016-06-24T08:52:42Z</time>
      </trkpt>
      <trkpt lat="48.64194" lon="-2.3171">
        <ele>58</ele>
        <time>2016-06-24T08:52:46Z</time>
      </trkpt>
      <trkpt lat="48.64194" lon="-2.31704">
        <ele>58</ele>
        <time>2016-06-24T08:52:49Z</time>
      </trkpt>
      <trkpt lat="48.64193" lon="-2.31698">
        <ele>58</ele>
        <time>2016-06-24T08:52:52Z</time>
      </trkpt>
      <trkpt lat="48.64193" lon="-2.31693">
        <ele>58</ele>
        <time>2016-06-24T08:52:55Z</time>
      </trkpt>
      <trkpt lat="48.64193" lon="-2.31688">
        <ele>58</ele>
        <time>2016-06-24T08:52:58Z</time>
      </trkpt>
      <trkpt lat="48.64192" lon="-2.31682">
        <ele>58</ele>
        <time>2016-06-24T08:53:01Z</time>
      </trkpt>
      <trkpt lat="48.6419" lon="-2.31677">
        <ele>58</ele>
        <time>2016-06-24T08:53:04Z</time>
      </trkpt>
      <trkpt lat="48.64188" lon="-2.31672">
        <ele>58</ele>
        <time>2016-06-24T08:53:07Z</time>
      </trkpt>
      <trkpt lat="48.64186" lon="-2.31666">
        <ele>58</ele>
        <time>2016-06-24T08:53:10Z</time>
      </trkpt>
      <trkpt lat="48.64183" lon="-2.31661">
        <ele>58</ele>
        <time>2016-06-24T08:53:13Z</time>
      </trkpt>
      <trkpt lat="48.6418" lon="-2.31655">
        <ele>58</ele>
        <time>2016-06-24T08:53:17Z</time>
      </trkpt>
      <trkpt lat="48.64176" lon="-2.31649">
        <ele>58</ele>
        <time>2016-06-24T08:53:21Z</time>
      </trkpt>
      <trkpt lat="48.64172" lon="-2.31643">
        <ele>58</ele>
        <time>2016-06-24T08:53:25Z</time>
      </trkpt>
      <trkpt lat="48.64169" lon="-2.31636">
        <ele>58</ele>
        <time>2016-06-24T08:53:29Z</time>
      </trkpt>
      <trkpt lat="48.64165" lon="-2.31631">
        <ele>58</ele>
        <time>2016-06-24T08:53:32Z</time>
      </trkpt>
      <trkpt lat="48.64162" lon="-2.31626">
        <ele>58</ele>
        <time>2016-06-24T08:53:36Z</time>
      </trkpt>
      <trkpt lat="48.64158" lon="-2.31621">
        <ele>58</ele>
        <time>2016-06-24T08:53:39Z</time>
      </trkpt>
      <trkpt lat="48.64154" lon="-2.31616">
        <ele>58</ele>
        <time>2016-06-24T08:53:42Z</time>
      </trkpt>
      <trkpt lat="48.64151" lon="-2.31612">
        <ele>58</ele>
        <time>2016-06-24T08:53:45Z</time>
      </trkpt>
      <trkpt lat="48.64147" lon="-2.31606">
        <ele>58</ele>
        <time>2016-06-24T08:53:49Z</time>
      </trkpt>
      <trkpt lat="48.64144" lon="-2.316">
        <ele>58</ele>
        <time>2016-06-24T08:53:53Z</time>
      </trkpt>
      <trkpt lat="48.64141" lon="-2.31596">
        <ele>58</ele>
        <time>2016-06-24T08:53:56Z</time>
      </trkpt>
      <trkpt lat="48.64138" lon="-2.31591">
        <ele>58</ele>
        <time>2016-06-24T08:53:59Z</time>
      </trkpt>
      <trkpt lat="48.64135" lon="-2.31585">
        <ele>58</ele>
        <time>2016-06-24T08:54:02Z</time>
      </trkpt>
      <trkpt lat="48.64132" lon="-2.31579">
        <ele>58</ele>
        <time>2016-06-24T08:54:05Z</time>
      </trkpt>
      <trkpt lat="48.64129" lon="-2.31575">
        <ele>58</ele>
        <time>2016-06-24T08:54:08Z</time>
      </trkpt>
      <trkpt lat="48.64127" lon="-2.31569">
        <ele>58</ele>
        <time>2016-06-24T08:54:11Z</time>
      </trkpt>
      <trkpt lat="48.64125" lon="-2.31563">
        <ele>58</ele>
        <time>2016-06-24T08:54:14Z</time>
      </trkpt>
      <trkpt lat="48.64122" lon="-2.31557">
        <ele>58</ele>
        <time>2016-06-24T08:54:17Z</time>
      </trkpt>
      <trkpt lat="48.6412" lon="-2.31551">
        <ele>58</ele>
        <time>2016-06-24T08:54:20Z</time>
      </trkpt>
      <trkpt lat="48.64119" lon="-2.31546">
        <ele>58</ele>
        <time>2016-06-24T08:54:23Z</time>
      </trkpt>
      <trkpt lat="48.64117" lon="-2.31541">
        <ele>58</ele>
        <time>2016-06-24T08:54:26Z</time>
      </trkpt>
      <trkpt lat="48.64118" lon="-2.31536">
        <ele>58</ele>
        <time>2016-06-24T08:54:29Z</time>
      </trkpt>
      <trkpt lat="48.64118" lon="-2.31531">
        <ele>58</ele>
        <time>2016-06-24T08:54:32Z</time>
      </trkpt>
      <trkpt lat="48.64118" lon="-2.31525">
        <ele>57</ele>
        <time>2016-06-24T08:54:35Z</time>
      </trkpt>
      <trkpt lat="48.64121" lon="-2.31519">
        <ele>57</ele>
        <time>2016-06-24T08:54:39Z</time>
      </trkpt>
      <trkpt lat="48.64124" lon="-2.31515">
        <ele>56</ele>
        <time>2016-06-24T08:54:42Z</time>
      </trkpt>
      <trkpt lat="48.64126" lon="-2.3151">
        <ele>56</ele>
        <time>2016-06-24T08:54:45Z</time>
      </trkpt>
      <trkpt lat="48.64129" lon="-2.31505">
        <ele>56</ele>
        <time>2016-06-24T08:54:49Z</time>
      </trkpt>
      <trkpt lat="48.64132" lon="-2.31499">
        <ele>56</ele>
        <time>2016-06-24T08:54:52Z</time>
      </trkpt>
      <trkpt lat="48.64133" lon="-2.31493">
        <ele>56</ele>
        <time>2016-06-24T08:54:56Z</time>
      </trkpt>
      <trkpt lat="48.6413" lon="-2.31491">
        <ele>56</ele>
        <time>2016-06-24T08:54:59Z</time>
      </trkpt>
      <trkpt lat="48.64126" lon="-2.31489">
        <ele>55</ele>
        <time>2016-06-24T08:55:02Z</time>
      </trkpt>
      <trkpt lat="48.64122" lon="-2.31489">
        <ele>54</ele>
        <time>2016-06-24T08:55:06Z</time>
      </trkpt>
      <trkpt lat="48.64119" lon="-2.31487">
        <ele>54</ele>
        <time>2016-06-24T08:55:09Z</time>
      </trkpt>
      <trkpt lat="48.64113" lon="-2.31485">
        <ele>54</ele>
        <time>2016-06-24T08:55:13Z</time>
      </trkpt>
      <trkpt lat="48.64109" lon="-2.31484">
        <ele>54</ele>
        <time>2016-06-24T08:55:16Z</time>
      </trkpt>
      <trkpt lat="48.64106" lon="-2.31483">
        <ele>54</ele>
        <time>2016-06-24T08:55:19Z</time>
      </trkpt>
      <trkpt lat="48.64102" lon="-2.31481">
        <ele>54</ele>
        <time>2016-06-24T08:55:23Z</time>
      </trkpt>
      <trkpt lat="48.64098" lon="-2.31483">
        <ele>54</ele>
        <time>2016-06-24T08:55:26Z</time>
      </trkpt>
      <trkpt lat="48.64095" lon="-2.31482">
        <ele>54</ele>
        <time>2016-06-24T08:55:30Z</time>
      </trkpt>
      <trkpt lat="48.64091" lon="-2.3148">
        <ele>54</ele>
        <time>2016-06-24T08:55:34Z</time>
      </trkpt>
      <trkpt lat="48.64089" lon="-2.31476">
        <ele>54</ele>
        <time>2016-06-24T08:55:37Z</time>
      </trkpt>
      <trkpt lat="48.64087" lon="-2.31473">
        <ele>54</ele>
        <time>2016-06-24T08:55:40Z</time>
      </trkpt>
      <trkpt lat="48.64084" lon="-2.3147">
        <ele>54</ele>
        <time>2016-06-24T08:55:43Z</time>
      </trkpt>
      <trkpt lat="48.6408" lon="-2.31466">
        <ele>54</ele>
        <time>2016-06-24T08:55:46Z</time>
      </trkpt>
      <trkpt lat="48.64077" lon="-2.3146">
        <ele>54</ele>
        <time>2016-06-24T08:55:49Z</time>
      </trkpt>
      <trkpt lat="48.64074" lon="-2.31456">
        <ele>54</ele>
        <time>2016-06-24T08:55:53Z</time>
      </trkpt>
      <trkpt lat="48.64069" lon="-2.31455">
        <ele>54</ele>
        <time>2016-06-24T08:55:57Z</time>
      </trkpt>
      <trkpt lat="48.64064" lon="-2.31453">
        <ele>53</ele>
        <time>2016-06-24T08:56:01Z</time>
      </trkpt>
      <trkpt lat="48.64062" lon="-2.31447">
        <ele>53</ele>
        <time>2016-06-24T08:56:04Z</time>
      </trkpt>
      <trkpt lat="48.64059" lon="-2.31443">
        <ele>53</ele>
        <time>2016-06-24T08:56:07Z</time>
      </trkpt>
      <trkpt lat="48.64056" lon="-2.31439">
        <ele>53</ele>
        <time>2016-06-24T08:56:10Z</time>
      </trkpt>
      <trkpt lat="48.64054" lon="-2.31435">
        <ele>53</ele>
        <time>2016-06-24T08:56:13Z</time>
      </trkpt>
      <trkpt lat="48.64051" lon="-2.31431">
        <ele>53</ele>
        <time>2016-06-24T08:56:16Z</time>
      </trkpt>
      <trkpt lat="48.64048" lon="-2.31428">
        <ele>53</ele>
        <time>2016-06-24T08:56:19Z</time>
      </trkpt>
      <trkpt lat="48.64045" lon="-2.31424">
        <ele>53</ele>
        <time>2016-06-24T08:56:22Z</time>
      </trkpt>
      <trkpt lat="48.64042" lon="-2.31421">
        <ele>53</ele>
        <time>2016-06-24T08:56:25Z</time>
      </trkpt>
      <trkpt lat="48.64041" lon="-2.31418">
        <ele>53</ele>
        <time>2016-06-24T08:56:28Z</time>
      </trkpt>
      <trkpt lat="48.64038" lon="-2.31416">
        <ele>52</ele>
        <time>2016-06-24T08:56:31Z</time>
      </trkpt>
      <trkpt lat="48.64034" lon="-2.31411">
        <ele>51</ele>
        <time>2016-06-24T08:56:34Z</time>
      </trkpt>
      <trkpt lat="48.64031" lon="-2.31408">
        <ele>51</ele>
        <time>2016-06-24T08:56:37Z</time>
      </trkpt>
      <trkpt lat="48.64028" lon="-2.31405">
        <ele>50</ele>
        <time>2016-06-24T08:56:40Z</time>
      </trkpt>
      <trkpt lat="48.64026" lon="-2.31404">
        <ele>49</ele>
        <time>2016-06-24T08:56:43Z</time>
      </trkpt>
      <trkpt lat="48.64022" lon="-2.31402">
        <ele>48</ele>
        <time>2016-06-24T08:56:47Z</time>
      </trkpt>
      <trkpt lat="48.64019" lon="-2.314">
        <ele>46</ele>
        <time>2016-06-24T08:56:50Z</time>
      </trkpt>
      <trkpt lat="48.64015" lon="-2.31399">
        <ele>45</ele>
        <time>2016-06-24T08:56:53Z</time>
      </trkpt>
      <trkpt lat="48.6401" lon="-2.31394">
        <ele>43</ele>
        <time>2016-06-24T08:56:56Z</time>
      </trkpt>
      <trkpt lat="48.64005" lon="-2.31389">
        <ele>41</ele>
        <time>2016-06-24T08:57:00Z</time>
      </trkpt>
      <trkpt lat="48.64002" lon="-2.31387">
        <ele>41</ele>
        <time>2016-06-24T08:57:03Z</time>
      </trkpt>
      <trkpt lat="48.63998" lon="-2.31387">
        <ele>40</ele>
        <time>2016-06-24T08:57:06Z</time>
      </trkpt>
      <trkpt lat="48.63992" lon="-2.31381">
        <ele>40</ele>
        <time>2016-06-24T08:57:09Z</time>
      </trkpt>
      <trkpt lat="48.63989" lon="-2.31375">
        <ele>40</ele>
        <time>2016-06-24T08:57:13Z</time>
      </trkpt>
      <trkpt lat="48.63986" lon="-2.31369">
        <ele>40</ele>
        <time>2016-06-24T08:57:16Z</time>
      </trkpt>
      <trkpt lat="48.63984" lon="-2.31364">
        <ele>41</ele>
        <time>2016-06-24T08:57:20Z</time>
      </trkpt>
      <trkpt lat="48.6398" lon="-2.31358">
        <ele>42</ele>
        <time>2016-06-24T08:57:24Z</time>
      </trkpt>
      <trkpt lat="48.63978" lon="-2.31353">
        <ele>43</ele>
        <time>2016-06-24T08:57:27Z</time>
      </trkpt>
      <trkpt lat="48.63974" lon="-2.31347">
        <ele>43</ele>
        <time>2016-06-24T08:57:31Z</time>
      </trkpt>
      <trkpt lat="48.6397" lon="-2.3134">
        <ele>43</ele>
        <time>2016-06-24T08:57:34Z</time>
      </trkpt>
      <trkpt lat="48.6397" lon="-2.31334">
        <ele>43</ele>
        <time>2016-06-24T08:57:37Z</time>
      </trkpt>
      <trkpt lat="48.63972" lon="-2.3133">
        <ele>43</ele>
        <time>2016-06-24T08:57:40Z</time>
      </trkpt>
      <trkpt lat="48.63972" lon="-2.31326">
        <ele>43</ele>
        <time>2016-06-24T08:57:43Z</time>
      </trkpt>
      <trkpt lat="48.6397" lon="-2.31322">
        <ele>41</ele>
        <time>2016-06-24T08:57:46Z</time>
      </trkpt>
      <trkpt lat="48.63969" lon="-2.31316">
        <ele>40</ele>
        <time>2016-06-24T08:57:49Z</time>
      </trkpt>
      <trkpt lat="48.63967" lon="-2.3131">
        <ele>38</ele>
        <time>2016-06-24T08:57:52Z</time>
      </trkpt>
      <trkpt lat="48.63966" lon="-2.31304">
        <ele>37</ele>
        <time>2016-06-24T08:57:55Z</time>
      </trkpt>
      <trkpt lat="48.63966" lon="-2.31297">
        <ele>37</ele>
        <time>2016-06-24T08:57:58Z</time>
      </trkpt>
      <trkpt lat="48.63967" lon="-2.31292">
        <ele>37</ele>
        <time>2016-06-24T08:58:01Z</time>
      </trkpt>
      <trkpt lat="48.63968" lon="-2.31285">
        <ele>37</ele>
        <time>2016-06-24T08:58:04Z</time>
      </trkpt>
      <trkpt lat="48.63969" lon="-2.31278">
        <ele>37</ele>
        <time>2016-06-24T08:58:07Z</time>
      </trkpt>
      <trkpt lat="48.6397" lon="-2.3127">
        <ele>37</ele>
        <time>2016-06-24T08:58:10Z</time>
      </trkpt>
      <trkpt lat="48.63969" lon="-2.31262">
        <ele>37</ele>
        <time>2016-06-24T08:58:13Z</time>
      </trkpt>
      <trkpt lat="48.63969" lon="-2.31257">
        <ele>37</ele>
        <time>2016-06-24T08:58:16Z</time>
      </trkpt>
      <trkpt lat="48.63971" lon="-2.31252">
        <ele>36</ele>
        <time>2016-06-24T08:58:19Z</time>
      </trkpt>
      <trkpt lat="48.6397" lon="-2.31248">
        <ele>35</ele>
        <time>2016-06-24T08:58:22Z</time>
      </trkpt>
      <trkpt lat="48.63971" lon="-2.31242">
        <ele>34</ele>
        <time>2016-06-24T08:58:25Z</time>
      </trkpt>
      <trkpt lat="48.63972" lon="-2.31238">
        <ele>34</ele>
        <time>2016-06-24T08:58:28Z</time>
      </trkpt>
      <trkpt lat="48.63973" lon="-2.31232">
        <ele>34</ele>
        <time>2016-06-24T08:58:31Z</time>
      </trkpt>
      <trkpt lat="48.63973" lon="-2.31224">
        <ele>34</ele>
        <time>2016-06-24T08:58:34Z</time>
      </trkpt>
      <trkpt lat="48.63971" lon="-2.31216">
        <ele>34</ele>
        <time>2016-06-24T08:58:37Z</time>
      </trkpt>
      <trkpt lat="48.63974" lon="-2.3121">
        <ele>37</ele>
        <time>2016-06-24T08:58:40Z</time>
      </trkpt>
      <trkpt lat="48.63977" lon="-2.31204">
        <ele>38</ele>
        <time>2016-06-24T08:58:43Z</time>
      </trkpt>
      <trkpt lat="48.63977" lon="-2.31196">
        <ele>39</ele>
        <time>2016-06-24T08:58:46Z</time>
      </trkpt>
      <trkpt lat="48.63981" lon="-2.3119">
        <ele>40</ele>
        <time>2016-06-24T08:58:50Z</time>
      </trkpt>
      <trkpt lat="48.63983" lon="-2.31186">
        <ele>40</ele>
        <time>2016-06-24T08:58:53Z</time>
      </trkpt>
      <trkpt lat="48.63987" lon="-2.31181">
        <ele>40</ele>
        <time>2016-06-24T08:58:56Z</time>
      </trkpt>
      <trkpt lat="48.6399" lon="-2.31176">
        <ele>40</ele>
        <time>2016-06-24T08:59:00Z</time>
      </trkpt>
      <trkpt lat="48.63992" lon="-2.31171">
        <ele>40</ele>
        <time>2016-06-24T08:59:03Z</time>
      </trkpt>
      <trkpt lat="48.63995" lon="-2.31167">
        <ele>39</ele>
        <time>2016-06-24T08:59:06Z</time>
      </trkpt>
      <trkpt lat="48.63997" lon="-2.31158">
        <ele>38</ele>
        <time>2016-06-24T08:59:10Z</time>
      </trkpt>
      <trkpt lat="48.64001" lon="-2.31153">
        <ele>37</ele>
        <time>2016-06-24T08:59:14Z</time>
      </trkpt>
      <trkpt lat="48.64004" lon="-2.31148">
        <ele>37</ele>
        <time>2016-06-24T08:59:17Z</time>
      </trkpt>
      <trkpt lat="48.64007" lon="-2.31142">
        <ele>37</ele>
        <time>2016-06-24T08:59:21Z</time>
      </trkpt>
      <trkpt lat="48.6401" lon="-2.31138">
        <ele>36</ele>
        <time>2016-06-24T08:59:24Z</time>
      </trkpt>
      <trkpt lat="48.64013" lon="-2.31134">
        <ele>35</ele>
        <time>2016-06-24T08:59:27Z</time>
      </trkpt>
      <trkpt lat="48.64015" lon="-2.31129">
        <ele>33</ele>
        <time>2016-06-24T08:59:31Z</time>
      </trkpt>
      <trkpt lat="48.64018" lon="-2.31125">
        <ele>33</ele>
        <time>2016-06-24T08:59:35Z</time>
      </trkpt>
      <trkpt lat="48.64021" lon="-2.31119">
        <ele>33</ele>
        <time>2016-06-24T08:59:38Z</time>
      </trkpt>
      <trkpt lat="48.64024" lon="-2.31113">
        <ele>32</ele>
        <time>2016-06-24T08:59:42Z</time>
      </trkpt>
      <trkpt lat="48.64027" lon="-2.31106">
        <ele>31</ele>
        <time>2016-06-24T08:59:46Z</time>
      </trkpt>
      <trkpt lat="48.64031" lon="-2.31101">
        <ele>30</ele>
        <time>2016-06-24T08:59:50Z</time>
      </trkpt>
      <trkpt lat="48.64033" lon="-2.31096">
        <ele>30</ele>
        <time>2016-06-24T08:59:53Z</time>
      </trkpt>
      <trkpt lat="48.64037" lon="-2.31091">
        <ele>30</ele>
        <time>2016-06-24T08:59:57Z</time>
      </trkpt>
      <trkpt lat="48.64041" lon="-2.31085">
        <ele>30</ele>
        <time>2016-06-24T09:00:01Z</time>
      </trkpt>
      <trkpt lat="48.64044" lon="-2.31081">
        <ele>29</ele>
        <time>2016-06-24T09:00:04Z</time>
      </trkpt>
      <trkpt lat="48.64049" lon="-2.31076">
        <ele>29</ele>
        <time>2016-06-24T09:00:07Z</time>
      </trkpt>
      <trkpt lat="48.64052" lon="-2.31072">
        <ele>29</ele>
        <time>2016-06-24T09:00:10Z</time>
      </trkpt>
      <trkpt lat="48.64056" lon="-2.31068">
        <ele>29</ele>
        <time>2016-06-24T09:00:14Z</time>
      </trkpt>
      <trkpt lat="48.64059" lon="-2.31065">
        <ele>28</ele>
        <time>2016-06-24T09:00:18Z</time>
      </trkpt>
      <trkpt lat="48.64063" lon="-2.3106">
        <ele>28</ele>
        <time>2016-06-24T09:00:22Z</time>
      </trkpt>
      <trkpt lat="48.64065" lon="-2.31056">
        <ele>28</ele>
        <time>2016-06-24T09:00:25Z</time>
      </trkpt>
      <trkpt lat="48.6407" lon="-2.31052">
        <ele>28</ele>
        <time>2016-06-24T09:00:29Z</time>
      </trkpt>
      <trkpt lat="48.64074" lon="-2.3105">
        <ele>25</ele>
        <time>2016-06-24T09:00:33Z</time>
      </trkpt>
      <trkpt lat="48.64077" lon="-2.31046">
        <ele>24</ele>
        <time>2016-06-24T09:00:36Z</time>
      </trkpt>
      <trkpt lat="48.6408" lon="-2.31042">
        <ele>23</ele>
        <time>2016-06-24T09:00:39Z</time>
      </trkpt>
      <trkpt lat="48.64083" lon="-2.31036">
        <ele>23</ele>
        <time>2016-06-24T09:00:42Z</time>
      </trkpt>
      <trkpt lat="48.64089" lon="-2.31031">
        <ele>23</ele>
        <time>2016-06-24T09:00:46Z</time>
      </trkpt>
      <trkpt lat="48.6409" lon="-2.31026">
        <ele>23</ele>
        <time>2016-06-24T09:00:50Z</time>
      </trkpt>
      <trkpt lat="48.6409" lon="-2.3102">
        <ele>23</ele>
        <time>2016-06-24T09:00:54Z</time>
      </trkpt>
      <trkpt lat="48.6409" lon="-2.31015">
        <ele>22</ele>
        <time>2016-06-24T09:00:57Z</time>
      </trkpt>
      <trkpt lat="48.6409" lon="-2.3101">
        <ele>20</ele>
        <time>2016-06-24T09:01:00Z</time>
      </trkpt>
      <trkpt lat="48.64089" lon="-2.31003">
        <ele>20</ele>
        <time>2016-06-24T09:01:03Z</time>
      </trkpt>
      <trkpt lat="48.6409" lon="-2.30996">
        <ele>20</ele>
        <time>2016-06-24T09:01:06Z</time>
      </trkpt>
      <trkpt lat="48.6409" lon="-2.30989">
        <ele>20</ele>
        <time>2016-06-24T09:01:09Z</time>
      </trkpt>
      <trkpt lat="48.64091" lon="-2.30982">
        <ele>20</ele>
        <time>2016-06-24T09:01:12Z</time>
      </trkpt>
      <trkpt lat="48.64093" lon="-2.30977">
        <ele>20</ele>
        <time>2016-06-24T09:01:15Z</time>
      </trkpt>
      <trkpt lat="48.64093" lon="-2.30971">
        <ele>20</ele>
        <time>2016-06-24T09:01:18Z</time>
      </trkpt>
      <trkpt lat="48.64095" lon="-2.30967">
        <ele>20</ele>
        <time>2016-06-24T09:01:21Z</time>
      </trkpt>
      <trkpt lat="48.64098" lon="-2.30962">
        <ele>19</ele>
        <time>2016-06-24T09:01:25Z</time>
      </trkpt>
      <trkpt lat="48.64099" lon="-2.30958">
        <ele>17</ele>
        <time>2016-06-24T09:01:29Z</time>
      </trkpt>
      <trkpt lat="48.64096" lon="-2.30956">
        <ele>15</ele>
        <time>2016-06-24T09:01:33Z</time>
      </trkpt>
      <trkpt lat="48.64095" lon="-2.30958">
        <ele>11</ele>
        <time>2016-06-24T09:01:37Z</time>
      </trkpt>
      <trkpt lat="48.64093" lon="-2.30958">
        <ele>8</ele>
        <time>2016-06-24T09:01:42Z</time>
      </trkpt>
      <trkpt lat="48.64092" lon="-2.30957">
        <ele>6</ele>
        <time>2016-06-24T09:01:46Z</time>
      </trkpt>
      <trkpt lat="48.64091" lon="-2.30958">
        <ele>5</ele>
        <time>2016-06-24T09:01:49Z</time>
      </trkpt>
      <trkpt lat="48.64095" lon="-2.30958">
        <ele>5</ele>
        <time>2016-06-24T09:01:54Z</time>
      </trkpt>
      <trkpt lat="48.64096" lon="-2.30958">
        <ele>5</ele>
        <time>2016-06-24T09:01:57Z</time>
      </trkpt>
      <trkpt lat="48.64098" lon="-2.30958">
        <ele>5</ele>
        <time>2016-06-24T09:02:00Z</time>
      </trkpt>
      <trkpt lat="48.64098" lon="-2.30958">
        <ele>5</ele>
        <time>2016-06-24T09:02:07Z</time>
      </trkpt>
      <trkpt lat="48.64099" lon="-2.3096">
        <ele>5</ele>
        <time>2016-06-24T09:02:13Z</time>
      </trkpt>
      <trkpt lat="48.64099" lon="-2.30962">
        <ele>5</ele>
        <time>2016-06-24T09:02:17Z</time>
      </trkpt>
      <trkpt lat="48.641" lon="-2.30963">
        <ele>4</ele>
        <time>2016-06-24T09:02:26Z</time>
      </trkpt>
      <trkpt lat="48.641" lon="-2.30961">
        <ele>4</ele>
        <time>2016-06-24T09:02:32Z</time>
      </trkpt>
      <trkpt lat="48.64102" lon="-2.30958">
        <ele>4</ele>
        <time>2016-06-24T09:02:35Z</time>
      </trkpt>
      <trkpt lat="48.64102" lon="-2.30952">
        <ele>4</ele>
        <time>2016-06-24T09:02:38Z</time>
      </trkpt>
      <trkpt lat="48.64103" lon="-2.30952">
        <ele>4</ele>
        <time>2016-06-24T09:02:41Z</time>
      </trkpt>
      <trkpt lat="48.64105" lon="-2.30952">
        <ele>4</ele>
        <time>2016-06-24T09:02:47Z</time>
      </trkpt>
      <trkpt lat="48.64106" lon="-2.3095">
        <ele>4</ele>
        <time>2016-06-24T09:02:50Z</time>
      </trkpt>
      <trkpt lat="48.64106" lon="-2.30948">
        <ele>4</ele>
        <time>2016-06-24T09:02:55Z</time>
      </trkpt>
      <trkpt lat="48.64106" lon="-2.30946">
        <ele>4</ele>
        <time>2016-06-24T09:02:59Z</time>
      </trkpt>
      <trkpt lat="48.64108" lon="-2.30947">
        <ele>4</ele>
        <time>2016-06-24T09:03:04Z</time>
      </trkpt>
      <trkpt lat="48.6411" lon="-2.30947">
        <ele>6</ele>
        <time>2016-06-24T09:03:10Z</time>
      </trkpt>
      <trkpt lat="48.64112" lon="-2.30946">
        <ele>8</ele>
        <time>2016-06-24T09:03:14Z</time>
      </trkpt>
      <trkpt lat="48.64113" lon="-2.30948">
        <ele>8</ele>
        <time>2016-06-24T09:03:49Z</time>
      </trkpt>
      <trkpt lat="48.64114" lon="-2.30949">
        <ele>10</ele>
        <time>2016-06-24T09:04:02Z</time>
      </trkpt>
      <trkpt lat="48.64114" lon="-2.30951">
        <ele>11</ele>
        <time>2016-06-24T09:04:08Z</time>
      </trkpt>
      <trkpt lat="48.64114" lon="-2.30953">
        <ele>11</ele>
        <time>2016-06-24T09:04:11Z</time>
      </trkpt>
      <trkpt lat="48.64112" lon="-2.30954">
        <ele>13</ele>
        <time>2016-06-24T09:04:17Z</time>
      </trkpt>
      <trkpt lat="48.64111" lon="-2.30955">
        <ele>13</ele>
        <time>2016-06-24T09:04:20Z</time>
      </trkpt>
      <trkpt lat="48.64112" lon="-2.30953">
        <ele>13</ele>
        <time>2016-06-24T09:04:36Z</time>
      </trkpt>
      <trkpt lat="48.64112" lon="-2.30951">
        <ele>13</ele>
        <time>2016-06-24T09:04:48Z</time>
      </trkpt>
      <trkpt lat="48.64111" lon="-2.30953">
        <ele>14</ele>
        <time>2016-06-24T09:05:04Z</time>
      </trkpt>
      <trkpt lat="48.64111" lon="-2.30955">
        <ele>17</ele>
        <time>2016-06-24T09:05:13Z</time>
      </trkpt>
      <trkpt lat="48.64111" lon="-2.30953">
        <ele>17</ele>
        <time>2016-06-24T09:05:23Z</time>
      </trkpt>
      <trkpt lat="48.64111" lon="-2.30951">
        <ele>17</ele>
        <time>2016-06-24T09:05:30Z</time>
      </trkpt>
      <trkpt lat="48.64111" lon="-2.30949">
        <ele>17</ele>
        <time>2016-06-24T09:05:50Z</time>
      </trkpt>
      <trkpt lat="48.64112" lon="-2.30948">
        <ele>16</ele>
        <time>2016-06-24T09:05:59Z</time>
      </trkpt>
      <trkpt lat="48.64113" lon="-2.30946">
        <ele>15</ele>
        <time>2016-06-24T09:06:13Z</time>
      </trkpt>
      <trkpt lat="48.64114" lon="-2.30948">
        <ele>14</ele>
        <time>2016-06-24T09:06:25Z</time>
      </trkpt>
      <trkpt lat="48.64115" lon="-2.30949">
        <ele>14</ele>
        <time>2016-06-24T09:06:28Z</time>
      </trkpt>
      <trkpt lat="48.64116" lon="-2.30951">
        <ele>14</ele>
        <time>2016-06-24T09:06:41Z</time>
      </trkpt>
      <trkpt lat="48.64116" lon="-2.30953">
        <ele>14</ele>
        <time>2016-06-24T09:06:44Z</time>
      </trkpt>
      <trkpt lat="48.64116" lon="-2.30958">
        <ele>14</ele>
        <time>2016-06-24T09:06:48Z</time>
      </trkpt>
      <trkpt lat="48.64117" lon="-2.30962">
        <ele>14</ele>
        <time>2016-06-24T09:06:52Z</time>
      </trkpt>
      <trkpt lat="48.6412" lon="-2.30965">
        <ele>14</ele>
        <time>2016-06-24T09:06:56Z</time>
      </trkpt>
      <trkpt lat="48.64122" lon="-2.30971">
        <ele>14</ele>
        <time>2016-06-24T09:07:00Z</time>
      </trkpt>
      <trkpt lat="48.64124" lon="-2.30975">
        <ele>14</ele>
        <time>2016-06-24T09:07:04Z</time>
      </trkpt>
      <trkpt lat="48.64124" lon="-2.30979">
        <ele>13</ele>
        <time>2016-06-24T09:07:16Z</time>
      </trkpt>
      <trkpt lat="48.64125" lon="-2.30981">
        <ele>12</ele>
        <time>2016-06-24T09:07:21Z</time>
      </trkpt>
      <trkpt lat="48.64126" lon="-2.30986">
        <ele>12</ele>
        <time>2016-06-24T09:07:25Z</time>
      </trkpt>
      <trkpt lat="48.64125" lon="-2.30989">
        <ele>12</ele>
        <time>2016-06-24T09:07:28Z</time>
      </trkpt>
      <trkpt lat="48.64122" lon="-2.30994">
        <ele>12</ele>
        <time>2016-06-24T09:07:33Z</time>
      </trkpt>
      <trkpt lat="48.64118" lon="-2.30998">
        <ele>12</ele>
        <time>2016-06-24T09:07:36Z</time>
      </trkpt>
      <trkpt lat="48.64117" lon="-2.31002">
        <ele>12</ele>
        <time>2016-06-24T09:07:40Z</time>
      </trkpt>
      <trkpt lat="48.64119" lon="-2.31003">
        <ele>12</ele>
        <time>2016-06-24T09:07:43Z</time>
      </trkpt>
      <trkpt lat="48.6412" lon="-2.31004">
        <ele>12</ele>
        <time>2016-06-24T09:07:46Z</time>
      </trkpt>
      <trkpt lat="48.64123" lon="-2.31009">
        <ele>12</ele>
        <time>2016-06-24T09:07:50Z</time>
      </trkpt>
      <trkpt lat="48.64126" lon="-2.31013">
        <ele>12</ele>
        <time>2016-06-24T09:07:53Z</time>
      </trkpt>
      <trkpt lat="48.64128" lon="-2.31017">
        <ele>12</ele>
        <time>2016-06-24T09:07:57Z</time>
      </trkpt>
      <trkpt lat="48.6413" lon="-2.31021">
        <ele>12</ele>
        <time>2016-06-24T09:08:01Z</time>
      </trkpt>
      <trkpt lat="48.64133" lon="-2.31025">
        <ele>12</ele>
        <time>2016-06-24T09:08:04Z</time>
      </trkpt>
      <trkpt lat="48.64136" lon="-2.31029">
        <ele>12</ele>
        <time>2016-06-24T09:08:08Z</time>
      </trkpt>
      <trkpt lat="48.64139" lon="-2.3103">
        <ele>14</ele>
        <time>2016-06-24T09:08:11Z</time>
      </trkpt>
      <trkpt lat="48.64145" lon="-2.31032">
        <ele>18</ele>
        <time>2016-06-24T09:08:15Z</time>
      </trkpt>
      <trkpt lat="48.6415" lon="-2.31031">
        <ele>20</ele>
        <time>2016-06-24T09:08:19Z</time>
      </trkpt>
      <trkpt lat="48.64153" lon="-2.3103">
        <ele>23</ele>
        <time>2016-06-24T09:08:22Z</time>
      </trkpt>
      <trkpt lat="48.64158" lon="-2.31031">
        <ele>25</ele>
        <time>2016-06-24T09:08:25Z</time>
      </trkpt>
      <trkpt lat="48.64162" lon="-2.31034">
        <ele>27</ele>
        <time>2016-06-24T09:08:28Z</time>
      </trkpt>
      <trkpt lat="48.64166" lon="-2.31037">
        <ele>28</ele>
        <time>2016-06-24T09:08:31Z</time>
      </trkpt>
      <trkpt lat="48.6417" lon="-2.31041">
        <ele>28</ele>
        <time>2016-06-24T09:08:34Z</time>
      </trkpt>
      <trkpt lat="48.64173" lon="-2.31046">
        <ele>30</ele>
        <time>2016-06-24T09:08:38Z</time>
      </trkpt>
      <trkpt lat="48.64177" lon="-2.31048">
        <ele>30</ele>
        <time>2016-06-24T09:08:42Z</time>
      </trkpt>
      <trkpt lat="48.6418" lon="-2.31051">
        <ele>30</ele>
        <time>2016-06-24T09:08:46Z</time>
      </trkpt>
      <trkpt lat="48.64182" lon="-2.31051">
        <ele>30</ele>
        <time>2016-06-24T09:08:49Z</time>
      </trkpt>
      <trkpt lat="48.64186" lon="-2.31055">
        <ele>30</ele>
        <time>2016-06-24T09:08:52Z</time>
      </trkpt>
      <trkpt lat="48.6419" lon="-2.31059">
        <ele>30</ele>
        <time>2016-06-24T09:08:55Z</time>
      </trkpt>
      <trkpt lat="48.64192" lon="-2.31061">
        <ele>30</ele>
        <time>2016-06-24T09:08:58Z</time>
      </trkpt>
      <trkpt lat="48.64195" lon="-2.31064">
        <ele>30</ele>
        <time>2016-06-24T09:09:01Z</time>
      </trkpt>
      <trkpt lat="48.64196" lon="-2.31064">
        <ele>30</ele>
        <time>2016-06-24T09:09:04Z</time>
      </trkpt>
      <trkpt lat="48.64199" lon="-2.31066">
        <ele>31</ele>
        <time>2016-06-24T09:09:07Z</time>
      </trkpt>
      <trkpt lat="48.64202" lon="-2.31067">
        <ele>31</ele>
        <time>2016-06-24T09:09:12Z</time>
      </trkpt>
      <trkpt lat="48.64204" lon="-2.31067">
        <ele>32</ele>
        <time>2016-06-24T09:09:16Z</time>
      </trkpt>
      <trkpt lat="48.64202" lon="-2.31062">
        <ele>36</ele>
        <time>2016-06-24T09:09:21Z</time>
      </trkpt>
      <trkpt lat="48.64201" lon="-2.31064">
        <ele>37</ele>
        <time>2016-06-24T09:09:25Z</time>
      </trkpt>
      <trkpt lat="48.64201" lon="-2.31065">
        <ele>37</ele>
        <time>2016-06-24T09:09:32Z</time>
      </trkpt>
      <trkpt lat="48.64202" lon="-2.31068">
        <ele>37</ele>
        <time>2016-06-24T09:09:36Z</time>
      </trkpt>
      <trkpt lat="48.64203" lon="-2.31067">
        <ele>37</ele>
        <time>2016-06-24T09:09:39Z</time>
      </trkpt>
      <trkpt lat="48.64202" lon="-2.31067">
        <ele>37</ele>
        <time>2016-06-24T09:09:43Z</time>
      </trkpt>
      <trkpt lat="48.64202" lon="-2.31072">
        <ele>37</ele>
        <time>2016-06-24T09:09:53Z</time>
      </trkpt>
      <trkpt lat="48.64202" lon="-2.3107">
        <ele>37</ele>
        <time>2016-06-24T09:09:57Z</time>
      </trkpt>
      <trkpt lat="48.64204" lon="-2.31069">
        <ele>37</ele>
        <time>2016-06-24T09:10:02Z</time>
      </trkpt>
      <trkpt lat="48.64206" lon="-2.31068">
        <ele>41</ele>
        <time>2016-06-24T09:10:09Z</time>
      </trkpt>
      <trkpt lat="48.64203" lon="-2.3107">
        <ele>41</ele>
        <time>2016-06-24T09:10:17Z</time>
      </trkpt>
      <trkpt lat="48.64203" lon="-2.3107">
        <ele>41</ele>
        <time>2016-06-24T09:10:30Z</time>
      </trkpt>
      <trkpt lat="48.64205" lon="-2.31072">
        <ele>41</ele>
        <time>2016-06-24T09:10:34Z</time>
      </trkpt>
      <trkpt lat="48.64205" lon="-2.31072">
        <ele>41</ele>
        <time>2016-06-24T09:10:40Z</time>
      </trkpt>
      <trkpt lat="48.64204" lon="-2.31072">
        <ele>41</ele>
        <time>2016-06-24T09:10:46Z</time>
      </trkpt>
      <trkpt lat="48.64204" lon="-2.3107">
        <ele>41</ele>
        <time>2016-06-24T09:10:49Z</time>
      </trkpt>
      <trkpt lat="48.64203" lon="-2.3107">
        <ele>41</ele>
        <time>2016-06-24T09:11:15Z</time>
      </trkpt>
      <trkpt lat="48.64206" lon="-2.3107">
        <ele>41</ele>
        <time>2016-06-24T09:11:23Z</time>
      </trkpt>
      <trkpt lat="48.64207" lon="-2.3107">
        <ele>41</ele>
        <time>2016-06-24T09:11:26Z</time>
      </trkpt>
      <trkpt lat="48.64208" lon="-2.31068">
        <ele>41</ele>
        <time>2016-06-24T09:11:30Z</time>
      </trkpt>
      <trkpt lat="48.6421" lon="-2.31068">
        <ele>41</ele>
        <time>2016-06-24T09:11:33Z</time>
      </trkpt>
      <trkpt lat="48.64214" lon="-2.31066">
        <ele>41</ele>
        <time>2016-06-24T09:11:36Z</time>
      </trkpt>
      <trkpt lat="48.64219" lon="-2.31065">
        <ele>40</ele>
        <time>2016-06-24T09:11:39Z</time>
      </trkpt>
      <trkpt lat="48.64225" lon="-2.31065">
        <ele>39</ele>
        <time>2016-06-24T09:11:42Z</time>
      </trkpt>
      <trkpt lat="48.64228" lon="-2.31062">
        <ele>39</ele>
        <time>2016-06-24T09:11:45Z</time>
      </trkpt>
      <trkpt lat="48.64232" lon="-2.31062">
        <ele>39</ele>
        <time>2016-06-24T09:11:49Z</time>
      </trkpt>
      <trkpt lat="48.64234" lon="-2.31059">
        <ele>38</ele>
        <time>2016-06-24T09:11:53Z</time>
      </trkpt>
      <trkpt lat="48.64235" lon="-2.31056">
        <ele>38</ele>
        <time>2016-06-24T09:11:57Z</time>
      </trkpt>
      <trkpt lat="48.64236" lon="-2.31054">
        <ele>37</ele>
        <time>2016-06-24T09:12:08Z</time>
      </trkpt>
      <trkpt lat="48.64238" lon="-2.31051">
        <ele>35</ele>
        <time>2016-06-24T09:12:12Z</time>
      </trkpt>
      <trkpt lat="48.6424" lon="-2.31049">
        <ele>35</ele>
        <time>2016-06-24T09:12:15Z</time>
      </trkpt>
      <trkpt lat="48.64241" lon="-2.31048">
        <ele>33</ele>
        <time>2016-06-24T09:12:21Z</time>
      </trkpt>
      <trkpt lat="48.64243" lon="-2.31045">
        <ele>33</ele>
        <time>2016-06-24T09:12:26Z</time>
      </trkpt>
      <trkpt lat="48.6425" lon="-2.31043">
        <ele>33</ele>
        <time>2016-06-24T09:12:31Z</time>
      </trkpt>
      <trkpt lat="48.64257" lon="-2.31044">
        <ele>33</ele>
        <time>2016-06-24T09:12:36Z</time>
      </trkpt>
      <trkpt lat="48.6426" lon="-2.31042">
        <ele>33</ele>
        <time>2016-06-24T09:12:40Z</time>
      </trkpt>
      <trkpt lat="48.64262" lon="-2.31038">
        <ele>33</ele>
        <time>2016-06-24T09:12:43Z</time>
      </trkpt>
      <trkpt lat="48.64265" lon="-2.3103">
        <ele>33</ele>
        <time>2016-06-24T09:12:48Z</time>
      </trkpt>
      <trkpt lat="48.64269" lon="-2.31029">
        <ele>33</ele>
        <time>2016-06-24T09:12:51Z</time>
      </trkpt>
      <trkpt lat="48.64272" lon="-2.31027">
        <ele>32</ele>
        <time>2016-06-24T09:12:55Z</time>
      </trkpt>
      <trkpt lat="48.64274" lon="-2.31026">
        <ele>31</ele>
        <time>2016-06-24T09:12:59Z</time>
      </trkpt>
      <trkpt lat="48.64278" lon="-2.31023">
        <ele>30</ele>
        <time>2016-06-24T09:13:03Z</time>
      </trkpt>
      <trkpt lat="48.6428" lon="-2.31021">
        <ele>29</ele>
        <time>2016-06-24T09:13:06Z</time>
      </trkpt>
      <trkpt lat="48.64284" lon="-2.31023">
        <ele>28</ele>
        <time>2016-06-24T09:13:10Z</time>
      </trkpt>
      <trkpt lat="48.64286" lon="-2.31023">
        <ele>28</ele>
        <time>2016-06-24T09:13:13Z</time>
      </trkpt>
      <trkpt lat="48.64289" lon="-2.31025">
        <ele>27</ele>
        <time>2016-06-24T09:13:16Z</time>
      </trkpt>
      <trkpt lat="48.64291" lon="-2.3102">
        <ele>26</ele>
        <time>2016-06-24T09:13:20Z</time>
      </trkpt>
      <trkpt lat="48.64296" lon="-2.31018">
        <ele>26</ele>
        <time>2016-06-24T09:13:23Z</time>
      </trkpt>
      <trkpt lat="48.64297" lon="-2.31014">
        <ele>26</ele>
        <time>2016-06-24T09:13:28Z</time>
      </trkpt>
      <trkpt lat="48.64301" lon="-2.31014">
        <ele>26</ele>
        <time>2016-06-24T09:13:31Z</time>
      </trkpt>
      <trkpt lat="48.64306" lon="-2.31014">
        <ele>26</ele>
        <time>2016-06-24T09:13:34Z</time>
      </trkpt>
      <trkpt lat="48.64309" lon="-2.31014">
        <ele>26</ele>
        <time>2016-06-24T09:13:38Z</time>
      </trkpt>
      <trkpt lat="48.64313" lon="-2.31012">
        <ele>26</ele>
        <time>2016-06-24T09:13:42Z</time>
      </trkpt>
      <trkpt lat="48.64316" lon="-2.3101">
        <ele>26</ele>
        <time>2016-06-24T09:13:46Z</time>
      </trkpt>
      <trkpt lat="48.6432" lon="-2.31007">
        <ele>26</ele>
        <time>2016-06-24T09:13:50Z</time>
      </trkpt>
      <trkpt lat="48.64325" lon="-2.31005">
        <ele>26</ele>
        <time>2016-06-24T09:13:54Z</time>
      </trkpt>
      <trkpt lat="48.6433" lon="-2.31003">
        <ele>28</ele>
        <time>2016-06-24T09:13:58Z</time>
      </trkpt>
      <trkpt lat="48.64334" lon="-2.31003">
        <ele>28</ele>
        <time>2016-06-24T09:14:02Z</time>
      </trkpt>
      <trkpt lat="48.64337" lon="-2.31002">
        <ele>28</ele>
        <time>2016-06-24T09:14:06Z</time>
      </trkpt>
      <trkpt lat="48.64338" lon="-2.31">
        <ele>28</ele>
        <time>2016-06-24T09:14:09Z</time>
      </trkpt>
      <trkpt lat="48.64341" lon="-2.31">
        <ele>28</ele>
        <time>2016-06-24T09:14:13Z</time>
      </trkpt>
      <trkpt lat="48.64344" lon="-2.30998">
        <ele>28</ele>
        <time>2016-06-24T09:14:16Z</time>
      </trkpt>
      <trkpt lat="48.64348" lon="-2.30996">
        <ele>28</ele>
        <time>2016-06-24T09:14:20Z</time>
      </trkpt>
      <trkpt lat="48.64352" lon="-2.30996">
        <ele>28</ele>
        <time>2016-06-24T09:14:24Z</time>
      </trkpt>
      <trkpt lat="48.64356" lon="-2.30995">
        <ele>28</ele>
        <time>2016-06-24T09:14:30Z</time>
      </trkpt>
      <trkpt lat="48.64359" lon="-2.30993">
        <ele>28</ele>
        <time>2016-06-24T09:14:34Z</time>
      </trkpt>
      <trkpt lat="48.6436" lon="-2.30993">
        <ele>28</ele>
        <time>2016-06-24T09:14:37Z</time>
      </trkpt>
      <trkpt lat="48.64363" lon="-2.30991">
        <ele>28</ele>
        <time>2016-06-24T09:14:43Z</time>
      </trkpt>
      <trkpt lat="48.64368" lon="-2.30987">
        <ele>28</ele>
        <time>2016-06-24T09:14:47Z</time>
      </trkpt>
      <trkpt lat="48.64372" lon="-2.30984">
        <ele>28</ele>
        <time>2016-06-24T09:14:50Z</time>
      </trkpt>
      <trkpt lat="48.64376" lon="-2.30982">
        <ele>28</ele>
        <time>2016-06-24T09:14:54Z</time>
      </trkpt>
      <trkpt lat="48.64381" lon="-2.30977">
        <ele>28</ele>
        <time>2016-06-24T09:14:59Z</time>
      </trkpt>
      <trkpt lat="48.64385" lon="-2.30976">
        <ele>28</ele>
        <time>2016-06-24T09:15:02Z</time>
      </trkpt>
      <trkpt lat="48.64388" lon="-2.30974">
        <ele>28</ele>
        <time>2016-06-24T09:15:06Z</time>
      </trkpt>
      <trkpt lat="48.64389" lon="-2.30971">
        <ele>28</ele>
        <time>2016-06-24T09:15:11Z</time>
      </trkpt>
      <trkpt lat="48.64389" lon="-2.30967">
        <ele>29</ele>
        <time>2016-06-24T09:15:15Z</time>
      </trkpt>
      <trkpt lat="48.64392" lon="-2.30966">
        <ele>30</ele>
        <time>2016-06-24T09:15:19Z</time>
      </trkpt>
      <trkpt lat="48.64394" lon="-2.30964">
        <ele>30</ele>
        <time>2016-06-24T09:15:22Z</time>
      </trkpt>
      <trkpt lat="48.644" lon="-2.30957">
        <ele>30</ele>
        <time>2016-06-24T09:15:27Z</time>
      </trkpt>
      <trkpt lat="48.64404" lon="-2.30948">
        <ele>30</ele>
        <time>2016-06-24T09:15:32Z</time>
      </trkpt>
      <trkpt lat="48.64409" lon="-2.30945">
        <ele>31</ele>
        <time>2016-06-24T09:15:37Z</time>
      </trkpt>
      <trkpt lat="48.64412" lon="-2.30939">
        <ele>31</ele>
        <time>2016-06-24T09:15:41Z</time>
      </trkpt>
      <trkpt lat="48.64415" lon="-2.30935">
        <ele>31</ele>
        <time>2016-06-24T09:15:45Z</time>
      </trkpt>
      <trkpt lat="48.64419" lon="-2.30937">
        <ele>31</ele>
        <time>2016-06-24T09:15:48Z</time>
      </trkpt>
      <trkpt lat="48.64421" lon="-2.30935">
        <ele>31</ele>
        <time>2016-06-24T09:16:03Z</time>
      </trkpt>
      <trkpt lat="48.64423" lon="-2.30934">
        <ele>31</ele>
        <time>2016-06-24T09:16:11Z</time>
      </trkpt>
      <trkpt lat="48.64424" lon="-2.30934">
        <ele>31</ele>
        <time>2016-06-24T09:16:15Z</time>
      </trkpt>
      <trkpt lat="48.64427" lon="-2.30929">
        <ele>31</ele>
        <time>2016-06-24T09:16:19Z</time>
      </trkpt>
      <trkpt lat="48.6443" lon="-2.30925">
        <ele>31</ele>
        <time>2016-06-24T09:16:22Z</time>
      </trkpt>
      <trkpt lat="48.64432" lon="-2.30921">
        <ele>31</ele>
        <time>2016-06-24T09:16:26Z</time>
      </trkpt>
      <trkpt lat="48.64434" lon="-2.30916">
        <ele>31</ele>
        <time>2016-06-24T09:16:30Z</time>
      </trkpt>
      <trkpt lat="48.64437" lon="-2.30913">
        <ele>31</ele>
        <time>2016-06-24T09:16:34Z</time>
      </trkpt>
      <trkpt lat="48.64442" lon="-2.30909">
        <ele>29</ele>
        <time>2016-06-24T09:16:38Z</time>
      </trkpt>
      <trkpt lat="48.64446" lon="-2.30905">
        <ele>29</ele>
        <time>2016-06-24T09:16:42Z</time>
      </trkpt>
      <trkpt lat="48.6445" lon="-2.30902">
        <ele>29</ele>
        <time>2016-06-24T09:16:45Z</time>
      </trkpt>
      <trkpt lat="48.64455" lon="-2.309">
        <ele>28</ele>
        <time>2016-06-24T09:16:49Z</time>
      </trkpt>
      <trkpt lat="48.64459" lon="-2.309">
        <ele>28</ele>
        <time>2016-06-24T09:16:53Z</time>
      </trkpt>
      <trkpt lat="48.64462" lon="-2.30901">
        <ele>28</ele>
        <time>2016-06-24T09:16:56Z</time>
      </trkpt>
      <trkpt lat="48.64465" lon="-2.30901">
        <ele>28</ele>
        <time>2016-06-24T09:17:00Z</time>
      </trkpt>
      <trkpt lat="48.64469" lon="-2.30899">
        <ele>28</ele>
        <time>2016-06-24T09:17:04Z</time>
      </trkpt>
      <trkpt lat="48.64472" lon="-2.30896">
        <ele>29</ele>
        <time>2016-06-24T09:17:08Z</time>
      </trkpt>
      <trkpt lat="48.64476" lon="-2.30892">
        <ele>29</ele>
        <time>2016-06-24T09:17:12Z</time>
      </trkpt>
      <trkpt lat="48.64479" lon="-2.30888">
        <ele>29</ele>
        <time>2016-06-24T09:17:16Z</time>
      </trkpt>
      <trkpt lat="48.64482" lon="-2.30884">
        <ele>29</ele>
        <time>2016-06-24T09:17:19Z</time>
      </trkpt>
      <trkpt lat="48.64485" lon="-2.30879">
        <ele>29</ele>
        <time>2016-06-24T09:17:22Z</time>
      </trkpt>
      <trkpt lat="48.6449" lon="-2.30876">
        <ele>29</ele>
        <time>2016-06-24T09:17:26Z</time>
      </trkpt>
      <trkpt lat="48.64493" lon="-2.3087">
        <ele>29</ele>
        <time>2016-06-24T09:17:30Z</time>
      </trkpt>
      <trkpt lat="48.64496" lon="-2.30867">
        <ele>29</ele>
        <time>2016-06-24T09:17:33Z</time>
      </trkpt>
      <trkpt lat="48.645" lon="-2.30861">
        <ele>29</ele>
        <time>2016-06-24T09:17:37Z</time>
      </trkpt>
      <trkpt lat="48.64504" lon="-2.30859">
        <ele>29</ele>
        <time>2016-06-24T09:17:40Z</time>
      </trkpt>
      <trkpt lat="48.64509" lon="-2.30854">
        <ele>29</ele>
        <time>2016-06-24T09:17:44Z</time>
      </trkpt>
      <trkpt lat="48.64512" lon="-2.30849">
        <ele>29</ele>
        <time>2016-06-24T09:17:47Z</time>
      </trkpt>
      <trkpt lat="48.64515" lon="-2.30846">
        <ele>29</ele>
        <time>2016-06-24T09:17:51Z</time>
      </trkpt>
      <trkpt lat="48.64521" lon="-2.30849">
        <ele>27</ele>
        <time>2016-06-24T09:17:56Z</time>
      </trkpt>
      <trkpt lat="48.64526" lon="-2.30857">
        <ele>26</ele>
        <time>2016-06-24T09:18:01Z</time>
      </trkpt>
      <trkpt lat="48.64532" lon="-2.30859">
        <ele>26</ele>
        <time>2016-06-24T09:18:05Z</time>
      </trkpt>
      <trkpt lat="48.64537" lon="-2.30864">
        <ele>26</ele>
        <time>2016-06-24T09:18:09Z</time>
      </trkpt>
      <trkpt lat="48.6454" lon="-2.30866">
        <ele>27</ele>
        <time>2016-06-24T09:18:13Z</time>
      </trkpt>
      <trkpt lat="48.64542" lon="-2.30866">
        <ele>28</ele>
        <time>2016-06-24T09:18:17Z</time>
      </trkpt>
      <trkpt lat="48.64545" lon="-2.30863">
        <ele>30</ele>
        <time>2016-06-24T09:18:21Z</time>
      </trkpt>
      <trkpt lat="48.64545" lon="-2.3086">
        <ele>32</ele>
        <time>2016-06-24T09:18:25Z</time>
      </trkpt>
      <trkpt lat="48.64546" lon="-2.30858">
        <ele>35</ele>
        <time>2016-06-24T09:18:28Z</time>
      </trkpt>
      <trkpt lat="48.64545" lon="-2.30857">
        <ele>36</ele>
        <time>2016-06-24T09:18:32Z</time>
      </trkpt>
      <trkpt lat="48.64546" lon="-2.30855">
        <ele>37</ele>
        <time>2016-06-24T09:18:35Z</time>
      </trkpt>
      <trkpt lat="48.64544" lon="-2.30855">
        <ele>38</ele>
        <time>2016-06-24T09:18:38Z</time>
      </trkpt>
      <trkpt lat="48.64541" lon="-2.30856">
        <ele>38</ele>
        <time>2016-06-24T09:18:41Z</time>
      </trkpt>
      <trkpt lat="48.64542" lon="-2.30854">
        <ele>38</ele>
        <time>2016-06-24T09:18:52Z</time>
      </trkpt>
      <trkpt lat="48.64544" lon="-2.30855">
        <ele>38</ele>
        <time>2016-06-24T09:19:00Z</time>
      </trkpt>
      <trkpt lat="48.64545" lon="-2.30856">
        <ele>38</ele>
        <time>2016-06-24T09:19:12Z</time>
      </trkpt>
      <trkpt lat="48.64546" lon="-2.30856">
        <ele>38</ele>
        <time>2016-06-24T09:19:15Z</time>
      </trkpt>
      <trkpt lat="48.64547" lon="-2.30858">
        <ele>38</ele>
        <time>2016-06-24T09:19:22Z</time>
      </trkpt>
      <trkpt lat="48.64547" lon="-2.30859">
        <ele>38</ele>
        <time>2016-06-24T09:19:30Z</time>
      </trkpt>
      <trkpt lat="48.64549" lon="-2.30859">
        <ele>38</ele>
        <time>2016-06-24T09:19:35Z</time>
      </trkpt>
      <trkpt lat="48.6455" lon="-2.30861">
        <ele>38</ele>
        <time>2016-06-24T09:19:42Z</time>
      </trkpt>
      <trkpt lat="48.64552" lon="-2.30859">
        <ele>38</ele>
        <time>2016-06-24T09:19:46Z</time>
      </trkpt>
      <trkpt lat="48.64555" lon="-2.30858">
        <ele>38</ele>
        <time>2016-06-24T09:19:49Z</time>
      </trkpt>
      <trkpt lat="48.64558" lon="-2.30857">
        <ele>38</ele>
        <time>2016-06-24T09:19:53Z</time>
      </trkpt>
      <trkpt lat="48.6456" lon="-2.30853">
        <ele>38</ele>
        <time>2016-06-24T09:19:56Z</time>
      </trkpt>
      <trkpt lat="48.64563" lon="-2.30849">
        <ele>38</ele>
        <time>2016-06-24T09:20:00Z</time>
      </trkpt>
      <trkpt lat="48.64565" lon="-2.30845">
        <ele>38</ele>
        <time>2016-06-24T09:20:03Z</time>
      </trkpt>
      <trkpt lat="48.64569" lon="-2.3084">
        <ele>38</ele>
        <time>2016-06-24T09:20:07Z</time>
      </trkpt>
      <trkpt lat="48.64571" lon="-2.30836">
        <ele>39</ele>
        <time>2016-06-24T09:20:11Z</time>
      </trkpt>
      <trkpt lat="48.64573" lon="-2.30832">
        <ele>39</ele>
        <time>2016-06-24T09:20:14Z</time>
      </trkpt>
      <trkpt lat="48.64576" lon="-2.30829">
        <ele>39</ele>
        <time>2016-06-24T09:20:18Z</time>
      </trkpt>
      <trkpt lat="48.64578" lon="-2.30826">
        <ele>40</ele>
        <time>2016-06-24T09:20:21Z</time>
      </trkpt>
      <trkpt lat="48.64581" lon="-2.30822">
        <ele>43</ele>
        <time>2016-06-24T09:20:25Z</time>
      </trkpt>
      <trkpt lat="48.64583" lon="-2.3082">
        <ele>44</ele>
        <time>2016-06-24T09:20:28Z</time>
      </trkpt>
      <trkpt lat="48.64585" lon="-2.30818">
        <ele>44</ele>
        <time>2016-06-24T09:20:31Z</time>
      </trkpt>
      <trkpt lat="48.64588" lon="-2.30815">
        <ele>45</ele>
        <time>2016-06-24T09:20:35Z</time>
      </trkpt>
      <trkpt lat="48.6459" lon="-2.30811">
        <ele>46</ele>
        <time>2016-06-24T09:20:39Z</time>
      </trkpt>
      <trkpt lat="48.64591" lon="-2.30811">
        <ele>46</ele>
        <time>2016-06-24T09:20:42Z</time>
      </trkpt>
      <trkpt lat="48.64595" lon="-2.30809">
        <ele>46</ele>
        <time>2016-06-24T09:20:46Z</time>
      </trkpt>
      <trkpt lat="48.64598" lon="-2.30807">
        <ele>46</ele>
        <time>2016-06-24T09:20:49Z</time>
      </trkpt>
      <trkpt lat="48.64602" lon="-2.30804">
        <ele>46</ele>
        <time>2016-06-24T09:20:52Z</time>
      </trkpt>
      <trkpt lat="48.64605" lon="-2.30801">
        <ele>46</ele>
        <time>2016-06-24T09:20:56Z</time>
      </trkpt>
      <trkpt lat="48.64606" lon="-2.30802">
        <ele>46</ele>
        <time>2016-06-24T09:20:59Z</time>
      </trkpt>
      <trkpt lat="48.64607" lon="-2.30801">
        <ele>46</ele>
        <time>2016-06-24T09:21:02Z</time>
      </trkpt>
      <trkpt lat="48.64608" lon="-2.30799">
        <ele>46</ele>
        <time>2016-06-24T09:21:12Z</time>
      </trkpt>
      <trkpt lat="48.6461" lon="-2.30797">
        <ele>46</ele>
        <time>2016-06-24T09:21:15Z</time>
      </trkpt>
      <trkpt lat="48.64611" lon="-2.30793">
        <ele>46</ele>
        <time>2016-06-24T09:21:18Z</time>
      </trkpt>
      <trkpt lat="48.64613" lon="-2.30788">
        <ele>46</ele>
        <time>2016-06-24T09:21:22Z</time>
      </trkpt>
      <trkpt lat="48.64615" lon="-2.30783">
        <ele>46</ele>
        <time>2016-06-24T09:21:26Z</time>
      </trkpt>
      <trkpt lat="48.64618" lon="-2.30779">
        <ele>46</ele>
        <time>2016-06-24T09:21:30Z</time>
      </trkpt>
      <trkpt lat="48.64621" lon="-2.30774">
        <ele>46</ele>
        <time>2016-06-24T09:21:34Z</time>
      </trkpt>
      <trkpt lat="48.64625" lon="-2.3077">
        <ele>46</ele>
        <time>2016-06-24T09:21:38Z</time>
      </trkpt>
      <trkpt lat="48.64628" lon="-2.30764">
        <ele>45</ele>
        <time>2016-06-24T09:21:42Z</time>
      </trkpt>
      <trkpt lat="48.64631" lon="-2.3076">
        <ele>45</ele>
        <time>2016-06-24T09:21:45Z</time>
      </trkpt>
      <trkpt lat="48.64634" lon="-2.30755">
        <ele>45</ele>
        <time>2016-06-24T09:21:49Z</time>
      </trkpt>
      <trkpt lat="48.64637" lon="-2.3075">
        <ele>45</ele>
        <time>2016-06-24T09:21:53Z</time>
      </trkpt>
      <trkpt lat="48.64638" lon="-2.30745">
        <ele>45</ele>
        <time>2016-06-24T09:21:57Z</time>
      </trkpt>
      <trkpt lat="48.6464" lon="-2.30739">
        <ele>45</ele>
        <time>2016-06-24T09:22:00Z</time>
      </trkpt>
      <trkpt lat="48.64643" lon="-2.30735">
        <ele>45</ele>
        <time>2016-06-24T09:22:04Z</time>
      </trkpt>
      <trkpt lat="48.64646" lon="-2.3073">
        <ele>45</ele>
        <time>2016-06-24T09:22:08Z</time>
      </trkpt>
      <trkpt lat="48.64649" lon="-2.30724">
        <ele>45</ele>
        <time>2016-06-24T09:22:11Z</time>
      </trkpt>
      <trkpt lat="48.64651" lon="-2.30719">
        <ele>45</ele>
        <time>2016-06-24T09:22:14Z</time>
      </trkpt>
      <trkpt lat="48.64653" lon="-2.30716">
        <ele>45</ele>
        <time>2016-06-24T09:22:17Z</time>
      </trkpt>
      <trkpt lat="48.64653" lon="-2.30714">
        <ele>45</ele>
        <time>2016-06-24T09:22:20Z</time>
      </trkpt>
      <trkpt lat="48.64654" lon="-2.30709">
        <ele>45</ele>
        <time>2016-06-24T09:22:24Z</time>
      </trkpt>
      <trkpt lat="48.64656" lon="-2.30704">
        <ele>45</ele>
        <time>2016-06-24T09:22:28Z</time>
      </trkpt>
      <trkpt lat="48.6466" lon="-2.30699">
        <ele>45</ele>
        <time>2016-06-24T09:22:32Z</time>
      </trkpt>
      <trkpt lat="48.64662" lon="-2.30694">
        <ele>45</ele>
        <time>2016-06-24T09:22:36Z</time>
      </trkpt>
      <trkpt lat="48.64665" lon="-2.30688">
        <ele>43</ele>
        <time>2016-06-24T09:22:40Z</time>
      </trkpt>
      <trkpt lat="48.64667" lon="-2.30683">
        <ele>42</ele>
        <time>2016-06-24T09:22:43Z</time>
      </trkpt>
      <trkpt lat="48.64669" lon="-2.30678">
        <ele>41</ele>
        <time>2016-06-24T09:22:47Z</time>
      </trkpt>
      <trkpt lat="48.64672" lon="-2.30671">
        <ele>41</ele>
        <time>2016-06-24T09:22:50Z</time>
      </trkpt>
      <trkpt lat="48.64674" lon="-2.30667">
        <ele>41</ele>
        <time>2016-06-24T09:22:54Z</time>
      </trkpt>
      <trkpt lat="48.64677" lon="-2.30662">
        <ele>41</ele>
        <time>2016-06-24T09:22:58Z</time>
      </trkpt>
      <trkpt lat="48.6468" lon="-2.30658">
        <ele>41</ele>
        <time>2016-06-24T09:23:01Z</time>
      </trkpt>
      <trkpt lat="48.64681" lon="-2.30656">
        <ele>41</ele>
        <time>2016-06-24T09:23:04Z</time>
      </trkpt>
      <trkpt lat="48.64682" lon="-2.30653">
        <ele>41</ele>
        <time>2016-06-24T09:23:08Z</time>
      </trkpt>
      <trkpt lat="48.64684" lon="-2.30651">
        <ele>41</ele>
        <time>2016-06-24T09:23:11Z</time>
      </trkpt>
      <trkpt lat="48.64685" lon="-2.30649">
        <ele>41</ele>
        <time>2016-06-24T09:23:15Z</time>
      </trkpt>
      <trkpt lat="48.64687" lon="-2.30648">
        <ele>41</ele>
        <time>2016-06-24T09:23:18Z</time>
      </trkpt>
      <trkpt lat="48.64688" lon="-2.30646">
        <ele>41</ele>
        <time>2016-06-24T09:23:21Z</time>
      </trkpt>
      <trkpt lat="48.6469" lon="-2.30645">
        <ele>41</ele>
        <time>2016-06-24T09:23:25Z</time>
      </trkpt>
      <trkpt lat="48.64692" lon="-2.30641">
        <ele>41</ele>
        <time>2016-06-24T09:23:29Z</time>
      </trkpt>
      <trkpt lat="48.64694" lon="-2.30636">
        <ele>41</ele>
        <time>2016-06-24T09:23:32Z</time>
      </trkpt>
      <trkpt lat="48.64695" lon="-2.3063">
        <ele>41</ele>
        <time>2016-06-24T09:23:35Z</time>
      </trkpt>
      <trkpt lat="48.64697" lon="-2.30624">
        <ele>41</ele>
        <time>2016-06-24T09:23:38Z</time>
      </trkpt>
      <trkpt lat="48.64698" lon="-2.30619">
        <ele>41</ele>
        <time>2016-06-24T09:23:41Z</time>
      </trkpt>
      <trkpt lat="48.64701" lon="-2.30615">
        <ele>41</ele>
        <time>2016-06-24T09:23:44Z</time>
      </trkpt>
      <trkpt lat="48.64703" lon="-2.30611">
        <ele>41</ele>
        <time>2016-06-24T09:23:48Z</time>
      </trkpt>
      <trkpt lat="48.64706" lon="-2.30609">
        <ele>41</ele>
        <time>2016-06-24T09:23:51Z</time>
      </trkpt>
      <trkpt lat="48.6471" lon="-2.30604">
        <ele>41</ele>
        <time>2016-06-24T09:23:54Z</time>
      </trkpt>
      <trkpt lat="48.64713" lon="-2.30599">
        <ele>41</ele>
        <time>2016-06-24T09:23:57Z</time>
      </trkpt>
      <trkpt lat="48.64714" lon="-2.30595">
        <ele>41</ele>
        <time>2016-06-24T09:24:00Z</time>
      </trkpt>
      <trkpt lat="48.64718" lon="-2.30591">
        <ele>41</ele>
        <time>2016-06-24T09:24:04Z</time>
      </trkpt>
      <trkpt lat="48.64721" lon="-2.30587">
        <ele>41</ele>
        <time>2016-06-24T09:24:07Z</time>
      </trkpt>
      <trkpt lat="48.64724" lon="-2.30584">
        <ele>41</ele>
        <time>2016-06-24T09:24:10Z</time>
      </trkpt>
      <trkpt lat="48.64727" lon="-2.30581">
        <ele>40</ele>
        <time>2016-06-24T09:24:13Z</time>
      </trkpt>
      <trkpt lat="48.6473" lon="-2.30579">
        <ele>39</ele>
        <time>2016-06-24T09:24:16Z</time>
      </trkpt>
      <trkpt lat="48.64734" lon="-2.30574">
        <ele>38</ele>
        <time>2016-06-24T09:24:20Z</time>
      </trkpt>
      <trkpt lat="48.64737" lon="-2.3057">
        <ele>37</ele>
        <time>2016-06-24T09:24:24Z</time>
      </trkpt>
      <trkpt lat="48.64741" lon="-2.30565">
        <ele>36</ele>
        <time>2016-06-24T09:24:28Z</time>
      </trkpt>
      <trkpt lat="48.64744" lon="-2.30562">
        <ele>35</ele>
        <time>2016-06-24T09:24:32Z</time>
      </trkpt>
      <trkpt lat="48.64746" lon="-2.30558">
        <ele>34</ele>
        <time>2016-06-24T09:24:36Z</time>
      </trkpt>
      <trkpt lat="48.64749" lon="-2.30554">
        <ele>34</ele>
        <time>2016-06-24T09:24:40Z</time>
      </trkpt>
      <trkpt lat="48.64752" lon="-2.30549">
        <ele>33</ele>
        <time>2016-06-24T09:24:43Z</time>
      </trkpt>
      <trkpt lat="48.64755" lon="-2.30545">
        <ele>33</ele>
        <time>2016-06-24T09:24:46Z</time>
      </trkpt>
      <trkpt lat="48.64758" lon="-2.30543">
        <ele>33</ele>
        <time>2016-06-24T09:24:49Z</time>
      </trkpt>
      <trkpt lat="48.64762" lon="-2.30538">
        <ele>32</ele>
        <time>2016-06-24T09:24:52Z</time>
      </trkpt>
      <trkpt lat="48.64765" lon="-2.3053">
        <ele>32</ele>
        <time>2016-06-24T09:24:55Z</time>
      </trkpt>
      <trkpt lat="48.64768" lon="-2.30525">
        <ele>32</ele>
        <time>2016-06-24T09:24:58Z</time>
      </trkpt>
      <trkpt lat="48.64771" lon="-2.30521">
        <ele>31</ele>
        <time>2016-06-24T09:25:01Z</time>
      </trkpt>
      <trkpt lat="48.64774" lon="-2.30516">
        <ele>31</ele>
        <time>2016-06-24T09:25:04Z</time>
      </trkpt>
      <trkpt lat="48.64776" lon="-2.30511">
        <ele>31</ele>
        <time>2016-06-24T09:25:08Z</time>
      </trkpt>
      <trkpt lat="48.6478" lon="-2.30509">
        <ele>31</ele>
        <time>2016-06-24T09:25:12Z</time>
      </trkpt>
      <trkpt lat="48.64782" lon="-2.30505">
        <ele>31</ele>
        <time>2016-06-24T09:25:16Z</time>
      </trkpt>
      <trkpt lat="48.64785" lon="-2.30501">
        <ele>31</ele>
        <time>2016-06-24T09:25:19Z</time>
      </trkpt>
      <trkpt lat="48.64789" lon="-2.30497">
        <ele>31</ele>
        <time>2016-06-24T09:25:24Z</time>
      </trkpt>
      <trkpt lat="48.64793" lon="-2.30494">
        <ele>31</ele>
        <time>2016-06-24T09:25:27Z</time>
      </trkpt>
      <trkpt lat="48.64796" lon="-2.30489">
        <ele>31</ele>
        <time>2016-06-24T09:25:31Z</time>
      </trkpt>
      <trkpt lat="48.64797" lon="-2.30485">
        <ele>31</ele>
        <time>2016-06-24T09:25:36Z</time>
      </trkpt>
      <trkpt lat="48.64796" lon="-2.30479">
        <ele>31</ele>
        <time>2016-06-24T09:25:40Z</time>
      </trkpt>
      <trkpt lat="48.64796" lon="-2.30474">
        <ele>31</ele>
        <time>2016-06-24T09:25:43Z</time>
      </trkpt>
      <trkpt lat="48.64795" lon="-2.30468">
        <ele>32</ele>
        <time>2016-06-24T09:25:46Z</time>
      </trkpt>
      <trkpt lat="48.64794" lon="-2.30464">
        <ele>33</ele>
        <time>2016-06-24T09:25:49Z</time>
      </trkpt>
      <trkpt lat="48.64795" lon="-2.30461">
        <ele>34</ele>
        <time>2016-06-24T09:25:53Z</time>
      </trkpt>
      <trkpt lat="48.64795" lon="-2.30458">
        <ele>34</ele>
        <time>2016-06-24T09:25:56Z</time>
      </trkpt>
      <trkpt lat="48.64795" lon="-2.30453">
        <ele>35</ele>
        <time>2016-06-24T09:26:00Z</time>
      </trkpt>
      <trkpt lat="48.64795" lon="-2.30451">
        <ele>35</ele>
        <time>2016-06-24T09:26:03Z</time>
      </trkpt>
      <trkpt lat="48.64797" lon="-2.30446">
        <ele>35</ele>
        <time>2016-06-24T09:26:07Z</time>
      </trkpt>
      <trkpt lat="48.648" lon="-2.30439">
        <ele>35</ele>
        <time>2016-06-24T09:26:10Z</time>
      </trkpt>
      <trkpt lat="48.64802" lon="-2.30435">
        <ele>35</ele>
        <time>2016-06-24T09:26:13Z</time>
      </trkpt>
      <trkpt lat="48.64804" lon="-2.3043">
        <ele>35</ele>
        <time>2016-06-24T09:26:17Z</time>
      </trkpt>
      <trkpt lat="48.64807" lon="-2.30424">
        <ele>35</ele>
        <time>2016-06-24T09:26:21Z</time>
      </trkpt>
      <trkpt lat="48.64809" lon="-2.30418">
        <ele>35</ele>
        <time>2016-06-24T09:26:25Z</time>
      </trkpt>
      <trkpt lat="48.64811" lon="-2.30413">
        <ele>35</ele>
        <time>2016-06-24T09:26:28Z</time>
      </trkpt>
      <trkpt lat="48.64814" lon="-2.30409">
        <ele>35</ele>
        <time>2016-06-24T09:26:31Z</time>
      </trkpt>
      <trkpt lat="48.64817" lon="-2.30404">
        <ele>35</ele>
        <time>2016-06-24T09:26:35Z</time>
      </trkpt>
      <trkpt lat="48.64819" lon="-2.304">
        <ele>35</ele>
        <time>2016-06-24T09:26:39Z</time>
      </trkpt>
      <trkpt lat="48.64821" lon="-2.30395">
        <ele>35</ele>
        <time>2016-06-24T09:26:43Z</time>
      </trkpt>
      <trkpt lat="48.64822" lon="-2.30391">
        <ele>35</ele>
        <time>2016-06-24T09:26:48Z</time>
      </trkpt>
      <trkpt lat="48.64822" lon="-2.30389">
        <ele>35</ele>
        <time>2016-06-24T09:26:52Z</time>
      </trkpt>
      <trkpt lat="48.64823" lon="-2.30387">
        <ele>35</ele>
        <time>2016-06-24T09:26:55Z</time>
      </trkpt>
      <trkpt lat="48.64826" lon="-2.30385">
        <ele>35</ele>
        <time>2016-06-24T09:26:59Z</time>
      </trkpt>
      <trkpt lat="48.6483" lon="-2.30384">
        <ele>35</ele>
        <time>2016-06-24T09:27:03Z</time>
      </trkpt>
      <trkpt lat="48.64835" lon="-2.30382">
        <ele>35</ele>
        <time>2016-06-24T09:27:07Z</time>
      </trkpt>
      <trkpt lat="48.64839" lon="-2.30379">
        <ele>34</ele>
        <time>2016-06-24T09:27:11Z</time>
      </trkpt>
      <trkpt lat="48.64843" lon="-2.30374">
        <ele>33</ele>
        <time>2016-06-24T09:27:15Z</time>
      </trkpt>
      <trkpt lat="48.64846" lon="-2.3037">
        <ele>33</ele>
        <time>2016-06-24T09:27:18Z</time>
      </trkpt>
      <trkpt lat="48.64851" lon="-2.30365">
        <ele>33</ele>
        <time>2016-06-24T09:27:21Z</time>
      </trkpt>
      <trkpt lat="48.64855" lon="-2.30363">
        <ele>33</ele>
        <time>2016-06-24T09:27:24Z</time>
      </trkpt>
      <trkpt lat="48.64858" lon="-2.30364">
        <ele>33</ele>
        <time>2016-06-24T09:27:27Z</time>
      </trkpt>
      <trkpt lat="48.64861" lon="-2.30363">
        <ele>33</ele>
        <time>2016-06-24T09:27:31Z</time>
      </trkpt>
      <trkpt lat="48.64864" lon="-2.30362">
        <ele>33</ele>
        <time>2016-06-24T09:27:35Z</time>
      </trkpt>
      <trkpt lat="48.64867" lon="-2.30359">
        <ele>33</ele>
        <time>2016-06-24T09:27:39Z</time>
      </trkpt>
      <trkpt lat="48.6487" lon="-2.30358">
        <ele>33</ele>
        <time>2016-06-24T09:27:43Z</time>
      </trkpt>
      <trkpt lat="48.64874" lon="-2.30353">
        <ele>33</ele>
        <time>2016-06-24T09:27:47Z</time>
      </trkpt>
      <trkpt lat="48.64878" lon="-2.30352">
        <ele>33</ele>
        <time>2016-06-24T09:27:50Z</time>
      </trkpt>
      <trkpt lat="48.64881" lon="-2.30352">
        <ele>33</ele>
        <time>2016-06-24T09:27:53Z</time>
      </trkpt>
      <trkpt lat="48.64885" lon="-2.30351">
        <ele>33</ele>
        <time>2016-06-24T09:27:57Z</time>
      </trkpt>
      <trkpt lat="48.64888" lon="-2.3035">
        <ele>32</ele>
        <time>2016-06-24T09:28:00Z</time>
      </trkpt>
      <trkpt lat="48.64893" lon="-2.30348">
        <ele>32</ele>
        <time>2016-06-24T09:28:04Z</time>
      </trkpt>
      <trkpt lat="48.64897" lon="-2.30346">
        <ele>32</ele>
        <time>2016-06-24T09:28:08Z</time>
      </trkpt>
      <trkpt lat="48.64901" lon="-2.30344">
        <ele>30</ele>
        <time>2016-06-24T09:28:12Z</time>
      </trkpt>
      <trkpt lat="48.64904" lon="-2.30342">
        <ele>30</ele>
        <time>2016-06-24T09:28:15Z</time>
      </trkpt>
      <trkpt lat="48.64909" lon="-2.3034">
        <ele>30</ele>
        <time>2016-06-24T09:28:19Z</time>
      </trkpt>
      <trkpt lat="48.64911" lon="-2.30336">
        <ele>30</ele>
        <time>2016-06-24T09:28:22Z</time>
      </trkpt>
      <trkpt lat="48.64913" lon="-2.3033">
        <ele>30</ele>
        <time>2016-06-24T09:28:26Z</time>
      </trkpt>
      <trkpt lat="48.64913" lon="-2.30325">
        <ele>30</ele>
        <time>2016-06-24T09:28:30Z</time>
      </trkpt>
      <trkpt lat="48.64913" lon="-2.30321">
        <ele>30</ele>
        <time>2016-06-24T09:28:33Z</time>
      </trkpt>
      <trkpt lat="48.64915" lon="-2.30316">
        <ele>30</ele>
        <time>2016-06-24T09:28:38Z</time>
      </trkpt>
      <trkpt lat="48.64914" lon="-2.30312">
        <ele>30</ele>
        <time>2016-06-24T09:28:42Z</time>
      </trkpt>
      <trkpt lat="48.64915" lon="-2.30311">
        <ele>30</ele>
        <time>2016-06-24T09:28:46Z</time>
      </trkpt>
      <trkpt lat="48.64918" lon="-2.3031">
        <ele>30</ele>
        <time>2016-06-24T09:28:49Z</time>
      </trkpt>
      <trkpt lat="48.64922" lon="-2.30307">
        <ele>30</ele>
        <time>2016-06-24T09:28:53Z</time>
      </trkpt>
      <trkpt lat="48.64923" lon="-2.30303">
        <ele>30</ele>
        <time>2016-06-24T09:28:56Z</time>
      </trkpt>
      <trkpt lat="48.64925" lon="-2.30299">
        <ele>30</ele>
        <time>2016-06-24T09:29:00Z</time>
      </trkpt>
      <trkpt lat="48.64928" lon="-2.30293">
        <ele>29</ele>
        <time>2016-06-24T09:29:03Z</time>
      </trkpt>
      <trkpt lat="48.6493" lon="-2.3029">
        <ele>28</ele>
        <time>2016-06-24T09:29:06Z</time>
      </trkpt>
      <trkpt lat="48.64931" lon="-2.30283">
        <ele>28</ele>
        <time>2016-06-24T09:29:09Z</time>
      </trkpt>
      <trkpt lat="48.64934" lon="-2.30279">
        <ele>28</ele>
        <time>2016-06-24T09:29:12Z</time>
      </trkpt>
      <trkpt lat="48.64936" lon="-2.30273">
        <ele>28</ele>
        <time>2016-06-24T09:29:15Z</time>
      </trkpt>
      <trkpt lat="48.64936" lon="-2.30267">
        <ele>28</ele>
        <time>2016-06-24T09:29:18Z</time>
      </trkpt>
      <trkpt lat="48.64934" lon="-2.30262">
        <ele>28</ele>
        <time>2016-06-24T09:29:21Z</time>
      </trkpt>
      <trkpt lat="48.64933" lon="-2.30257">
        <ele>28</ele>
        <time>2016-06-24T09:29:24Z</time>
      </trkpt>
      <trkpt lat="48.64933" lon="-2.30253">
        <ele>28</ele>
        <time>2016-06-24T09:29:27Z</time>
      </trkpt>
      <trkpt lat="48.64935" lon="-2.30252">
        <ele>28</ele>
        <time>2016-06-24T09:29:30Z</time>
      </trkpt>
      <trkpt lat="48.64935" lon="-2.3025">
        <ele>29</ele>
        <time>2016-06-24T09:29:35Z</time>
      </trkpt>
      <trkpt lat="48.64936" lon="-2.30248">
        <ele>30</ele>
        <time>2016-06-24T09:29:38Z</time>
      </trkpt>
      <trkpt lat="48.64938" lon="-2.30246">
        <ele>31</ele>
        <time>2016-06-24T09:29:41Z</time>
      </trkpt>
      <trkpt lat="48.6494" lon="-2.30243">
        <ele>32</ele>
        <time>2016-06-24T09:29:46Z</time>
      </trkpt>
      <trkpt lat="48.64943" lon="-2.30242">
        <ele>33</ele>
        <time>2016-06-24T09:29:49Z</time>
      </trkpt>
      <trkpt lat="48.64944" lon="-2.30242">
        <ele>33</ele>
        <time>2016-06-24T09:29:52Z</time>
      </trkpt>
      <trkpt lat="48.64946" lon="-2.30243">
        <ele>33</ele>
        <time>2016-06-24T09:29:55Z</time>
      </trkpt>
      <trkpt lat="48.64952" lon="-2.30244">
        <ele>34</ele>
        <time>2016-06-24T09:30:03Z</time>
      </trkpt>
      <trkpt lat="48.64956" lon="-2.30248">
        <ele>34</ele>
        <time>2016-06-24T09:30:06Z</time>
      </trkpt>
      <trkpt lat="48.6496" lon="-2.30245">
        <ele>34</ele>
        <time>2016-06-24T09:30:11Z</time>
      </trkpt>
      <trkpt lat="48.64962" lon="-2.30244">
        <ele>34</ele>
        <time>2016-06-24T09:30:14Z</time>
      </trkpt>
      <trkpt lat="48.64962" lon="-2.30242">
        <ele>35</ele>
        <time>2016-06-24T09:30:17Z</time>
      </trkpt>
      <trkpt lat="48.64963" lon="-2.30241">
        <ele>36</ele>
        <time>2016-06-24T09:30:20Z</time>
      </trkpt>
      <trkpt lat="48.64963" lon="-2.30237">
        <ele>37</ele>
        <time>2016-06-24T09:30:24Z</time>
      </trkpt>
      <trkpt lat="48.64962" lon="-2.30232">
        <ele>38</ele>
        <time>2016-06-24T09:30:28Z</time>
      </trkpt>
      <trkpt lat="48.64962" lon="-2.30229">
        <ele>38</ele>
        <time>2016-06-24T09:30:32Z</time>
      </trkpt>
      <trkpt lat="48.64962" lon="-2.30227">
        <ele>38</ele>
        <time>2016-06-24T09:30:35Z</time>
      </trkpt>
      <trkpt lat="48.64963" lon="-2.30227">
        <ele>38</ele>
        <time>2016-06-24T09:30:38Z</time>
      </trkpt>
      <trkpt lat="48.64966" lon="-2.30227">
        <ele>38</ele>
        <time>2016-06-24T09:30:42Z</time>
      </trkpt>
      <trkpt lat="48.64969" lon="-2.30227">
        <ele>38</ele>
        <time>2016-06-24T09:30:47Z</time>
      </trkpt>
      <trkpt lat="48.64971" lon="-2.30225">
        <ele>38</ele>
        <time>2016-06-24T09:30:50Z</time>
      </trkpt>
      <trkpt lat="48.64971" lon="-2.30224">
        <ele>38</ele>
        <time>2016-06-24T09:30:53Z</time>
      </trkpt>
      <trkpt lat="48.64971" lon="-2.3022">
        <ele>40</ele>
        <time>2016-06-24T09:30:57Z</time>
      </trkpt>
      <trkpt lat="48.6497" lon="-2.30216">
        <ele>42</ele>
        <time>2016-06-24T09:31:01Z</time>
      </trkpt>
      <trkpt lat="48.6497" lon="-2.3021">
        <ele>43</ele>
        <time>2016-06-24T09:31:05Z</time>
      </trkpt>
      <trkpt lat="48.64969" lon="-2.30205">
        <ele>44</ele>
        <time>2016-06-24T09:31:09Z</time>
      </trkpt>
      <trkpt lat="48.64969" lon="-2.302">
        <ele>44</ele>
        <time>2016-06-24T09:31:13Z</time>
      </trkpt>
      <trkpt lat="48.6497" lon="-2.30195">
        <ele>44</ele>
        <time>2016-06-24T09:31:16Z</time>
      </trkpt>
      <trkpt lat="48.6497" lon="-2.3019">
        <ele>44</ele>
        <time>2016-06-24T09:31:19Z</time>
      </trkpt>
      <trkpt lat="48.64971" lon="-2.30186">
        <ele>44</ele>
        <time>2016-06-24T09:31:22Z</time>
      </trkpt>
      <trkpt lat="48.64972" lon="-2.30184">
        <ele>44</ele>
        <time>2016-06-24T09:31:33Z</time>
      </trkpt>
      <trkpt lat="48.64974" lon="-2.30178">
        <ele>44</ele>
        <time>2016-06-24T09:31:37Z</time>
      </trkpt>
      <trkpt lat="48.64975" lon="-2.30174">
        <ele>44</ele>
        <time>2016-06-24T09:31:41Z</time>
      </trkpt>
      <trkpt lat="48.64977" lon="-2.3017">
        <ele>44</ele>
        <time>2016-06-24T09:31:45Z</time>
      </trkpt>
      <trkpt lat="48.64978" lon="-2.30169">
        <ele>44</ele>
        <time>2016-06-24T09:32:04Z</time>
      </trkpt>
      <trkpt lat="48.64979" lon="-2.30166">
        <ele>44</ele>
        <time>2016-06-24T09:32:07Z</time>
      </trkpt>
      <trkpt lat="48.6498" lon="-2.30164">
        <ele>44</ele>
        <time>2016-06-24T09:32:10Z</time>
      </trkpt>
      <trkpt lat="48.6498" lon="-2.30162">
        <ele>44</ele>
        <time>2016-06-24T09:32:13Z</time>
      </trkpt>
      <trkpt lat="48.64983" lon="-2.30156">
        <ele>44</ele>
        <time>2016-06-24T09:32:17Z</time>
      </trkpt>
      <trkpt lat="48.64986" lon="-2.30152">
        <ele>44</ele>
        <time>2016-06-24T09:32:21Z</time>
      </trkpt>
      <trkpt lat="48.6499" lon="-2.30148">
        <ele>44</ele>
        <time>2016-06-24T09:32:25Z</time>
      </trkpt>
      <trkpt lat="48.64992" lon="-2.30144">
        <ele>44</ele>
        <time>2016-06-24T09:32:28Z</time>
      </trkpt>
      <trkpt lat="48.64996" lon="-2.30139">
        <ele>44</ele>
        <time>2016-06-24T09:32:32Z</time>
      </trkpt>
      <trkpt lat="48.64999" lon="-2.30134">
        <ele>43</ele>
        <time>2016-06-24T09:32:36Z</time>
      </trkpt>
      <trkpt lat="48.65002" lon="-2.3013">
        <ele>42</ele>
        <time>2016-06-24T09:32:40Z</time>
      </trkpt>
      <trkpt lat="48.65004" lon="-2.30126">
        <ele>42</ele>
        <time>2016-06-24T09:32:44Z</time>
      </trkpt>
      <trkpt lat="48.65007" lon="-2.3012">
        <ele>42</ele>
        <time>2016-06-24T09:32:48Z</time>
      </trkpt>
      <trkpt lat="48.6501" lon="-2.30115">
        <ele>41</ele>
        <time>2016-06-24T09:32:52Z</time>
      </trkpt>
      <trkpt lat="48.65013" lon="-2.30113">
        <ele>40</ele>
        <time>2016-06-24T09:32:56Z</time>
      </trkpt>
      <trkpt lat="48.65016" lon="-2.30111">
        <ele>39</ele>
        <time>2016-06-24T09:33:00Z</time>
      </trkpt>
      <trkpt lat="48.6502" lon="-2.30111">
        <ele>39</ele>
        <time>2016-06-24T09:33:03Z</time>
      </trkpt>
      <trkpt lat="48.65023" lon="-2.3011">
        <ele>39</ele>
        <time>2016-06-24T09:33:06Z</time>
      </trkpt>
      <trkpt lat="48.65027" lon="-2.30108">
        <ele>38</ele>
        <time>2016-06-24T09:33:10Z</time>
      </trkpt>
      <trkpt lat="48.65031" lon="-2.30106">
        <ele>38</ele>
        <time>2016-06-24T09:33:14Z</time>
      </trkpt>
      <trkpt lat="48.65034" lon="-2.30103">
        <ele>38</ele>
        <time>2016-06-24T09:33:18Z</time>
      </trkpt>
      <trkpt lat="48.65037" lon="-2.30101">
        <ele>38</ele>
        <time>2016-06-24T09:33:21Z</time>
      </trkpt>
      <trkpt lat="48.65041" lon="-2.30099">
        <ele>38</ele>
        <time>2016-06-24T09:33:24Z</time>
      </trkpt>
      <trkpt lat="48.65045" lon="-2.30095">
        <ele>37</ele>
        <time>2016-06-24T09:33:28Z</time>
      </trkpt>
      <trkpt lat="48.65048" lon="-2.30094">
        <ele>36</ele>
        <time>2016-06-24T09:33:31Z</time>
      </trkpt>
      <trkpt lat="48.65052" lon="-2.30093">
        <ele>36</ele>
        <time>2016-06-24T09:33:34Z</time>
      </trkpt>
      <trkpt lat="48.65055" lon="-2.3009">
        <ele>35</ele>
        <time>2016-06-24T09:33:38Z</time>
      </trkpt>
      <trkpt lat="48.65058" lon="-2.30085">
        <ele>35</ele>
        <time>2016-06-24T09:33:42Z</time>
      </trkpt>
      <trkpt lat="48.65061" lon="-2.30082">
        <ele>35</ele>
        <time>2016-06-24T09:33:46Z</time>
      </trkpt>
      <trkpt lat="48.65064" lon="-2.30079">
        <ele>35</ele>
        <time>2016-06-24T09:33:50Z</time>
      </trkpt>
      <trkpt lat="48.65067" lon="-2.30077">
        <ele>33</ele>
        <time>2016-06-24T09:33:54Z</time>
      </trkpt>
      <trkpt lat="48.65069" lon="-2.30074">
        <ele>32</ele>
        <time>2016-06-24T09:33:57Z</time>
      </trkpt>
      <trkpt lat="48.65071" lon="-2.30073">
        <ele>32</ele>
        <time>2016-06-24T09:34:00Z</time>
      </trkpt>
      <trkpt lat="48.65072" lon="-2.30071">
        <ele>31</ele>
        <time>2016-06-24T09:34:03Z</time>
      </trkpt>
      <trkpt lat="48.65075" lon="-2.30066">
        <ele>31</ele>
        <time>2016-06-24T09:34:07Z</time>
      </trkpt>
      <trkpt lat="48.65077" lon="-2.30064">
        <ele>29</ele>
        <time>2016-06-24T09:34:13Z</time>
      </trkpt>
      <trkpt lat="48.65078" lon="-2.30062">
        <ele>29</ele>
        <time>2016-06-24T09:34:16Z</time>
      </trkpt>
      <trkpt lat="48.65078" lon="-2.30059">
        <ele>28</ele>
        <time>2016-06-24T09:34:19Z</time>
      </trkpt>
      <trkpt lat="48.65079" lon="-2.30054">
        <ele>27</ele>
        <time>2016-06-24T09:34:22Z</time>
      </trkpt>
      <trkpt lat="48.65081" lon="-2.3005">
        <ele>27</ele>
        <time>2016-06-24T09:34:25Z</time>
      </trkpt>
      <trkpt lat="48.65081" lon="-2.30048">
        <ele>26</ele>
        <time>2016-06-24T09:34:28Z</time>
      </trkpt>
      <trkpt lat="48.65082" lon="-2.30046">
        <ele>25</ele>
        <time>2016-06-24T09:34:31Z</time>
      </trkpt>
      <trkpt lat="48.65085" lon="-2.30043">
        <ele>25</ele>
        <time>2016-06-24T09:34:34Z</time>
      </trkpt>
      <trkpt lat="48.65088" lon="-2.30042">
        <ele>24</ele>
        <time>2016-06-24T09:34:37Z</time>
      </trkpt>
      <trkpt lat="48.65092" lon="-2.3004">
        <ele>24</ele>
        <time>2016-06-24T09:34:40Z</time>
      </trkpt>
      <trkpt lat="48.65096" lon="-2.30038">
        <ele>24</ele>
        <time>2016-06-24T09:34:43Z</time>
      </trkpt>
      <trkpt lat="48.65099" lon="-2.30037">
        <ele>24</ele>
        <time>2016-06-24T09:34:46Z</time>
      </trkpt>
      <trkpt lat="48.65104" lon="-2.30036">
        <ele>24</ele>
        <time>2016-06-24T09:34:50Z</time>
      </trkpt>
      <trkpt lat="48.65107" lon="-2.30034">
        <ele>24</ele>
        <time>2016-06-24T09:34:53Z</time>
      </trkpt>
      <trkpt lat="48.65108" lon="-2.30033">
        <ele>24</ele>
        <time>2016-06-24T09:34:56Z</time>
      </trkpt>
      <trkpt lat="48.65108" lon="-2.30031">
        <ele>24</ele>
        <time>2016-06-24T09:35:01Z</time>
      </trkpt>
      <trkpt lat="48.65109" lon="-2.30033">
        <ele>24</ele>
        <time>2016-06-24T09:35:09Z</time>
      </trkpt>
      <trkpt lat="48.65108" lon="-2.30035">
        <ele>24</ele>
        <time>2016-06-24T09:35:14Z</time>
      </trkpt>
      <trkpt lat="48.65107" lon="-2.30034">
        <ele>24</ele>
        <time>2016-06-24T09:35:34Z</time>
      </trkpt>
      <trkpt lat="48.65107" lon="-2.30032">
        <ele>24</ele>
        <time>2016-06-24T09:35:42Z</time>
      </trkpt>
      <trkpt lat="48.65106" lon="-2.30031">
        <ele>25</ele>
        <time>2016-06-24T09:35:58Z</time>
      </trkpt>
      <trkpt lat="48.65107" lon="-2.30031">
        <ele>25</ele>
        <time>2016-06-24T09:36:08Z</time>
      </trkpt>
      <trkpt lat="48.65109" lon="-2.3003">
        <ele>25</ele>
        <time>2016-06-24T09:36:18Z</time>
      </trkpt>
      <trkpt lat="48.65111" lon="-2.30026">
        <ele>25</ele>
        <time>2016-06-24T09:36:22Z</time>
      </trkpt>
      <trkpt lat="48.65113" lon="-2.3002">
        <ele>25</ele>
        <time>2016-06-24T09:36:26Z</time>
      </trkpt>
      <trkpt lat="48.65115" lon="-2.30015">
        <ele>25</ele>
        <time>2016-06-24T09:36:30Z</time>
      </trkpt>
      <trkpt lat="48.65117" lon="-2.30009">
        <ele>25</ele>
        <time>2016-06-24T09:36:34Z</time>
      </trkpt>
      <trkpt lat="48.65118" lon="-2.30003">
        <ele>25</ele>
        <time>2016-06-24T09:36:37Z</time>
      </trkpt>
      <trkpt lat="48.65122" lon="-2.30002">
        <ele>25</ele>
        <time>2016-06-24T09:36:41Z</time>
      </trkpt>
      <trkpt lat="48.65125" lon="-2.30007">
        <ele>25</ele>
        <time>2016-06-24T09:36:44Z</time>
      </trkpt>
      <trkpt lat="48.65128" lon="-2.30013">
        <ele>25</ele>
        <time>2016-06-24T09:36:48Z</time>
      </trkpt>
      <trkpt lat="48.6513" lon="-2.30018">
        <ele>25</ele>
        <time>2016-06-24T09:36:52Z</time>
      </trkpt>
      <trkpt lat="48.65133" lon="-2.30018">
        <ele>25</ele>
        <time>2016-06-24T09:36:56Z</time>
      </trkpt>
      <trkpt lat="48.65134" lon="-2.30021">
        <ele>25</ele>
        <time>2016-06-24T09:36:59Z</time>
      </trkpt>
      <trkpt lat="48.65137" lon="-2.30023">
        <ele>25</ele>
        <time>2016-06-24T09:37:03Z</time>
      </trkpt>
      <trkpt lat="48.65139" lon="-2.30026">
        <ele>25</ele>
        <time>2016-06-24T09:37:08Z</time>
      </trkpt>
      <trkpt lat="48.65143" lon="-2.30029">
        <ele>25</ele>
        <time>2016-06-24T09:37:12Z</time>
      </trkpt>
      <trkpt lat="48.65146" lon="-2.30029">
        <ele>25</ele>
        <time>2016-06-24T09:37:16Z</time>
      </trkpt>
      <trkpt lat="48.65149" lon="-2.3003">
        <ele>25</ele>
        <time>2016-06-24T09:37:19Z</time>
      </trkpt>
      <trkpt lat="48.65152" lon="-2.30031">
        <ele>25</ele>
        <time>2016-06-24T09:37:25Z</time>
      </trkpt>
      <trkpt lat="48.65153" lon="-2.30027">
        <ele>25</ele>
        <time>2016-06-24T09:37:32Z</time>
      </trkpt>
      <trkpt lat="48.65153" lon="-2.30019">
        <ele>25</ele>
        <time>2016-06-24T09:37:35Z</time>
      </trkpt>
      <trkpt lat="48.65154" lon="-2.30015">
        <ele>25</ele>
        <time>2016-06-24T09:37:39Z</time>
      </trkpt>
      <trkpt lat="48.65155" lon="-2.30013">
        <ele>27</ele>
        <time>2016-06-24T09:37:43Z</time>
      </trkpt>
      <trkpt lat="48.65154" lon="-2.30009">
        <ele>27</ele>
        <time>2016-06-24T09:37:47Z</time>
      </trkpt>
      <trkpt lat="48.65154" lon="-2.30005">
        <ele>28</ele>
        <time>2016-06-24T09:37:51Z</time>
      </trkpt>
      <trkpt lat="48.65155" lon="-2.30002">
        <ele>29</ele>
        <time>2016-06-24T09:37:54Z</time>
      </trkpt>
      <trkpt lat="48.65155" lon="-2.3">
        <ele>30</ele>
        <time>2016-06-24T09:37:57Z</time>
      </trkpt>
      <trkpt lat="48.65155" lon="-2.29998">
        <ele>31</ele>
        <time>2016-06-24T09:38:00Z</time>
      </trkpt>
      <trkpt lat="48.65155" lon="-2.29995">
        <ele>32</ele>
        <time>2016-06-24T09:38:03Z</time>
      </trkpt>
      <trkpt lat="48.65156" lon="-2.29991">
        <ele>32</ele>
        <time>2016-06-24T09:38:07Z</time>
      </trkpt>
      <trkpt lat="48.65155" lon="-2.29987">
        <ele>33</ele>
        <time>2016-06-24T09:38:11Z</time>
      </trkpt>
      <trkpt lat="48.65156" lon="-2.29982">
        <ele>34</ele>
        <time>2016-06-24T09:38:15Z</time>
      </trkpt>
      <trkpt lat="48.65155" lon="-2.29978">
        <ele>34</ele>
        <time>2016-06-24T09:38:20Z</time>
      </trkpt>
      <trkpt lat="48.65154" lon="-2.29975">
        <ele>36</ele>
        <time>2016-06-24T09:38:24Z</time>
      </trkpt>
      <trkpt lat="48.65154" lon="-2.2997">
        <ele>37</ele>
        <time>2016-06-24T09:38:28Z</time>
      </trkpt>
      <trkpt lat="48.65154" lon="-2.29965">
        <ele>37</ele>
        <time>2016-06-24T09:38:32Z</time>
      </trkpt>
      <trkpt lat="48.65153" lon="-2.2996">
        <ele>38</ele>
        <time>2016-06-24T09:38:36Z</time>
      </trkpt>
      <trkpt lat="48.65154" lon="-2.29957">
        <ele>39</ele>
        <time>2016-06-24T09:38:40Z</time>
      </trkpt>
      <trkpt lat="48.65154" lon="-2.29953">
        <ele>39</ele>
        <time>2016-06-24T09:38:45Z</time>
      </trkpt>
      <trkpt lat="48.65152" lon="-2.29948">
        <ele>39</ele>
        <time>2016-06-24T09:38:49Z</time>
      </trkpt>
      <trkpt lat="48.6515" lon="-2.29943">
        <ele>39</ele>
        <time>2016-06-24T09:38:53Z</time>
      </trkpt>
      <trkpt lat="48.65148" lon="-2.29937">
        <ele>40</ele>
        <time>2016-06-24T09:38:57Z</time>
      </trkpt>
      <trkpt lat="48.65147" lon="-2.29932">
        <ele>42</ele>
        <time>2016-06-24T09:39:04Z</time>
      </trkpt>
      <trkpt lat="48.65146" lon="-2.29933">
        <ele>43</ele>
        <time>2016-06-24T09:39:09Z</time>
      </trkpt>
      <trkpt lat="48.65145" lon="-2.29931">
        <ele>45</ele>
        <time>2016-06-24T09:39:14Z</time>
      </trkpt>
      <trkpt lat="48.65144" lon="-2.29925">
        <ele>45</ele>
        <time>2016-06-24T09:39:18Z</time>
      </trkpt>
      <trkpt lat="48.65144" lon="-2.2992">
        <ele>45</ele>
        <time>2016-06-24T09:39:21Z</time>
      </trkpt>
      <trkpt lat="48.65146" lon="-2.29915">
        <ele>46</ele>
        <time>2016-06-24T09:39:25Z</time>
      </trkpt>
      <trkpt lat="48.65148" lon="-2.29914">
        <ele>47</ele>
        <time>2016-06-24T09:39:29Z</time>
      </trkpt>
      <trkpt lat="48.6515" lon="-2.2991">
        <ele>48</ele>
        <time>2016-06-24T09:39:33Z</time>
      </trkpt>
      <trkpt lat="48.65151" lon="-2.29907">
        <ele>51</ele>
        <time>2016-06-24T09:39:45Z</time>
      </trkpt>
      <trkpt lat="48.65153" lon="-2.29902">
        <ele>51</ele>
        <time>2016-06-24T09:39:49Z</time>
      </trkpt>
      <trkpt lat="48.65156" lon="-2.29897">
        <ele>51</ele>
        <time>2016-06-24T09:39:53Z</time>
      </trkpt>
      <trkpt lat="48.6516" lon="-2.29895">
        <ele>52</ele>
        <time>2016-06-24T09:39:57Z</time>
      </trkpt>
      <trkpt lat="48.65163" lon="-2.29896">
        <ele>52</ele>
        <time>2016-06-24T09:40:01Z</time>
      </trkpt>
      <trkpt lat="48.65167" lon="-2.29899">
        <ele>52</ele>
        <time>2016-06-24T09:40:05Z</time>
      </trkpt>
      <trkpt lat="48.65171" lon="-2.299">
        <ele>53</ele>
        <time>2016-06-24T09:40:09Z</time>
      </trkpt>
      <trkpt lat="48.65174" lon="-2.29902">
        <ele>53</ele>
        <time>2016-06-24T09:40:20Z</time>
      </trkpt>
      <trkpt lat="48.65177" lon="-2.29905">
        <ele>54</ele>
        <time>2016-06-24T09:40:24Z</time>
      </trkpt>
      <trkpt lat="48.6518" lon="-2.29907">
        <ele>54</ele>
        <time>2016-06-24T09:40:29Z</time>
      </trkpt>
      <trkpt lat="48.65181" lon="-2.29909">
        <ele>54</ele>
        <time>2016-06-24T09:40:32Z</time>
      </trkpt>
      <trkpt lat="48.65184" lon="-2.29909">
        <ele>54</ele>
        <time>2016-06-24T09:40:38Z</time>
      </trkpt>
      <trkpt lat="48.65185" lon="-2.29905">
        <ele>55</ele>
        <time>2016-06-24T09:40:43Z</time>
      </trkpt>
      <trkpt lat="48.65185" lon="-2.29904">
        <ele>57</ele>
        <time>2016-06-24T09:40:50Z</time>
      </trkpt>
      <trkpt lat="48.65186" lon="-2.29905">
        <ele>58</ele>
        <time>2016-06-24T09:41:01Z</time>
      </trkpt>
      <trkpt lat="48.65184" lon="-2.29909">
        <ele>58</ele>
        <time>2016-06-24T09:41:05Z</time>
      </trkpt>
      <trkpt lat="48.65186" lon="-2.29908">
        <ele>58</ele>
        <time>2016-06-24T09:41:16Z</time>
      </trkpt>
      <trkpt lat="48.65187" lon="-2.29904">
        <ele>58</ele>
        <time>2016-06-24T09:41:20Z</time>
      </trkpt>
      <trkpt lat="48.65187" lon="-2.299">
        <ele>58</ele>
        <time>2016-06-24T09:41:24Z</time>
      </trkpt>
      <trkpt lat="48.6519" lon="-2.29897">
        <ele>58</ele>
        <time>2016-06-24T09:41:28Z</time>
      </trkpt>
      <trkpt lat="48.65193" lon="-2.29898">
        <ele>58</ele>
        <time>2016-06-24T09:41:31Z</time>
      </trkpt>
      <trkpt lat="48.65196" lon="-2.29899">
        <ele>59</ele>
        <time>2016-06-24T09:41:35Z</time>
      </trkpt>
      <trkpt lat="48.65199" lon="-2.29901">
        <ele>59</ele>
        <time>2016-06-24T09:41:39Z</time>
      </trkpt>
      <trkpt lat="48.65203" lon="-2.29899">
        <ele>60</ele>
        <time>2016-06-24T09:41:43Z</time>
      </trkpt>
      <trkpt lat="48.65206" lon="-2.29895">
        <ele>60</ele>
        <time>2016-06-24T09:41:47Z</time>
      </trkpt>
      <trkpt lat="48.65208" lon="-2.29892">
        <ele>61</ele>
        <time>2016-06-24T09:41:59Z</time>
      </trkpt>
      <trkpt lat="48.65212" lon="-2.2989">
        <ele>61</ele>
        <time>2016-06-24T09:42:03Z</time>
      </trkpt>
      <trkpt lat="48.65216" lon="-2.2989">
        <ele>61</ele>
        <time>2016-06-24T09:42:06Z</time>
      </trkpt>
      <trkpt lat="48.6522" lon="-2.29893">
        <ele>61</ele>
        <time>2016-06-24T09:42:10Z</time>
      </trkpt>
      <trkpt lat="48.65224" lon="-2.29896">
        <ele>61</ele>
        <time>2016-06-24T09:42:14Z</time>
      </trkpt>
      <trkpt lat="48.65227" lon="-2.29898">
        <ele>61</ele>
        <time>2016-06-24T09:42:17Z</time>
      </trkpt>
      <trkpt lat="48.65232" lon="-2.29901">
        <ele>61</ele>
        <time>2016-06-24T09:42:21Z</time>
      </trkpt>
      <trkpt lat="48.65236" lon="-2.29904">
        <ele>61</ele>
        <time>2016-06-24T09:42:25Z</time>
      </trkpt>
      <trkpt lat="48.65239" lon="-2.29907">
        <ele>61</ele>
        <time>2016-06-24T09:42:29Z</time>
      </trkpt>
      <trkpt lat="48.65243" lon="-2.2991">
        <ele>61</ele>
        <time>2016-06-24T09:42:32Z</time>
      </trkpt>
      <trkpt lat="48.65247" lon="-2.29913">
        <ele>61</ele>
        <time>2016-06-24T09:42:35Z</time>
      </trkpt>
      <trkpt lat="48.65251" lon="-2.29916">
        <ele>61</ele>
        <time>2016-06-24T09:42:39Z</time>
      </trkpt>
      <trkpt lat="48.65255" lon="-2.29916">
        <ele>61</ele>
        <time>2016-06-24T09:42:42Z</time>
      </trkpt>
      <trkpt lat="48.65257" lon="-2.29912">
        <ele>62</ele>
        <time>2016-06-24T09:42:46Z</time>
      </trkpt>
      <trkpt lat="48.65257" lon="-2.29907">
        <ele>62</ele>
        <time>2016-06-24T09:42:49Z</time>
      </trkpt>
      <trkpt lat="48.65258" lon="-2.299">
        <ele>62</ele>
        <time>2016-06-24T09:42:52Z</time>
      </trkpt>
      <trkpt lat="48.65258" lon="-2.29894">
        <ele>62</ele>
        <time>2016-06-24T09:42:55Z</time>
      </trkpt>
      <trkpt lat="48.65261" lon="-2.2989">
        <ele>62</ele>
        <time>2016-06-24T09:42:58Z</time>
      </trkpt>
      <trkpt lat="48.65264" lon="-2.29887">
        <ele>62</ele>
        <time>2016-06-24T09:43:02Z</time>
      </trkpt>
      <trkpt lat="48.65267" lon="-2.29887">
        <ele>62</ele>
        <time>2016-06-24T09:43:05Z</time>
      </trkpt>
      <trkpt lat="48.65271" lon="-2.29886">
        <ele>62</ele>
        <time>2016-06-24T09:43:08Z</time>
      </trkpt>
      <trkpt lat="48.65274" lon="-2.29884">
        <ele>62</ele>
        <time>2016-06-24T09:43:12Z</time>
      </trkpt>
      <trkpt lat="48.65277" lon="-2.29883">
        <ele>62</ele>
        <time>2016-06-24T09:43:15Z</time>
      </trkpt>
      <trkpt lat="48.65281" lon="-2.2988">
        <ele>62</ele>
        <time>2016-06-24T09:43:19Z</time>
      </trkpt>
      <trkpt lat="48.65284" lon="-2.29879">
        <ele>62</ele>
        <time>2016-06-24T09:43:22Z</time>
      </trkpt>
      <trkpt lat="48.65288" lon="-2.29878">
        <ele>62</ele>
        <time>2016-06-24T09:43:26Z</time>
      </trkpt>
      <trkpt lat="48.65291" lon="-2.29876">
        <ele>62</ele>
        <time>2016-06-24T09:43:29Z</time>
      </trkpt>
      <trkpt lat="48.65294" lon="-2.29873">
        <ele>62</ele>
        <time>2016-06-24T09:43:33Z</time>
      </trkpt>
      <trkpt lat="48.65297" lon="-2.2987">
        <ele>62</ele>
        <time>2016-06-24T09:43:36Z</time>
      </trkpt>
      <trkpt lat="48.653" lon="-2.29868">
        <ele>62</ele>
        <time>2016-06-24T09:43:40Z</time>
      </trkpt>
      <trkpt lat="48.65304" lon="-2.29864">
        <ele>61</ele>
        <time>2016-06-24T09:43:44Z</time>
      </trkpt>
      <trkpt lat="48.65308" lon="-2.2986">
        <ele>61</ele>
        <time>2016-06-24T09:43:47Z</time>
      </trkpt>
      <trkpt lat="48.65311" lon="-2.29859">
        <ele>60</ele>
        <time>2016-06-24T09:43:50Z</time>
      </trkpt>
      <trkpt lat="48.65316" lon="-2.29859">
        <ele>58</ele>
        <time>2016-06-24T09:43:54Z</time>
      </trkpt>
      <trkpt lat="48.6532" lon="-2.29858">
        <ele>56</ele>
        <time>2016-06-24T09:43:58Z</time>
      </trkpt>
      <trkpt lat="48.65324" lon="-2.29857">
        <ele>56</ele>
        <time>2016-06-24T09:44:01Z</time>
      </trkpt>
      <trkpt lat="48.65327" lon="-2.29857">
        <ele>56</ele>
        <time>2016-06-24T09:44:04Z</time>
      </trkpt>
      <trkpt lat="48.65331" lon="-2.29857">
        <ele>56</ele>
        <time>2016-06-24T09:44:07Z</time>
      </trkpt>
      <trkpt lat="48.65335" lon="-2.29856">
        <ele>56</ele>
        <time>2016-06-24T09:44:10Z</time>
      </trkpt>
      <trkpt lat="48.65339" lon="-2.29855">
        <ele>56</ele>
        <time>2016-06-24T09:44:13Z</time>
      </trkpt>
      <trkpt lat="48.65343" lon="-2.29854">
        <ele>56</ele>
        <time>2016-06-24T09:44:16Z</time>
      </trkpt>
      <trkpt lat="48.65347" lon="-2.29853">
        <ele>56</ele>
        <time>2016-06-24T09:44:19Z</time>
      </trkpt>
      <trkpt lat="48.65351" lon="-2.29854">
        <ele>56</ele>
        <time>2016-06-24T09:44:23Z</time>
      </trkpt>
      <trkpt lat="48.65355" lon="-2.29855">
        <ele>56</ele>
        <time>2016-06-24T09:44:27Z</time>
      </trkpt>
      <trkpt lat="48.65358" lon="-2.29855">
        <ele>55</ele>
        <time>2016-06-24T09:44:30Z</time>
      </trkpt>
      <trkpt lat="48.65363" lon="-2.29856">
        <ele>54</ele>
        <time>2016-06-24T09:44:34Z</time>
      </trkpt>
      <trkpt lat="48.65367" lon="-2.29857">
        <ele>54</ele>
        <time>2016-06-24T09:44:37Z</time>
      </trkpt>
      <trkpt lat="48.65371" lon="-2.29858">
        <ele>53</ele>
        <time>2016-06-24T09:44:40Z</time>
      </trkpt>
      <trkpt lat="48.65375" lon="-2.29857">
        <ele>53</ele>
        <time>2016-06-24T09:44:43Z</time>
      </trkpt>
      <trkpt lat="48.65379" lon="-2.29856">
        <ele>53</ele>
        <time>2016-06-24T09:44:46Z</time>
      </trkpt>
      <trkpt lat="48.65384" lon="-2.29854">
        <ele>53</ele>
        <time>2016-06-24T09:44:49Z</time>
      </trkpt>
      <trkpt lat="48.65389" lon="-2.29854">
        <ele>53</ele>
        <time>2016-06-24T09:44:52Z</time>
      </trkpt>
      <trkpt lat="48.65393" lon="-2.29855">
        <ele>53</ele>
        <time>2016-06-24T09:44:55Z</time>
      </trkpt>
      <trkpt lat="48.65397" lon="-2.29855">
        <ele>53</ele>
        <time>2016-06-24T09:44:58Z</time>
      </trkpt>
      <trkpt lat="48.65401" lon="-2.29855">
        <ele>53</ele>
        <time>2016-06-24T09:45:01Z</time>
      </trkpt>
      <trkpt lat="48.65405" lon="-2.29856">
        <ele>53</ele>
        <time>2016-06-24T09:45:04Z</time>
      </trkpt>
      <trkpt lat="48.65409" lon="-2.29856">
        <ele>53</ele>
        <time>2016-06-24T09:45:07Z</time>
      </trkpt>
      <trkpt lat="48.65413" lon="-2.29856">
        <ele>53</ele>
        <time>2016-06-24T09:45:10Z</time>
      </trkpt>
      <trkpt lat="48.65417" lon="-2.29855">
        <ele>53</ele>
        <time>2016-06-24T09:45:13Z</time>
      </trkpt>
      <trkpt lat="48.65421" lon="-2.29855">
        <ele>53</ele>
        <time>2016-06-24T09:45:16Z</time>
      </trkpt>
      <trkpt lat="48.65425" lon="-2.29853">
        <ele>53</ele>
        <time>2016-06-24T09:45:20Z</time>
      </trkpt>
      <trkpt lat="48.65429" lon="-2.29852">
        <ele>53</ele>
        <time>2016-06-24T09:45:23Z</time>
      </trkpt>
      <trkpt lat="48.65432" lon="-2.29851">
        <ele>52</ele>
        <time>2016-06-24T09:45:26Z</time>
      </trkpt>
      <trkpt lat="48.65436" lon="-2.29851">
        <ele>52</ele>
        <time>2016-06-24T09:45:29Z</time>
      </trkpt>
      <trkpt lat="48.6544" lon="-2.29853">
        <ele>52</ele>
        <time>2016-06-24T09:45:32Z</time>
      </trkpt>
      <trkpt lat="48.65443" lon="-2.29855">
        <ele>51</ele>
        <time>2016-06-24T09:45:35Z</time>
      </trkpt>
      <trkpt lat="48.65445" lon="-2.29859">
        <ele>51</ele>
        <time>2016-06-24T09:45:39Z</time>
      </trkpt>
      <trkpt lat="48.65446" lon="-2.29861">
        <ele>51</ele>
        <time>2016-06-24T09:45:42Z</time>
      </trkpt>
      <trkpt lat="48.65449" lon="-2.29866">
        <ele>51</ele>
        <time>2016-06-24T09:45:46Z</time>
      </trkpt>
      <trkpt lat="48.65452" lon="-2.29871">
        <ele>51</ele>
        <time>2016-06-24T09:45:50Z</time>
      </trkpt>
      <trkpt lat="48.65455" lon="-2.29875">
        <ele>51</ele>
        <time>2016-06-24T09:45:54Z</time>
      </trkpt>
      <trkpt lat="48.65459" lon="-2.2988">
        <ele>51</ele>
        <time>2016-06-24T09:45:58Z</time>
      </trkpt>
      <trkpt lat="48.65462" lon="-2.29883">
        <ele>51</ele>
        <time>2016-06-24T09:46:07Z</time>
      </trkpt>
      <trkpt lat="48.65465" lon="-2.29888">
        <ele>51</ele>
        <time>2016-06-24T09:46:11Z</time>
      </trkpt>
      <trkpt lat="48.65467" lon="-2.29892">
        <ele>51</ele>
        <time>2016-06-24T09:46:14Z</time>
      </trkpt>
      <trkpt lat="48.65469" lon="-2.29897">
        <ele>51</ele>
        <time>2016-06-24T09:46:17Z</time>
      </trkpt>
      <trkpt lat="48.65472" lon="-2.29901">
        <ele>51</ele>
        <time>2016-06-24T09:46:20Z</time>
      </trkpt>
      <trkpt lat="48.65475" lon="-2.29903">
        <ele>51</ele>
        <time>2016-06-24T09:46:23Z</time>
      </trkpt>
      <trkpt lat="48.65478" lon="-2.29906">
        <ele>51</ele>
        <time>2016-06-24T09:46:26Z</time>
      </trkpt>
      <trkpt lat="48.65483" lon="-2.29909">
        <ele>51</ele>
        <time>2016-06-24T09:46:30Z</time>
      </trkpt>
      <trkpt lat="48.65486" lon="-2.29911">
        <ele>51</ele>
        <time>2016-06-24T09:46:33Z</time>
      </trkpt>
      <trkpt lat="48.6549" lon="-2.29915">
        <ele>51</ele>
        <time>2016-06-24T09:46:37Z</time>
      </trkpt>
      <trkpt lat="48.65493" lon="-2.29917">
        <ele>51</ele>
        <time>2016-06-24T09:46:41Z</time>
      </trkpt>
      <trkpt lat="48.65496" lon="-2.29915">
        <ele>51</ele>
        <time>2016-06-24T09:46:45Z</time>
      </trkpt>
      <trkpt lat="48.655" lon="-2.29914">
        <ele>51</ele>
        <time>2016-06-24T09:46:48Z</time>
      </trkpt>
      <trkpt lat="48.65503" lon="-2.29919">
        <ele>51</ele>
        <time>2016-06-24T09:46:52Z</time>
      </trkpt>
      <trkpt lat="48.65506" lon="-2.29924">
        <ele>52</ele>
        <time>2016-06-24T09:46:56Z</time>
      </trkpt>
      <trkpt lat="48.6551" lon="-2.29926">
        <ele>52</ele>
        <time>2016-06-24T09:46:59Z</time>
      </trkpt>
      <trkpt lat="48.65514" lon="-2.29929">
        <ele>52</ele>
        <time>2016-06-24T09:47:03Z</time>
      </trkpt>
      <trkpt lat="48.65517" lon="-2.29932">
        <ele>52</ele>
        <time>2016-06-24T09:47:06Z</time>
      </trkpt>
      <trkpt lat="48.6552" lon="-2.29931">
        <ele>52</ele>
        <time>2016-06-24T09:47:10Z</time>
      </trkpt>
      <trkpt lat="48.65524" lon="-2.29932">
        <ele>52</ele>
        <time>2016-06-24T09:47:14Z</time>
      </trkpt>
      <trkpt lat="48.65527" lon="-2.29932">
        <ele>52</ele>
        <time>2016-06-24T09:47:18Z</time>
      </trkpt>
      <trkpt lat="48.6553" lon="-2.29933">
        <ele>51</ele>
        <time>2016-06-24T09:47:22Z</time>
      </trkpt>
      <trkpt lat="48.65534" lon="-2.29935">
        <ele>50</ele>
        <time>2016-06-24T09:47:26Z</time>
      </trkpt>
      <trkpt lat="48.65536" lon="-2.29938">
        <ele>50</ele>
        <time>2016-06-24T09:47:31Z</time>
      </trkpt>
      <trkpt lat="48.65539" lon="-2.29937">
        <ele>50</ele>
        <time>2016-06-24T09:47:35Z</time>
      </trkpt>
      <trkpt lat="48.6554" lon="-2.29939">
        <ele>49</ele>
        <time>2016-06-24T09:47:38Z</time>
      </trkpt>
      <trkpt lat="48.65542" lon="-2.29941">
        <ele>47</ele>
        <time>2016-06-24T09:47:41Z</time>
      </trkpt>
      <trkpt lat="48.65543" lon="-2.29944">
        <ele>45</ele>
        <time>2016-06-24T09:47:45Z</time>
      </trkpt>
      <trkpt lat="48.65544" lon="-2.29946">
        <ele>44</ele>
        <time>2016-06-24T09:47:49Z</time>
      </trkpt>
      <trkpt lat="48.65546" lon="-2.29947">
        <ele>44</ele>
        <time>2016-06-24T09:47:53Z</time>
      </trkpt>
      <trkpt lat="48.65548" lon="-2.29949">
        <ele>44</ele>
        <time>2016-06-24T09:47:57Z</time>
      </trkpt>
      <trkpt lat="48.65551" lon="-2.29952">
        <ele>44</ele>
        <time>2016-06-24T09:48:01Z</time>
      </trkpt>
      <trkpt lat="48.65554" lon="-2.29952">
        <ele>44</ele>
        <time>2016-06-24T09:48:04Z</time>
      </trkpt>
      <trkpt lat="48.65557" lon="-2.29952">
        <ele>44</ele>
        <time>2016-06-24T09:48:07Z</time>
      </trkpt>
      <trkpt lat="48.6556" lon="-2.2995">
        <ele>44</ele>
        <time>2016-06-24T09:48:11Z</time>
      </trkpt>
      <trkpt lat="48.65562" lon="-2.29947">
        <ele>44</ele>
        <time>2016-06-24T09:48:15Z</time>
      </trkpt>
      <trkpt lat="48.65562" lon="-2.29943">
        <ele>45</ele>
        <time>2016-06-24T09:48:19Z</time>
      </trkpt>
      <trkpt lat="48.65563" lon="-2.29942">
        <ele>47</ele>
        <time>2016-06-24T09:48:22Z</time>
      </trkpt>
      <trkpt lat="48.65564" lon="-2.29938">
        <ele>50</ele>
        <time>2016-06-24T09:48:26Z</time>
      </trkpt>
      <trkpt lat="48.65563" lon="-2.29934">
        <ele>51</ele>
        <time>2016-06-24T09:48:29Z</time>
      </trkpt>
      <trkpt lat="48.65561" lon="-2.29929">
        <ele>51</ele>
        <time>2016-06-24T09:48:32Z</time>
      </trkpt>
      <trkpt lat="48.65559" lon="-2.29924">
        <ele>51</ele>
        <time>2016-06-24T09:48:36Z</time>
      </trkpt>
      <trkpt lat="48.65558" lon="-2.29918">
        <ele>51</ele>
        <time>2016-06-24T09:48:39Z</time>
      </trkpt>
      <trkpt lat="48.65557" lon="-2.29914">
        <ele>51</ele>
        <time>2016-06-24T09:48:42Z</time>
      </trkpt>
      <trkpt lat="48.65557" lon="-2.29908">
        <ele>51</ele>
        <time>2016-06-24T09:48:45Z</time>
      </trkpt>
      <trkpt lat="48.65558" lon="-2.29903">
        <ele>51</ele>
        <time>2016-06-24T09:48:49Z</time>
      </trkpt>
      <trkpt lat="48.65559" lon="-2.29898">
        <ele>51</ele>
        <time>2016-06-24T09:48:52Z</time>
      </trkpt>
      <trkpt lat="48.65557" lon="-2.29891">
        <ele>51</ele>
        <time>2016-06-24T09:48:55Z</time>
      </trkpt>
      <trkpt lat="48.65557" lon="-2.29884">
        <ele>51</ele>
        <time>2016-06-24T09:48:58Z</time>
      </trkpt>
      <trkpt lat="48.65556" lon="-2.29877">
        <ele>51</ele>
        <time>2016-06-24T09:49:01Z</time>
      </trkpt>
      <trkpt lat="48.65557" lon="-2.2987">
        <ele>52</ele>
        <time>2016-06-24T09:49:05Z</time>
      </trkpt>
      <trkpt lat="48.65558" lon="-2.29865">
        <ele>53</ele>
        <time>2016-06-24T09:49:08Z</time>
      </trkpt>
      <trkpt lat="48.65559" lon="-2.29859">
        <ele>55</ele>
        <time>2016-06-24T09:49:11Z</time>
      </trkpt>
      <trkpt lat="48.65559" lon="-2.29854">
        <ele>56</ele>
        <time>2016-06-24T09:49:14Z</time>
      </trkpt>
      <trkpt lat="48.65557" lon="-2.29849">
        <ele>56</ele>
        <time>2016-06-24T09:49:17Z</time>
      </trkpt>
      <trkpt lat="48.65557" lon="-2.29843">
        <ele>57</ele>
        <time>2016-06-24T09:49:21Z</time>
      </trkpt>
      <trkpt lat="48.65557" lon="-2.29839">
        <ele>57</ele>
        <time>2016-06-24T09:49:24Z</time>
      </trkpt>
      <trkpt lat="48.65556" lon="-2.29833">
        <ele>57</ele>
        <time>2016-06-24T09:49:28Z</time>
      </trkpt>
      <trkpt lat="48.65557" lon="-2.29826">
        <ele>57</ele>
        <time>2016-06-24T09:49:31Z</time>
      </trkpt>
      <trkpt lat="48.6556" lon="-2.2982">
        <ele>57</ele>
        <time>2016-06-24T09:49:34Z</time>
      </trkpt>
      <trkpt lat="48.65564" lon="-2.29814">
        <ele>55</ele>
        <time>2016-06-24T09:49:37Z</time>
      </trkpt>
      <trkpt lat="48.65567" lon="-2.29809">
        <ele>52</ele>
        <time>2016-06-24T09:49:40Z</time>
      </trkpt>
      <trkpt lat="48.65569" lon="-2.29804">
        <ele>49</ele>
        <time>2016-06-24T09:49:43Z</time>
      </trkpt>
      <trkpt lat="48.65572" lon="-2.29799">
        <ele>47</ele>
        <time>2016-06-24T09:49:47Z</time>
      </trkpt>
      <trkpt lat="48.65574" lon="-2.29795">
        <ele>46</ele>
        <time>2016-06-24T09:49:50Z</time>
      </trkpt>
      <trkpt lat="48.65576" lon="-2.29791">
        <ele>44</ele>
        <time>2016-06-24T09:49:53Z</time>
      </trkpt>
      <trkpt lat="48.65578" lon="-2.29785">
        <ele>43</ele>
        <time>2016-06-24T09:49:56Z</time>
      </trkpt>
      <trkpt lat="48.6558" lon="-2.2978">
        <ele>43</ele>
        <time>2016-06-24T09:49:59Z</time>
      </trkpt>
      <trkpt lat="48.65582" lon="-2.29774">
        <ele>43</ele>
        <time>2016-06-24T09:50:03Z</time>
      </trkpt>
      <trkpt lat="48.65586" lon="-2.29769">
        <ele>43</ele>
        <time>2016-06-24T09:50:07Z</time>
      </trkpt>
      <trkpt lat="48.65588" lon="-2.29765">
        <ele>43</ele>
        <time>2016-06-24T09:50:10Z</time>
      </trkpt>
      <trkpt lat="48.65593" lon="-2.2976">
        <ele>43</ele>
        <time>2016-06-24T09:50:14Z</time>
      </trkpt>
      <trkpt lat="48.65596" lon="-2.29759">
        <ele>43</ele>
        <time>2016-06-24T09:50:17Z</time>
      </trkpt>
      <trkpt lat="48.65601" lon="-2.29758">
        <ele>43</ele>
        <time>2016-06-24T09:50:21Z</time>
      </trkpt>
      <trkpt lat="48.65604" lon="-2.29757">
        <ele>43</ele>
        <time>2016-06-24T09:50:25Z</time>
      </trkpt>
      <trkpt lat="48.65607" lon="-2.29756">
        <ele>43</ele>
        <time>2016-06-24T09:50:29Z</time>
      </trkpt>
      <trkpt lat="48.65609" lon="-2.29754">
        <ele>43</ele>
        <time>2016-06-24T09:50:33Z</time>
      </trkpt>
      <trkpt lat="48.65612" lon="-2.29752">
        <ele>43</ele>
        <time>2016-06-24T09:50:37Z</time>
      </trkpt>
      <trkpt lat="48.65615" lon="-2.2975">
        <ele>43</ele>
        <time>2016-06-24T09:50:41Z</time>
      </trkpt>
      <trkpt lat="48.65618" lon="-2.2975">
        <ele>43</ele>
        <time>2016-06-24T09:50:45Z</time>
      </trkpt>
      <trkpt lat="48.65621" lon="-2.2975">
        <ele>43</ele>
        <time>2016-06-24T09:50:49Z</time>
      </trkpt>
      <trkpt lat="48.65623" lon="-2.29749">
        <ele>43</ele>
        <time>2016-06-24T09:50:54Z</time>
      </trkpt>
      <trkpt lat="48.65627" lon="-2.2975">
        <ele>44</ele>
        <time>2016-06-24T09:51:01Z</time>
      </trkpt>
      <trkpt lat="48.65628" lon="-2.29747">
        <ele>44</ele>
        <time>2016-06-24T09:51:05Z</time>
      </trkpt>
      <trkpt lat="48.65631" lon="-2.29745">
        <ele>44</ele>
        <time>2016-06-24T09:51:10Z</time>
      </trkpt>
      <trkpt lat="48.65634" lon="-2.29745">
        <ele>44</ele>
        <time>2016-06-24T09:51:13Z</time>
      </trkpt>
      <trkpt lat="48.65637" lon="-2.29745">
        <ele>44</ele>
        <time>2016-06-24T09:51:17Z</time>
      </trkpt>
      <trkpt lat="48.65642" lon="-2.29747">
        <ele>44</ele>
        <time>2016-06-24T09:51:21Z</time>
      </trkpt>
      <trkpt lat="48.65644" lon="-2.29749">
        <ele>43</ele>
        <time>2016-06-24T09:51:26Z</time>
      </trkpt>
      <trkpt lat="48.65645" lon="-2.29747">
        <ele>43</ele>
        <time>2016-06-24T09:51:29Z</time>
      </trkpt>
      <trkpt lat="48.65646" lon="-2.29744">
        <ele>43</ele>
        <time>2016-06-24T09:51:32Z</time>
      </trkpt>
      <trkpt lat="48.65644" lon="-2.29744">
        <ele>43</ele>
        <time>2016-06-24T09:51:35Z</time>
      </trkpt>
      <trkpt lat="48.65644" lon="-2.29742">
        <ele>46</ele>
        <time>2016-06-24T09:51:44Z</time>
      </trkpt>
      <trkpt lat="48.65644" lon="-2.2974">
        <ele>49</ele>
        <time>2016-06-24T09:51:47Z</time>
      </trkpt>
      <trkpt lat="48.65645" lon="-2.29738">
        <ele>50</ele>
        <time>2016-06-24T09:51:50Z</time>
      </trkpt>
      <trkpt lat="48.65646" lon="-2.29735">
        <ele>50</ele>
        <time>2016-06-24T09:51:53Z</time>
      </trkpt>
      <trkpt lat="48.65644" lon="-2.29731">
        <ele>50</ele>
        <time>2016-06-24T09:51:57Z</time>
      </trkpt>
      <trkpt lat="48.65644" lon="-2.29726">
        <ele>50</ele>
        <time>2016-06-24T09:52:01Z</time>
      </trkpt>
      <trkpt lat="48.65643" lon="-2.2972">
        <ele>50</ele>
        <time>2016-06-24T09:52:04Z</time>
      </trkpt>
      <trkpt lat="48.65644" lon="-2.29716">
        <ele>50</ele>
        <time>2016-06-24T09:52:07Z</time>
      </trkpt>
      <trkpt lat="48.65644" lon="-2.29711">
        <ele>50</ele>
        <time>2016-06-24T09:52:11Z</time>
      </trkpt>
      <trkpt lat="48.65645" lon="-2.29706">
        <ele>50</ele>
        <time>2016-06-24T09:52:15Z</time>
      </trkpt>
      <trkpt lat="48.65648" lon="-2.29701">
        <ele>49</ele>
        <time>2016-06-24T09:52:19Z</time>
      </trkpt>
      <trkpt lat="48.65652" lon="-2.29698">
        <ele>48</ele>
        <time>2016-06-24T09:52:23Z</time>
      </trkpt>
      <trkpt lat="48.65654" lon="-2.29694">
        <ele>48</ele>
        <time>2016-06-24T09:52:26Z</time>
      </trkpt>
      <trkpt lat="48.65657" lon="-2.2969">
        <ele>48</ele>
        <time>2016-06-24T09:52:29Z</time>
      </trkpt>
      <trkpt lat="48.65659" lon="-2.29687">
        <ele>48</ele>
        <time>2016-06-24T09:52:32Z</time>
      </trkpt>
      <trkpt lat="48.65662" lon="-2.29684">
        <ele>48</ele>
        <time>2016-06-24T09:52:35Z</time>
      </trkpt>
      <trkpt lat="48.65664" lon="-2.2968">
        <ele>48</ele>
        <time>2016-06-24T09:52:39Z</time>
      </trkpt>
      <trkpt lat="48.65667" lon="-2.29675">
        <ele>48</ele>
        <time>2016-06-24T09:52:43Z</time>
      </trkpt>
      <trkpt lat="48.6567" lon="-2.29671">
        <ele>47</ele>
        <time>2016-06-24T09:52:47Z</time>
      </trkpt>
      <trkpt lat="48.65675" lon="-2.29671">
        <ele>45</ele>
        <time>2016-06-24T09:52:51Z</time>
      </trkpt>
      <trkpt lat="48.6568" lon="-2.29671">
        <ele>43</ele>
        <time>2016-06-24T09:52:55Z</time>
      </trkpt>
      <trkpt lat="48.65683" lon="-2.2967">
        <ele>41</ele>
        <time>2016-06-24T09:52:59Z</time>
      </trkpt>
      <trkpt lat="48.65687" lon="-2.29668">
        <ele>39</ele>
        <time>2016-06-24T09:53:02Z</time>
      </trkpt>
      <trkpt lat="48.65692" lon="-2.29666">
        <ele>39</ele>
        <time>2016-06-24T09:53:05Z</time>
      </trkpt>
      <trkpt lat="48.65696" lon="-2.29662">
        <ele>39</ele>
        <time>2016-06-24T09:53:09Z</time>
      </trkpt>
      <trkpt lat="48.657" lon="-2.29658">
        <ele>39</ele>
        <time>2016-06-24T09:53:13Z</time>
      </trkpt>
      <trkpt lat="48.65704" lon="-2.29655">
        <ele>39</ele>
        <time>2016-06-24T09:53:16Z</time>
      </trkpt>
      <trkpt lat="48.65707" lon="-2.29654">
        <ele>39</ele>
        <time>2016-06-24T09:53:19Z</time>
      </trkpt>
      <trkpt lat="48.65711" lon="-2.29651">
        <ele>39</ele>
        <time>2016-06-24T09:53:23Z</time>
      </trkpt>
      <trkpt lat="48.65715" lon="-2.29648">
        <ele>39</ele>
        <time>2016-06-24T09:53:26Z</time>
      </trkpt>
      <trkpt lat="48.65719" lon="-2.29645">
        <ele>39</ele>
        <time>2016-06-24T09:53:29Z</time>
      </trkpt>
      <trkpt lat="48.65724" lon="-2.29642">
        <ele>39</ele>
        <time>2016-06-24T09:53:33Z</time>
      </trkpt>
      <trkpt lat="48.65727" lon="-2.29641">
        <ele>39</ele>
        <time>2016-06-24T09:53:36Z</time>
      </trkpt>
      <trkpt lat="48.65731" lon="-2.29637">
        <ele>39</ele>
        <time>2016-06-24T09:53:40Z</time>
      </trkpt>
      <trkpt lat="48.65734" lon="-2.29635">
        <ele>39</ele>
        <time>2016-06-24T09:53:43Z</time>
      </trkpt>
      <trkpt lat="48.65738" lon="-2.2963">
        <ele>39</ele>
        <time>2016-06-24T09:53:47Z</time>
      </trkpt>
      <trkpt lat="48.65741" lon="-2.29626">
        <ele>39</ele>
        <time>2016-06-24T09:53:50Z</time>
      </trkpt>
      <trkpt lat="48.65746" lon="-2.29623">
        <ele>39</ele>
        <time>2016-06-24T09:53:53Z</time>
      </trkpt>
      <trkpt lat="48.65749" lon="-2.2962">
        <ele>39</ele>
        <time>2016-06-24T09:53:56Z</time>
      </trkpt>
      <trkpt lat="48.65752" lon="-2.29618">
        <ele>38</ele>
        <time>2016-06-24T09:53:59Z</time>
      </trkpt>
      <trkpt lat="48.65756" lon="-2.29615">
        <ele>36</ele>
        <time>2016-06-24T09:54:03Z</time>
      </trkpt>
      <trkpt lat="48.65759" lon="-2.29612">
        <ele>35</ele>
        <time>2016-06-24T09:54:06Z</time>
      </trkpt>
      <trkpt lat="48.65763" lon="-2.29609">
        <ele>33</ele>
        <time>2016-06-24T09:54:09Z</time>
      </trkpt>
      <trkpt lat="48.65768" lon="-2.29608">
        <ele>33</ele>
        <time>2016-06-24T09:54:12Z</time>
      </trkpt>
      <trkpt lat="48.65771" lon="-2.29606">
        <ele>33</ele>
        <time>2016-06-24T09:54:15Z</time>
      </trkpt>
      <trkpt lat="48.65775" lon="-2.29601">
        <ele>33</ele>
        <time>2016-06-24T09:54:19Z</time>
      </trkpt>
      <trkpt lat="48.65778" lon="-2.29597">
        <ele>33</ele>
        <time>2016-06-24T09:54:23Z</time>
      </trkpt>
      <trkpt lat="48.65781" lon="-2.29594">
        <ele>33</ele>
        <time>2016-06-24T09:54:27Z</time>
      </trkpt>
      <trkpt lat="48.65785" lon="-2.29591">
        <ele>33</ele>
        <time>2016-06-24T09:54:30Z</time>
      </trkpt>
      <trkpt lat="48.65788" lon="-2.2959">
        <ele>33</ele>
        <time>2016-06-24T09:54:33Z</time>
      </trkpt>
      <trkpt lat="48.65792" lon="-2.29587">
        <ele>33</ele>
        <time>2016-06-24T09:54:37Z</time>
      </trkpt>
      <trkpt lat="48.65795" lon="-2.29583">
        <ele>33</ele>
        <time>2016-06-24T09:54:41Z</time>
      </trkpt>
      <trkpt lat="48.65797" lon="-2.29579">
        <ele>33</ele>
        <time>2016-06-24T09:54:47Z</time>
      </trkpt>
      <trkpt lat="48.65798" lon="-2.29578">
        <ele>33</ele>
        <time>2016-06-24T09:54:50Z</time>
      </trkpt>
      <trkpt lat="48.65799" lon="-2.29574">
        <ele>33</ele>
        <time>2016-06-24T09:54:53Z</time>
      </trkpt>
      <trkpt lat="48.65802" lon="-2.2957">
        <ele>33</ele>
        <time>2016-06-24T09:54:57Z</time>
      </trkpt>
      <trkpt lat="48.65804" lon="-2.29566">
        <ele>33</ele>
        <time>2016-06-24T09:55:01Z</time>
      </trkpt>
      <trkpt lat="48.65806" lon="-2.29561">
        <ele>33</ele>
        <time>2016-06-24T09:55:04Z</time>
      </trkpt>
      <trkpt lat="48.65807" lon="-2.29556">
        <ele>33</ele>
        <time>2016-06-24T09:55:07Z</time>
      </trkpt>
      <trkpt lat="48.6581" lon="-2.29551">
        <ele>33</ele>
        <time>2016-06-24T09:55:10Z</time>
      </trkpt>
      <trkpt lat="48.65813" lon="-2.29548">
        <ele>32</ele>
        <time>2016-06-24T09:55:13Z</time>
      </trkpt>
      <trkpt lat="48.65813" lon="-2.29543">
        <ele>32</ele>
        <time>2016-06-24T09:55:16Z</time>
      </trkpt>
      <trkpt lat="48.65813" lon="-2.29538">
        <ele>32</ele>
        <time>2016-06-24T09:55:19Z</time>
      </trkpt>
      <trkpt lat="48.65813" lon="-2.29532">
        <ele>32</ele>
        <time>2016-06-24T09:55:22Z</time>
      </trkpt>
      <trkpt lat="48.65815" lon="-2.29526">
        <ele>32</ele>
        <time>2016-06-24T09:55:26Z</time>
      </trkpt>
      <trkpt lat="48.65818" lon="-2.29523">
        <ele>32</ele>
        <time>2016-06-24T09:55:31Z</time>
      </trkpt>
      <trkpt lat="48.65822" lon="-2.2952">
        <ele>34</ele>
        <time>2016-06-24T09:55:35Z</time>
      </trkpt>
      <trkpt lat="48.65823" lon="-2.29517">
        <ele>35</ele>
        <time>2016-06-24T09:55:38Z</time>
      </trkpt>
      <trkpt lat="48.65824" lon="-2.29511">
        <ele>36</ele>
        <time>2016-06-24T09:55:45Z</time>
      </trkpt>
      <trkpt lat="48.65824" lon="-2.29507">
        <ele>36</ele>
        <time>2016-06-24T09:55:48Z</time>
      </trkpt>
      <trkpt lat="48.65824" lon="-2.29503">
        <ele>36</ele>
        <time>2016-06-24T09:55:51Z</time>
      </trkpt>
      <trkpt lat="48.65823" lon="-2.29499">
        <ele>36</ele>
        <time>2016-06-24T09:55:54Z</time>
      </trkpt>
      <trkpt lat="48.65823" lon="-2.29496">
        <ele>34</ele>
        <time>2016-06-24T09:55:57Z</time>
      </trkpt>
      <trkpt lat="48.65822" lon="-2.2949">
        <ele>31</ele>
        <time>2016-06-24T09:56:01Z</time>
      </trkpt>
      <trkpt lat="48.65821" lon="-2.29485">
        <ele>29</ele>
        <time>2016-06-24T09:56:05Z</time>
      </trkpt>
      <trkpt lat="48.65821" lon="-2.29481">
        <ele>28</ele>
        <time>2016-06-24T09:56:09Z</time>
      </trkpt>
      <trkpt lat="48.65821" lon="-2.29475">
        <ele>27</ele>
        <time>2016-06-24T09:56:13Z</time>
      </trkpt>
      <trkpt lat="48.65821" lon="-2.29469">
        <ele>26</ele>
        <time>2016-06-24T09:56:16Z</time>
      </trkpt>
      <trkpt lat="48.65822" lon="-2.29465">
        <ele>26</ele>
        <time>2016-06-24T09:56:19Z</time>
      </trkpt>
      <trkpt lat="48.65822" lon="-2.29459">
        <ele>26</ele>
        <time>2016-06-24T09:56:22Z</time>
      </trkpt>
      <trkpt lat="48.65821" lon="-2.29452">
        <ele>26</ele>
        <time>2016-06-24T09:56:25Z</time>
      </trkpt>
      <trkpt lat="48.6582" lon="-2.29445">
        <ele>26</ele>
        <time>2016-06-24T09:56:28Z</time>
      </trkpt>
      <trkpt lat="48.6582" lon="-2.29439">
        <ele>27</ele>
        <time>2016-06-24T09:56:31Z</time>
      </trkpt>
      <trkpt lat="48.6582" lon="-2.29433">
        <ele>28</ele>
        <time>2016-06-24T09:56:34Z</time>
      </trkpt>
      <trkpt lat="48.65822" lon="-2.29429">
        <ele>28</ele>
        <time>2016-06-24T09:56:38Z</time>
      </trkpt>
      <trkpt lat="48.65823" lon="-2.29429">
        <ele>29</ele>
        <time>2016-06-24T09:56:43Z</time>
      </trkpt>
      <trkpt lat="48.65825" lon="-2.29429">
        <ele>29</ele>
        <time>2016-06-24T09:56:46Z</time>
      </trkpt>
      <trkpt lat="48.65826" lon="-2.2943">
        <ele>29</ele>
        <time>2016-06-24T09:56:49Z</time>
      </trkpt>
      <trkpt lat="48.65827" lon="-2.29429">
        <ele>29</ele>
        <time>2016-06-24T09:56:52Z</time>
      </trkpt>
      <trkpt lat="48.65829" lon="-2.29428">
        <ele>29</ele>
        <time>2016-06-24T09:56:55Z</time>
      </trkpt>
      <trkpt lat="48.65832" lon="-2.29426">
        <ele>29</ele>
        <time>2016-06-24T09:56:59Z</time>
      </trkpt>
      <trkpt lat="48.65835" lon="-2.29425">
        <ele>29</ele>
        <time>2016-06-24T09:57:03Z</time>
      </trkpt>
      <trkpt lat="48.65838" lon="-2.29422">
        <ele>29</ele>
        <time>2016-06-24T09:57:07Z</time>
      </trkpt>
      <trkpt lat="48.65841" lon="-2.2942">
        <ele>30</ele>
        <time>2016-06-24T09:57:11Z</time>
      </trkpt>
      <trkpt lat="48.65844" lon="-2.2942">
        <ele>32</ele>
        <time>2016-06-24T09:57:16Z</time>
      </trkpt>
      <trkpt lat="48.65846" lon="-2.29418">
        <ele>34</ele>
        <time>2016-06-24T09:57:19Z</time>
      </trkpt>
      <trkpt lat="48.65849" lon="-2.29416">
        <ele>34</ele>
        <time>2016-06-24T09:57:23Z</time>
      </trkpt>
      <trkpt lat="48.65851" lon="-2.29419">
        <ele>34</ele>
        <time>2016-06-24T09:57:27Z</time>
      </trkpt>
      <trkpt lat="48.65854" lon="-2.29422">
        <ele>34</ele>
        <time>2016-06-24T09:57:31Z</time>
      </trkpt>
      <trkpt lat="48.65857" lon="-2.29426">
        <ele>34</ele>
        <time>2016-06-24T09:57:35Z</time>
      </trkpt>
      <trkpt lat="48.65861" lon="-2.29429">
        <ele>34</ele>
        <time>2016-06-24T09:57:39Z</time>
      </trkpt>
      <trkpt lat="48.65864" lon="-2.29432">
        <ele>34</ele>
        <time>2016-06-24T09:57:42Z</time>
      </trkpt>
      <trkpt lat="48.65867" lon="-2.29436">
        <ele>34</ele>
        <time>2016-06-24T09:57:46Z</time>
      </trkpt>
      <trkpt lat="48.6587" lon="-2.29441">
        <ele>34</ele>
        <time>2016-06-24T09:57:50Z</time>
      </trkpt>
      <trkpt lat="48.65873" lon="-2.29445">
        <ele>34</ele>
        <time>2016-06-24T09:57:54Z</time>
      </trkpt>
      <trkpt lat="48.65874" lon="-2.29449">
        <ele>34</ele>
        <time>2016-06-24T09:57:57Z</time>
      </trkpt>
      <trkpt lat="48.65873" lon="-2.29449">
        <ele>34</ele>
        <time>2016-06-24T09:58:00Z</time>
      </trkpt>
      <trkpt lat="48.65872" lon="-2.2945">
        <ele>34</ele>
        <time>2016-06-24T09:58:09Z</time>
      </trkpt>
      <trkpt lat="48.65874" lon="-2.29452">
        <ele>34</ele>
        <time>2016-06-24T09:58:12Z</time>
      </trkpt>
      <trkpt lat="48.65877" lon="-2.2945">
        <ele>34</ele>
        <time>2016-06-24T09:58:16Z</time>
      </trkpt>
      <trkpt lat="48.65878" lon="-2.29452">
        <ele>39</ele>
        <time>2016-06-24T09:58:22Z</time>
      </trkpt>
      <trkpt lat="48.6588" lon="-2.29457">
        <ele>40</ele>
        <time>2016-06-24T09:58:26Z</time>
      </trkpt>
      <trkpt lat="48.65882" lon="-2.29461">
        <ele>40</ele>
        <time>2016-06-24T09:58:30Z</time>
      </trkpt>
      <trkpt lat="48.65884" lon="-2.29465">
        <ele>40</ele>
        <time>2016-06-24T09:58:34Z</time>
      </trkpt>
      <trkpt lat="48.65887" lon="-2.29469">
        <ele>40</ele>
        <time>2016-06-24T09:58:39Z</time>
      </trkpt>
      <trkpt lat="48.65889" lon="-2.29472">
        <ele>40</ele>
        <time>2016-06-24T09:58:42Z</time>
      </trkpt>
      <trkpt lat="48.65893" lon="-2.29475">
        <ele>41</ele>
        <time>2016-06-24T09:58:46Z</time>
      </trkpt>
      <trkpt lat="48.65895" lon="-2.29478">
        <ele>41</ele>
        <time>2016-06-24T09:58:49Z</time>
      </trkpt>
      <trkpt lat="48.659" lon="-2.2948">
        <ele>41</ele>
        <time>2016-06-24T09:58:53Z</time>
      </trkpt>
      <trkpt lat="48.65904" lon="-2.29483">
        <ele>42</ele>
        <time>2016-06-24T09:58:57Z</time>
      </trkpt>
      <trkpt lat="48.65907" lon="-2.29485">
        <ele>43</ele>
        <time>2016-06-24T09:59:00Z</time>
      </trkpt>
      <trkpt lat="48.6591" lon="-2.29487">
        <ele>43</ele>
        <time>2016-06-24T09:59:03Z</time>
      </trkpt>
      <trkpt lat="48.65913" lon="-2.29489">
        <ele>44</ele>
        <time>2016-06-24T09:59:08Z</time>
      </trkpt>
      <trkpt lat="48.65914" lon="-2.29491">
        <ele>46</ele>
        <time>2016-06-24T09:59:13Z</time>
      </trkpt>
      <trkpt lat="48.65917" lon="-2.29492">
        <ele>51</ele>
        <time>2016-06-24T09:59:19Z</time>
      </trkpt>
      <trkpt lat="48.65917" lon="-2.29492">
        <ele>54</ele>
        <time>2016-06-24T09:59:24Z</time>
      </trkpt>
      <trkpt lat="48.65918" lon="-2.2949">
        <ele>56</ele>
        <time>2016-06-24T09:59:31Z</time>
      </trkpt>
      <trkpt lat="48.65919" lon="-2.29491">
        <ele>56</ele>
        <time>2016-06-24T09:59:46Z</time>
      </trkpt>
      <trkpt lat="48.6592" lon="-2.29489">
        <ele>56</ele>
        <time>2016-06-24T10:00:17Z</time>
      </trkpt>
      <trkpt lat="48.65921" lon="-2.29486">
        <ele>56</ele>
        <time>2016-06-24T10:00:26Z</time>
      </trkpt>
      <trkpt lat="48.65925" lon="-2.29486">
        <ele>56</ele>
        <time>2016-06-24T10:00:30Z</time>
      </trkpt>
      <trkpt lat="48.65928" lon="-2.2949">
        <ele>56</ele>
        <time>2016-06-24T10:00:34Z</time>
      </trkpt>
      <trkpt lat="48.65931" lon="-2.29493">
        <ele>56</ele>
        <time>2016-06-24T10:00:38Z</time>
      </trkpt>
      <trkpt lat="48.65934" lon="-2.29497">
        <ele>54</ele>
        <time>2016-06-24T10:00:42Z</time>
      </trkpt>
      <trkpt lat="48.65938" lon="-2.29498">
        <ele>53</ele>
        <time>2016-06-24T10:00:45Z</time>
      </trkpt>
      <trkpt lat="48.65942" lon="-2.29497">
        <ele>53</ele>
        <time>2016-06-24T10:00:49Z</time>
      </trkpt>
      <trkpt lat="48.65948" lon="-2.29498">
        <ele>52</ele>
        <time>2016-06-24T10:00:53Z</time>
      </trkpt>
      <trkpt lat="48.65951" lon="-2.29499">
        <ele>51</ele>
        <time>2016-06-24T10:00:56Z</time>
      </trkpt>
      <trkpt lat="48.65955" lon="-2.29501">
        <ele>50</ele>
        <time>2016-06-24T10:00:59Z</time>
      </trkpt>
      <trkpt lat="48.6596" lon="-2.29502">
        <ele>49</ele>
        <time>2016-06-24T10:01:03Z</time>
      </trkpt>
      <trkpt lat="48.65964" lon="-2.295">
        <ele>49</ele>
        <time>2016-06-24T10:01:06Z</time>
      </trkpt>
      <trkpt lat="48.65966" lon="-2.295">
        <ele>49</ele>
        <time>2016-06-24T10:01:10Z</time>
      </trkpt>
      <trkpt lat="48.65971" lon="-2.29504">
        <ele>49</ele>
        <time>2016-06-24T10:01:15Z</time>
      </trkpt>
      <trkpt lat="48.65974" lon="-2.29507">
        <ele>49</ele>
        <time>2016-06-24T10:01:19Z</time>
      </trkpt>
      <trkpt lat="48.65976" lon="-2.29511">
        <ele>49</ele>
        <time>2016-06-24T10:01:23Z</time>
      </trkpt>
      <trkpt lat="48.65978" lon="-2.29512">
        <ele>49</ele>
        <time>2016-06-24T10:01:27Z</time>
      </trkpt>
      <trkpt lat="48.65981" lon="-2.29513">
        <ele>49</ele>
        <time>2016-06-24T10:01:32Z</time>
      </trkpt>
      <trkpt lat="48.65986" lon="-2.29511">
        <ele>49</ele>
        <time>2016-06-24T10:01:36Z</time>
      </trkpt>
      <trkpt lat="48.6599" lon="-2.29511">
        <ele>49</ele>
        <time>2016-06-24T10:01:39Z</time>
      </trkpt>
      <trkpt lat="48.65994" lon="-2.29512">
        <ele>49</ele>
        <time>2016-06-24T10:01:42Z</time>
      </trkpt>
      <trkpt lat="48.65998" lon="-2.29514">
        <ele>49</ele>
        <time>2016-06-24T10:01:45Z</time>
      </trkpt>
      <trkpt lat="48.66001" lon="-2.29516">
        <ele>49</ele>
        <time>2016-06-24T10:01:49Z</time>
      </trkpt>
      <trkpt lat="48.66005" lon="-2.29515">
        <ele>49</ele>
        <time>2016-06-24T10:01:53Z</time>
      </trkpt>
      <trkpt lat="48.66009" lon="-2.29514">
        <ele>49</ele>
        <time>2016-06-24T10:01:57Z</time>
      </trkpt>
      <trkpt lat="48.66012" lon="-2.2951">
        <ele>49</ele>
        <time>2016-06-24T10:02:00Z</time>
      </trkpt>
      <trkpt lat="48.66015" lon="-2.29505">
        <ele>49</ele>
        <time>2016-06-24T10:02:04Z</time>
      </trkpt>
      <trkpt lat="48.66018" lon="-2.29501">
        <ele>49</ele>
        <time>2016-06-24T10:02:07Z</time>
      </trkpt>
      <trkpt lat="48.66021" lon="-2.29497">
        <ele>49</ele>
        <time>2016-06-24T10:02:10Z</time>
      </trkpt>
      <trkpt lat="48.66024" lon="-2.29491">
        <ele>50</ele>
        <time>2016-06-24T10:02:13Z</time>
      </trkpt>
      <trkpt lat="48.66025" lon="-2.29485">
        <ele>52</ele>
        <time>2016-06-24T10:02:16Z</time>
      </trkpt>
      <trkpt lat="48.66028" lon="-2.2948">
        <ele>53</ele>
        <time>2016-06-24T10:02:22Z</time>
      </trkpt>
      <trkpt lat="48.66031" lon="-2.29477">
        <ele>54</ele>
        <time>2016-06-24T10:02:27Z</time>
      </trkpt>
      <trkpt lat="48.66034" lon="-2.29472">
        <ele>54</ele>
        <time>2016-06-24T10:02:32Z</time>
      </trkpt>
      <trkpt lat="48.66037" lon="-2.29466">
        <ele>54</ele>
        <time>2016-06-24T10:02:37Z</time>
      </trkpt>
      <trkpt lat="48.6604" lon="-2.2946">
        <ele>52</ele>
        <time>2016-06-24T10:02:41Z</time>
      </trkpt>
      <trkpt lat="48.66042" lon="-2.29454">
        <ele>51</ele>
        <time>2016-06-24T10:02:44Z</time>
      </trkpt>
      <trkpt lat="48.66043" lon="-2.2945">
        <ele>50</ele>
        <time>2016-06-24T10:02:47Z</time>
      </trkpt>
      <trkpt lat="48.66047" lon="-2.29446">
        <ele>49</ele>
        <time>2016-06-24T10:02:51Z</time>
      </trkpt>
      <trkpt lat="48.66052" lon="-2.29443">
        <ele>48</ele>
        <time>2016-06-24T10:02:55Z</time>
      </trkpt>
      <trkpt lat="48.66055" lon="-2.2944">
        <ele>48</ele>
        <time>2016-06-24T10:02:59Z</time>
      </trkpt>
      <trkpt lat="48.66058" lon="-2.29436">
        <ele>47</ele>
        <time>2016-06-24T10:03:03Z</time>
      </trkpt>
      <trkpt lat="48.66063" lon="-2.2943">
        <ele>46</ele>
        <time>2016-06-24T10:03:07Z</time>
      </trkpt>
      <trkpt lat="48.66067" lon="-2.29427">
        <ele>46</ele>
        <time>2016-06-24T10:03:11Z</time>
      </trkpt>
      <trkpt lat="48.6607" lon="-2.29424">
        <ele>46</ele>
        <time>2016-06-24T10:03:15Z</time>
      </trkpt>
      <trkpt lat="48.66073" lon="-2.29421">
        <ele>45</ele>
        <time>2016-06-24T10:03:18Z</time>
      </trkpt>
      <trkpt lat="48.66077" lon="-2.29418">
        <ele>45</ele>
        <time>2016-06-24T10:03:22Z</time>
      </trkpt>
      <trkpt lat="48.66079" lon="-2.29414">
        <ele>45</ele>
        <time>2016-06-24T10:03:25Z</time>
      </trkpt>
      <trkpt lat="48.6608" lon="-2.2941">
        <ele>45</ele>
        <time>2016-06-24T10:03:28Z</time>
      </trkpt>
      <trkpt lat="48.66082" lon="-2.29405">
        <ele>45</ele>
        <time>2016-06-24T10:03:32Z</time>
      </trkpt>
      <trkpt lat="48.66083" lon="-2.29401">
        <ele>45</ele>
        <time>2016-06-24T10:03:37Z</time>
      </trkpt>
      <trkpt lat="48.66085" lon="-2.29397">
        <ele>45</ele>
        <time>2016-06-24T10:03:41Z</time>
      </trkpt>
      <trkpt lat="48.66088" lon="-2.29393">
        <ele>45</ele>
        <time>2016-06-24T10:03:46Z</time>
      </trkpt>
      <trkpt lat="48.6609" lon="-2.29388">
        <ele>45</ele>
        <time>2016-06-24T10:03:49Z</time>
      </trkpt>
      <trkpt lat="48.66093" lon="-2.29384">
        <ele>45</ele>
        <time>2016-06-24T10:03:53Z</time>
      </trkpt>
      <trkpt lat="48.66097" lon="-2.2938">
        <ele>45</ele>
        <time>2016-06-24T10:03:57Z</time>
      </trkpt>
      <trkpt lat="48.661" lon="-2.29376">
        <ele>45</ele>
        <time>2016-06-24T10:04:01Z</time>
      </trkpt>
      <trkpt lat="48.66103" lon="-2.2937">
        <ele>45</ele>
        <time>2016-06-24T10:04:05Z</time>
      </trkpt>
      <trkpt lat="48.66108" lon="-2.29367">
        <ele>45</ele>
        <time>2016-06-24T10:04:10Z</time>
      </trkpt>
      <trkpt lat="48.66112" lon="-2.29366">
        <ele>45</ele>
        <time>2016-06-24T10:04:14Z</time>
      </trkpt>
      <trkpt lat="48.66116" lon="-2.29362">
        <ele>45</ele>
        <time>2016-06-24T10:04:19Z</time>
      </trkpt>
      <trkpt lat="48.66119" lon="-2.29361">
        <ele>45</ele>
        <time>2016-06-24T10:04:23Z</time>
      </trkpt>
      <trkpt lat="48.66122" lon="-2.29361">
        <ele>45</ele>
        <time>2016-06-24T10:04:26Z</time>
      </trkpt>
      <trkpt lat="48.66126" lon="-2.29361">
        <ele>45</ele>
        <time>2016-06-24T10:04:30Z</time>
      </trkpt>
      <trkpt lat="48.6613" lon="-2.29358">
        <ele>45</ele>
        <time>2016-06-24T10:04:33Z</time>
      </trkpt>
      <trkpt lat="48.66133" lon="-2.29354">
        <ele>45</ele>
        <time>2016-06-24T10:04:37Z</time>
      </trkpt>
      <trkpt lat="48.66136" lon="-2.29349">
        <ele>48</ele>
        <time>2016-06-24T10:04:41Z</time>
      </trkpt>
      <trkpt lat="48.6614" lon="-2.29346">
        <ele>48</ele>
        <time>2016-06-24T10:04:45Z</time>
      </trkpt>
      <trkpt lat="48.66143" lon="-2.29343">
        <ele>49</ele>
        <time>2016-06-24T10:04:48Z</time>
      </trkpt>
      <trkpt lat="48.66146" lon="-2.2934">
        <ele>49</ele>
        <time>2016-06-24T10:04:51Z</time>
      </trkpt>
      <trkpt lat="48.66148" lon="-2.29337">
        <ele>50</ele>
        <time>2016-06-24T10:04:54Z</time>
      </trkpt>
      <trkpt lat="48.66151" lon="-2.29332">
        <ele>51</ele>
        <time>2016-06-24T10:04:57Z</time>
      </trkpt>
      <trkpt lat="48.66153" lon="-2.29328">
        <ele>52</ele>
        <time>2016-06-24T10:05:00Z</time>
      </trkpt>
      <trkpt lat="48.66156" lon="-2.29326">
        <ele>53</ele>
        <time>2016-06-24T10:05:03Z</time>
      </trkpt>
      <trkpt lat="48.66159" lon="-2.29324">
        <ele>53</ele>
        <time>2016-06-24T10:05:06Z</time>
      </trkpt>
      <trkpt lat="48.66161" lon="-2.29317">
        <ele>53</ele>
        <time>2016-06-24T10:05:10Z</time>
      </trkpt>
      <trkpt lat="48.66163" lon="-2.29312">
        <ele>53</ele>
        <time>2016-06-24T10:05:13Z</time>
      </trkpt>
      <trkpt lat="48.66166" lon="-2.29307">
        <ele>53</ele>
        <time>2016-06-24T10:05:17Z</time>
      </trkpt>
      <trkpt lat="48.66166" lon="-2.29301">
        <ele>53</ele>
        <time>2016-06-24T10:05:20Z</time>
      </trkpt>
      <trkpt lat="48.66167" lon="-2.29295">
        <ele>55</ele>
        <time>2016-06-24T10:05:24Z</time>
      </trkpt>
      <trkpt lat="48.66165" lon="-2.29291">
        <ele>57</ele>
        <time>2016-06-24T10:05:28Z</time>
      </trkpt>
      <trkpt lat="48.66166" lon="-2.29285">
        <ele>58</ele>
        <time>2016-06-24T10:05:31Z</time>
      </trkpt>
      <trkpt lat="48.66165" lon="-2.29278">
        <ele>58</ele>
        <time>2016-06-24T10:05:35Z</time>
      </trkpt>
      <trkpt lat="48.66164" lon="-2.29277">
        <ele>58</ele>
        <time>2016-06-24T10:05:38Z</time>
      </trkpt>
      <trkpt lat="48.66163" lon="-2.29275">
        <ele>55</ele>
        <time>2016-06-24T10:05:44Z</time>
      </trkpt>
      <trkpt lat="48.6616" lon="-2.29274">
        <ele>53</ele>
        <time>2016-06-24T10:05:51Z</time>
      </trkpt>
      <trkpt lat="48.66159" lon="-2.29272">
        <ele>52</ele>
        <time>2016-06-24T10:05:54Z</time>
      </trkpt>
      <trkpt lat="48.66158" lon="-2.29271">
        <ele>51</ele>
        <time>2016-06-24T10:05:58Z</time>
      </trkpt>
      <trkpt lat="48.66156" lon="-2.29269">
        <ele>49</ele>
        <time>2016-06-24T10:06:01Z</time>
      </trkpt>
      <trkpt lat="48.66155" lon="-2.29268">
        <ele>47</ele>
        <time>2016-06-24T10:06:04Z</time>
      </trkpt>
      <trkpt lat="48.66153" lon="-2.29265">
        <ele>45</ele>
        <time>2016-06-24T10:06:09Z</time>
      </trkpt>
      <trkpt lat="48.6615" lon="-2.29263">
        <ele>45</ele>
        <time>2016-06-24T10:06:12Z</time>
      </trkpt>
      <trkpt lat="48.66148" lon="-2.29261">
        <ele>45</ele>
        <time>2016-06-24T10:06:18Z</time>
      </trkpt>
      <trkpt lat="48.66147" lon="-2.29259">
        <ele>45</ele>
        <time>2016-06-24T10:06:24Z</time>
      </trkpt>
      <trkpt lat="48.66146" lon="-2.29257">
        <ele>45</ele>
        <time>2016-06-24T10:06:34Z</time>
      </trkpt>
      <trkpt lat="48.66143" lon="-2.29253">
        <ele>45</ele>
        <time>2016-06-24T10:06:40Z</time>
      </trkpt>
      <trkpt lat="48.66141" lon="-2.29249">
        <ele>44</ele>
        <time>2016-06-24T10:06:44Z</time>
      </trkpt>
      <trkpt lat="48.66141" lon="-2.29245">
        <ele>42</ele>
        <time>2016-06-24T10:06:47Z</time>
      </trkpt>
      <trkpt lat="48.66142" lon="-2.2924">
        <ele>42</ele>
        <time>2016-06-24T10:06:50Z</time>
      </trkpt>
      <trkpt lat="48.66144" lon="-2.29236">
        <ele>40</ele>
        <time>2016-06-24T10:06:54Z</time>
      </trkpt>
      <trkpt lat="48.66146" lon="-2.29232">
        <ele>40</ele>
        <time>2016-06-24T10:06:59Z</time>
      </trkpt>
      <trkpt lat="48.66147" lon="-2.29227">
        <ele>40</ele>
        <time>2016-06-24T10:07:03Z</time>
      </trkpt>
      <trkpt lat="48.66149" lon="-2.29223">
        <ele>40</ele>
        <time>2016-06-24T10:07:06Z</time>
      </trkpt>
      <trkpt lat="48.66153" lon="-2.29217">
        <ele>40</ele>
        <time>2016-06-24T10:07:10Z</time>
      </trkpt>
      <trkpt lat="48.66156" lon="-2.29214">
        <ele>40</ele>
        <time>2016-06-24T10:07:16Z</time>
      </trkpt>
      <trkpt lat="48.66157" lon="-2.29214">
        <ele>40</ele>
        <time>2016-06-24T10:07:25Z</time>
      </trkpt>
      <trkpt lat="48.66157" lon="-2.29216">
        <ele>40</ele>
        <time>2016-06-24T10:07:29Z</time>
      </trkpt>
      <trkpt lat="48.66157" lon="-2.29218">
        <ele>38</ele>
        <time>2016-06-24T10:07:34Z</time>
      </trkpt>
      <trkpt lat="48.66157" lon="-2.2922">
        <ele>35</ele>
        <time>2016-06-24T10:07:40Z</time>
      </trkpt>
      <trkpt lat="48.66158" lon="-2.29218">
        <ele>35</ele>
        <time>2016-06-24T10:07:44Z</time>
      </trkpt>
      <trkpt lat="48.66158" lon="-2.29216">
        <ele>35</ele>
        <time>2016-06-24T10:07:53Z</time>
      </trkpt>
      <trkpt lat="48.66158" lon="-2.29214">
        <ele>35</ele>
        <time>2016-06-24T10:07:59Z</time>
      </trkpt>
      <trkpt lat="48.66161" lon="-2.29212">
        <ele>35</ele>
        <time>2016-06-24T10:08:05Z</time>
      </trkpt>
      <trkpt lat="48.66163" lon="-2.29207">
        <ele>35</ele>
        <time>2016-06-24T10:08:09Z</time>
      </trkpt>
      <trkpt lat="48.66165" lon="-2.29204">
        <ele>35</ele>
        <time>2016-06-24T10:08:13Z</time>
      </trkpt>
      <trkpt lat="48.66167" lon="-2.29199">
        <ele>35</ele>
        <time>2016-06-24T10:08:16Z</time>
      </trkpt>
      <trkpt lat="48.66171" lon="-2.29194">
        <ele>36</ele>
        <time>2016-06-24T10:08:20Z</time>
      </trkpt>
      <trkpt lat="48.66174" lon="-2.29193">
        <ele>36</ele>
        <time>2016-06-24T10:08:23Z</time>
      </trkpt>
      <trkpt lat="48.66175" lon="-2.29191">
        <ele>36</ele>
        <time>2016-06-24T10:08:27Z</time>
      </trkpt>
      <trkpt lat="48.66177" lon="-2.29188">
        <ele>36</ele>
        <time>2016-06-24T10:08:30Z</time>
      </trkpt>
      <trkpt lat="48.66179" lon="-2.29182">
        <ele>36</ele>
        <time>2016-06-24T10:08:34Z</time>
      </trkpt>
      <trkpt lat="48.66183" lon="-2.29179">
        <ele>36</ele>
        <time>2016-06-24T10:08:38Z</time>
      </trkpt>
      <trkpt lat="48.66183" lon="-2.29177">
        <ele>36</ele>
        <time>2016-06-24T10:08:43Z</time>
      </trkpt>
      <trkpt lat="48.66184" lon="-2.29175">
        <ele>36</ele>
        <time>2016-06-24T10:08:48Z</time>
      </trkpt>
      <trkpt lat="48.66185" lon="-2.29172">
        <ele>38</ele>
        <time>2016-06-24T10:08:52Z</time>
      </trkpt>
      <trkpt lat="48.66186" lon="-2.29171">
        <ele>39</ele>
        <time>2016-06-24T10:08:55Z</time>
      </trkpt>
      <trkpt lat="48.66187" lon="-2.29171">
        <ele>40</ele>
        <time>2016-06-24T10:08:59Z</time>
      </trkpt>
      <trkpt lat="48.66189" lon="-2.2917">
        <ele>40</ele>
        <time>2016-06-24T10:09:15Z</time>
      </trkpt>
      <trkpt lat="48.66191" lon="-2.29167">
        <ele>40</ele>
        <time>2016-06-24T10:09:19Z</time>
      </trkpt>
      <trkpt lat="48.66193" lon="-2.29166">
        <ele>40</ele>
        <time>2016-06-24T10:09:22Z</time>
      </trkpt>
      <trkpt lat="48.66195" lon="-2.29166">
        <ele>40</ele>
        <time>2016-06-24T10:09:26Z</time>
      </trkpt>
      <trkpt lat="48.66197" lon="-2.29161">
        <ele>40</ele>
        <time>2016-06-24T10:09:30Z</time>
      </trkpt>
      <trkpt lat="48.66198" lon="-2.29157">
        <ele>40</ele>
        <time>2016-06-24T10:09:33Z</time>
      </trkpt>
      <trkpt lat="48.66201" lon="-2.29152">
        <ele>40</ele>
        <time>2016-06-24T10:09:37Z</time>
      </trkpt>
      <trkpt lat="48.66201" lon="-2.29147">
        <ele>40</ele>
        <time>2016-06-24T10:09:40Z</time>
      </trkpt>
      <trkpt lat="48.66203" lon="-2.29142">
        <ele>40</ele>
        <time>2016-06-24T10:09:43Z</time>
      </trkpt>
      <trkpt lat="48.66207" lon="-2.29136">
        <ele>40</ele>
        <time>2016-06-24T10:09:47Z</time>
      </trkpt>
      <trkpt lat="48.66209" lon="-2.29132">
        <ele>40</ele>
        <time>2016-06-24T10:09:50Z</time>
      </trkpt>
      <trkpt lat="48.66211" lon="-2.29128">
        <ele>40</ele>
        <time>2016-06-24T10:09:53Z</time>
      </trkpt>
      <trkpt lat="48.66216" lon="-2.29122">
        <ele>40</ele>
        <time>2016-06-24T10:09:57Z</time>
      </trkpt>
      <trkpt lat="48.66218" lon="-2.29117">
        <ele>40</ele>
        <time>2016-06-24T10:10:01Z</time>
      </trkpt>
      <trkpt lat="48.66219" lon="-2.29111">
        <ele>40</ele>
        <time>2016-06-24T10:10:05Z</time>
      </trkpt>
      <trkpt lat="48.6622" lon="-2.29106">
        <ele>39</ele>
        <time>2016-06-24T10:10:10Z</time>
      </trkpt>
      <trkpt lat="48.66221" lon="-2.29104">
        <ele>38</ele>
        <time>2016-06-24T10:10:17Z</time>
      </trkpt>
      <trkpt lat="48.66222" lon="-2.29104">
        <ele>36</ele>
        <time>2016-06-24T10:10:39Z</time>
      </trkpt>
      <trkpt lat="48.66223" lon="-2.29102">
        <ele>35</ele>
        <time>2016-06-24T10:10:59Z</time>
      </trkpt>
      <trkpt lat="48.66223" lon="-2.291">
        <ele>33</ele>
        <time>2016-06-24T10:11:14Z</time>
      </trkpt>
      <trkpt lat="48.66224" lon="-2.29099">
        <ele>33</ele>
        <time>2016-06-24T10:11:24Z</time>
      </trkpt>
      <trkpt lat="48.66224" lon="-2.29097">
        <ele>32</ele>
        <time>2016-06-24T10:11:29Z</time>
      </trkpt>
      <trkpt lat="48.66224" lon="-2.29095">
        <ele>31</ele>
        <time>2016-06-24T10:11:32Z</time>
      </trkpt>
      <trkpt lat="48.66225" lon="-2.29091">
        <ele>30</ele>
        <time>2016-06-24T10:11:37Z</time>
      </trkpt>
      <trkpt lat="48.66227" lon="-2.29087">
        <ele>30</ele>
        <time>2016-06-24T10:11:42Z</time>
      </trkpt>
      <trkpt lat="48.66227" lon="-2.29083">
        <ele>29</ele>
        <time>2016-06-24T10:11:45Z</time>
      </trkpt>
      <trkpt lat="48.6623" lon="-2.29077">
        <ele>29</ele>
        <time>2016-06-24T10:11:49Z</time>
      </trkpt>
      <trkpt lat="48.66232" lon="-2.29076">
        <ele>29</ele>
        <time>2016-06-24T10:11:55Z</time>
      </trkpt>
      <trkpt lat="48.66233" lon="-2.29074">
        <ele>29</ele>
        <time>2016-06-24T10:11:58Z</time>
      </trkpt>
      <trkpt lat="48.66234" lon="-2.29072">
        <ele>29</ele>
        <time>2016-06-24T10:12:04Z</time>
      </trkpt>
      <trkpt lat="48.66235" lon="-2.2907">
        <ele>29</ele>
        <time>2016-06-24T10:12:12Z</time>
      </trkpt>
      <trkpt lat="48.66238" lon="-2.2907">
        <ele>29</ele>
        <time>2016-06-24T10:12:17Z</time>
      </trkpt>
      <trkpt lat="48.66239" lon="-2.29068">
        <ele>29</ele>
        <time>2016-06-24T10:12:21Z</time>
      </trkpt>
      <trkpt lat="48.6624" lon="-2.29065">
        <ele>29</ele>
        <time>2016-06-24T10:12:25Z</time>
      </trkpt>
      <trkpt lat="48.66243" lon="-2.29061">
        <ele>29</ele>
        <time>2016-06-24T10:12:29Z</time>
      </trkpt>
      <trkpt lat="48.66246" lon="-2.29058">
        <ele>29</ele>
        <time>2016-06-24T10:12:33Z</time>
      </trkpt>
      <trkpt lat="48.66248" lon="-2.29056">
        <ele>29</ele>
        <time>2016-06-24T10:12:37Z</time>
      </trkpt>
      <trkpt lat="48.66251" lon="-2.29052">
        <ele>29</ele>
        <time>2016-06-24T10:12:43Z</time>
      </trkpt>
      <trkpt lat="48.66255" lon="-2.2905">
        <ele>29</ele>
        <time>2016-06-24T10:12:47Z</time>
      </trkpt>
      <trkpt lat="48.66258" lon="-2.29048">
        <ele>29</ele>
        <time>2016-06-24T10:12:50Z</time>
      </trkpt>
      <trkpt lat="48.66262" lon="-2.29046">
        <ele>29</ele>
        <time>2016-06-24T10:12:53Z</time>
      </trkpt>
      <trkpt lat="48.66266" lon="-2.29044">
        <ele>29</ele>
        <time>2016-06-24T10:12:56Z</time>
      </trkpt>
      <trkpt lat="48.6627" lon="-2.29042">
        <ele>29</ele>
        <time>2016-06-24T10:12:59Z</time>
      </trkpt>
      <trkpt lat="48.66275" lon="-2.29036">
        <ele>29</ele>
        <time>2016-06-24T10:13:03Z</time>
      </trkpt>
      <trkpt lat="48.66278" lon="-2.29033">
        <ele>29</ele>
        <time>2016-06-24T10:13:06Z</time>
      </trkpt>
      <trkpt lat="48.66281" lon="-2.2903">
        <ele>29</ele>
        <time>2016-06-24T10:13:09Z</time>
      </trkpt>
      <trkpt lat="48.66283" lon="-2.29024">
        <ele>29</ele>
        <time>2016-06-24T10:13:12Z</time>
      </trkpt>
      <trkpt lat="48.66285" lon="-2.29019">
        <ele>29</ele>
        <time>2016-06-24T10:13:16Z</time>
      </trkpt>
      <trkpt lat="48.66286" lon="-2.29017">
        <ele>29</ele>
        <time>2016-06-24T10:13:20Z</time>
      </trkpt>
      <trkpt lat="48.66288" lon="-2.29012">
        <ele>29</ele>
        <time>2016-06-24T10:13:23Z</time>
      </trkpt>
      <trkpt lat="48.66291" lon="-2.29007">
        <ele>29</ele>
        <time>2016-06-24T10:13:26Z</time>
      </trkpt>
      <trkpt lat="48.66294" lon="-2.29002">
        <ele>29</ele>
        <time>2016-06-24T10:13:29Z</time>
      </trkpt>
      <trkpt lat="48.66297" lon="-2.28997">
        <ele>29</ele>
        <time>2016-06-24T10:13:32Z</time>
      </trkpt>
      <trkpt lat="48.663" lon="-2.28992">
        <ele>29</ele>
        <time>2016-06-24T10:13:35Z</time>
      </trkpt>
      <trkpt lat="48.66304" lon="-2.28989">
        <ele>29</ele>
        <time>2016-06-24T10:13:38Z</time>
      </trkpt>
      <trkpt lat="48.66307" lon="-2.28986">
        <ele>29</ele>
        <time>2016-06-24T10:13:41Z</time>
      </trkpt>
      <trkpt lat="48.66309" lon="-2.28979">
        <ele>29</ele>
        <time>2016-06-24T10:13:45Z</time>
      </trkpt>
      <trkpt lat="48.66311" lon="-2.28974">
        <ele>29</ele>
        <time>2016-06-24T10:13:48Z</time>
      </trkpt>
      <trkpt lat="48.66312" lon="-2.28968">
        <ele>29</ele>
        <time>2016-06-24T10:13:51Z</time>
      </trkpt>
      <trkpt lat="48.66312" lon="-2.28963">
        <ele>29</ele>
        <time>2016-06-24T10:13:54Z</time>
      </trkpt>
      <trkpt lat="48.66313" lon="-2.28959">
        <ele>29</ele>
        <time>2016-06-24T10:13:58Z</time>
      </trkpt>
      <trkpt lat="48.66313" lon="-2.28954">
        <ele>29</ele>
        <time>2016-06-24T10:14:01Z</time>
      </trkpt>
      <trkpt lat="48.66312" lon="-2.28952">
        <ele>29</ele>
        <time>2016-06-24T10:14:04Z</time>
      </trkpt>
      <trkpt lat="48.66312" lon="-2.28951">
        <ele>29</ele>
        <time>2016-06-24T10:14:08Z</time>
      </trkpt>
      <trkpt lat="48.66311" lon="-2.28949">
        <ele>29</ele>
        <time>2016-06-24T10:14:11Z</time>
      </trkpt>
      <trkpt lat="48.6631" lon="-2.28947">
        <ele>29</ele>
        <time>2016-06-24T10:14:15Z</time>
      </trkpt>
      <trkpt lat="48.66309" lon="-2.28942">
        <ele>29</ele>
        <time>2016-06-24T10:14:19Z</time>
      </trkpt>
      <trkpt lat="48.66311" lon="-2.28938">
        <ele>29</ele>
        <time>2016-06-24T10:14:25Z</time>
      </trkpt>
      <trkpt lat="48.66312" lon="-2.28937">
        <ele>29</ele>
        <time>2016-06-24T10:14:29Z</time>
      </trkpt>
      <trkpt lat="48.66311" lon="-2.28936">
        <ele>29</ele>
        <time>2016-06-24T10:14:33Z</time>
      </trkpt>
      <trkpt lat="48.66311" lon="-2.28937">
        <ele>25</ele>
        <time>2016-06-24T10:14:40Z</time>
      </trkpt>
      <trkpt lat="48.66309" lon="-2.28937">
        <ele>24</ele>
        <time>2016-06-24T10:14:46Z</time>
      </trkpt>
      <trkpt lat="48.66308" lon="-2.28938">
        <ele>23</ele>
        <time>2016-06-24T10:14:52Z</time>
      </trkpt>
      <trkpt lat="48.66307" lon="-2.28937">
        <ele>23</ele>
        <time>2016-06-24T10:14:56Z</time>
      </trkpt>
      <trkpt lat="48.66308" lon="-2.28938">
        <ele>20</ele>
        <time>2016-06-24T10:15:06Z</time>
      </trkpt>
      <trkpt lat="48.66307" lon="-2.28936">
        <ele>14</ele>
        <time>2016-06-24T10:15:12Z</time>
      </trkpt>
      <trkpt lat="48.66308" lon="-2.28932">
        <ele>14</ele>
        <time>2016-06-24T10:15:17Z</time>
      </trkpt>
      <trkpt lat="48.66308" lon="-2.28929">
        <ele>23</ele>
        <time>2016-06-24T10:15:27Z</time>
      </trkpt>
      <trkpt lat="48.66309" lon="-2.28931">
        <ele>24</ele>
        <time>2016-06-24T10:15:39Z</time>
      </trkpt>
      <trkpt lat="48.6631" lon="-2.28932">
        <ele>24</ele>
        <time>2016-06-24T10:15:42Z</time>
      </trkpt>
      <trkpt lat="48.66311" lon="-2.28935">
        <ele>24</ele>
        <time>2016-06-24T10:15:51Z</time>
      </trkpt>
      <trkpt lat="48.66313" lon="-2.28933">
        <ele>24</ele>
        <time>2016-06-24T10:16:00Z</time>
      </trkpt>
      <trkpt lat="48.66315" lon="-2.28931">
        <ele>24</ele>
        <time>2016-06-24T10:16:03Z</time>
      </trkpt>
      <trkpt lat="48.66316" lon="-2.28926">
        <ele>24</ele>
        <time>2016-06-24T10:16:07Z</time>
      </trkpt>
      <trkpt lat="48.66319" lon="-2.28922">
        <ele>24</ele>
        <time>2016-06-24T10:16:10Z</time>
      </trkpt>
      <trkpt lat="48.66319" lon="-2.28917">
        <ele>24</ele>
        <time>2016-06-24T10:16:13Z</time>
      </trkpt>
      <trkpt lat="48.66319" lon="-2.28912">
        <ele>23</ele>
        <time>2016-06-24T10:16:16Z</time>
      </trkpt>
      <trkpt lat="48.66317" lon="-2.28906">
        <ele>23</ele>
        <time>2016-06-24T10:16:19Z</time>
      </trkpt>
      <trkpt lat="48.66317" lon="-2.289">
        <ele>23</ele>
        <time>2016-06-24T10:16:22Z</time>
      </trkpt>
      <trkpt lat="48.66319" lon="-2.28897">
        <ele>23</ele>
        <time>2016-06-24T10:16:25Z</time>
      </trkpt>
      <trkpt lat="48.66317" lon="-2.28893">
        <ele>23</ele>
        <time>2016-06-24T10:16:28Z</time>
      </trkpt>
      <trkpt lat="48.66316" lon="-2.28888">
        <ele>27</ele>
        <time>2016-06-24T10:16:32Z</time>
      </trkpt>
      <trkpt lat="48.66315" lon="-2.28883">
        <ele>28</ele>
        <time>2016-06-24T10:16:35Z</time>
      </trkpt>
      <trkpt lat="48.66316" lon="-2.28876">
        <ele>29</ele>
        <time>2016-06-24T10:16:39Z</time>
      </trkpt>
      <trkpt lat="48.66317" lon="-2.28871">
        <ele>29</ele>
        <time>2016-06-24T10:16:42Z</time>
      </trkpt>
      <trkpt lat="48.66317" lon="-2.28864">
        <ele>29</ele>
        <time>2016-06-24T10:16:45Z</time>
      </trkpt>
      <trkpt lat="48.66318" lon="-2.28859">
        <ele>31</ele>
        <time>2016-06-24T10:16:48Z</time>
      </trkpt>
      <trkpt lat="48.66319" lon="-2.28853">
        <ele>31</ele>
        <time>2016-06-24T10:16:51Z</time>
      </trkpt>
      <trkpt lat="48.6632" lon="-2.28849">
        <ele>31</ele>
        <time>2016-06-24T10:16:54Z</time>
      </trkpt>
      <trkpt lat="48.6632" lon="-2.28842">
        <ele>31</ele>
        <time>2016-06-24T10:16:57Z</time>
      </trkpt>
      <trkpt lat="48.66322" lon="-2.28837">
        <ele>31</ele>
        <time>2016-06-24T10:17:00Z</time>
      </trkpt>
      <trkpt lat="48.66325" lon="-2.28832">
        <ele>31</ele>
        <time>2016-06-24T10:17:03Z</time>
      </trkpt>
      <trkpt lat="48.66326" lon="-2.28827">
        <ele>31</ele>
        <time>2016-06-24T10:17:06Z</time>
      </trkpt>
      <trkpt lat="48.66327" lon="-2.28821">
        <ele>31</ele>
        <time>2016-06-24T10:17:09Z</time>
      </trkpt>
      <trkpt lat="48.66326" lon="-2.28815">
        <ele>31</ele>
        <time>2016-06-24T10:17:12Z</time>
      </trkpt>
      <trkpt lat="48.66325" lon="-2.28809">
        <ele>30</ele>
        <time>2016-06-24T10:17:15Z</time>
      </trkpt>
      <trkpt lat="48.66324" lon="-2.28805">
        <ele>29</ele>
        <time>2016-06-24T10:17:18Z</time>
      </trkpt>
      <trkpt lat="48.66322" lon="-2.28799">
        <ele>28</ele>
        <time>2016-06-24T10:17:22Z</time>
      </trkpt>
      <trkpt lat="48.66321" lon="-2.28793">
        <ele>28</ele>
        <time>2016-06-24T10:17:25Z</time>
      </trkpt>
      <trkpt lat="48.66322" lon="-2.28788">
        <ele>26</ele>
        <time>2016-06-24T10:17:28Z</time>
      </trkpt>
      <trkpt lat="48.66321" lon="-2.28783">
        <ele>24</ele>
        <time>2016-06-24T10:17:31Z</time>
      </trkpt>
      <trkpt lat="48.6632" lon="-2.28778">
        <ele>23</ele>
        <time>2016-06-24T10:17:34Z</time>
      </trkpt>
      <trkpt lat="48.66317" lon="-2.28775">
        <ele>22</ele>
        <time>2016-06-24T10:17:38Z</time>
      </trkpt>
      <trkpt lat="48.66314" lon="-2.28773">
        <ele>22</ele>
        <time>2016-06-24T10:17:43Z</time>
      </trkpt>
      <trkpt lat="48.66313" lon="-2.28772">
        <ele>21</ele>
        <time>2016-06-24T10:17:47Z</time>
      </trkpt>
      <trkpt lat="48.6631" lon="-2.2877">
        <ele>20</ele>
        <time>2016-06-24T10:17:51Z</time>
      </trkpt>
      <trkpt lat="48.66311" lon="-2.28766">
        <ele>20</ele>
        <time>2016-06-24T10:17:55Z</time>
      </trkpt>
      <trkpt lat="48.66311" lon="-2.28762">
        <ele>20</ele>
        <time>2016-06-24T10:17:59Z</time>
      </trkpt>
      <trkpt lat="48.66311" lon="-2.28756">
        <ele>20</ele>
        <time>2016-06-24T10:18:03Z</time>
      </trkpt>
      <trkpt lat="48.6631" lon="-2.28751">
        <ele>20</ele>
        <time>2016-06-24T10:18:07Z</time>
      </trkpt>
      <trkpt lat="48.66343" lon="-2.28694">
        <ele>17</ele>
        <time>2016-06-24T10:18:12Z</time>
      </trkpt>
      <trkpt lat="48.66344" lon="-2.28693">
        <ele>17</ele>
        <time>2016-06-24T10:18:15Z</time>
      </trkpt>
      <trkpt lat="48.66347" lon="-2.28689">
        <ele>17</ele>
        <time>2016-06-24T10:18:19Z</time>
      </trkpt>
      <trkpt lat="48.66351" lon="-2.28687">
        <ele>18</ele>
        <time>2016-06-24T10:18:23Z</time>
      </trkpt>
      <trkpt lat="48.66355" lon="-2.28683">
        <ele>20</ele>
        <time>2016-06-24T10:18:27Z</time>
      </trkpt>
      <trkpt lat="48.66358" lon="-2.28681">
        <ele>20</ele>
        <time>2016-06-24T10:18:31Z</time>
      </trkpt>
      <trkpt lat="48.66361" lon="-2.28678">
        <ele>20</ele>
        <time>2016-06-24T10:18:35Z</time>
      </trkpt>
      <trkpt lat="48.66364" lon="-2.28675">
        <ele>20</ele>
        <time>2016-06-24T10:18:38Z</time>
      </trkpt>
      <trkpt lat="48.66368" lon="-2.2867">
        <ele>22</ele>
        <time>2016-06-24T10:18:42Z</time>
      </trkpt>
      <trkpt lat="48.66371" lon="-2.28668">
        <ele>24</ele>
        <time>2016-06-24T10:18:45Z</time>
      </trkpt>
      <trkpt lat="48.66375" lon="-2.28664">
        <ele>25</ele>
        <time>2016-06-24T10:18:49Z</time>
      </trkpt>
      <trkpt lat="48.66378" lon="-2.28663">
        <ele>26</ele>
        <time>2016-06-24T10:18:52Z</time>
      </trkpt>
      <trkpt lat="48.66383" lon="-2.28661">
        <ele>27</ele>
        <time>2016-06-24T10:18:56Z</time>
      </trkpt>
      <trkpt lat="48.66388" lon="-2.28659">
        <ele>27</ele>
        <time>2016-06-24T10:19:00Z</time>
      </trkpt>
      <trkpt lat="48.66391" lon="-2.2866">
        <ele>27</ele>
        <time>2016-06-24T10:19:03Z</time>
      </trkpt>
      <trkpt lat="48.66395" lon="-2.28658">
        <ele>27</ele>
        <time>2016-06-24T10:19:06Z</time>
      </trkpt>
      <trkpt lat="48.66399" lon="-2.28656">
        <ele>27</ele>
        <time>2016-06-24T10:19:10Z</time>
      </trkpt>
      <trkpt lat="48.66404" lon="-2.28654">
        <ele>27</ele>
        <time>2016-06-24T10:19:14Z</time>
      </trkpt>
      <trkpt lat="48.66408" lon="-2.28652">
        <ele>27</ele>
        <time>2016-06-24T10:19:17Z</time>
      </trkpt>
      <trkpt lat="48.66412" lon="-2.28648">
        <ele>27</ele>
        <time>2016-06-24T10:19:21Z</time>
      </trkpt>
      <trkpt lat="48.66416" lon="-2.28645">
        <ele>27</ele>
        <time>2016-06-24T10:19:25Z</time>
      </trkpt>
      <trkpt lat="48.6642" lon="-2.28643">
        <ele>27</ele>
        <time>2016-06-24T10:19:28Z</time>
      </trkpt>
      <trkpt lat="48.66423" lon="-2.28641">
        <ele>27</ele>
        <time>2016-06-24T10:19:31Z</time>
      </trkpt>
      <trkpt lat="48.66428" lon="-2.28639">
        <ele>27</ele>
        <time>2016-06-24T10:19:35Z</time>
      </trkpt>
      <trkpt lat="48.66433" lon="-2.28636">
        <ele>27</ele>
        <time>2016-06-24T10:19:39Z</time>
      </trkpt>
      <trkpt lat="48.66436" lon="-2.28633">
        <ele>26</ele>
        <time>2016-06-24T10:19:42Z</time>
      </trkpt>
      <trkpt lat="48.6644" lon="-2.28631">
        <ele>25</ele>
        <time>2016-06-24T10:19:45Z</time>
      </trkpt>
      <trkpt lat="48.66444" lon="-2.28629">
        <ele>25</ele>
        <time>2016-06-24T10:19:48Z</time>
      </trkpt>
      <trkpt lat="48.66449" lon="-2.28627">
        <ele>25</ele>
        <time>2016-06-24T10:19:52Z</time>
      </trkpt>
      <trkpt lat="48.66454" lon="-2.28625">
        <ele>25</ele>
        <time>2016-06-24T10:19:57Z</time>
      </trkpt>
      <trkpt lat="48.66458" lon="-2.28621">
        <ele>25</ele>
        <time>2016-06-24T10:20:01Z</time>
      </trkpt>
      <trkpt lat="48.66462" lon="-2.28616">
        <ele>25</ele>
        <time>2016-06-24T10:20:05Z</time>
      </trkpt>
      <trkpt lat="48.66464" lon="-2.28611">
        <ele>25</ele>
        <time>2016-06-24T10:20:08Z</time>
      </trkpt>
      <trkpt lat="48.66468" lon="-2.28607">
        <ele>25</ele>
        <time>2016-06-24T10:20:12Z</time>
      </trkpt>
      <trkpt lat="48.66471" lon="-2.28602">
        <ele>25</ele>
        <time>2016-06-24T10:20:16Z</time>
      </trkpt>
      <trkpt lat="48.66474" lon="-2.28597">
        <ele>24</ele>
        <time>2016-06-24T10:20:20Z</time>
      </trkpt>
      <trkpt lat="48.66477" lon="-2.28591">
        <ele>24</ele>
        <time>2016-06-24T10:20:24Z</time>
      </trkpt>
      <trkpt lat="48.66479" lon="-2.28586">
        <ele>23</ele>
        <time>2016-06-24T10:20:28Z</time>
      </trkpt>
      <trkpt lat="48.66482" lon="-2.28581">
        <ele>22</ele>
        <time>2016-06-24T10:20:32Z</time>
      </trkpt>
      <trkpt lat="48.66484" lon="-2.2858">
        <ele>22</ele>
        <time>2016-06-24T10:20:50Z</time>
      </trkpt>
      <trkpt lat="48.66487" lon="-2.28577">
        <ele>22</ele>
        <time>2016-06-24T10:20:53Z</time>
      </trkpt>
      <trkpt lat="48.66491" lon="-2.28575">
        <ele>22</ele>
        <time>2016-06-24T10:20:56Z</time>
      </trkpt>
      <trkpt lat="48.66496" lon="-2.28576">
        <ele>22</ele>
        <time>2016-06-24T10:21:00Z</time>
      </trkpt>
      <trkpt lat="48.66499" lon="-2.28577">
        <ele>22</ele>
        <time>2016-06-24T10:21:04Z</time>
      </trkpt>
      <trkpt lat="48.665" lon="-2.28577">
        <ele>22</ele>
        <time>2016-06-24T10:21:10Z</time>
      </trkpt>
      <trkpt lat="48.66503" lon="-2.28579">
        <ele>22</ele>
        <time>2016-06-24T10:21:14Z</time>
      </trkpt>
      <trkpt lat="48.66506" lon="-2.28579">
        <ele>22</ele>
        <time>2016-06-24T10:21:18Z</time>
      </trkpt>
      <trkpt lat="48.66507" lon="-2.28578">
        <ele>22</ele>
        <time>2016-06-24T10:22:49Z</time>
      </trkpt>
      <trkpt lat="48.66508" lon="-2.2858">
        <ele>22</ele>
        <time>2016-06-24T10:23:52Z</time>
      </trkpt>
      <trkpt lat="48.6651" lon="-2.2858">
        <ele>22</ele>
        <time>2016-06-24T10:23:56Z</time>
      </trkpt>
      <trkpt lat="48.66513" lon="-2.28583">
        <ele>22</ele>
        <time>2016-06-24T10:24:00Z</time>
      </trkpt>
      <trkpt lat="48.66516" lon="-2.28585">
        <ele>22</ele>
        <time>2016-06-24T10:24:03Z</time>
      </trkpt>
      <trkpt lat="48.66519" lon="-2.2859">
        <ele>22</ele>
        <time>2016-06-24T10:24:06Z</time>
      </trkpt>
      <trkpt lat="48.66519" lon="-2.28595">
        <ele>22</ele>
        <time>2016-06-24T10:24:09Z</time>
      </trkpt>
      <trkpt lat="48.66518" lon="-2.28599">
        <ele>22</ele>
        <time>2016-06-24T10:24:12Z</time>
      </trkpt>
      <trkpt lat="48.66516" lon="-2.28604">
        <ele>22</ele>
        <time>2016-06-24T10:24:16Z</time>
      </trkpt>
      <trkpt lat="48.66516" lon="-2.28608">
        <ele>22</ele>
        <time>2016-06-24T10:24:20Z</time>
      </trkpt>
      <trkpt lat="48.66515" lon="-2.28612">
        <ele>22</ele>
        <time>2016-06-24T10:24:24Z</time>
      </trkpt>
      <trkpt lat="48.66515" lon="-2.28614">
        <ele>22</ele>
        <time>2016-06-24T10:24:27Z</time>
      </trkpt>
      <trkpt lat="48.66513" lon="-2.28619">
        <ele>22</ele>
        <time>2016-06-24T10:24:31Z</time>
      </trkpt>
      <trkpt lat="48.66513" lon="-2.28624">
        <ele>22</ele>
        <time>2016-06-24T10:24:35Z</time>
      </trkpt>
      <trkpt lat="48.66514" lon="-2.28629">
        <ele>22</ele>
        <time>2016-06-24T10:24:38Z</time>
      </trkpt>
      <trkpt lat="48.66516" lon="-2.28635">
        <ele>23</ele>
        <time>2016-06-24T10:24:41Z</time>
      </trkpt>
      <trkpt lat="48.66518" lon="-2.28639">
        <ele>23</ele>
        <time>2016-06-24T10:24:44Z</time>
      </trkpt>
      <trkpt lat="48.66521" lon="-2.28643">
        <ele>24</ele>
        <time>2016-06-24T10:24:49Z</time>
      </trkpt>
      <trkpt lat="48.66524" lon="-2.28648">
        <ele>25</ele>
        <time>2016-06-24T10:24:54Z</time>
      </trkpt>
      <trkpt lat="48.66527" lon="-2.28651">
        <ele>25</ele>
        <time>2016-06-24T10:24:57Z</time>
      </trkpt>
      <trkpt lat="48.6653" lon="-2.28652">
        <ele>25</ele>
        <time>2016-06-24T10:25:01Z</time>
      </trkpt>
      <trkpt lat="48.66533" lon="-2.28653">
        <ele>26</ele>
        <time>2016-06-24T10:25:05Z</time>
      </trkpt>
      <trkpt lat="48.66537" lon="-2.28655">
        <ele>26</ele>
        <time>2016-06-24T10:25:08Z</time>
      </trkpt>
      <trkpt lat="48.66541" lon="-2.28657">
        <ele>26</ele>
        <time>2016-06-24T10:25:11Z</time>
      </trkpt>
      <trkpt lat="48.66545" lon="-2.28659">
        <ele>26</ele>
        <time>2016-06-24T10:25:15Z</time>
      </trkpt>
      <trkpt lat="48.66549" lon="-2.2866">
        <ele>26</ele>
        <time>2016-06-24T10:25:18Z</time>
      </trkpt>
      <trkpt lat="48.66553" lon="-2.2866">
        <ele>26</ele>
        <time>2016-06-24T10:25:22Z</time>
      </trkpt>
      <trkpt lat="48.66557" lon="-2.28659">
        <ele>26</ele>
        <time>2016-06-24T10:25:26Z</time>
      </trkpt>
      <trkpt lat="48.6656" lon="-2.28658">
        <ele>26</ele>
        <time>2016-06-24T10:25:29Z</time>
      </trkpt>
      <trkpt lat="48.66565" lon="-2.28658">
        <ele>26</ele>
        <time>2016-06-24T10:25:32Z</time>
      </trkpt>
      <trkpt lat="48.66565" lon="-2.28657">
        <ele>26</ele>
        <time>2016-06-24T10:25:51Z</time>
      </trkpt>
      <trkpt lat="48.66565" lon="-2.28655">
        <ele>26</ele>
        <time>2016-06-24T10:26:05Z</time>
      </trkpt>
      <trkpt lat="48.66565" lon="-2.28657">
        <ele>26</ele>
        <time>2016-06-24T10:26:26Z</time>
      </trkpt>
      <trkpt lat="48.66568" lon="-2.28658">
        <ele>26</ele>
        <time>2016-06-24T10:26:29Z</time>
      </trkpt>
      <trkpt lat="48.66572" lon="-2.28661">
        <ele>26</ele>
        <time>2016-06-24T10:26:33Z</time>
      </trkpt>
      <trkpt lat="48.66576" lon="-2.28665">
        <ele>26</ele>
        <time>2016-06-24T10:26:37Z</time>
      </trkpt>
      <trkpt lat="48.66579" lon="-2.28671">
        <ele>26</ele>
        <time>2016-06-24T10:26:41Z</time>
      </trkpt>
      <trkpt lat="48.66583" lon="-2.28676">
        <ele>26</ele>
        <time>2016-06-24T10:26:45Z</time>
      </trkpt>
      <trkpt lat="48.66586" lon="-2.28677">
        <ele>25</ele>
        <time>2016-06-24T10:26:48Z</time>
      </trkpt>
      <trkpt lat="48.66591" lon="-2.28683">
        <ele>25</ele>
        <time>2016-06-24T10:26:52Z</time>
      </trkpt>
      <trkpt lat="48.66594" lon="-2.28688">
        <ele>25</ele>
        <time>2016-06-24T10:26:56Z</time>
      </trkpt>
      <trkpt lat="48.66597" lon="-2.28691">
        <ele>25</ele>
        <time>2016-06-24T10:26:59Z</time>
      </trkpt>
      <trkpt lat="48.66601" lon="-2.28693">
        <ele>25</ele>
        <time>2016-06-24T10:27:02Z</time>
      </trkpt>
      <trkpt lat="48.66604" lon="-2.28696">
        <ele>25</ele>
        <time>2016-06-24T10:27:05Z</time>
      </trkpt>
      <trkpt lat="48.66608" lon="-2.28695">
        <ele>25</ele>
        <time>2016-06-24T10:27:09Z</time>
      </trkpt>
      <trkpt lat="48.66611" lon="-2.28692">
        <ele>24</ele>
        <time>2016-06-24T10:27:13Z</time>
      </trkpt>
      <trkpt lat="48.66614" lon="-2.28692">
        <ele>24</ele>
        <time>2016-06-24T10:27:16Z</time>
      </trkpt>
      <trkpt lat="48.66618" lon="-2.28688">
        <ele>23</ele>
        <time>2016-06-24T10:27:20Z</time>
      </trkpt>
      <trkpt lat="48.6662" lon="-2.28684">
        <ele>23</ele>
        <time>2016-06-24T10:27:23Z</time>
      </trkpt>
      <trkpt lat="48.66623" lon="-2.2868">
        <ele>22</ele>
        <time>2016-06-24T10:27:27Z</time>
      </trkpt>
      <trkpt lat="48.66626" lon="-2.28678">
        <ele>21</ele>
        <time>2016-06-24T10:27:30Z</time>
      </trkpt>
      <trkpt lat="48.66631" lon="-2.28679">
        <ele>20</ele>
        <time>2016-06-24T10:27:34Z</time>
      </trkpt>
      <trkpt lat="48.66634" lon="-2.28681">
        <ele>20</ele>
        <time>2016-06-24T10:27:37Z</time>
      </trkpt>
      <trkpt lat="48.66638" lon="-2.28684">
        <ele>20</ele>
        <time>2016-06-24T10:27:41Z</time>
      </trkpt>
      <trkpt lat="48.66642" lon="-2.28687">
        <ele>20</ele>
        <time>2016-06-24T10:27:45Z</time>
      </trkpt>
      <trkpt lat="48.66643" lon="-2.28688">
        <ele>20</ele>
        <time>2016-06-24T10:27:48Z</time>
      </trkpt>
      <trkpt lat="48.66645" lon="-2.28691">
        <ele>20</ele>
        <time>2016-06-24T10:27:52Z</time>
      </trkpt>
      <trkpt lat="48.66648" lon="-2.28693">
        <ele>20</ele>
        <time>2016-06-24T10:27:56Z</time>
      </trkpt>
      <trkpt lat="48.66652" lon="-2.28696">
        <ele>22</ele>
        <time>2016-06-24T10:28:00Z</time>
      </trkpt>
      <trkpt lat="48.66655" lon="-2.28698">
        <ele>23</ele>
        <time>2016-06-24T10:28:04Z</time>
      </trkpt>
      <trkpt lat="48.66656" lon="-2.28701">
        <ele>24</ele>
        <time>2016-06-24T10:28:08Z</time>
      </trkpt>
      <trkpt lat="48.66659" lon="-2.28703">
        <ele>24</ele>
        <time>2016-06-24T10:28:11Z</time>
      </trkpt>
      <trkpt lat="48.66663" lon="-2.28706">
        <ele>24</ele>
        <time>2016-06-24T10:28:15Z</time>
      </trkpt>
      <trkpt lat="48.66667" lon="-2.28705">
        <ele>24</ele>
        <time>2016-06-24T10:28:18Z</time>
      </trkpt>
      <trkpt lat="48.66671" lon="-2.28705">
        <ele>24</ele>
        <time>2016-06-24T10:28:21Z</time>
      </trkpt>
      <trkpt lat="48.66676" lon="-2.28705">
        <ele>24</ele>
        <time>2016-06-24T10:28:24Z</time>
      </trkpt>
      <trkpt lat="48.66679" lon="-2.28707">
        <ele>24</ele>
        <time>2016-06-24T10:28:27Z</time>
      </trkpt>
      <trkpt lat="48.66683" lon="-2.28711">
        <ele>25</ele>
        <time>2016-06-24T10:28:31Z</time>
      </trkpt>
      <trkpt lat="48.66687" lon="-2.28715">
        <ele>26</ele>
        <time>2016-06-24T10:28:35Z</time>
      </trkpt>
      <trkpt lat="48.66689" lon="-2.2872">
        <ele>26</ele>
        <time>2016-06-24T10:28:39Z</time>
      </trkpt>
      <trkpt lat="48.66691" lon="-2.28725">
        <ele>27</ele>
        <time>2016-06-24T10:28:44Z</time>
      </trkpt>
      <trkpt lat="48.66693" lon="-2.28726">
        <ele>28</ele>
        <time>2016-06-24T10:28:47Z</time>
      </trkpt>
      <trkpt lat="48.66693" lon="-2.28728">
        <ele>28</ele>
        <time>2016-06-24T10:28:50Z</time>
      </trkpt>
      <trkpt lat="48.66693" lon="-2.28729">
        <ele>28</ele>
        <time>2016-06-24T10:28:54Z</time>
      </trkpt>
      <trkpt lat="48.66695" lon="-2.2873">
        <ele>29</ele>
        <time>2016-06-24T10:29:21Z</time>
      </trkpt>
      <trkpt lat="48.66696" lon="-2.28732">
        <ele>29</ele>
        <time>2016-06-24T10:29:24Z</time>
      </trkpt>
      <trkpt lat="48.66697" lon="-2.28736">
        <ele>29</ele>
        <time>2016-06-24T10:29:27Z</time>
      </trkpt>
      <trkpt lat="48.66696" lon="-2.2874">
        <ele>30</ele>
        <time>2016-06-24T10:29:30Z</time>
      </trkpt>
      <trkpt lat="48.66696" lon="-2.28745">
        <ele>30</ele>
        <time>2016-06-24T10:29:33Z</time>
      </trkpt>
      <trkpt lat="48.66694" lon="-2.28751">
        <ele>31</ele>
        <time>2016-06-24T10:29:37Z</time>
      </trkpt>
      <trkpt lat="48.66693" lon="-2.28757">
        <ele>31</ele>
        <time>2016-06-24T10:29:40Z</time>
      </trkpt>
      <trkpt lat="48.66693" lon="-2.28762">
        <ele>31</ele>
        <time>2016-06-24T10:29:43Z</time>
      </trkpt>
      <trkpt lat="48.66694" lon="-2.28767">
        <ele>31</ele>
        <time>2016-06-24T10:29:46Z</time>
      </trkpt>
      <trkpt lat="48.66695" lon="-2.28773">
        <ele>31</ele>
        <time>2016-06-24T10:29:49Z</time>
      </trkpt>
      <trkpt lat="48.66694" lon="-2.28779">
        <ele>31</ele>
        <time>2016-06-24T10:29:53Z</time>
      </trkpt>
      <trkpt lat="48.66694" lon="-2.28781">
        <ele>31</ele>
        <time>2016-06-24T10:29:56Z</time>
      </trkpt>
      <trkpt lat="48.66694" lon="-2.28787">
        <ele>31</ele>
        <time>2016-06-24T10:29:59Z</time>
      </trkpt>
      <trkpt lat="48.66695" lon="-2.28792">
        <ele>31</ele>
        <time>2016-06-24T10:30:02Z</time>
      </trkpt>
      <trkpt lat="48.66699" lon="-2.28797">
        <ele>31</ele>
        <time>2016-06-24T10:30:06Z</time>
      </trkpt>
      <trkpt lat="48.66702" lon="-2.28801">
        <ele>31</ele>
        <time>2016-06-24T10:30:09Z</time>
      </trkpt>
      <trkpt lat="48.66706" lon="-2.28807">
        <ele>31</ele>
        <time>2016-06-24T10:30:13Z</time>
      </trkpt>
      <trkpt lat="48.6671" lon="-2.28812">
        <ele>31</ele>
        <time>2016-06-24T10:30:17Z</time>
      </trkpt>
      <trkpt lat="48.66711" lon="-2.28814">
        <ele>31</ele>
        <time>2016-06-24T10:30:20Z</time>
      </trkpt>
      <trkpt lat="48.66713" lon="-2.28816">
        <ele>32</ele>
        <time>2016-06-24T10:30:43Z</time>
      </trkpt>
      <trkpt lat="48.66713" lon="-2.28818">
        <ele>32</ele>
        <time>2016-06-24T10:30:51Z</time>
      </trkpt>
      <trkpt lat="48.66712" lon="-2.28823">
        <ele>32</ele>
        <time>2016-06-24T10:30:55Z</time>
      </trkpt>
      <trkpt lat="48.6671" lon="-2.28828">
        <ele>32</ele>
        <time>2016-06-24T10:30:58Z</time>
      </trkpt>
      <trkpt lat="48.66707" lon="-2.28833">
        <ele>32</ele>
        <time>2016-06-24T10:31:02Z</time>
      </trkpt>
      <trkpt lat="48.66705" lon="-2.28838">
        <ele>32</ele>
        <time>2016-06-24T10:31:05Z</time>
      </trkpt>
      <trkpt lat="48.66703" lon="-2.28843">
        <ele>32</ele>
        <time>2016-06-24T10:31:08Z</time>
      </trkpt>
      <trkpt lat="48.66701" lon="-2.28849">
        <ele>33</ele>
        <time>2016-06-24T10:31:11Z</time>
      </trkpt>
      <trkpt lat="48.66699" lon="-2.28855">
        <ele>33</ele>
        <time>2016-06-24T10:31:14Z</time>
      </trkpt>
      <trkpt lat="48.66698" lon="-2.2886">
        <ele>33</ele>
        <time>2016-06-24T10:31:17Z</time>
      </trkpt>
      <trkpt lat="48.66696" lon="-2.28864">
        <ele>33</ele>
        <time>2016-06-24T10:31:20Z</time>
      </trkpt>
      <trkpt lat="48.66694" lon="-2.28866">
        <ele>34</ele>
        <time>2016-06-24T10:31:23Z</time>
      </trkpt>
      <trkpt lat="48.66692" lon="-2.28872">
        <ele>34</ele>
        <time>2016-06-24T10:31:27Z</time>
      </trkpt>
      <trkpt lat="48.66691" lon="-2.28877">
        <ele>35</ele>
        <time>2016-06-24T10:31:30Z</time>
      </trkpt>
      <trkpt lat="48.6669" lon="-2.28883">
        <ele>35</ele>
        <time>2016-06-24T10:31:33Z</time>
      </trkpt>
      <trkpt lat="48.6669" lon="-2.28889">
        <ele>35</ele>
        <time>2016-06-24T10:31:36Z</time>
      </trkpt>
      <trkpt lat="48.66689" lon="-2.28895">
        <ele>35</ele>
        <time>2016-06-24T10:31:39Z</time>
      </trkpt>
      <trkpt lat="48.66689" lon="-2.28901">
        <ele>36</ele>
        <time>2016-06-24T10:31:42Z</time>
      </trkpt>
      <trkpt lat="48.66688" lon="-2.28906">
        <ele>36</ele>
        <time>2016-06-24T10:31:46Z</time>
      </trkpt>
      <trkpt lat="48.66687" lon="-2.28911">
        <ele>37</ele>
        <time>2016-06-24T10:31:49Z</time>
      </trkpt>
      <trkpt lat="48.66688" lon="-2.28918">
        <ele>37</ele>
        <time>2016-06-24T10:31:53Z</time>
      </trkpt>
      <trkpt lat="48.6669" lon="-2.28923">
        <ele>37</ele>
        <time>2016-06-24T10:31:56Z</time>
      </trkpt>
      <trkpt lat="48.6669" lon="-2.28929">
        <ele>38</ele>
        <time>2016-06-24T10:31:59Z</time>
      </trkpt>
      <trkpt lat="48.66691" lon="-2.28936">
        <ele>38</ele>
        <time>2016-06-24T10:32:02Z</time>
      </trkpt>
      <trkpt lat="48.66692" lon="-2.28941">
        <ele>38</ele>
        <time>2016-06-24T10:32:05Z</time>
      </trkpt>
      <trkpt lat="48.66693" lon="-2.28945">
        <ele>39</ele>
        <time>2016-06-24T10:32:08Z</time>
      </trkpt>
      <trkpt lat="48.66694" lon="-2.28951">
        <ele>39</ele>
        <time>2016-06-24T10:32:11Z</time>
      </trkpt>
      <trkpt lat="48.66695" lon="-2.28957">
        <ele>40</ele>
        <time>2016-06-24T10:32:14Z</time>
      </trkpt>
      <trkpt lat="48.66696" lon="-2.28963">
        <ele>40</ele>
        <time>2016-06-24T10:32:17Z</time>
      </trkpt>
      <trkpt lat="48.66697" lon="-2.2897">
        <ele>40</ele>
        <time>2016-06-24T10:32:21Z</time>
      </trkpt>
      <trkpt lat="48.66699" lon="-2.28975">
        <ele>41</ele>
        <time>2016-06-24T10:32:24Z</time>
      </trkpt>
      <trkpt lat="48.66702" lon="-2.28981">
        <ele>41</ele>
        <time>2016-06-24T10:32:28Z</time>
      </trkpt>
      <trkpt lat="48.66704" lon="-2.28985">
        <ele>41</ele>
        <time>2016-06-24T10:32:31Z</time>
      </trkpt>
      <trkpt lat="48.66706" lon="-2.2899">
        <ele>41</ele>
        <time>2016-06-24T10:32:35Z</time>
      </trkpt>
      <trkpt lat="48.66709" lon="-2.28995">
        <ele>41</ele>
        <time>2016-06-24T10:32:39Z</time>
      </trkpt>
      <trkpt lat="48.66712" lon="-2.29001">
        <ele>41</ele>
        <time>2016-06-24T10:32:43Z</time>
      </trkpt>
      <trkpt lat="48.66715" lon="-2.29006">
        <ele>41</ele>
        <time>2016-06-24T10:32:46Z</time>
      </trkpt>
      <trkpt lat="48.66716" lon="-2.29012">
        <ele>41</ele>
        <time>2016-06-24T10:32:49Z</time>
      </trkpt>
      <trkpt lat="48.66717" lon="-2.29018">
        <ele>41</ele>
        <time>2016-06-24T10:32:52Z</time>
      </trkpt>
      <trkpt lat="48.66716" lon="-2.29025">
        <ele>41</ele>
        <time>2016-06-24T10:32:55Z</time>
      </trkpt>
      <trkpt lat="48.66715" lon="-2.2903">
        <ele>41</ele>
        <time>2016-06-24T10:32:58Z</time>
      </trkpt>
      <trkpt lat="48.66713" lon="-2.29035">
        <ele>41</ele>
        <time>2016-06-24T10:33:01Z</time>
      </trkpt>
      <trkpt lat="48.66711" lon="-2.29039">
        <ele>41</ele>
        <time>2016-06-24T10:33:04Z</time>
      </trkpt>
      <trkpt lat="48.66709" lon="-2.29044">
        <ele>41</ele>
        <time>2016-06-24T10:33:08Z</time>
      </trkpt>
      <trkpt lat="48.66707" lon="-2.29049">
        <ele>42</ele>
        <time>2016-06-24T10:33:12Z</time>
      </trkpt>
      <trkpt lat="48.66706" lon="-2.29056">
        <ele>43</ele>
        <time>2016-06-24T10:33:15Z</time>
      </trkpt>
      <trkpt lat="48.66706" lon="-2.29062">
        <ele>43</ele>
        <time>2016-06-24T10:33:18Z</time>
      </trkpt>
      <trkpt lat="48.66708" lon="-2.29068">
        <ele>44</ele>
        <time>2016-06-24T10:33:21Z</time>
      </trkpt>
      <trkpt lat="48.66709" lon="-2.29073">
        <ele>44</ele>
        <time>2016-06-24T10:33:24Z</time>
      </trkpt>
      <trkpt lat="48.6671" lon="-2.29078">
        <ele>44</ele>
        <time>2016-06-24T10:33:28Z</time>
      </trkpt>
      <trkpt lat="48.66709" lon="-2.2908">
        <ele>45</ele>
        <time>2016-06-24T10:33:35Z</time>
      </trkpt>
      <trkpt lat="48.66706" lon="-2.29081">
        <ele>45</ele>
        <time>2016-06-24T10:33:39Z</time>
      </trkpt>
      <trkpt lat="48.66708" lon="-2.29081">
        <ele>45</ele>
        <time>2016-06-24T10:33:42Z</time>
      </trkpt>
      <trkpt lat="48.66709" lon="-2.2908">
        <ele>45</ele>
        <time>2016-06-24T10:33:45Z</time>
      </trkpt>
      <trkpt lat="48.66711" lon="-2.29082">
        <ele>46</ele>
        <time>2016-06-24T10:34:00Z</time>
      </trkpt>
      <trkpt lat="48.66711" lon="-2.29087">
        <ele>46</ele>
        <time>2016-06-24T10:34:03Z</time>
      </trkpt>
      <trkpt lat="48.66711" lon="-2.29093">
        <ele>46</ele>
        <time>2016-06-24T10:34:06Z</time>
      </trkpt>
      <trkpt lat="48.66711" lon="-2.29099">
        <ele>46</ele>
        <time>2016-06-24T10:34:09Z</time>
      </trkpt>
      <trkpt lat="48.66711" lon="-2.29104">
        <ele>47</ele>
        <time>2016-06-24T10:34:12Z</time>
      </trkpt>
      <trkpt lat="48.66711" lon="-2.29109">
        <ele>47</ele>
        <time>2016-06-24T10:34:15Z</time>
      </trkpt>
      <trkpt lat="48.66709" lon="-2.29115">
        <ele>47</ele>
        <time>2016-06-24T10:34:18Z</time>
      </trkpt>
      <trkpt lat="48.66706" lon="-2.29121">
        <ele>47</ele>
        <time>2016-06-24T10:34:22Z</time>
      </trkpt>
      <trkpt lat="48.66703" lon="-2.29127">
        <ele>47</ele>
        <time>2016-06-24T10:34:26Z</time>
      </trkpt>
      <trkpt lat="48.667" lon="-2.29131">
        <ele>47</ele>
        <time>2016-06-24T10:34:30Z</time>
      </trkpt>
      <trkpt lat="48.66696" lon="-2.29135">
        <ele>47</ele>
        <time>2016-06-24T10:34:34Z</time>
      </trkpt>
      <trkpt lat="48.66695" lon="-2.2914">
        <ele>47</ele>
        <time>2016-06-24T10:34:37Z</time>
      </trkpt>
      <trkpt lat="48.66694" lon="-2.29146">
        <ele>47</ele>
        <time>2016-06-24T10:34:40Z</time>
      </trkpt>
      <trkpt lat="48.66694" lon="-2.29152">
        <ele>47</ele>
        <time>2016-06-24T10:34:43Z</time>
      </trkpt>
      <trkpt lat="48.66693" lon="-2.29158">
        <ele>47</ele>
        <time>2016-06-24T10:34:46Z</time>
      </trkpt>
      <trkpt lat="48.66692" lon="-2.29163">
        <ele>47</ele>
        <time>2016-06-24T10:34:49Z</time>
      </trkpt>
      <trkpt lat="48.66694" lon="-2.29168">
        <ele>47</ele>
        <time>2016-06-24T10:34:52Z</time>
      </trkpt>
      <trkpt lat="48.66697" lon="-2.29174">
        <ele>48</ele>
        <time>2016-06-24T10:34:56Z</time>
      </trkpt>
      <trkpt lat="48.66698" lon="-2.29178">
        <ele>48</ele>
        <time>2016-06-24T10:34:59Z</time>
      </trkpt>
      <trkpt lat="48.667" lon="-2.29182">
        <ele>48</ele>
        <time>2016-06-24T10:35:02Z</time>
      </trkpt>
      <trkpt lat="48.66702" lon="-2.29186">
        <ele>48</ele>
        <time>2016-06-24T10:35:06Z</time>
      </trkpt>
      <trkpt lat="48.66705" lon="-2.2919">
        <ele>48</ele>
        <time>2016-06-24T10:35:10Z</time>
      </trkpt>
      <trkpt lat="48.66709" lon="-2.29195">
        <ele>48</ele>
        <time>2016-06-24T10:35:14Z</time>
      </trkpt>
      <trkpt lat="48.66711" lon="-2.29201">
        <ele>48</ele>
        <time>2016-06-24T10:35:17Z</time>
      </trkpt>
      <trkpt lat="48.66714" lon="-2.29207">
        <ele>48</ele>
        <time>2016-06-24T10:35:21Z</time>
      </trkpt>
      <trkpt lat="48.66717" lon="-2.2921">
        <ele>48</ele>
        <time>2016-06-24T10:35:24Z</time>
      </trkpt>
      <trkpt lat="48.6672" lon="-2.29212">
        <ele>48</ele>
        <time>2016-06-24T10:35:27Z</time>
      </trkpt>
      <trkpt lat="48.66724" lon="-2.29216">
        <ele>48</ele>
        <time>2016-06-24T10:35:30Z</time>
      </trkpt>
      <trkpt lat="48.66727" lon="-2.29221">
        <ele>48</ele>
        <time>2016-06-24T10:35:34Z</time>
      </trkpt>
      <trkpt lat="48.66729" lon="-2.29228">
        <ele>48</ele>
        <time>2016-06-24T10:35:38Z</time>
      </trkpt>
      <trkpt lat="48.66733" lon="-2.29234">
        <ele>48</ele>
        <time>2016-06-24T10:35:42Z</time>
      </trkpt>
      <trkpt lat="48.66734" lon="-2.2924">
        <ele>48</ele>
        <time>2016-06-24T10:35:45Z</time>
      </trkpt>
      <trkpt lat="48.66734" lon="-2.29247">
        <ele>48</ele>
        <time>2016-06-24T10:35:48Z</time>
      </trkpt>
      <trkpt lat="48.66735" lon="-2.29255">
        <ele>48</ele>
        <time>2016-06-24T10:35:51Z</time>
      </trkpt>
      <trkpt lat="48.66736" lon="-2.29261">
        <ele>48</ele>
        <time>2016-06-24T10:35:54Z</time>
      </trkpt>
      <trkpt lat="48.66737" lon="-2.29267">
        <ele>48</ele>
        <time>2016-06-24T10:35:57Z</time>
      </trkpt>
      <trkpt lat="48.66741" lon="-2.29273">
        <ele>48</ele>
        <time>2016-06-24T10:36:01Z</time>
      </trkpt>
      <trkpt lat="48.66744" lon="-2.29277">
        <ele>48</ele>
        <time>2016-06-24T10:36:04Z</time>
      </trkpt>
      <trkpt lat="48.66748" lon="-2.29282">
        <ele>48</ele>
        <time>2016-06-24T10:36:07Z</time>
      </trkpt>
      <trkpt lat="48.66751" lon="-2.29288">
        <ele>48</ele>
        <time>2016-06-24T10:36:11Z</time>
      </trkpt>
      <trkpt lat="48.66752" lon="-2.29293">
        <ele>48</ele>
        <time>2016-06-24T10:36:14Z</time>
      </trkpt>
      <trkpt lat="48.66753" lon="-2.29299">
        <ele>48</ele>
        <time>2016-06-24T10:36:17Z</time>
      </trkpt>
      <trkpt lat="48.66752" lon="-2.29306">
        <ele>48</ele>
        <time>2016-06-24T10:36:20Z</time>
      </trkpt>
      <trkpt lat="48.66751" lon="-2.29312">
        <ele>48</ele>
        <time>2016-06-24T10:36:23Z</time>
      </trkpt>
      <trkpt lat="48.6675" lon="-2.29318">
        <ele>48</ele>
        <time>2016-06-24T10:36:26Z</time>
      </trkpt>
      <trkpt lat="48.6675" lon="-2.29325">
        <ele>48</ele>
        <time>2016-06-24T10:36:29Z</time>
      </trkpt>
      <trkpt lat="48.6675" lon="-2.29331">
        <ele>48</ele>
        <time>2016-06-24T10:36:32Z</time>
      </trkpt>
      <trkpt lat="48.66752" lon="-2.29338">
        <ele>48</ele>
        <time>2016-06-24T10:36:35Z</time>
      </trkpt>
      <trkpt lat="48.66754" lon="-2.29343">
        <ele>48</ele>
        <time>2016-06-24T10:36:38Z</time>
      </trkpt>
      <trkpt lat="48.66756" lon="-2.2935">
        <ele>48</ele>
        <time>2016-06-24T10:36:41Z</time>
      </trkpt>
      <trkpt lat="48.66757" lon="-2.29356">
        <ele>48</ele>
        <time>2016-06-24T10:36:44Z</time>
      </trkpt>
      <trkpt lat="48.66757" lon="-2.29363">
        <ele>48</ele>
        <time>2016-06-24T10:36:47Z</time>
      </trkpt>
      <trkpt lat="48.66757" lon="-2.2937">
        <ele>48</ele>
        <time>2016-06-24T10:36:50Z</time>
      </trkpt>
      <trkpt lat="48.66757" lon="-2.29377">
        <ele>48</ele>
        <time>2016-06-24T10:36:53Z</time>
      </trkpt>
      <trkpt lat="48.66757" lon="-2.29384">
        <ele>48</ele>
        <time>2016-06-24T10:36:56Z</time>
      </trkpt>
      <trkpt lat="48.66758" lon="-2.29391">
        <ele>48</ele>
        <time>2016-06-24T10:37:00Z</time>
      </trkpt>
      <trkpt lat="48.6676" lon="-2.29398">
        <ele>48</ele>
        <time>2016-06-24T10:37:04Z</time>
      </trkpt>
      <trkpt lat="48.66759" lon="-2.29404">
        <ele>48</ele>
        <time>2016-06-24T10:37:07Z</time>
      </trkpt>
      <trkpt lat="48.66758" lon="-2.29411">
        <ele>48</ele>
        <time>2016-06-24T10:37:10Z</time>
      </trkpt>
      <trkpt lat="48.66757" lon="-2.29417">
        <ele>48</ele>
        <time>2016-06-24T10:37:13Z</time>
      </trkpt>
      <trkpt lat="48.66756" lon="-2.29423">
        <ele>48</ele>
        <time>2016-06-24T10:37:16Z</time>
      </trkpt>
      <trkpt lat="48.66755" lon="-2.2943">
        <ele>48</ele>
        <time>2016-06-24T10:37:19Z</time>
      </trkpt>
      <trkpt lat="48.66754" lon="-2.29436">
        <ele>48</ele>
        <time>2016-06-24T10:37:22Z</time>
      </trkpt>
      <trkpt lat="48.66753" lon="-2.29443">
        <ele>48</ele>
        <time>2016-06-24T10:37:25Z</time>
      </trkpt>
      <trkpt lat="48.66752" lon="-2.29449">
        <ele>48</ele>
        <time>2016-06-24T10:37:28Z</time>
      </trkpt>
      <trkpt lat="48.66751" lon="-2.29456">
        <ele>48</ele>
        <time>2016-06-24T10:37:31Z</time>
      </trkpt>
      <trkpt lat="48.6675" lon="-2.29462">
        <ele>48</ele>
        <time>2016-06-24T10:37:34Z</time>
      </trkpt>
      <trkpt lat="48.66748" lon="-2.29466">
        <ele>48</ele>
        <time>2016-06-24T10:37:37Z</time>
      </trkpt>
      <trkpt lat="48.66747" lon="-2.2947">
        <ele>48</ele>
        <time>2016-06-24T10:37:40Z</time>
      </trkpt>
      <trkpt lat="48.66746" lon="-2.29476">
        <ele>48</ele>
        <time>2016-06-24T10:37:43Z</time>
      </trkpt>
      <trkpt lat="48.66745" lon="-2.29482">
        <ele>48</ele>
        <time>2016-06-24T10:37:46Z</time>
      </trkpt>
      <trkpt lat="48.66745" lon="-2.29489">
        <ele>48</ele>
        <time>2016-06-24T10:37:49Z</time>
      </trkpt>
      <trkpt lat="48.66745" lon="-2.29496">
        <ele>48</ele>
        <time>2016-06-24T10:37:52Z</time>
      </trkpt>
      <trkpt lat="48.66744" lon="-2.295">
        <ele>48</ele>
        <time>2016-06-24T10:37:55Z</time>
      </trkpt>
      <trkpt lat="48.66744" lon="-2.29503">
        <ele>48</ele>
        <time>2016-06-24T10:38:06Z</time>
      </trkpt>
      <trkpt lat="48.66744" lon="-2.29508">
        <ele>48</ele>
        <time>2016-06-24T10:38:09Z</time>
      </trkpt>
      <trkpt lat="48.66744" lon="-2.29513">
        <ele>48</ele>
        <time>2016-06-24T10:38:12Z</time>
      </trkpt>
      <trkpt lat="48.66745" lon="-2.29517">
        <ele>48</ele>
        <time>2016-06-24T10:38:15Z</time>
      </trkpt>
      <trkpt lat="48.66744" lon="-2.29523">
        <ele>48</ele>
        <time>2016-06-24T10:38:18Z</time>
      </trkpt>
      <trkpt lat="48.66741" lon="-2.29528">
        <ele>48</ele>
        <time>2016-06-24T10:38:21Z</time>
      </trkpt>
      <trkpt lat="48.6674" lon="-2.29533">
        <ele>48</ele>
        <time>2016-06-24T10:38:25Z</time>
      </trkpt>
      <trkpt lat="48.6674" lon="-2.29538">
        <ele>49</ele>
        <time>2016-06-24T10:38:29Z</time>
      </trkpt>
      <trkpt lat="48.66738" lon="-2.29543">
        <ele>49</ele>
        <time>2016-06-24T10:38:32Z</time>
      </trkpt>
      <trkpt lat="48.66737" lon="-2.2955">
        <ele>49</ele>
        <time>2016-06-24T10:38:35Z</time>
      </trkpt>
      <trkpt lat="48.66736" lon="-2.29556">
        <ele>50</ele>
        <time>2016-06-24T10:38:38Z</time>
      </trkpt>
      <trkpt lat="48.66734" lon="-2.29563">
        <ele>50</ele>
        <time>2016-06-24T10:38:41Z</time>
      </trkpt>
      <trkpt lat="48.66733" lon="-2.29569">
        <ele>51</ele>
        <time>2016-06-24T10:38:44Z</time>
      </trkpt>
      <trkpt lat="48.66731" lon="-2.29573">
        <ele>51</ele>
        <time>2016-06-24T10:38:47Z</time>
      </trkpt>
      <trkpt lat="48.66727" lon="-2.29575">
        <ele>51</ele>
        <time>2016-06-24T10:38:50Z</time>
      </trkpt>
      <trkpt lat="48.66724" lon="-2.29579">
        <ele>51</ele>
        <time>2016-06-24T10:38:53Z</time>
      </trkpt>
      <trkpt lat="48.66723" lon="-2.29583">
        <ele>51</ele>
        <time>2016-06-24T10:38:56Z</time>
      </trkpt>
      <trkpt lat="48.66723" lon="-2.29585">
        <ele>51</ele>
        <time>2016-06-24T10:38:59Z</time>
      </trkpt>
      <trkpt lat="48.66723" lon="-2.29587">
        <ele>51</ele>
        <time>2016-06-24T10:39:02Z</time>
      </trkpt>
      <trkpt lat="48.66722" lon="-2.29591">
        <ele>51</ele>
        <time>2016-06-24T10:39:06Z</time>
      </trkpt>
      <trkpt lat="48.66721" lon="-2.29592">
        <ele>51</ele>
        <time>2016-06-24T10:39:22Z</time>
      </trkpt>
      <trkpt lat="48.66721" lon="-2.29597">
        <ele>51</ele>
        <time>2016-06-24T10:39:25Z</time>
      </trkpt>
      <trkpt lat="48.66721" lon="-2.29603">
        <ele>51</ele>
        <time>2016-06-24T10:39:29Z</time>
      </trkpt>
      <trkpt lat="48.66721" lon="-2.29608">
        <ele>51</ele>
        <time>2016-06-24T10:39:32Z</time>
      </trkpt>
      <trkpt lat="48.66721" lon="-2.29613">
        <ele>51</ele>
        <time>2016-06-24T10:39:35Z</time>
      </trkpt>
      <trkpt lat="48.66721" lon="-2.29619">
        <ele>51</ele>
        <time>2016-06-24T10:39:38Z</time>
      </trkpt>
      <trkpt lat="48.66721" lon="-2.29625">
        <ele>51</ele>
        <time>2016-06-24T10:39:42Z</time>
      </trkpt>
      <trkpt lat="48.6672" lon="-2.2963">
        <ele>51</ele>
        <time>2016-06-24T10:39:45Z</time>
      </trkpt>
      <trkpt lat="48.66719" lon="-2.29635">
        <ele>51</ele>
        <time>2016-06-24T10:39:48Z</time>
      </trkpt>
      <trkpt lat="48.66719" lon="-2.2964">
        <ele>52</ele>
        <time>2016-06-24T10:39:51Z</time>
      </trkpt>
      <trkpt lat="48.66718" lon="-2.29646">
        <ele>52</ele>
        <time>2016-06-24T10:39:55Z</time>
      </trkpt>
      <trkpt lat="48.66717" lon="-2.29651">
        <ele>52</ele>
        <time>2016-06-24T10:39:59Z</time>
      </trkpt>
      <trkpt lat="48.66717" lon="-2.29656">
        <ele>52</ele>
        <time>2016-06-24T10:40:03Z</time>
      </trkpt>
      <trkpt lat="48.66717" lon="-2.29661">
        <ele>52</ele>
        <time>2016-06-24T10:40:06Z</time>
      </trkpt>
      <trkpt lat="48.66717" lon="-2.29667">
        <ele>52</ele>
        <time>2016-06-24T10:40:10Z</time>
      </trkpt>
      <trkpt lat="48.66717" lon="-2.29672">
        <ele>52</ele>
        <time>2016-06-24T10:40:13Z</time>
      </trkpt>
      <trkpt lat="48.66717" lon="-2.29678">
        <ele>52</ele>
        <time>2016-06-24T10:40:17Z</time>
      </trkpt>
      <trkpt lat="48.66717" lon="-2.29683">
        <ele>52</ele>
        <time>2016-06-24T10:40:21Z</time>
      </trkpt>
      <trkpt lat="48.66717" lon="-2.29689">
        <ele>52</ele>
        <time>2016-06-24T10:40:25Z</time>
      </trkpt>
      <trkpt lat="48.66716" lon="-2.29694">
        <ele>52</ele>
        <time>2016-06-24T10:40:28Z</time>
      </trkpt>
      <trkpt lat="48.66714" lon="-2.29699">
        <ele>52</ele>
        <time>2016-06-24T10:40:32Z</time>
      </trkpt>
      <trkpt lat="48.66711" lon="-2.29704">
        <ele>52</ele>
        <time>2016-06-24T10:40:36Z</time>
      </trkpt>
      <trkpt lat="48.66708" lon="-2.29709">
        <ele>52</ele>
        <time>2016-06-24T10:40:40Z</time>
      </trkpt>
      <trkpt lat="48.66707" lon="-2.29713">
        <ele>52</ele>
        <time>2016-06-24T10:40:43Z</time>
      </trkpt>
      <trkpt lat="48.66706" lon="-2.29718">
        <ele>52</ele>
        <time>2016-06-24T10:40:46Z</time>
      </trkpt>
      <trkpt lat="48.66704" lon="-2.29723">
        <ele>52</ele>
        <time>2016-06-24T10:40:49Z</time>
      </trkpt>
      <trkpt lat="48.66702" lon="-2.29728">
        <ele>53</ele>
        <time>2016-06-24T10:40:54Z</time>
      </trkpt>
      <trkpt lat="48.66699" lon="-2.29728">
        <ele>53</ele>
        <time>2016-06-24T10:40:57Z</time>
      </trkpt>
      <trkpt lat="48.66696" lon="-2.29727">
        <ele>53</ele>
        <time>2016-06-24T10:41:00Z</time>
      </trkpt>
      <trkpt lat="48.66694" lon="-2.29728">
        <ele>54</ele>
        <time>2016-06-24T10:41:03Z</time>
      </trkpt>
      <trkpt lat="48.66692" lon="-2.29732">
        <ele>54</ele>
        <time>2016-06-24T10:41:07Z</time>
      </trkpt>
      <trkpt lat="48.66692" lon="-2.29737">
        <ele>54</ele>
        <time>2016-06-24T10:41:10Z</time>
      </trkpt>
      <trkpt lat="48.66691" lon="-2.29743">
        <ele>55</ele>
        <time>2016-06-24T10:41:13Z</time>
      </trkpt>
      <trkpt lat="48.6669" lon="-2.29749">
        <ele>55</ele>
        <time>2016-06-24T10:41:16Z</time>
      </trkpt>
      <trkpt lat="48.66689" lon="-2.29754">
        <ele>55</ele>
        <time>2016-06-24T10:41:19Z</time>
      </trkpt>
      <trkpt lat="48.66688" lon="-2.29758">
        <ele>55</ele>
        <time>2016-06-24T10:41:23Z</time>
      </trkpt>
      <trkpt lat="48.66685" lon="-2.29759">
        <ele>56</ele>
        <time>2016-06-24T10:41:27Z</time>
      </trkpt>
      <trkpt lat="48.66684" lon="-2.29761">
        <ele>58</ele>
        <time>2016-06-24T10:41:32Z</time>
      </trkpt>
      <trkpt lat="48.66682" lon="-2.29766">
        <ele>58</ele>
        <time>2016-06-24T10:41:36Z</time>
      </trkpt>
      <trkpt lat="48.66682" lon="-2.29771">
        <ele>58</ele>
        <time>2016-06-24T10:41:40Z</time>
      </trkpt>
      <trkpt lat="48.66681" lon="-2.29776">
        <ele>58</ele>
        <time>2016-06-24T10:41:45Z</time>
      </trkpt>
      <trkpt lat="48.66681" lon="-2.29778">
        <ele>58</ele>
        <time>2016-06-24T10:41:48Z</time>
      </trkpt>
      <trkpt lat="48.66679" lon="-2.29779">
        <ele>58</ele>
        <time>2016-06-24T10:41:51Z</time>
      </trkpt>
      <trkpt lat="48.6668" lon="-2.29784">
        <ele>59</ele>
        <time>2016-06-24T10:41:54Z</time>
      </trkpt>
      <trkpt lat="48.66681" lon="-2.2979">
        <ele>60</ele>
        <time>2016-06-24T10:41:57Z</time>
      </trkpt>
      <trkpt lat="48.66682" lon="-2.29797">
        <ele>60</ele>
        <time>2016-06-24T10:42:00Z</time>
      </trkpt>
      <trkpt lat="48.66683" lon="-2.29802">
        <ele>61</ele>
        <time>2016-06-24T10:42:03Z</time>
      </trkpt>
      <trkpt lat="48.66684" lon="-2.29807">
        <ele>61</ele>
        <time>2016-06-24T10:42:06Z</time>
      </trkpt>
      <trkpt lat="48.66685" lon="-2.29812">
        <ele>61</ele>
        <time>2016-06-24T10:42:09Z</time>
      </trkpt>
      <trkpt lat="48.66687" lon="-2.29818">
        <ele>61</ele>
        <time>2016-06-24T10:42:12Z</time>
      </trkpt>
      <trkpt lat="48.66688" lon="-2.29823">
        <ele>61</ele>
        <time>2016-06-24T10:42:15Z</time>
      </trkpt>
      <trkpt lat="48.6669" lon="-2.29828">
        <ele>61</ele>
        <time>2016-06-24T10:42:18Z</time>
      </trkpt>
      <trkpt lat="48.66691" lon="-2.29833">
        <ele>61</ele>
        <time>2016-06-24T10:42:21Z</time>
      </trkpt>
      <trkpt lat="48.66692" lon="-2.29839">
        <ele>61</ele>
        <time>2016-06-24T10:42:24Z</time>
      </trkpt>
      <trkpt lat="48.66691" lon="-2.29844">
        <ele>61</ele>
        <time>2016-06-24T10:42:42Z</time>
      </trkpt>
      <trkpt lat="48.6669" lon="-2.29849">
        <ele>61</ele>
        <time>2016-06-24T10:42:46Z</time>
      </trkpt>
      <trkpt lat="48.6669" lon="-2.29854">
        <ele>61</ele>
        <time>2016-06-24T10:42:49Z</time>
      </trkpt>
      <trkpt lat="48.66689" lon="-2.29859">
        <ele>62</ele>
        <time>2016-06-24T10:42:52Z</time>
      </trkpt>
      <trkpt lat="48.66688" lon="-2.29866">
        <ele>62</ele>
        <time>2016-06-24T10:42:56Z</time>
      </trkpt>
      <trkpt lat="48.66688" lon="-2.29871">
        <ele>63</ele>
        <time>2016-06-24T10:42:59Z</time>
      </trkpt>
      <trkpt lat="48.66687" lon="-2.29876">
        <ele>64</ele>
        <time>2016-06-24T10:43:02Z</time>
      </trkpt>
      <trkpt lat="48.66688" lon="-2.29882">
        <ele>64</ele>
        <time>2016-06-24T10:43:05Z</time>
      </trkpt>
      <trkpt lat="48.66688" lon="-2.29887">
        <ele>65</ele>
        <time>2016-06-24T10:43:08Z</time>
      </trkpt>
      <trkpt lat="48.66689" lon="-2.29892">
        <ele>65</ele>
        <time>2016-06-24T10:43:11Z</time>
      </trkpt>
      <trkpt lat="48.66689" lon="-2.29899">
        <ele>66</ele>
        <time>2016-06-24T10:43:15Z</time>
      </trkpt>
      <trkpt lat="48.6669" lon="-2.29903">
        <ele>68</ele>
        <time>2016-06-24T10:44:22Z</time>
      </trkpt>
      <trkpt lat="48.66691" lon="-2.29907">
        <ele>68</ele>
        <time>2016-06-24T10:44:25Z</time>
      </trkpt>
      <trkpt lat="48.66693" lon="-2.29913">
        <ele>68</ele>
        <time>2016-06-24T10:44:28Z</time>
      </trkpt>
      <trkpt lat="48.66695" lon="-2.29919">
        <ele>68</ele>
        <time>2016-06-24T10:44:31Z</time>
      </trkpt>
      <trkpt lat="48.66697" lon="-2.29923">
        <ele>68</ele>
        <time>2016-06-24T10:44:34Z</time>
      </trkpt>
      <trkpt lat="48.667" lon="-2.29928">
        <ele>68</ele>
        <time>2016-06-24T10:44:38Z</time>
      </trkpt>
      <trkpt lat="48.66703" lon="-2.29934">
        <ele>68</ele>
        <time>2016-06-24T10:44:42Z</time>
      </trkpt>
      <trkpt lat="48.66705" lon="-2.29938">
        <ele>68</ele>
        <time>2016-06-24T10:44:46Z</time>
      </trkpt>
      <trkpt lat="48.66706" lon="-2.29943">
        <ele>68</ele>
        <time>2016-06-24T10:44:50Z</time>
      </trkpt>
      <trkpt lat="48.66707" lon="-2.29943">
        <ele>68</ele>
        <time>2016-06-24T10:45:17Z</time>
      </trkpt>
      <trkpt lat="48.66708" lon="-2.29945">
        <ele>69</ele>
        <time>2016-06-24T10:45:32Z</time>
      </trkpt>
      <trkpt lat="48.66708" lon="-2.29947">
        <ele>69</ele>
        <time>2016-06-24T10:45:36Z</time>
      </trkpt>
      <trkpt lat="48.66708" lon="-2.29949">
        <ele>69</ele>
        <time>2016-06-24T10:45:39Z</time>
      </trkpt>
      <trkpt lat="48.66708" lon="-2.29953">
        <ele>69</ele>
        <time>2016-06-24T10:45:43Z</time>
      </trkpt>
      <trkpt lat="48.66708" lon="-2.29959">
        <ele>69</ele>
        <time>2016-06-24T10:45:47Z</time>
      </trkpt>
      <trkpt lat="48.66708" lon="-2.29964">
        <ele>69</ele>
        <time>2016-06-24T10:45:50Z</time>
      </trkpt>
      <trkpt lat="48.66706" lon="-2.29969">
        <ele>69</ele>
        <time>2016-06-24T10:45:53Z</time>
      </trkpt>
      <trkpt lat="48.66707" lon="-2.29975">
        <ele>69</ele>
        <time>2016-06-24T10:45:56Z</time>
      </trkpt>
      <trkpt lat="48.66707" lon="-2.29981">
        <ele>69</ele>
        <time>2016-06-24T10:45:59Z</time>
      </trkpt>
      <trkpt lat="48.66708" lon="-2.29987">
        <ele>69</ele>
        <time>2016-06-24T10:46:02Z</time>
      </trkpt>
      <trkpt lat="48.66708" lon="-2.29992">
        <ele>69</ele>
        <time>2016-06-24T10:46:05Z</time>
      </trkpt>
      <trkpt lat="48.66708" lon="-2.29997">
        <ele>69</ele>
        <time>2016-06-24T10:46:08Z</time>
      </trkpt>
      <trkpt lat="48.66709" lon="-2.30002">
        <ele>69</ele>
        <time>2016-06-24T10:46:11Z</time>
      </trkpt>
      <trkpt lat="48.6671" lon="-2.30008">
        <ele>69</ele>
        <time>2016-06-24T10:46:14Z</time>
      </trkpt>
      <trkpt lat="48.6671" lon="-2.30013">
        <ele>69</ele>
        <time>2016-06-24T10:46:17Z</time>
      </trkpt>
      <trkpt lat="48.6671" lon="-2.30018">
        <ele>69</ele>
        <time>2016-06-24T10:46:22Z</time>
      </trkpt>
      <trkpt lat="48.66711" lon="-2.30022">
        <ele>69</ele>
        <time>2016-06-24T10:46:28Z</time>
      </trkpt>
      <trkpt lat="48.66711" lon="-2.30027">
        <ele>69</ele>
        <time>2016-06-24T10:46:31Z</time>
      </trkpt>
      <trkpt lat="48.66711" lon="-2.30033">
        <ele>69</ele>
        <time>2016-06-24T10:46:34Z</time>
      </trkpt>
      <trkpt lat="48.66712" lon="-2.30039">
        <ele>69</ele>
        <time>2016-06-24T10:46:37Z</time>
      </trkpt>
      <trkpt lat="48.66711" lon="-2.30045">
        <ele>69</ele>
        <time>2016-06-24T10:46:40Z</time>
      </trkpt>
      <trkpt lat="48.66711" lon="-2.30051">
        <ele>69</ele>
        <time>2016-06-24T10:46:43Z</time>
      </trkpt>
      <trkpt lat="48.66711" lon="-2.30057">
        <ele>69</ele>
        <time>2016-06-24T10:46:46Z</time>
      </trkpt>
      <trkpt lat="48.66711" lon="-2.30063">
        <ele>69</ele>
        <time>2016-06-24T10:46:49Z</time>
      </trkpt>
      <trkpt lat="48.66711" lon="-2.30069">
        <ele>69</ele>
        <time>2016-06-24T10:46:52Z</time>
      </trkpt>
      <trkpt lat="48.66712" lon="-2.30075">
        <ele>69</ele>
        <time>2016-06-24T10:46:55Z</time>
      </trkpt>
      <trkpt lat="48.66713" lon="-2.3008">
        <ele>69</ele>
        <time>2016-06-24T10:46:58Z</time>
      </trkpt>
      <trkpt lat="48.66714" lon="-2.30086">
        <ele>69</ele>
        <time>2016-06-24T10:47:01Z</time>
      </trkpt>
      <trkpt lat="48.66715" lon="-2.3009">
        <ele>69</ele>
        <time>2016-06-24T10:47:04Z</time>
      </trkpt>
      <trkpt lat="48.66718" lon="-2.30097">
        <ele>69</ele>
        <time>2016-06-24T10:47:08Z</time>
      </trkpt>
      <trkpt lat="48.66721" lon="-2.30102">
        <ele>69</ele>
        <time>2016-06-24T10:47:11Z</time>
      </trkpt>
      <trkpt lat="48.66724" lon="-2.30108">
        <ele>69</ele>
        <time>2016-06-24T10:47:14Z</time>
      </trkpt>
      <trkpt lat="48.66723" lon="-2.30114">
        <ele>69</ele>
        <time>2016-06-24T10:47:17Z</time>
      </trkpt>
      <trkpt lat="48.66723" lon="-2.30119">
        <ele>69</ele>
        <time>2016-06-24T10:47:21Z</time>
      </trkpt>
      <trkpt lat="48.66724" lon="-2.30124">
        <ele>68</ele>
        <time>2016-06-24T10:47:25Z</time>
      </trkpt>
      <trkpt lat="48.66724" lon="-2.30128">
        <ele>67</ele>
        <time>2016-06-24T10:47:28Z</time>
      </trkpt>
      <trkpt lat="48.66724" lon="-2.30133">
        <ele>67</ele>
        <time>2016-06-24T10:47:31Z</time>
      </trkpt>
      <trkpt lat="48.66724" lon="-2.3014">
        <ele>66</ele>
        <time>2016-06-24T10:47:34Z</time>
      </trkpt>
      <trkpt lat="48.66723" lon="-2.30147">
        <ele>66</ele>
        <time>2016-06-24T10:47:38Z</time>
      </trkpt>
      <trkpt lat="48.66723" lon="-2.30152">
        <ele>66</ele>
        <time>2016-06-24T10:47:41Z</time>
      </trkpt>
      <trkpt lat="48.66724" lon="-2.30158">
        <ele>66</ele>
        <time>2016-06-24T10:47:44Z</time>
      </trkpt>
      <trkpt lat="48.66726" lon="-2.30164">
        <ele>66</ele>
        <time>2016-06-24T10:47:47Z</time>
      </trkpt>
      <trkpt lat="48.66725" lon="-2.30169">
        <ele>66</ele>
        <time>2016-06-24T10:47:50Z</time>
      </trkpt>
      <trkpt lat="48.66726" lon="-2.30176">
        <ele>66</ele>
        <time>2016-06-24T10:47:53Z</time>
      </trkpt>
      <trkpt lat="48.66726" lon="-2.30182">
        <ele>66</ele>
        <time>2016-06-24T10:47:56Z</time>
      </trkpt>
      <trkpt lat="48.66727" lon="-2.30188">
        <ele>66</ele>
        <time>2016-06-24T10:47:59Z</time>
      </trkpt>
      <trkpt lat="48.66728" lon="-2.30192">
        <ele>66</ele>
        <time>2016-06-24T10:48:04Z</time>
      </trkpt>
      <trkpt lat="48.66725" lon="-2.30193">
        <ele>66</ele>
        <time>2016-06-24T10:48:10Z</time>
      </trkpt>
      <trkpt lat="48.66722" lon="-2.30194">
        <ele>66</ele>
        <time>2016-06-24T10:48:14Z</time>
      </trkpt>
      <trkpt lat="48.6672" lon="-2.30198">
        <ele>66</ele>
        <time>2016-06-24T10:48:17Z</time>
      </trkpt>
      <trkpt lat="48.66719" lon="-2.30204">
        <ele>67</ele>
        <time>2016-06-24T10:48:20Z</time>
      </trkpt>
      <trkpt lat="48.66721" lon="-2.3021">
        <ele>68</ele>
        <time>2016-06-24T10:48:23Z</time>
      </trkpt>
      <trkpt lat="48.66722" lon="-2.30216">
        <ele>69</ele>
        <time>2016-06-24T10:48:26Z</time>
      </trkpt>
      <trkpt lat="48.66722" lon="-2.30222">
        <ele>69</ele>
        <time>2016-06-24T10:48:29Z</time>
      </trkpt>
      <trkpt lat="48.66722" lon="-2.30227">
        <ele>70</ele>
        <time>2016-06-24T10:48:32Z</time>
      </trkpt>
      <trkpt lat="48.66721" lon="-2.30233">
        <ele>70</ele>
        <time>2016-06-24T10:48:35Z</time>
      </trkpt>
      <trkpt lat="48.6672" lon="-2.30238">
        <ele>70</ele>
        <time>2016-06-24T10:48:38Z</time>
      </trkpt>
      <trkpt lat="48.66719" lon="-2.30244">
        <ele>70</ele>
        <time>2016-06-24T10:48:41Z</time>
      </trkpt>
      <trkpt lat="48.66718" lon="-2.3025">
        <ele>70</ele>
        <time>2016-06-24T10:48:44Z</time>
      </trkpt>
      <trkpt lat="48.66717" lon="-2.30256">
        <ele>70</ele>
        <time>2016-06-24T10:48:47Z</time>
      </trkpt>
      <trkpt lat="48.66716" lon="-2.30262">
        <ele>70</ele>
        <time>2016-06-24T10:48:50Z</time>
      </trkpt>
      <trkpt lat="48.66717" lon="-2.30267">
        <ele>70</ele>
        <time>2016-06-24T10:48:54Z</time>
      </trkpt>
      <trkpt lat="48.66717" lon="-2.30273">
        <ele>70</ele>
        <time>2016-06-24T10:48:57Z</time>
      </trkpt>
      <trkpt lat="48.66715" lon="-2.30278">
        <ele>70</ele>
        <time>2016-06-24T10:49:00Z</time>
      </trkpt>
      <trkpt lat="48.66714" lon="-2.30282">
        <ele>70</ele>
        <time>2016-06-24T10:49:03Z</time>
      </trkpt>
      <trkpt lat="48.66714" lon="-2.30288">
        <ele>70</ele>
        <time>2016-06-24T10:49:06Z</time>
      </trkpt>
      <trkpt lat="48.66716" lon="-2.30293">
        <ele>70</ele>
        <time>2016-06-24T10:49:09Z</time>
      </trkpt>
      <trkpt lat="48.66719" lon="-2.30298">
        <ele>70</ele>
        <time>2016-06-24T10:49:12Z</time>
      </trkpt>
      <trkpt lat="48.66721" lon="-2.30303">
        <ele>71</ele>
        <time>2016-06-24T10:49:15Z</time>
      </trkpt>
      <trkpt lat="48.66722" lon="-2.30308">
        <ele>71</ele>
        <time>2016-06-24T10:49:18Z</time>
      </trkpt>
      <trkpt lat="48.66724" lon="-2.30312">
        <ele>71</ele>
        <time>2016-06-24T10:49:21Z</time>
      </trkpt>
      <trkpt lat="48.66728" lon="-2.30317">
        <ele>71</ele>
        <time>2016-06-24T10:49:25Z</time>
      </trkpt>
      <trkpt lat="48.66731" lon="-2.3032">
        <ele>72</ele>
        <time>2016-06-24T10:49:28Z</time>
      </trkpt>
      <trkpt lat="48.66734" lon="-2.30322">
        <ele>74</ele>
        <time>2016-06-24T10:49:31Z</time>
      </trkpt>
      <trkpt lat="48.66737" lon="-2.30326">
        <ele>75</ele>
        <time>2016-06-24T10:49:37Z</time>
      </trkpt>
      <trkpt lat="48.66736" lon="-2.3033">
        <ele>75</ele>
        <time>2016-06-24T10:49:41Z</time>
      </trkpt>
      <trkpt lat="48.66735" lon="-2.30335">
        <ele>75</ele>
        <time>2016-06-24T10:49:45Z</time>
      </trkpt>
      <trkpt lat="48.66736" lon="-2.30337">
        <ele>75</ele>
        <time>2016-06-24T10:49:48Z</time>
      </trkpt>
      <trkpt lat="48.6674" lon="-2.3034">
        <ele>75</ele>
        <time>2016-06-24T10:49:52Z</time>
      </trkpt>
      <trkpt lat="48.66741" lon="-2.30344">
        <ele>76</ele>
        <time>2016-06-24T10:49:56Z</time>
      </trkpt>
      <trkpt lat="48.66743" lon="-2.30347">
        <ele>78</ele>
        <time>2016-06-24T10:50:00Z</time>
      </trkpt>
      <trkpt lat="48.66744" lon="-2.30352">
        <ele>79</ele>
        <time>2016-06-24T10:50:04Z</time>
      </trkpt>
      <trkpt lat="48.66747" lon="-2.30357">
        <ele>79</ele>
        <time>2016-06-24T10:50:08Z</time>
      </trkpt>
      <trkpt lat="48.66749" lon="-2.30361">
        <ele>79</ele>
        <time>2016-06-24T10:50:11Z</time>
      </trkpt>
      <trkpt lat="48.66753" lon="-2.30365">
        <ele>79</ele>
        <time>2016-06-24T10:50:14Z</time>
      </trkpt>
      <trkpt lat="48.66757" lon="-2.3037">
        <ele>79</ele>
        <time>2016-06-24T10:50:18Z</time>
      </trkpt>
      <trkpt lat="48.6676" lon="-2.30374">
        <ele>79</ele>
        <time>2016-06-24T10:50:21Z</time>
      </trkpt>
      <trkpt lat="48.66764" lon="-2.30379">
        <ele>79</ele>
        <time>2016-06-24T10:50:25Z</time>
      </trkpt>
      <trkpt lat="48.66766" lon="-2.30384">
        <ele>79</ele>
        <time>2016-06-24T10:50:28Z</time>
      </trkpt>
      <trkpt lat="48.66768" lon="-2.3039">
        <ele>79</ele>
        <time>2016-06-24T10:50:31Z</time>
      </trkpt>
      <trkpt lat="48.66769" lon="-2.30396">
        <ele>79</ele>
        <time>2016-06-24T10:50:34Z</time>
      </trkpt>
      <trkpt lat="48.66771" lon="-2.30403">
        <ele>79</ele>
        <time>2016-06-24T10:50:37Z</time>
      </trkpt>
      <trkpt lat="48.66772" lon="-2.3041">
        <ele>79</ele>
        <time>2016-06-24T10:50:40Z</time>
      </trkpt>
      <trkpt lat="48.66772" lon="-2.30416">
        <ele>79</ele>
        <time>2016-06-24T10:50:43Z</time>
      </trkpt>
      <trkpt lat="48.66772" lon="-2.30421">
        <ele>79</ele>
        <time>2016-06-24T10:50:46Z</time>
      </trkpt>
      <trkpt lat="48.66773" lon="-2.30427">
        <ele>79</ele>
        <time>2016-06-24T10:50:49Z</time>
      </trkpt>
      <trkpt lat="48.66774" lon="-2.30432">
        <ele>79</ele>
        <time>2016-06-24T10:50:52Z</time>
      </trkpt>
      <trkpt lat="48.66776" lon="-2.30438">
        <ele>79</ele>
        <time>2016-06-24T10:50:55Z</time>
      </trkpt>
      <trkpt lat="48.66777" lon="-2.30443">
        <ele>79</ele>
        <time>2016-06-24T10:50:58Z</time>
      </trkpt>
      <trkpt lat="48.66781" lon="-2.30448">
        <ele>79</ele>
        <time>2016-06-24T10:51:02Z</time>
      </trkpt>
      <trkpt lat="48.66784" lon="-2.30453">
        <ele>79</ele>
        <time>2016-06-24T10:51:05Z</time>
      </trkpt>
      <trkpt lat="48.66786" lon="-2.30459">
        <ele>79</ele>
        <time>2016-06-24T10:51:08Z</time>
      </trkpt>
      <trkpt lat="48.6679" lon="-2.30465">
        <ele>79</ele>
        <time>2016-06-24T10:51:12Z</time>
      </trkpt>
      <trkpt lat="48.66794" lon="-2.30469">
        <ele>79</ele>
        <time>2016-06-24T10:51:16Z</time>
      </trkpt>
      <trkpt lat="48.66797" lon="-2.30475">
        <ele>79</ele>
        <time>2016-06-24T10:51:20Z</time>
      </trkpt>
      <trkpt lat="48.66798" lon="-2.30481">
        <ele>79</ele>
        <time>2016-06-24T10:51:24Z</time>
      </trkpt>
      <trkpt lat="48.668" lon="-2.30486">
        <ele>79</ele>
        <time>2016-06-24T10:51:28Z</time>
      </trkpt>
      <trkpt lat="48.66801" lon="-2.3049">
        <ele>79</ele>
        <time>2016-06-24T10:51:32Z</time>
      </trkpt>
      <trkpt lat="48.66801" lon="-2.30496">
        <ele>78</ele>
        <time>2016-06-24T10:51:35Z</time>
      </trkpt>
      <trkpt lat="48.66801" lon="-2.305">
        <ele>77</ele>
        <time>2016-06-24T10:51:39Z</time>
      </trkpt>
      <trkpt lat="48.66801" lon="-2.30504">
        <ele>77</ele>
        <time>2016-06-24T10:51:42Z</time>
      </trkpt>
      <trkpt lat="48.66801" lon="-2.3051">
        <ele>76</ele>
        <time>2016-06-24T10:51:45Z</time>
      </trkpt>
      <trkpt lat="48.66802" lon="-2.30517">
        <ele>76</ele>
        <time>2016-06-24T10:51:48Z</time>
      </trkpt>
      <trkpt lat="48.66803" lon="-2.30522">
        <ele>75</ele>
        <time>2016-06-24T10:51:51Z</time>
      </trkpt>
      <trkpt lat="48.66805" lon="-2.30528">
        <ele>75</ele>
        <time>2016-06-24T10:51:55Z</time>
      </trkpt>
      <trkpt lat="48.66806" lon="-2.30533">
        <ele>74</ele>
        <time>2016-06-24T10:51:58Z</time>
      </trkpt>
      <trkpt lat="48.66807" lon="-2.30538">
        <ele>74</ele>
        <time>2016-06-24T10:52:01Z</time>
      </trkpt>
      <trkpt lat="48.6681" lon="-2.30543">
        <ele>73</ele>
        <time>2016-06-24T10:52:05Z</time>
      </trkpt>
      <trkpt lat="48.66812" lon="-2.30548">
        <ele>73</ele>
        <time>2016-06-24T10:52:08Z</time>
      </trkpt>
      <trkpt lat="48.66814" lon="-2.30554">
        <ele>72</ele>
        <time>2016-06-24T10:52:11Z</time>
      </trkpt>
      <trkpt lat="48.66816" lon="-2.30561">
        <ele>72</ele>
        <time>2016-06-24T10:52:14Z</time>
      </trkpt>
      <trkpt lat="48.66817" lon="-2.30567">
        <ele>71</ele>
        <time>2016-06-24T10:52:17Z</time>
      </trkpt>
      <trkpt lat="48.66818" lon="-2.30574">
        <ele>71</ele>
        <time>2016-06-24T10:52:20Z</time>
      </trkpt>
      <trkpt lat="48.66819" lon="-2.3058">
        <ele>71</ele>
        <time>2016-06-24T10:52:23Z</time>
      </trkpt>
      <trkpt lat="48.66821" lon="-2.30586">
        <ele>71</ele>
        <time>2016-06-24T10:52:26Z</time>
      </trkpt>
      <trkpt lat="48.66822" lon="-2.30592">
        <ele>71</ele>
        <time>2016-06-24T10:52:29Z</time>
      </trkpt>
      <trkpt lat="48.66823" lon="-2.30599">
        <ele>71</ele>
        <time>2016-06-24T10:52:32Z</time>
      </trkpt>
      <trkpt lat="48.66826" lon="-2.30606">
        <ele>71</ele>
        <time>2016-06-24T10:52:35Z</time>
      </trkpt>
      <trkpt lat="48.66828" lon="-2.30612">
        <ele>71</ele>
        <time>2016-06-24T10:52:38Z</time>
      </trkpt>
      <trkpt lat="48.66829" lon="-2.30619">
        <ele>71</ele>
        <time>2016-06-24T10:52:41Z</time>
      </trkpt>
      <trkpt lat="48.6683" lon="-2.30627">
        <ele>71</ele>
        <time>2016-06-24T10:52:45Z</time>
      </trkpt>
      <trkpt lat="48.66829" lon="-2.30631">
        <ele>71</ele>
        <time>2016-06-24T10:52:49Z</time>
      </trkpt>
      <trkpt lat="48.66831" lon="-2.30636">
        <ele>71</ele>
        <time>2016-06-24T10:52:53Z</time>
      </trkpt>
      <trkpt lat="48.66834" lon="-2.30638">
        <ele>71</ele>
        <time>2016-06-24T10:52:57Z</time>
      </trkpt>
      <trkpt lat="48.66837" lon="-2.30641">
        <ele>71</ele>
        <time>2016-06-24T10:53:00Z</time>
      </trkpt>
      <trkpt lat="48.6684" lon="-2.30646">
        <ele>71</ele>
        <time>2016-06-24T10:53:03Z</time>
      </trkpt>
      <trkpt lat="48.66841" lon="-2.30651">
        <ele>71</ele>
        <time>2016-06-24T10:53:06Z</time>
      </trkpt>
      <trkpt lat="48.66844" lon="-2.30657">
        <ele>71</ele>
        <time>2016-06-24T10:53:10Z</time>
      </trkpt>
      <trkpt lat="48.66844" lon="-2.30662">
        <ele>71</ele>
        <time>2016-06-24T10:53:13Z</time>
      </trkpt>
      <trkpt lat="48.66845" lon="-2.30668">
        <ele>71</ele>
        <time>2016-06-24T10:53:17Z</time>
      </trkpt>
      <trkpt lat="48.66845" lon="-2.30674">
        <ele>71</ele>
        <time>2016-06-24T10:53:20Z</time>
      </trkpt>
      <trkpt lat="48.66845" lon="-2.30678">
        <ele>71</ele>
        <time>2016-06-24T10:53:24Z</time>
      </trkpt>
      <trkpt lat="48.66845" lon="-2.30682">
        <ele>71</ele>
        <time>2016-06-24T10:53:28Z</time>
      </trkpt>
      <trkpt lat="48.66846" lon="-2.30686">
        <ele>71</ele>
        <time>2016-06-24T10:53:32Z</time>
      </trkpt>
      <trkpt lat="48.66846" lon="-2.30691">
        <ele>71</ele>
        <time>2016-06-24T10:53:36Z</time>
      </trkpt>
      <trkpt lat="48.66845" lon="-2.30697">
        <ele>71</ele>
        <time>2016-06-24T10:53:39Z</time>
      </trkpt>
      <trkpt lat="48.66845" lon="-2.30703">
        <ele>71</ele>
        <time>2016-06-24T10:53:42Z</time>
      </trkpt>
      <trkpt lat="48.66844" lon="-2.30709">
        <ele>71</ele>
        <time>2016-06-24T10:53:45Z</time>
      </trkpt>
      <trkpt lat="48.66843" lon="-2.30714">
        <ele>71</ele>
        <time>2016-06-24T10:53:48Z</time>
      </trkpt>
      <trkpt lat="48.66844" lon="-2.30719">
        <ele>71</ele>
        <time>2016-06-24T10:53:51Z</time>
      </trkpt>
      <trkpt lat="48.66846" lon="-2.30725">
        <ele>71</ele>
        <time>2016-06-24T10:53:54Z</time>
      </trkpt>
      <trkpt lat="48.66847" lon="-2.30732">
        <ele>71</ele>
        <time>2016-06-24T10:53:58Z</time>
      </trkpt>
      <trkpt lat="48.66849" lon="-2.30737">
        <ele>71</ele>
        <time>2016-06-24T10:54:02Z</time>
      </trkpt>
      <trkpt lat="48.66851" lon="-2.30743">
        <ele>71</ele>
        <time>2016-06-24T10:54:06Z</time>
      </trkpt>
      <trkpt lat="48.66853" lon="-2.30749">
        <ele>71</ele>
        <time>2016-06-24T10:54:10Z</time>
      </trkpt>
      <trkpt lat="48.66855" lon="-2.30754">
        <ele>71</ele>
        <time>2016-06-24T10:54:14Z</time>
      </trkpt>
      <trkpt lat="48.66857" lon="-2.30757">
        <ele>71</ele>
        <time>2016-06-24T10:54:18Z</time>
      </trkpt>
      <trkpt lat="48.66859" lon="-2.30762">
        <ele>71</ele>
        <time>2016-06-24T10:54:22Z</time>
      </trkpt>
      <trkpt lat="48.6686" lon="-2.30768">
        <ele>71</ele>
        <time>2016-06-24T10:54:26Z</time>
      </trkpt>
      <trkpt lat="48.66861" lon="-2.30772">
        <ele>71</ele>
        <time>2016-06-24T10:54:29Z</time>
      </trkpt>
      <trkpt lat="48.66863" lon="-2.30779">
        <ele>71</ele>
        <time>2016-06-24T10:54:33Z</time>
      </trkpt>
      <trkpt lat="48.66865" lon="-2.30784">
        <ele>71</ele>
        <time>2016-06-24T10:54:36Z</time>
      </trkpt>
      <trkpt lat="48.66867" lon="-2.30789">
        <ele>71</ele>
        <time>2016-06-24T10:54:39Z</time>
      </trkpt>
      <trkpt lat="48.6687" lon="-2.30794">
        <ele>71</ele>
        <time>2016-06-24T10:54:42Z</time>
      </trkpt>
      <trkpt lat="48.66872" lon="-2.30799">
        <ele>71</ele>
        <time>2016-06-24T10:54:45Z</time>
      </trkpt>
      <trkpt lat="48.66874" lon="-2.30805">
        <ele>71</ele>
        <time>2016-06-24T10:54:48Z</time>
      </trkpt>
      <trkpt lat="48.66876" lon="-2.3081">
        <ele>71</ele>
        <time>2016-06-24T10:54:51Z</time>
      </trkpt>
      <trkpt lat="48.66879" lon="-2.30816">
        <ele>71</ele>
        <time>2016-06-24T10:54:54Z</time>
      </trkpt>
      <trkpt lat="48.66881" lon="-2.30821">
        <ele>71</ele>
        <time>2016-06-24T10:54:57Z</time>
      </trkpt>
      <trkpt lat="48.66883" lon="-2.30826">
        <ele>70</ele>
        <time>2016-06-24T10:55:00Z</time>
      </trkpt>
      <trkpt lat="48.66884" lon="-2.30831">
        <ele>70</ele>
        <time>2016-06-24T10:55:03Z</time>
      </trkpt>
      <trkpt lat="48.66885" lon="-2.30837">
        <ele>70</ele>
        <time>2016-06-24T10:55:06Z</time>
      </trkpt>
      <trkpt lat="48.66887" lon="-2.30844">
        <ele>70</ele>
        <time>2016-06-24T10:55:09Z</time>
      </trkpt>
      <trkpt lat="48.6689" lon="-2.30851">
        <ele>69</ele>
        <time>2016-06-24T10:55:13Z</time>
      </trkpt>
      <trkpt lat="48.66891" lon="-2.30856">
        <ele>69</ele>
        <time>2016-06-24T10:55:16Z</time>
      </trkpt>
      <trkpt lat="48.66892" lon="-2.30862">
        <ele>69</ele>
        <time>2016-06-24T10:55:19Z</time>
      </trkpt>
      <trkpt lat="48.66893" lon="-2.30867">
        <ele>69</ele>
        <time>2016-06-24T10:55:22Z</time>
      </trkpt>
      <trkpt lat="48.66893" lon="-2.30873">
        <ele>69</ele>
        <time>2016-06-24T10:55:25Z</time>
      </trkpt>
      <trkpt lat="48.66895" lon="-2.30878">
        <ele>69</ele>
        <time>2016-06-24T10:55:28Z</time>
      </trkpt>
      <trkpt lat="48.66896" lon="-2.30885">
        <ele>69</ele>
        <time>2016-06-24T10:55:31Z</time>
      </trkpt>
      <trkpt lat="48.66896" lon="-2.3089">
        <ele>68</ele>
        <time>2016-06-24T10:55:34Z</time>
      </trkpt>
      <trkpt lat="48.66897" lon="-2.30896">
        <ele>68</ele>
        <time>2016-06-24T10:55:37Z</time>
      </trkpt>
      <trkpt lat="48.66897" lon="-2.309">
        <ele>68</ele>
        <time>2016-06-24T10:55:40Z</time>
      </trkpt>
      <trkpt lat="48.66899" lon="-2.30905">
        <ele>67</ele>
        <time>2016-06-24T10:55:43Z</time>
      </trkpt>
      <trkpt lat="48.66902" lon="-2.30911">
        <ele>66</ele>
        <time>2016-06-24T10:55:47Z</time>
      </trkpt>
      <trkpt lat="48.66906" lon="-2.30916">
        <ele>66</ele>
        <time>2016-06-24T10:55:51Z</time>
      </trkpt>
      <trkpt lat="48.66909" lon="-2.30922">
        <ele>65</ele>
        <time>2016-06-24T10:55:55Z</time>
      </trkpt>
      <trkpt lat="48.66911" lon="-2.30925">
        <ele>65</ele>
        <time>2016-06-24T10:55:58Z</time>
      </trkpt>
      <trkpt lat="48.66915" lon="-2.3093">
        <ele>65</ele>
        <time>2016-06-24T10:56:02Z</time>
      </trkpt>
      <trkpt lat="48.66918" lon="-2.30936">
        <ele>65</ele>
        <time>2016-06-24T10:56:06Z</time>
      </trkpt>
      <trkpt lat="48.6692" lon="-2.3094">
        <ele>64</ele>
        <time>2016-06-24T10:56:09Z</time>
      </trkpt>
      <trkpt lat="48.66922" lon="-2.30944">
        <ele>64</ele>
        <time>2016-06-24T10:56:12Z</time>
      </trkpt>
      <trkpt lat="48.66925" lon="-2.3095">
        <ele>64</ele>
        <time>2016-06-24T10:56:16Z</time>
      </trkpt>
      <trkpt lat="48.66927" lon="-2.30956">
        <ele>64</ele>
        <time>2016-06-24T10:56:19Z</time>
      </trkpt>
      <trkpt lat="48.66929" lon="-2.30961">
        <ele>64</ele>
        <time>2016-06-24T10:56:22Z</time>
      </trkpt>
      <trkpt lat="48.6693" lon="-2.30968">
        <ele>63</ele>
        <time>2016-06-24T10:56:25Z</time>
      </trkpt>
      <trkpt lat="48.66932" lon="-2.30974">
        <ele>63</ele>
        <time>2016-06-24T10:56:28Z</time>
      </trkpt>
      <trkpt lat="48.66933" lon="-2.30979">
        <ele>63</ele>
        <time>2016-06-24T10:56:31Z</time>
      </trkpt>
      <trkpt lat="48.66934" lon="-2.30984">
        <ele>63</ele>
        <time>2016-06-24T10:56:34Z</time>
      </trkpt>
      <trkpt lat="48.66935" lon="-2.3099">
        <ele>63</ele>
        <time>2016-06-24T10:56:37Z</time>
      </trkpt>
      <trkpt lat="48.66938" lon="-2.30995">
        <ele>63</ele>
        <time>2016-06-24T10:56:41Z</time>
      </trkpt>
      <trkpt lat="48.66941" lon="-2.31001">
        <ele>63</ele>
        <time>2016-06-24T10:56:45Z</time>
      </trkpt>
      <trkpt lat="48.66943" lon="-2.31005">
        <ele>63</ele>
        <time>2016-06-24T10:56:48Z</time>
      </trkpt>
      <trkpt lat="48.66947" lon="-2.31011">
        <ele>63</ele>
        <time>2016-06-24T10:56:52Z</time>
      </trkpt>
      <trkpt lat="48.6695" lon="-2.31016">
        <ele>63</ele>
        <time>2016-06-24T10:56:56Z</time>
      </trkpt>
      <trkpt lat="48.66954" lon="-2.31021">
        <ele>63</ele>
        <time>2016-06-24T10:57:00Z</time>
      </trkpt>
      <trkpt lat="48.66958" lon="-2.31025">
        <ele>63</ele>
        <time>2016-06-24T10:57:03Z</time>
      </trkpt>
      <trkpt lat="48.66961" lon="-2.31031">
        <ele>63</ele>
        <time>2016-06-24T10:57:07Z</time>
      </trkpt>
      <trkpt lat="48.66964" lon="-2.31036">
        <ele>63</ele>
        <time>2016-06-24T10:57:10Z</time>
      </trkpt>
      <trkpt lat="48.66966" lon="-2.31041">
        <ele>63</ele>
        <time>2016-06-24T10:57:13Z</time>
      </trkpt>
      <trkpt lat="48.66969" lon="-2.31047">
        <ele>63</ele>
        <time>2016-06-24T10:57:17Z</time>
      </trkpt>
      <trkpt lat="48.66971" lon="-2.3105">
        <ele>63</ele>
        <time>2016-06-24T10:57:21Z</time>
      </trkpt>
      <trkpt lat="48.66972" lon="-2.31056">
        <ele>63</ele>
        <time>2016-06-24T10:57:25Z</time>
      </trkpt>
      <trkpt lat="48.6697" lon="-2.31061">
        <ele>63</ele>
        <time>2016-06-24T10:57:29Z</time>
      </trkpt>
      <trkpt lat="48.66967" lon="-2.31065">
        <ele>63</ele>
        <time>2016-06-24T10:57:32Z</time>
      </trkpt>
      <trkpt lat="48.66967" lon="-2.31067">
        <ele>63</ele>
        <time>2016-06-24T10:57:36Z</time>
      </trkpt>
      <trkpt lat="48.66967" lon="-2.31071">
        <ele>63</ele>
        <time>2016-06-24T10:57:40Z</time>
      </trkpt>
      <trkpt lat="48.66966" lon="-2.31076">
        <ele>63</ele>
        <time>2016-06-24T10:57:44Z</time>
      </trkpt>
      <trkpt lat="48.66965" lon="-2.31081">
        <ele>63</ele>
        <time>2016-06-24T10:57:48Z</time>
      </trkpt>
      <trkpt lat="48.66964" lon="-2.31086">
        <ele>63</ele>
        <time>2016-06-24T10:57:51Z</time>
      </trkpt>
      <trkpt lat="48.66963" lon="-2.31092">
        <ele>63</ele>
        <time>2016-06-24T10:57:54Z</time>
      </trkpt>
      <trkpt lat="48.66962" lon="-2.31097">
        <ele>63</ele>
        <time>2016-06-24T10:57:57Z</time>
      </trkpt>
      <trkpt lat="48.66959" lon="-2.31103">
        <ele>63</ele>
        <time>2016-06-24T10:58:01Z</time>
      </trkpt>
      <trkpt lat="48.66956" lon="-2.31108">
        <ele>63</ele>
        <time>2016-06-24T10:58:05Z</time>
      </trkpt>
      <trkpt lat="48.66956" lon="-2.31113">
        <ele>63</ele>
        <time>2016-06-24T10:58:09Z</time>
      </trkpt>
      <trkpt lat="48.66956" lon="-2.31118">
        <ele>63</ele>
        <time>2016-06-24T10:58:13Z</time>
      </trkpt>
      <trkpt lat="48.66953" lon="-2.31123">
        <ele>63</ele>
        <time>2016-06-24T10:58:17Z</time>
      </trkpt>
      <trkpt lat="48.66949" lon="-2.31129">
        <ele>63</ele>
        <time>2016-06-24T10:58:21Z</time>
      </trkpt>
      <trkpt lat="48.66949" lon="-2.31132">
        <ele>63</ele>
        <time>2016-06-24T10:58:25Z</time>
      </trkpt>
      <trkpt lat="48.66946" lon="-2.31136">
        <ele>63</ele>
        <time>2016-06-24T10:58:28Z</time>
      </trkpt>
      <trkpt lat="48.66943" lon="-2.31139">
        <ele>63</ele>
        <time>2016-06-24T10:58:31Z</time>
      </trkpt>
      <trkpt lat="48.66941" lon="-2.31143">
        <ele>63</ele>
        <time>2016-06-24T10:58:34Z</time>
      </trkpt>
      <trkpt lat="48.66941" lon="-2.3115">
        <ele>63</ele>
        <time>2016-06-24T10:58:37Z</time>
      </trkpt>
      <trkpt lat="48.66941" lon="-2.31155">
        <ele>63</ele>
        <time>2016-06-24T10:58:40Z</time>
      </trkpt>
      <trkpt lat="48.66942" lon="-2.31159">
        <ele>63</ele>
        <time>2016-06-24T10:58:43Z</time>
      </trkpt>
      <trkpt lat="48.66945" lon="-2.31163">
        <ele>63</ele>
        <time>2016-06-24T10:58:47Z</time>
      </trkpt>
      <trkpt lat="48.66949" lon="-2.31165">
        <ele>63</ele>
        <time>2016-06-24T10:58:50Z</time>
      </trkpt>
      <trkpt lat="48.66954" lon="-2.31166">
        <ele>63</ele>
        <time>2016-06-24T10:58:54Z</time>
      </trkpt>
      <trkpt lat="48.66956" lon="-2.31169">
        <ele>63</ele>
        <time>2016-06-24T10:59:02Z</time>
      </trkpt>
      <trkpt lat="48.6696" lon="-2.31169">
        <ele>63</ele>
        <time>2016-06-24T10:59:06Z</time>
      </trkpt>
      <trkpt lat="48.66963" lon="-2.31169">
        <ele>63</ele>
        <time>2016-06-24T10:59:09Z</time>
      </trkpt>
      <trkpt lat="48.66968" lon="-2.31167">
        <ele>63</ele>
        <time>2016-06-24T10:59:13Z</time>
      </trkpt>
      <trkpt lat="48.66972" lon="-2.31167">
        <ele>63</ele>
        <time>2016-06-24T10:59:16Z</time>
      </trkpt>
      <trkpt lat="48.66975" lon="-2.31168">
        <ele>63</ele>
        <time>2016-06-24T10:59:19Z</time>
      </trkpt>
      <trkpt lat="48.66981" lon="-2.31169">
        <ele>63</ele>
        <time>2016-06-24T10:59:24Z</time>
      </trkpt>
      <trkpt lat="48.66985" lon="-2.31169">
        <ele>63</ele>
        <time>2016-06-24T10:59:28Z</time>
      </trkpt>
      <trkpt lat="48.66986" lon="-2.31168">
        <ele>63</ele>
        <time>2016-06-24T10:59:43Z</time>
      </trkpt>
      <trkpt lat="48.66991" lon="-2.31167">
        <ele>63</ele>
        <time>2016-06-24T10:59:47Z</time>
      </trkpt>
      <trkpt lat="48.66995" lon="-2.31166">
        <ele>63</ele>
        <time>2016-06-24T10:59:50Z</time>
      </trkpt>
      <trkpt lat="48.66999" lon="-2.31166">
        <ele>63</ele>
        <time>2016-06-24T10:59:53Z</time>
      </trkpt>
      <trkpt lat="48.67004" lon="-2.31166">
        <ele>63</ele>
        <time>2016-06-24T10:59:57Z</time>
      </trkpt>
      <trkpt lat="48.67008" lon="-2.31165">
        <ele>63</ele>
        <time>2016-06-24T11:00:00Z</time>
      </trkpt>
      <trkpt lat="48.67012" lon="-2.31163">
        <ele>63</ele>
        <time>2016-06-24T11:00:03Z</time>
      </trkpt>
      <trkpt lat="48.67017" lon="-2.31161">
        <ele>63</ele>
        <time>2016-06-24T11:00:07Z</time>
      </trkpt>
      <trkpt lat="48.67022" lon="-2.31159">
        <ele>63</ele>
        <time>2016-06-24T11:00:11Z</time>
      </trkpt>
      <trkpt lat="48.67025" lon="-2.31157">
        <ele>63</ele>
        <time>2016-06-24T11:00:14Z</time>
      </trkpt>
      <trkpt lat="48.6703" lon="-2.31159">
        <ele>63</ele>
        <time>2016-06-24T11:00:20Z</time>
      </trkpt>
      <trkpt lat="48.67031" lon="-2.31163">
        <ele>63</ele>
        <time>2016-06-24T11:00:26Z</time>
      </trkpt>
      <trkpt lat="48.67033" lon="-2.31165">
        <ele>63</ele>
        <time>2016-06-24T11:00:37Z</time>
      </trkpt>
      <trkpt lat="48.67035" lon="-2.3117">
        <ele>63</ele>
        <time>2016-06-24T11:00:41Z</time>
      </trkpt>
      <trkpt lat="48.67036" lon="-2.31173">
        <ele>63</ele>
        <time>2016-06-24T11:00:47Z</time>
      </trkpt>
      <trkpt lat="48.67037" lon="-2.31176">
        <ele>63</ele>
        <time>2016-06-24T11:01:09Z</time>
      </trkpt>
      <trkpt lat="48.67039" lon="-2.31181">
        <ele>63</ele>
        <time>2016-06-24T11:01:13Z</time>
      </trkpt>
      <trkpt lat="48.67041" lon="-2.31184">
        <ele>63</ele>
        <time>2016-06-24T11:01:17Z</time>
      </trkpt>
      <trkpt lat="48.67043" lon="-2.31186">
        <ele>63</ele>
        <time>2016-06-24T11:01:23Z</time>
      </trkpt>
      <trkpt lat="48.67046" lon="-2.31191">
        <ele>63</ele>
        <time>2016-06-24T11:01:27Z</time>
      </trkpt>
      <trkpt lat="48.67048" lon="-2.31195">
        <ele>63</ele>
        <time>2016-06-24T11:01:31Z</time>
      </trkpt>
      <trkpt lat="48.6705" lon="-2.31198">
        <ele>63</ele>
        <time>2016-06-24T11:01:35Z</time>
      </trkpt>
      <trkpt lat="48.67052" lon="-2.31203">
        <ele>63</ele>
        <time>2016-06-24T11:01:40Z</time>
      </trkpt>
      <trkpt lat="48.67054" lon="-2.31209">
        <ele>63</ele>
        <time>2016-06-24T11:01:44Z</time>
      </trkpt>
      <trkpt lat="48.67057" lon="-2.31216">
        <ele>63</ele>
        <time>2016-06-24T11:01:48Z</time>
      </trkpt>
      <trkpt lat="48.67058" lon="-2.31222">
        <ele>63</ele>
        <time>2016-06-24T11:01:51Z</time>
      </trkpt>
      <trkpt lat="48.6706" lon="-2.31227">
        <ele>63</ele>
        <time>2016-06-24T11:01:54Z</time>
      </trkpt>
      <trkpt lat="48.67064" lon="-2.31234">
        <ele>63</ele>
        <time>2016-06-24T11:01:58Z</time>
      </trkpt>
      <trkpt lat="48.67068" lon="-2.31239">
        <ele>63</ele>
        <time>2016-06-24T11:02:02Z</time>
      </trkpt>
      <trkpt lat="48.67071" lon="-2.31244">
        <ele>63</ele>
        <time>2016-06-24T11:02:05Z</time>
      </trkpt>
      <trkpt lat="48.67075" lon="-2.31251">
        <ele>63</ele>
        <time>2016-06-24T11:02:09Z</time>
      </trkpt>
      <trkpt lat="48.67078" lon="-2.31255">
        <ele>63</ele>
        <time>2016-06-24T11:02:12Z</time>
      </trkpt>
      <trkpt lat="48.67082" lon="-2.3126">
        <ele>63</ele>
        <time>2016-06-24T11:02:16Z</time>
      </trkpt>
      <trkpt lat="48.67086" lon="-2.31265">
        <ele>63</ele>
        <time>2016-06-24T11:02:20Z</time>
      </trkpt>
      <trkpt lat="48.67089" lon="-2.31271">
        <ele>63</ele>
        <time>2016-06-24T11:02:24Z</time>
      </trkpt>
      <trkpt lat="48.67093" lon="-2.31275">
        <ele>62</ele>
        <time>2016-06-24T11:02:28Z</time>
      </trkpt>
      <trkpt lat="48.67096" lon="-2.31279">
        <ele>62</ele>
        <time>2016-06-24T11:02:32Z</time>
      </trkpt>
      <trkpt lat="48.671" lon="-2.31282">
        <ele>62</ele>
        <time>2016-06-24T11:02:35Z</time>
      </trkpt>
      <trkpt lat="48.67104" lon="-2.31285">
        <ele>62</ele>
        <time>2016-06-24T11:02:39Z</time>
      </trkpt>
      <trkpt lat="48.67109" lon="-2.31288">
        <ele>61</ele>
        <time>2016-06-24T11:02:43Z</time>
      </trkpt>
      <trkpt lat="48.67113" lon="-2.3129">
        <ele>61</ele>
        <time>2016-06-24T11:02:47Z</time>
      </trkpt>
      <trkpt lat="48.67117" lon="-2.31293">
        <ele>61</ele>
        <time>2016-06-24T11:02:51Z</time>
      </trkpt>
      <trkpt lat="48.67121" lon="-2.31294">
        <ele>61</ele>
        <time>2016-06-24T11:02:54Z</time>
      </trkpt>
      <trkpt lat="48.67125" lon="-2.31294">
        <ele>61</ele>
        <time>2016-06-24T11:02:57Z</time>
      </trkpt>
      <trkpt lat="48.67128" lon="-2.31295">
        <ele>61</ele>
        <time>2016-06-24T11:03:01Z</time>
      </trkpt>
      <trkpt lat="48.67132" lon="-2.31295">
        <ele>61</ele>
        <time>2016-06-24T11:03:05Z</time>
      </trkpt>
      <trkpt lat="48.67136" lon="-2.31294">
        <ele>61</ele>
        <time>2016-06-24T11:03:08Z</time>
      </trkpt>
      <trkpt lat="48.67141" lon="-2.31293">
        <ele>61</ele>
        <time>2016-06-24T11:03:12Z</time>
      </trkpt>
      <trkpt lat="48.67146" lon="-2.31297">
        <ele>61</ele>
        <time>2016-06-24T11:03:16Z</time>
      </trkpt>
      <trkpt lat="48.6715" lon="-2.31301">
        <ele>61</ele>
        <time>2016-06-24T11:03:20Z</time>
      </trkpt>
      <trkpt lat="48.67154" lon="-2.31305">
        <ele>61</ele>
        <time>2016-06-24T11:03:23Z</time>
      </trkpt>
      <trkpt lat="48.67156" lon="-2.31312">
        <ele>61</ele>
        <time>2016-06-24T11:03:27Z</time>
      </trkpt>
      <trkpt lat="48.67159" lon="-2.31317">
        <ele>61</ele>
        <time>2016-06-24T11:03:30Z</time>
      </trkpt>
      <trkpt lat="48.67162" lon="-2.31323">
        <ele>61</ele>
        <time>2016-06-24T11:03:34Z</time>
      </trkpt>
      <trkpt lat="48.67167" lon="-2.31328">
        <ele>61</ele>
        <time>2016-06-24T11:03:38Z</time>
      </trkpt>
      <trkpt lat="48.67171" lon="-2.31332">
        <ele>61</ele>
        <time>2016-06-24T11:03:42Z</time>
      </trkpt>
      <trkpt lat="48.67174" lon="-2.31335">
        <ele>61</ele>
        <time>2016-06-24T11:03:45Z</time>
      </trkpt>
      <trkpt lat="48.67178" lon="-2.3134">
        <ele>61</ele>
        <time>2016-06-24T11:03:49Z</time>
      </trkpt>
      <trkpt lat="48.67181" lon="-2.31346">
        <ele>61</ele>
        <time>2016-06-24T11:03:53Z</time>
      </trkpt>
      <trkpt lat="48.67184" lon="-2.31352">
        <ele>61</ele>
        <time>2016-06-24T11:03:57Z</time>
      </trkpt>
      <trkpt lat="48.67187" lon="-2.31356">
        <ele>61</ele>
        <time>2016-06-24T11:04:00Z</time>
      </trkpt>
      <trkpt lat="48.67191" lon="-2.31361">
        <ele>61</ele>
        <time>2016-06-24T11:04:04Z</time>
      </trkpt>
      <trkpt lat="48.67195" lon="-2.31364">
        <ele>61</ele>
        <time>2016-06-24T11:04:07Z</time>
      </trkpt>
      <trkpt lat="48.67199" lon="-2.31368">
        <ele>61</ele>
        <time>2016-06-24T11:04:10Z</time>
      </trkpt>
      <trkpt lat="48.67204" lon="-2.31372">
        <ele>61</ele>
        <time>2016-06-24T11:04:14Z</time>
      </trkpt>
      <trkpt lat="48.67207" lon="-2.31374">
        <ele>61</ele>
        <time>2016-06-24T11:04:17Z</time>
      </trkpt>
      <trkpt lat="48.67211" lon="-2.31377">
        <ele>61</ele>
        <time>2016-06-24T11:04:20Z</time>
      </trkpt>
      <trkpt lat="48.67215" lon="-2.31382">
        <ele>61</ele>
        <time>2016-06-24T11:04:24Z</time>
      </trkpt>
      <trkpt lat="48.67219" lon="-2.31385">
        <ele>61</ele>
        <time>2016-06-24T11:04:28Z</time>
      </trkpt>
      <trkpt lat="48.67221" lon="-2.31389">
        <ele>61</ele>
        <time>2016-06-24T11:04:32Z</time>
      </trkpt>
      <trkpt lat="48.67224" lon="-2.31394">
        <ele>61</ele>
        <time>2016-06-24T11:04:36Z</time>
      </trkpt>
      <trkpt lat="48.67227" lon="-2.31399">
        <ele>61</ele>
        <time>2016-06-24T11:04:40Z</time>
      </trkpt>
      <trkpt lat="48.6723" lon="-2.31404">
        <ele>61</ele>
        <time>2016-06-24T11:04:44Z</time>
      </trkpt>
      <trkpt lat="48.67234" lon="-2.31409">
        <ele>61</ele>
        <time>2016-06-24T11:04:48Z</time>
      </trkpt>
      <trkpt lat="48.67238" lon="-2.31414">
        <ele>61</ele>
        <time>2016-06-24T11:04:52Z</time>
      </trkpt>
      <trkpt lat="48.67239" lon="-2.31418">
        <ele>61</ele>
        <time>2016-06-24T11:04:55Z</time>
      </trkpt>
      <trkpt lat="48.67242" lon="-2.31425">
        <ele>61</ele>
        <time>2016-06-24T11:04:59Z</time>
      </trkpt>
      <trkpt lat="48.67244" lon="-2.3143">
        <ele>61</ele>
        <time>2016-06-24T11:05:03Z</time>
      </trkpt>
      <trkpt lat="48.67247" lon="-2.31435">
        <ele>61</ele>
        <time>2016-06-24T11:05:07Z</time>
      </trkpt>
      <trkpt lat="48.6725" lon="-2.31441">
        <ele>61</ele>
        <time>2016-06-24T11:05:11Z</time>
      </trkpt>
      <trkpt lat="48.67251" lon="-2.31447">
        <ele>61</ele>
        <time>2016-06-24T11:05:14Z</time>
      </trkpt>
      <trkpt lat="48.6725" lon="-2.31453">
        <ele>61</ele>
        <time>2016-06-24T11:05:17Z</time>
      </trkpt>
      <trkpt lat="48.6725" lon="-2.31459">
        <ele>61</ele>
        <time>2016-06-24T11:05:21Z</time>
      </trkpt>
      <trkpt lat="48.67252" lon="-2.31463">
        <ele>61</ele>
        <time>2016-06-24T11:05:25Z</time>
      </trkpt>
      <trkpt lat="48.67255" lon="-2.31467">
        <ele>61</ele>
        <time>2016-06-24T11:05:29Z</time>
      </trkpt>
      <trkpt lat="48.67257" lon="-2.31474">
        <ele>61</ele>
        <time>2016-06-24T11:05:33Z</time>
      </trkpt>
      <trkpt lat="48.6726" lon="-2.31478">
        <ele>61</ele>
        <time>2016-06-24T11:05:36Z</time>
      </trkpt>
      <trkpt lat="48.67263" lon="-2.31484">
        <ele>61</ele>
        <time>2016-06-24T11:05:40Z</time>
      </trkpt>
      <trkpt lat="48.67268" lon="-2.31484">
        <ele>61</ele>
        <time>2016-06-24T11:05:44Z</time>
      </trkpt>
      <trkpt lat="48.67272" lon="-2.31485">
        <ele>61</ele>
        <time>2016-06-24T11:05:47Z</time>
      </trkpt>
      <trkpt lat="48.67275" lon="-2.31489">
        <ele>61</ele>
        <time>2016-06-24T11:05:50Z</time>
      </trkpt>
      <trkpt lat="48.67279" lon="-2.31497">
        <ele>61</ele>
        <time>2016-06-24T11:05:55Z</time>
      </trkpt>
      <trkpt lat="48.67279" lon="-2.31503">
        <ele>61</ele>
        <time>2016-06-24T11:05:59Z</time>
      </trkpt>
      <trkpt lat="48.6728" lon="-2.31508">
        <ele>61</ele>
        <time>2016-06-24T11:06:02Z</time>
      </trkpt>
      <trkpt lat="48.67283" lon="-2.31512">
        <ele>61</ele>
        <time>2016-06-24T11:06:06Z</time>
      </trkpt>
      <trkpt lat="48.67287" lon="-2.31515">
        <ele>61</ele>
        <time>2016-06-24T11:06:10Z</time>
      </trkpt>
      <trkpt lat="48.6729" lon="-2.31517">
        <ele>61</ele>
        <time>2016-06-24T11:06:13Z</time>
      </trkpt>
      <trkpt lat="48.67294" lon="-2.31518">
        <ele>61</ele>
        <time>2016-06-24T11:06:16Z</time>
      </trkpt>
      <trkpt lat="48.67297" lon="-2.31519">
        <ele>61</ele>
        <time>2016-06-24T11:06:19Z</time>
      </trkpt>
      <trkpt lat="48.673" lon="-2.3152">
        <ele>61</ele>
        <time>2016-06-24T11:06:22Z</time>
      </trkpt>
      <trkpt lat="48.67304" lon="-2.31521">
        <ele>61</ele>
        <time>2016-06-24T11:06:26Z</time>
      </trkpt>
      <trkpt lat="48.67308" lon="-2.31523">
        <ele>61</ele>
        <time>2016-06-24T11:06:29Z</time>
      </trkpt>
      <trkpt lat="48.67313" lon="-2.31526">
        <ele>61</ele>
        <time>2016-06-24T11:06:33Z</time>
      </trkpt>
      <trkpt lat="48.67317" lon="-2.31529">
        <ele>61</ele>
        <time>2016-06-24T11:06:37Z</time>
      </trkpt>
      <trkpt lat="48.6732" lon="-2.31532">
        <ele>61</ele>
        <time>2016-06-24T11:06:40Z</time>
      </trkpt>
      <trkpt lat="48.67324" lon="-2.31536">
        <ele>61</ele>
        <time>2016-06-24T11:06:44Z</time>
      </trkpt>
      <trkpt lat="48.67329" lon="-2.3154">
        <ele>61</ele>
        <time>2016-06-24T11:06:49Z</time>
      </trkpt>
      <trkpt lat="48.67334" lon="-2.31544">
        <ele>62</ele>
        <time>2016-06-24T11:06:54Z</time>
      </trkpt>
      <trkpt lat="48.67338" lon="-2.31547">
        <ele>62</ele>
        <time>2016-06-24T11:06:58Z</time>
      </trkpt>
      <trkpt lat="48.67341" lon="-2.31549">
        <ele>63</ele>
        <time>2016-06-24T11:07:01Z</time>
      </trkpt>
      <trkpt lat="48.67345" lon="-2.3155">
        <ele>63</ele>
        <time>2016-06-24T11:07:05Z</time>
      </trkpt>
      <trkpt lat="48.6735" lon="-2.3155">
        <ele>63</ele>
        <time>2016-06-24T11:07:09Z</time>
      </trkpt>
      <trkpt lat="48.67355" lon="-2.31552">
        <ele>63</ele>
        <time>2016-06-24T11:07:13Z</time>
      </trkpt>
      <trkpt lat="48.67358" lon="-2.31553">
        <ele>63</ele>
        <time>2016-06-24T11:07:16Z</time>
      </trkpt>
      <trkpt lat="48.67363" lon="-2.31554">
        <ele>63</ele>
        <time>2016-06-24T11:07:20Z</time>
      </trkpt>
      <trkpt lat="48.67366" lon="-2.31554">
        <ele>63</ele>
        <time>2016-06-24T11:07:23Z</time>
      </trkpt>
      <trkpt lat="48.67369" lon="-2.31554">
        <ele>63</ele>
        <time>2016-06-24T11:07:26Z</time>
      </trkpt>
      <trkpt lat="48.67373" lon="-2.31554">
        <ele>63</ele>
        <time>2016-06-24T11:07:29Z</time>
      </trkpt>
      <trkpt lat="48.67377" lon="-2.31555">
        <ele>63</ele>
        <time>2016-06-24T11:07:32Z</time>
      </trkpt>
      <trkpt lat="48.67381" lon="-2.31556">
        <ele>63</ele>
        <time>2016-06-24T11:07:35Z</time>
      </trkpt>
      <trkpt lat="48.67384" lon="-2.31557">
        <ele>63</ele>
        <time>2016-06-24T11:07:38Z</time>
      </trkpt>
      <trkpt lat="48.67388" lon="-2.31559">
        <ele>63</ele>
        <time>2016-06-24T11:07:41Z</time>
      </trkpt>
      <trkpt lat="48.67393" lon="-2.3156">
        <ele>63</ele>
        <time>2016-06-24T11:07:45Z</time>
      </trkpt>
      <trkpt lat="48.67397" lon="-2.31561">
        <ele>63</ele>
        <time>2016-06-24T11:07:48Z</time>
      </trkpt>
      <trkpt lat="48.67401" lon="-2.31562">
        <ele>63</ele>
        <time>2016-06-24T11:07:51Z</time>
      </trkpt>
      <trkpt lat="48.67405" lon="-2.31562">
        <ele>63</ele>
        <time>2016-06-24T11:07:54Z</time>
      </trkpt>
      <trkpt lat="48.67408" lon="-2.31563">
        <ele>63</ele>
        <time>2016-06-24T11:07:57Z</time>
      </trkpt>
      <trkpt lat="48.67414" lon="-2.31564">
        <ele>63</ele>
        <time>2016-06-24T11:08:02Z</time>
      </trkpt>
      <trkpt lat="48.67421" lon="-2.31565">
        <ele>63</ele>
        <time>2016-06-24T11:08:07Z</time>
      </trkpt>
      <trkpt lat="48.67426" lon="-2.31566">
        <ele>63</ele>
        <time>2016-06-24T11:08:11Z</time>
      </trkpt>
      <trkpt lat="48.67429" lon="-2.31567">
        <ele>63</ele>
        <time>2016-06-24T11:08:14Z</time>
      </trkpt>
      <trkpt lat="48.67433" lon="-2.31568">
        <ele>63</ele>
        <time>2016-06-24T11:08:17Z</time>
      </trkpt>
      <trkpt lat="48.67436" lon="-2.3157">
        <ele>63</ele>
        <time>2016-06-24T11:08:20Z</time>
      </trkpt>
      <trkpt lat="48.6744" lon="-2.31572">
        <ele>63</ele>
        <time>2016-06-24T11:08:23Z</time>
      </trkpt>
      <trkpt lat="48.67443" lon="-2.31573">
        <ele>63</ele>
        <time>2016-06-24T11:08:26Z</time>
      </trkpt>
      <trkpt lat="48.67446" lon="-2.31574">
        <ele>63</ele>
        <time>2016-06-24T11:08:29Z</time>
      </trkpt>
      <trkpt lat="48.6745" lon="-2.31575">
        <ele>63</ele>
        <time>2016-06-24T11:08:32Z</time>
      </trkpt>
      <trkpt lat="48.67455" lon="-2.31575">
        <ele>63</ele>
        <time>2016-06-24T11:08:36Z</time>
      </trkpt>
      <trkpt lat="48.67459" lon="-2.31574">
        <ele>63</ele>
        <time>2016-06-24T11:08:39Z</time>
      </trkpt>
      <trkpt lat="48.67463" lon="-2.31573">
        <ele>63</ele>
        <time>2016-06-24T11:08:42Z</time>
      </trkpt>
      <trkpt lat="48.67466" lon="-2.31572">
        <ele>63</ele>
        <time>2016-06-24T11:08:45Z</time>
      </trkpt>
      <trkpt lat="48.6747" lon="-2.31572">
        <ele>63</ele>
        <time>2016-06-24T11:08:48Z</time>
      </trkpt>
      <trkpt lat="48.67472" lon="-2.31576">
        <ele>63</ele>
        <time>2016-06-24T11:08:52Z</time>
      </trkpt>
      <trkpt lat="48.67471" lon="-2.31582">
        <ele>63</ele>
        <time>2016-06-24T11:08:55Z</time>
      </trkpt>
      <trkpt lat="48.6747" lon="-2.31588">
        <ele>63</ele>
        <time>2016-06-24T11:08:58Z</time>
      </trkpt>
      <trkpt lat="48.67469" lon="-2.31595">
        <ele>63</ele>
        <time>2016-06-24T11:09:02Z</time>
      </trkpt>
      <trkpt lat="48.67468" lon="-2.31601">
        <ele>63</ele>
        <time>2016-06-24T11:09:05Z</time>
      </trkpt>
      <trkpt lat="48.67467" lon="-2.31606">
        <ele>63</ele>
        <time>2016-06-24T11:09:09Z</time>
      </trkpt>
      <trkpt lat="48.67468" lon="-2.31606">
        <ele>63</ele>
        <time>2016-06-24T11:09:12Z</time>
      </trkpt>
      <trkpt lat="48.67471" lon="-2.31602">
        <ele>63</ele>
        <time>2016-06-24T11:09:15Z</time>
      </trkpt>
      <trkpt lat="48.67474" lon="-2.31596">
        <ele>63</ele>
        <time>2016-06-24T11:09:19Z</time>
      </trkpt>
      <trkpt lat="48.67476" lon="-2.31592">
        <ele>63</ele>
        <time>2016-06-24T11:09:23Z</time>
      </trkpt>
      <trkpt lat="48.67477" lon="-2.31597">
        <ele>62</ele>
        <time>2016-06-24T11:09:26Z</time>
      </trkpt>
      <trkpt lat="48.67476" lon="-2.31602">
        <ele>62</ele>
        <time>2016-06-24T11:09:29Z</time>
      </trkpt>
      <trkpt lat="48.67476" lon="-2.31606">
        <ele>62</ele>
        <time>2016-06-24T11:09:32Z</time>
      </trkpt>
      <trkpt lat="48.67477" lon="-2.31606">
        <ele>61</ele>
        <time>2016-06-24T11:09:36Z</time>
      </trkpt>
      <trkpt lat="48.67479" lon="-2.316">
        <ele>60</ele>
        <time>2016-06-24T11:09:40Z</time>
      </trkpt>
      <trkpt lat="48.67482" lon="-2.31594">
        <ele>59</ele>
        <time>2016-06-24T11:09:44Z</time>
      </trkpt>
      <trkpt lat="48.67484" lon="-2.31592">
        <ele>59</ele>
        <time>2016-06-24T11:09:49Z</time>
      </trkpt>
      <trkpt lat="48.67485" lon="-2.31597">
        <ele>58</ele>
        <time>2016-06-24T11:09:53Z</time>
      </trkpt>
      <trkpt lat="48.67485" lon="-2.31601">
        <ele>57</ele>
        <time>2016-06-24T11:09:57Z</time>
      </trkpt>
      <trkpt lat="48.67486" lon="-2.31606">
        <ele>57</ele>
        <time>2016-06-24T11:10:01Z</time>
      </trkpt>
      <trkpt lat="48.67485" lon="-2.31612">
        <ele>56</ele>
        <time>2016-06-24T11:10:04Z</time>
      </trkpt>
      <trkpt lat="48.67484" lon="-2.31618">
        <ele>56</ele>
        <time>2016-06-24T11:10:08Z</time>
      </trkpt>
      <trkpt lat="48.67482" lon="-2.31624">
        <ele>56</ele>
        <time>2016-06-24T11:10:11Z</time>
      </trkpt>
      <trkpt lat="48.6748" lon="-2.3163">
        <ele>56</ele>
        <time>2016-06-24T11:10:14Z</time>
      </trkpt>
      <trkpt lat="48.67479" lon="-2.31636">
        <ele>56</ele>
        <time>2016-06-24T11:10:17Z</time>
      </trkpt>
      <trkpt lat="48.67477" lon="-2.31641">
        <ele>56</ele>
        <time>2016-06-24T11:10:20Z</time>
      </trkpt>
      <trkpt lat="48.67477" lon="-2.31646">
        <ele>56</ele>
        <time>2016-06-24T11:10:23Z</time>
      </trkpt>
      <trkpt lat="48.67479" lon="-2.31652">
        <ele>56</ele>
        <time>2016-06-24T11:10:26Z</time>
      </trkpt>
      <trkpt lat="48.67481" lon="-2.31657">
        <ele>56</ele>
        <time>2016-06-24T11:10:29Z</time>
      </trkpt>
      <trkpt lat="48.67485" lon="-2.31663">
        <ele>56</ele>
        <time>2016-06-24T11:10:33Z</time>
      </trkpt>
      <trkpt lat="48.67488" lon="-2.3167">
        <ele>56</ele>
        <time>2016-06-24T11:10:37Z</time>
      </trkpt>
      <trkpt lat="48.67489" lon="-2.31675">
        <ele>56</ele>
        <time>2016-06-24T11:10:40Z</time>
      </trkpt>
      <trkpt lat="48.67491" lon="-2.3168">
        <ele>56</ele>
        <time>2016-06-24T11:10:44Z</time>
      </trkpt>
      <trkpt lat="48.67494" lon="-2.31682">
        <ele>56</ele>
        <time>2016-06-24T11:10:48Z</time>
      </trkpt>
      <trkpt lat="48.67498" lon="-2.3168">
        <ele>56</ele>
        <time>2016-06-24T11:10:52Z</time>
      </trkpt>
      <trkpt lat="48.675" lon="-2.3168">
        <ele>56</ele>
        <time>2016-06-24T11:10:57Z</time>
      </trkpt>
      <trkpt lat="48.67501" lon="-2.31681">
        <ele>56</ele>
        <time>2016-06-24T11:11:02Z</time>
      </trkpt>
      <trkpt lat="48.67504" lon="-2.31679">
        <ele>56</ele>
        <time>2016-06-24T11:11:06Z</time>
      </trkpt>
      <trkpt lat="48.67506" lon="-2.31674">
        <ele>56</ele>
        <time>2016-06-24T11:11:09Z</time>
      </trkpt>
      <trkpt lat="48.67509" lon="-2.31669">
        <ele>56</ele>
        <time>2016-06-24T11:11:12Z</time>
      </trkpt>
      <trkpt lat="48.67513" lon="-2.31663">
        <ele>56</ele>
        <time>2016-06-24T11:11:16Z</time>
      </trkpt>
      <trkpt lat="48.67516" lon="-2.31658">
        <ele>56</ele>
        <time>2016-06-24T11:11:19Z</time>
      </trkpt>
      <trkpt lat="48.67519" lon="-2.31653">
        <ele>56</ele>
        <time>2016-06-24T11:11:22Z</time>
      </trkpt>
      <trkpt lat="48.67523" lon="-2.31647">
        <ele>56</ele>
        <time>2016-06-24T11:11:26Z</time>
      </trkpt>
      <trkpt lat="48.67527" lon="-2.31642">
        <ele>56</ele>
        <time>2016-06-24T11:11:30Z</time>
      </trkpt>
      <trkpt lat="48.67529" lon="-2.31637">
        <ele>56</ele>
        <time>2016-06-24T11:11:33Z</time>
      </trkpt>
      <trkpt lat="48.67531" lon="-2.31631">
        <ele>56</ele>
        <time>2016-06-24T11:11:36Z</time>
      </trkpt>
      <trkpt lat="48.67532" lon="-2.31626">
        <ele>56</ele>
        <time>2016-06-24T11:11:39Z</time>
      </trkpt>
      <trkpt lat="48.67534" lon="-2.3162">
        <ele>56</ele>
        <time>2016-06-24T11:11:42Z</time>
      </trkpt>
      <trkpt lat="48.67535" lon="-2.31614">
        <ele>56</ele>
        <time>2016-06-24T11:11:45Z</time>
      </trkpt>
      <trkpt lat="48.67537" lon="-2.31609">
        <ele>56</ele>
        <time>2016-06-24T11:11:48Z</time>
      </trkpt>
      <trkpt lat="48.67538" lon="-2.31603">
        <ele>56</ele>
        <time>2016-06-24T11:11:51Z</time>
      </trkpt>
      <trkpt lat="48.67539" lon="-2.31597">
        <ele>56</ele>
        <time>2016-06-24T11:11:54Z</time>
      </trkpt>
      <trkpt lat="48.67541" lon="-2.31592">
        <ele>56</ele>
        <time>2016-06-24T11:11:57Z</time>
      </trkpt>
      <trkpt lat="48.67542" lon="-2.31586">
        <ele>56</ele>
        <time>2016-06-24T11:12:00Z</time>
      </trkpt>
      <trkpt lat="48.67545" lon="-2.31579">
        <ele>56</ele>
        <time>2016-06-24T11:12:04Z</time>
      </trkpt>
      <trkpt lat="48.67548" lon="-2.31574">
        <ele>56</ele>
        <time>2016-06-24T11:12:08Z</time>
      </trkpt>
      <trkpt lat="48.67551" lon="-2.31567">
        <ele>57</ele>
        <time>2016-06-24T11:12:12Z</time>
      </trkpt>
      <trkpt lat="48.67554" lon="-2.31561">
        <ele>58</ele>
        <time>2016-06-24T11:12:16Z</time>
      </trkpt>
      <trkpt lat="48.67556" lon="-2.31557">
        <ele>58</ele>
        <time>2016-06-24T11:12:19Z</time>
      </trkpt>
      <trkpt lat="48.67559" lon="-2.31552">
        <ele>58</ele>
        <time>2016-06-24T11:12:23Z</time>
      </trkpt>
      <trkpt lat="48.67562" lon="-2.31547">
        <ele>59</ele>
        <time>2016-06-24T11:12:27Z</time>
      </trkpt>
      <trkpt lat="48.67565" lon="-2.31541">
        <ele>59</ele>
        <time>2016-06-24T11:12:31Z</time>
      </trkpt>
      <trkpt lat="48.67569" lon="-2.31536">
        <ele>60</ele>
        <time>2016-06-24T11:12:35Z</time>
      </trkpt>
      <trkpt lat="48.67572" lon="-2.31533">
        <ele>60</ele>
        <time>2016-06-24T11:12:39Z</time>
      </trkpt>
      <trkpt lat="48.67576" lon="-2.31531">
        <ele>61</ele>
        <time>2016-06-24T11:12:43Z</time>
      </trkpt>
      <trkpt lat="48.67579" lon="-2.31532">
        <ele>61</ele>
        <time>2016-06-24T11:12:46Z</time>
      </trkpt>
      <trkpt lat="48.67583" lon="-2.31534">
        <ele>61</ele>
        <time>2016-06-24T11:12:50Z</time>
      </trkpt>
      <trkpt lat="48.67586" lon="-2.31534">
        <ele>62</ele>
        <time>2016-06-24T11:12:53Z</time>
      </trkpt>
      <trkpt lat="48.6759" lon="-2.31535">
        <ele>62</ele>
        <time>2016-06-24T11:12:56Z</time>
      </trkpt>
      <trkpt lat="48.67593" lon="-2.31537">
        <ele>62</ele>
        <time>2016-06-24T11:12:59Z</time>
      </trkpt>
      <trkpt lat="48.67597" lon="-2.31537">
        <ele>62</ele>
        <time>2016-06-24T11:13:02Z</time>
      </trkpt>
      <trkpt lat="48.676" lon="-2.31535">
        <ele>62</ele>
        <time>2016-06-24T11:13:05Z</time>
      </trkpt>
      <trkpt lat="48.67603" lon="-2.31534">
        <ele>62</ele>
        <time>2016-06-24T11:13:08Z</time>
      </trkpt>
      <trkpt lat="48.67607" lon="-2.31534">
        <ele>62</ele>
        <time>2016-06-24T11:13:11Z</time>
      </trkpt>
      <trkpt lat="48.67611" lon="-2.31533">
        <ele>62</ele>
        <time>2016-06-24T11:13:14Z</time>
      </trkpt>
      <trkpt lat="48.67614" lon="-2.31531">
        <ele>62</ele>
        <time>2016-06-24T11:13:17Z</time>
      </trkpt>
      <trkpt lat="48.67618" lon="-2.3153">
        <ele>62</ele>
        <time>2016-06-24T11:13:20Z</time>
      </trkpt>
      <trkpt lat="48.67622" lon="-2.31528">
        <ele>62</ele>
        <time>2016-06-24T11:13:23Z</time>
      </trkpt>
      <trkpt lat="48.67625" lon="-2.31531">
        <ele>62</ele>
        <time>2016-06-24T11:13:26Z</time>
      </trkpt>
      <trkpt lat="48.67629" lon="-2.31533">
        <ele>62</ele>
        <time>2016-06-24T11:13:29Z</time>
      </trkpt>
      <trkpt lat="48.67633" lon="-2.31534">
        <ele>62</ele>
        <time>2016-06-24T11:13:32Z</time>
      </trkpt>
      <trkpt lat="48.67638" lon="-2.31531">
        <ele>62</ele>
        <time>2016-06-24T11:13:36Z</time>
      </trkpt>
      <trkpt lat="48.67641" lon="-2.31528">
        <ele>62</ele>
        <time>2016-06-24T11:14:09Z</time>
      </trkpt>
      <trkpt lat="48.6764" lon="-2.31528">
        <ele>62</ele>
        <time>2016-06-24T11:14:23Z</time>
      </trkpt>
      <trkpt lat="48.67641" lon="-2.31526">
        <ele>62</ele>
        <time>2016-06-24T11:14:28Z</time>
      </trkpt>
      <trkpt lat="48.67643" lon="-2.31526">
        <ele>62</ele>
        <time>2016-06-24T11:14:34Z</time>
      </trkpt>
      <trkpt lat="48.67647" lon="-2.31528">
        <ele>62</ele>
        <time>2016-06-24T11:14:38Z</time>
      </trkpt>
      <trkpt lat="48.6765" lon="-2.31529">
        <ele>62</ele>
        <time>2016-06-24T11:14:42Z</time>
      </trkpt>
      <trkpt lat="48.67654" lon="-2.31525">
        <ele>62</ele>
        <time>2016-06-24T11:14:46Z</time>
      </trkpt>
      <trkpt lat="48.67656" lon="-2.31521">
        <ele>62</ele>
        <time>2016-06-24T11:14:51Z</time>
      </trkpt>
      <trkpt lat="48.67659" lon="-2.31521">
        <ele>62</ele>
        <time>2016-06-24T11:14:54Z</time>
      </trkpt>
      <trkpt lat="48.67663" lon="-2.31521">
        <ele>62</ele>
        <time>2016-06-24T11:14:57Z</time>
      </trkpt>
      <trkpt lat="48.67668" lon="-2.3152">
        <ele>62</ele>
        <time>2016-06-24T11:15:00Z</time>
      </trkpt>
      <trkpt lat="48.67672" lon="-2.31518">
        <ele>62</ele>
        <time>2016-06-24T11:15:03Z</time>
      </trkpt>
      <trkpt lat="48.67675" lon="-2.31517">
        <ele>62</ele>
        <time>2016-06-24T11:15:06Z</time>
      </trkpt>
      <trkpt lat="48.67675" lon="-2.31514">
        <ele>62</ele>
        <time>2016-06-24T11:15:15Z</time>
      </trkpt>
      <trkpt lat="48.67674" lon="-2.31508">
        <ele>62</ele>
        <time>2016-06-24T11:15:18Z</time>
      </trkpt>
      <trkpt lat="48.67675" lon="-2.31504">
        <ele>62</ele>
        <time>2016-06-24T11:15:23Z</time>
      </trkpt>
      <trkpt lat="48.67678" lon="-2.31507">
        <ele>62</ele>
        <time>2016-06-24T11:15:28Z</time>
      </trkpt>
      <trkpt lat="48.67677" lon="-2.31502">
        <ele>62</ele>
        <time>2016-06-24T11:15:32Z</time>
      </trkpt>
      <trkpt lat="48.67676" lon="-2.31497">
        <ele>62</ele>
        <time>2016-06-24T11:15:36Z</time>
      </trkpt>
      <trkpt lat="48.67677" lon="-2.315">
        <ele>62</ele>
        <time>2016-06-24T11:15:40Z</time>
      </trkpt>
      <trkpt lat="48.67678" lon="-2.31506">
        <ele>62</ele>
        <time>2016-06-24T11:15:43Z</time>
      </trkpt>
      <trkpt lat="48.67679" lon="-2.31511">
        <ele>62</ele>
        <time>2016-06-24T11:15:47Z</time>
      </trkpt>
      <trkpt lat="48.67682" lon="-2.31516">
        <ele>62</ele>
        <time>2016-06-24T11:15:51Z</time>
      </trkpt>
      <trkpt lat="48.67685" lon="-2.31514">
        <ele>62</ele>
        <time>2016-06-24T11:15:55Z</time>
      </trkpt>
      <trkpt lat="48.6769" lon="-2.31513">
        <ele>62</ele>
        <time>2016-06-24T11:15:58Z</time>
      </trkpt>
      <trkpt lat="48.67694" lon="-2.3151">
        <ele>62</ele>
        <time>2016-06-24T11:16:01Z</time>
      </trkpt>
      <trkpt lat="48.67699" lon="-2.31508">
        <ele>62</ele>
        <time>2016-06-24T11:16:04Z</time>
      </trkpt>
      <trkpt lat="48.67704" lon="-2.31506">
        <ele>62</ele>
        <time>2016-06-24T11:16:07Z</time>
      </trkpt>
      <trkpt lat="48.67708" lon="-2.31504">
        <ele>62</ele>
        <time>2016-06-24T11:16:10Z</time>
      </trkpt>
      <trkpt lat="48.67713" lon="-2.31502">
        <ele>62</ele>
        <time>2016-06-24T11:16:13Z</time>
      </trkpt>
      <trkpt lat="48.67717" lon="-2.31501">
        <ele>62</ele>
        <time>2016-06-24T11:16:16Z</time>
      </trkpt>
      <trkpt lat="48.67722" lon="-2.315">
        <ele>62</ele>
        <time>2016-06-24T11:16:19Z</time>
      </trkpt>
      <trkpt lat="48.67726" lon="-2.31498">
        <ele>62</ele>
        <time>2016-06-24T11:16:22Z</time>
      </trkpt>
      <trkpt lat="48.6773" lon="-2.31495">
        <ele>62</ele>
        <time>2016-06-24T11:16:25Z</time>
      </trkpt>
      <trkpt lat="48.67734" lon="-2.31494">
        <ele>62</ele>
        <time>2016-06-24T11:16:28Z</time>
      </trkpt>
      <trkpt lat="48.67739" lon="-2.31492">
        <ele>62</ele>
        <time>2016-06-24T11:16:31Z</time>
      </trkpt>
      <trkpt lat="48.67742" lon="-2.3149">
        <ele>62</ele>
        <time>2016-06-24T11:16:34Z</time>
      </trkpt>
      <trkpt lat="48.67747" lon="-2.31487">
        <ele>62</ele>
        <time>2016-06-24T11:16:38Z</time>
      </trkpt>
      <trkpt lat="48.67751" lon="-2.31484">
        <ele>62</ele>
        <time>2016-06-24T11:16:41Z</time>
      </trkpt>
      <trkpt lat="48.67754" lon="-2.31481">
        <ele>62</ele>
        <time>2016-06-24T11:16:44Z</time>
      </trkpt>
      <trkpt lat="48.67759" lon="-2.31479">
        <ele>62</ele>
        <time>2016-06-24T11:16:47Z</time>
      </trkpt>
      <trkpt lat="48.67762" lon="-2.31475">
        <ele>62</ele>
        <time>2016-06-24T11:16:51Z</time>
      </trkpt>
      <trkpt lat="48.67763" lon="-2.31474">
        <ele>62</ele>
        <time>2016-06-24T11:16:59Z</time>
      </trkpt>
      <trkpt lat="48.67764" lon="-2.31471">
        <ele>62</ele>
        <time>2016-06-24T11:17:02Z</time>
      </trkpt>
      <trkpt lat="48.67765" lon="-2.31467">
        <ele>62</ele>
        <time>2016-06-24T11:17:05Z</time>
      </trkpt>
      <trkpt lat="48.67769" lon="-2.31463">
        <ele>62</ele>
        <time>2016-06-24T11:17:08Z</time>
      </trkpt>
      <trkpt lat="48.67773" lon="-2.31461">
        <ele>62</ele>
        <time>2016-06-24T11:17:11Z</time>
      </trkpt>
      <trkpt lat="48.67776" lon="-2.31457">
        <ele>62</ele>
        <time>2016-06-24T11:17:14Z</time>
      </trkpt>
      <trkpt lat="48.67778" lon="-2.31452">
        <ele>62</ele>
        <time>2016-06-24T11:17:17Z</time>
      </trkpt>
      <trkpt lat="48.67782" lon="-2.31448">
        <ele>62</ele>
        <time>2016-06-24T11:17:20Z</time>
      </trkpt>
      <trkpt lat="48.67785" lon="-2.31446">
        <ele>62</ele>
        <time>2016-06-24T11:17:23Z</time>
      </trkpt>
      <trkpt lat="48.67789" lon="-2.31446">
        <ele>62</ele>
        <time>2016-06-24T11:17:26Z</time>
      </trkpt>
      <trkpt lat="48.67793" lon="-2.31446">
        <ele>62</ele>
        <time>2016-06-24T11:17:30Z</time>
      </trkpt>
      <trkpt lat="48.67797" lon="-2.31447">
        <ele>62</ele>
        <time>2016-06-24T11:17:33Z</time>
      </trkpt>
      <trkpt lat="48.678" lon="-2.31447">
        <ele>62</ele>
        <time>2016-06-24T11:17:36Z</time>
      </trkpt>
      <trkpt lat="48.67804" lon="-2.31446">
        <ele>62</ele>
        <time>2016-06-24T11:17:40Z</time>
      </trkpt>
      <trkpt lat="48.67805" lon="-2.31445">
        <ele>62</ele>
        <time>2016-06-24T11:17:46Z</time>
      </trkpt>
      <trkpt lat="48.67806" lon="-2.31445">
        <ele>62</ele>
        <time>2016-06-24T11:17:54Z</time>
      </trkpt>
      <trkpt lat="48.67808" lon="-2.31444">
        <ele>62</ele>
        <time>2016-06-24T11:17:57Z</time>
      </trkpt>
      <trkpt lat="48.67812" lon="-2.31441">
        <ele>62</ele>
        <time>2016-06-24T11:18:01Z</time>
      </trkpt>
      <trkpt lat="48.67815" lon="-2.3144">
        <ele>62</ele>
        <time>2016-06-24T11:18:04Z</time>
      </trkpt>
      <trkpt lat="48.67817" lon="-2.31439">
        <ele>62</ele>
        <time>2016-06-24T11:18:32Z</time>
      </trkpt>
      <trkpt lat="48.6782" lon="-2.31437">
        <ele>62</ele>
        <time>2016-06-24T11:18:35Z</time>
      </trkpt>
      <trkpt lat="48.67824" lon="-2.31436">
        <ele>62</ele>
        <time>2016-06-24T11:18:40Z</time>
      </trkpt>
      <trkpt lat="48.67828" lon="-2.31435">
        <ele>62</ele>
        <time>2016-06-24T11:18:44Z</time>
      </trkpt>
      <trkpt lat="48.67832" lon="-2.31434">
        <ele>62</ele>
        <time>2016-06-24T11:18:47Z</time>
      </trkpt>
      <trkpt lat="48.67836" lon="-2.31433">
        <ele>62</ele>
        <time>2016-06-24T11:18:50Z</time>
      </trkpt>
      <trkpt lat="48.67839" lon="-2.31432">
        <ele>62</ele>
        <time>2016-06-24T11:18:53Z</time>
      </trkpt>
      <trkpt lat="48.67842" lon="-2.31431">
        <ele>62</ele>
        <time>2016-06-24T11:18:56Z</time>
      </trkpt>
      <trkpt lat="48.67846" lon="-2.31429">
        <ele>62</ele>
        <time>2016-06-24T11:18:59Z</time>
      </trkpt>
      <trkpt lat="48.67849" lon="-2.31428">
        <ele>62</ele>
        <time>2016-06-24T11:19:02Z</time>
      </trkpt>
      <trkpt lat="48.67854" lon="-2.31427">
        <ele>62</ele>
        <time>2016-06-24T11:19:05Z</time>
      </trkpt>
      <trkpt lat="48.67858" lon="-2.31429">
        <ele>62</ele>
        <time>2016-06-24T11:19:09Z</time>
      </trkpt>
      <trkpt lat="48.67861" lon="-2.31428">
        <ele>62</ele>
        <time>2016-06-24T11:19:13Z</time>
      </trkpt>
      <trkpt lat="48.67864" lon="-2.31423">
        <ele>62</ele>
        <time>2016-06-24T11:19:17Z</time>
      </trkpt>
      <trkpt lat="48.67868" lon="-2.3142">
        <ele>62</ele>
        <time>2016-06-24T11:19:21Z</time>
      </trkpt>
      <trkpt lat="48.67872" lon="-2.31419">
        <ele>62</ele>
        <time>2016-06-24T11:19:24Z</time>
      </trkpt>
      <trkpt lat="48.67875" lon="-2.31417">
        <ele>62</ele>
        <time>2016-06-24T11:19:27Z</time>
      </trkpt>
      <trkpt lat="48.67879" lon="-2.31417">
        <ele>62</ele>
        <time>2016-06-24T11:19:30Z</time>
      </trkpt>
      <trkpt lat="48.67881" lon="-2.31414">
        <ele>62</ele>
        <time>2016-06-24T11:20:18Z</time>
      </trkpt>
      <trkpt lat="48.67886" lon="-2.31411">
        <ele>62</ele>
        <time>2016-06-24T11:20:22Z</time>
      </trkpt>
      <trkpt lat="48.67889" lon="-2.31409">
        <ele>62</ele>
        <time>2016-06-24T11:20:25Z</time>
      </trkpt>
      <trkpt lat="48.67892" lon="-2.31407">
        <ele>62</ele>
        <time>2016-06-24T11:20:28Z</time>
      </trkpt>
      <trkpt lat="48.67896" lon="-2.31405">
        <ele>62</ele>
        <time>2016-06-24T11:20:32Z</time>
      </trkpt>
      <trkpt lat="48.679" lon="-2.31403">
        <ele>62</ele>
        <time>2016-06-24T11:20:36Z</time>
      </trkpt>
      <trkpt lat="48.67902" lon="-2.31402">
        <ele>62</ele>
        <time>2016-06-24T11:21:20Z</time>
      </trkpt>
      <trkpt lat="48.67906" lon="-2.31399">
        <ele>62</ele>
        <time>2016-06-24T11:21:24Z</time>
      </trkpt>
      <trkpt lat="48.67909" lon="-2.31398">
        <ele>62</ele>
        <time>2016-06-24T11:21:27Z</time>
      </trkpt>
      <trkpt lat="48.67914" lon="-2.31394">
        <ele>62</ele>
        <time>2016-06-24T11:21:31Z</time>
      </trkpt>
      <trkpt lat="48.67918" lon="-2.31392">
        <ele>62</ele>
        <time>2016-06-24T11:21:34Z</time>
      </trkpt>
      <trkpt lat="48.67921" lon="-2.3139">
        <ele>62</ele>
        <time>2016-06-24T11:21:37Z</time>
      </trkpt>
      <trkpt lat="48.67926" lon="-2.31386">
        <ele>62</ele>
        <time>2016-06-24T11:21:41Z</time>
      </trkpt>
      <trkpt lat="48.67929" lon="-2.31384">
        <ele>62</ele>
        <time>2016-06-24T11:21:44Z</time>
      </trkpt>
      <trkpt lat="48.67933" lon="-2.31381">
        <ele>62</ele>
        <time>2016-06-24T11:21:47Z</time>
      </trkpt>
      <trkpt lat="48.67936" lon="-2.31379">
        <ele>62</ele>
        <time>2016-06-24T11:21:50Z</time>
      </trkpt>
      <trkpt lat="48.67941" lon="-2.31376">
        <ele>62</ele>
        <time>2016-06-24T11:21:53Z</time>
      </trkpt>
      <trkpt lat="48.67945" lon="-2.31374">
        <ele>62</ele>
        <time>2016-06-24T11:21:56Z</time>
      </trkpt>
      <trkpt lat="48.67949" lon="-2.31372">
        <ele>62</ele>
        <time>2016-06-24T11:21:59Z</time>
      </trkpt>
      <trkpt lat="48.67954" lon="-2.31369">
        <ele>62</ele>
        <time>2016-06-24T11:22:02Z</time>
      </trkpt>
      <trkpt lat="48.67958" lon="-2.31365">
        <ele>62</ele>
        <time>2016-06-24T11:22:05Z</time>
      </trkpt>
      <trkpt lat="48.67961" lon="-2.31361">
        <ele>62</ele>
        <time>2016-06-24T11:22:08Z</time>
      </trkpt>
      <trkpt lat="48.67964" lon="-2.31355">
        <ele>62</ele>
        <time>2016-06-24T11:22:11Z</time>
      </trkpt>
      <trkpt lat="48.67966" lon="-2.31349">
        <ele>62</ele>
        <time>2016-06-24T11:22:14Z</time>
      </trkpt>
      <trkpt lat="48.67969" lon="-2.31343">
        <ele>62</ele>
        <time>2016-06-24T11:22:17Z</time>
      </trkpt>
      <trkpt lat="48.67972" lon="-2.31338">
        <ele>62</ele>
        <time>2016-06-24T11:22:20Z</time>
      </trkpt>
      <trkpt lat="48.67977" lon="-2.31337">
        <ele>62</ele>
        <time>2016-06-24T11:22:23Z</time>
      </trkpt>
      <trkpt lat="48.67981" lon="-2.31338">
        <ele>62</ele>
        <time>2016-06-24T11:22:26Z</time>
      </trkpt>
      <trkpt lat="48.67986" lon="-2.3134">
        <ele>62</ele>
        <time>2016-06-24T11:22:29Z</time>
      </trkpt>
      <trkpt lat="48.6799" lon="-2.31342">
        <ele>62</ele>
        <time>2016-06-24T11:22:32Z</time>
      </trkpt>
      <trkpt lat="48.67995" lon="-2.31345">
        <ele>62</ele>
        <time>2016-06-24T11:22:35Z</time>
      </trkpt>
      <trkpt lat="48.67999" lon="-2.31348">
        <ele>62</ele>
        <time>2016-06-24T11:22:38Z</time>
      </trkpt>
      <trkpt lat="48.68003" lon="-2.31352">
        <ele>62</ele>
        <time>2016-06-24T11:22:41Z</time>
      </trkpt>
      <trkpt lat="48.68007" lon="-2.31356">
        <ele>62</ele>
        <time>2016-06-24T11:22:44Z</time>
      </trkpt>
      <trkpt lat="48.68011" lon="-2.31358">
        <ele>62</ele>
        <time>2016-06-24T11:22:47Z</time>
      </trkpt>
      <trkpt lat="48.68015" lon="-2.31359">
        <ele>62</ele>
        <time>2016-06-24T11:22:50Z</time>
      </trkpt>
      <trkpt lat="48.6802" lon="-2.31358">
        <ele>62</ele>
        <time>2016-06-24T11:22:53Z</time>
      </trkpt>
      <trkpt lat="48.68024" lon="-2.31361">
        <ele>62</ele>
        <time>2016-06-24T11:22:56Z</time>
      </trkpt>
      <trkpt lat="48.68029" lon="-2.31363">
        <ele>62</ele>
        <time>2016-06-24T11:22:59Z</time>
      </trkpt>
      <trkpt lat="48.68033" lon="-2.31365">
        <ele>62</ele>
        <time>2016-06-24T11:23:02Z</time>
      </trkpt>
      <trkpt lat="48.68037" lon="-2.31366">
        <ele>62</ele>
        <time>2016-06-24T11:23:05Z</time>
      </trkpt>
      <trkpt lat="48.68042" lon="-2.31367">
        <ele>62</ele>
        <time>2016-06-24T11:23:08Z</time>
      </trkpt>
      <trkpt lat="48.68046" lon="-2.31372">
        <ele>63</ele>
        <time>2016-06-24T11:23:12Z</time>
      </trkpt>
      <trkpt lat="48.6805" lon="-2.31374">
        <ele>64</ele>
        <time>2016-06-24T11:23:16Z</time>
      </trkpt>
      <trkpt lat="48.68054" lon="-2.31377">
        <ele>64</ele>
        <time>2016-06-24T11:23:19Z</time>
      </trkpt>
      <trkpt lat="48.68058" lon="-2.31379">
        <ele>64</ele>
        <time>2016-06-24T11:23:22Z</time>
      </trkpt>
      <trkpt lat="48.68063" lon="-2.31381">
        <ele>64</ele>
        <time>2016-06-24T11:23:25Z</time>
      </trkpt>
      <trkpt lat="48.68067" lon="-2.31384">
        <ele>64</ele>
        <time>2016-06-24T11:23:28Z</time>
      </trkpt>
      <trkpt lat="48.6807" lon="-2.31387">
        <ele>64</ele>
        <time>2016-06-24T11:23:31Z</time>
      </trkpt>
      <trkpt lat="48.68074" lon="-2.3139">
        <ele>65</ele>
        <time>2016-06-24T11:23:34Z</time>
      </trkpt>
      <trkpt lat="48.68079" lon="-2.31392">
        <ele>65</ele>
        <time>2016-06-24T11:23:37Z</time>
      </trkpt>
      <trkpt lat="48.68084" lon="-2.31394">
        <ele>65</ele>
        <time>2016-06-24T11:23:40Z</time>
      </trkpt>
      <trkpt lat="48.68088" lon="-2.31395">
        <ele>65</ele>
        <time>2016-06-24T11:23:43Z</time>
      </trkpt>
      <trkpt lat="48.68093" lon="-2.31397">
        <ele>65</ele>
        <time>2016-06-24T11:23:46Z</time>
      </trkpt>
      <trkpt lat="48.68098" lon="-2.31398">
        <ele>65</ele>
        <time>2016-06-24T11:23:49Z</time>
      </trkpt>
      <trkpt lat="48.68102" lon="-2.31399">
        <ele>65</ele>
        <time>2016-06-24T11:23:52Z</time>
      </trkpt>
      <trkpt lat="48.68106" lon="-2.314">
        <ele>65</ele>
        <time>2016-06-24T11:23:55Z</time>
      </trkpt>
      <trkpt lat="48.68111" lon="-2.314">
        <ele>65</ele>
        <time>2016-06-24T11:23:58Z</time>
      </trkpt>
      <trkpt lat="48.68115" lon="-2.31403">
        <ele>65</ele>
        <time>2016-06-24T11:24:01Z</time>
      </trkpt>
      <trkpt lat="48.68119" lon="-2.31405">
        <ele>65</ele>
        <time>2016-06-24T11:24:04Z</time>
      </trkpt>
      <trkpt lat="48.68124" lon="-2.31407">
        <ele>65</ele>
        <time>2016-06-24T11:24:07Z</time>
      </trkpt>
      <trkpt lat="48.68129" lon="-2.31409">
        <ele>65</ele>
        <time>2016-06-24T11:24:10Z</time>
      </trkpt>
      <trkpt lat="48.68133" lon="-2.31411">
        <ele>65</ele>
        <time>2016-06-24T11:24:13Z</time>
      </trkpt>
      <trkpt lat="48.68138" lon="-2.31413">
        <ele>65</ele>
        <time>2016-06-24T11:24:16Z</time>
      </trkpt>
      <trkpt lat="48.68142" lon="-2.31415">
        <ele>65</ele>
        <time>2016-06-24T11:24:19Z</time>
      </trkpt>
      <trkpt lat="48.68147" lon="-2.31417">
        <ele>65</ele>
        <time>2016-06-24T11:24:22Z</time>
      </trkpt>
      <trkpt lat="48.68151" lon="-2.31418">
        <ele>65</ele>
        <time>2016-06-24T11:24:25Z</time>
      </trkpt>
      <trkpt lat="48.68156" lon="-2.31419">
        <ele>65</ele>
        <time>2016-06-24T11:24:28Z</time>
      </trkpt>
      <trkpt lat="48.68161" lon="-2.31421">
        <ele>65</ele>
        <time>2016-06-24T11:24:31Z</time>
      </trkpt>
      <trkpt lat="48.68164" lon="-2.31425">
        <ele>65</ele>
        <time>2016-06-24T11:24:34Z</time>
      </trkpt>
      <trkpt lat="48.68167" lon="-2.31431">
        <ele>65</ele>
        <time>2016-06-24T11:24:38Z</time>
      </trkpt>
      <trkpt lat="48.68172" lon="-2.31434">
        <ele>65</ele>
        <time>2016-06-24T11:24:42Z</time>
      </trkpt>
      <trkpt lat="48.68176" lon="-2.31435">
        <ele>65</ele>
        <time>2016-06-24T11:24:45Z</time>
      </trkpt>
      <trkpt lat="48.6818" lon="-2.31437">
        <ele>65</ele>
        <time>2016-06-24T11:24:48Z</time>
      </trkpt>
      <trkpt lat="48.68184" lon="-2.3144">
        <ele>65</ele>
        <time>2016-06-24T11:24:51Z</time>
      </trkpt>
      <trkpt lat="48.68187" lon="-2.31443">
        <ele>65</ele>
        <time>2016-06-24T11:24:54Z</time>
      </trkpt>
      <trkpt lat="48.68192" lon="-2.31448">
        <ele>65</ele>
        <time>2016-06-24T11:24:58Z</time>
      </trkpt>
      <trkpt lat="48.68195" lon="-2.31452">
        <ele>65</ele>
        <time>2016-06-24T11:25:01Z</time>
      </trkpt>
      <trkpt lat="48.682" lon="-2.31455">
        <ele>65</ele>
        <time>2016-06-24T11:25:04Z</time>
      </trkpt>
      <trkpt lat="48.68204" lon="-2.31457">
        <ele>65</ele>
        <time>2016-06-24T11:25:07Z</time>
      </trkpt>
      <trkpt lat="48.68208" lon="-2.31462">
        <ele>65</ele>
        <time>2016-06-24T11:25:10Z</time>
      </trkpt>
      <trkpt lat="48.68212" lon="-2.31464">
        <ele>65</ele>
        <time>2016-06-24T11:25:13Z</time>
      </trkpt>
      <trkpt lat="48.68216" lon="-2.31465">
        <ele>65</ele>
        <time>2016-06-24T11:25:16Z</time>
      </trkpt>
      <trkpt lat="48.68221" lon="-2.31468">
        <ele>65</ele>
        <time>2016-06-24T11:25:20Z</time>
      </trkpt>
      <trkpt lat="48.68224" lon="-2.31471">
        <ele>65</ele>
        <time>2016-06-24T11:25:23Z</time>
      </trkpt>
      <trkpt lat="48.68228" lon="-2.31476">
        <ele>65</ele>
        <time>2016-06-24T11:25:26Z</time>
      </trkpt>
      <trkpt lat="48.68232" lon="-2.31478">
        <ele>65</ele>
        <time>2016-06-24T11:25:29Z</time>
      </trkpt>
      <trkpt lat="48.68236" lon="-2.3148">
        <ele>65</ele>
        <time>2016-06-24T11:25:32Z</time>
      </trkpt>
      <trkpt lat="48.6824" lon="-2.31484">
        <ele>65</ele>
        <time>2016-06-24T11:25:35Z</time>
      </trkpt>
      <trkpt lat="48.68243" lon="-2.31488">
        <ele>65</ele>
        <time>2016-06-24T11:25:39Z</time>
      </trkpt>
      <trkpt lat="48.68246" lon="-2.3149">
        <ele>65</ele>
        <time>2016-06-24T11:25:42Z</time>
      </trkpt>
      <trkpt lat="48.6825" lon="-2.31492">
        <ele>65</ele>
        <time>2016-06-24T11:25:45Z</time>
      </trkpt>
      <trkpt lat="48.68254" lon="-2.31495">
        <ele>65</ele>
        <time>2016-06-24T11:25:48Z</time>
      </trkpt>
      <trkpt lat="48.68258" lon="-2.31498">
        <ele>65</ele>
        <time>2016-06-24T11:25:51Z</time>
      </trkpt>
      <trkpt lat="48.68261" lon="-2.31502">
        <ele>65</ele>
        <time>2016-06-24T11:25:54Z</time>
      </trkpt>
      <trkpt lat="48.68266" lon="-2.31505">
        <ele>65</ele>
        <time>2016-06-24T11:25:57Z</time>
      </trkpt>
      <trkpt lat="48.6827" lon="-2.31507">
        <ele>65</ele>
        <time>2016-06-24T11:26:00Z</time>
      </trkpt>
      <trkpt lat="48.68274" lon="-2.3151">
        <ele>65</ele>
        <time>2016-06-24T11:26:03Z</time>
      </trkpt>
      <trkpt lat="48.68279" lon="-2.31513">
        <ele>65</ele>
        <time>2016-06-24T11:26:06Z</time>
      </trkpt>
      <trkpt lat="48.68283" lon="-2.31516">
        <ele>65</ele>
        <time>2016-06-24T11:26:09Z</time>
      </trkpt>
      <trkpt lat="48.68288" lon="-2.31518">
        <ele>65</ele>
        <time>2016-06-24T11:26:12Z</time>
      </trkpt>
      <trkpt lat="48.68292" lon="-2.3152">
        <ele>65</ele>
        <time>2016-06-24T11:26:15Z</time>
      </trkpt>
      <trkpt lat="48.68297" lon="-2.3152">
        <ele>65</ele>
        <time>2016-06-24T11:26:18Z</time>
      </trkpt>
      <trkpt lat="48.68302" lon="-2.31522">
        <ele>65</ele>
        <time>2016-06-24T11:26:21Z</time>
      </trkpt>
      <trkpt lat="48.68306" lon="-2.31523">
        <ele>65</ele>
        <time>2016-06-24T11:26:24Z</time>
      </trkpt>
      <trkpt lat="48.6831" lon="-2.31524">
        <ele>65</ele>
        <time>2016-06-24T11:26:27Z</time>
      </trkpt>
      <trkpt lat="48.68314" lon="-2.31526">
        <ele>65</ele>
        <time>2016-06-24T11:26:30Z</time>
      </trkpt>
      <trkpt lat="48.68318" lon="-2.31527">
        <ele>65</ele>
        <time>2016-06-24T11:26:33Z</time>
      </trkpt>
      <trkpt lat="48.68321" lon="-2.31529">
        <ele>65</ele>
        <time>2016-06-24T11:26:36Z</time>
      </trkpt>
      <trkpt lat="48.68325" lon="-2.31528">
        <ele>65</ele>
        <time>2016-06-24T11:26:40Z</time>
      </trkpt>
      <trkpt lat="48.68328" lon="-2.31527">
        <ele>65</ele>
        <time>2016-06-24T11:26:43Z</time>
      </trkpt>
      <trkpt lat="48.68332" lon="-2.31525">
        <ele>65</ele>
        <time>2016-06-24T11:26:46Z</time>
      </trkpt>
      <trkpt lat="48.68336" lon="-2.31523">
        <ele>65</ele>
        <time>2016-06-24T11:26:49Z</time>
      </trkpt>
      <trkpt lat="48.68341" lon="-2.31521">
        <ele>65</ele>
        <time>2016-06-24T11:26:53Z</time>
      </trkpt>
      <trkpt lat="48.68344" lon="-2.31519">
        <ele>65</ele>
        <time>2016-06-24T11:26:56Z</time>
      </trkpt>
      <trkpt lat="48.68348" lon="-2.31516">
        <ele>65</ele>
        <time>2016-06-24T11:26:59Z</time>
      </trkpt>
      <trkpt lat="48.68351" lon="-2.31513">
        <ele>65</ele>
        <time>2016-06-24T11:27:02Z</time>
      </trkpt>
      <trkpt lat="48.68356" lon="-2.31512">
        <ele>65</ele>
        <time>2016-06-24T11:27:05Z</time>
      </trkpt>
      <trkpt lat="48.6836" lon="-2.31512">
        <ele>65</ele>
        <time>2016-06-24T11:27:08Z</time>
      </trkpt>
      <trkpt lat="48.68364" lon="-2.3151">
        <ele>65</ele>
        <time>2016-06-24T11:27:11Z</time>
      </trkpt>
      <trkpt lat="48.68369" lon="-2.31509">
        <ele>65</ele>
        <time>2016-06-24T11:27:14Z</time>
      </trkpt>
      <trkpt lat="48.68373" lon="-2.3151">
        <ele>65</ele>
        <time>2016-06-24T11:27:17Z</time>
      </trkpt>
      <trkpt lat="48.68377" lon="-2.31513">
        <ele>65</ele>
        <time>2016-06-24T11:27:20Z</time>
      </trkpt>
      <trkpt lat="48.68381" lon="-2.31514">
        <ele>65</ele>
        <time>2016-06-24T11:27:23Z</time>
      </trkpt>
      <trkpt lat="48.68384" lon="-2.31516">
        <ele>65</ele>
        <time>2016-06-24T11:27:26Z</time>
      </trkpt>
      <trkpt lat="48.68388" lon="-2.31517">
        <ele>65</ele>
        <time>2016-06-24T11:27:30Z</time>
      </trkpt>
      <trkpt lat="48.68391" lon="-2.31519">
        <ele>64</ele>
        <time>2016-06-24T11:27:33Z</time>
      </trkpt>
      <trkpt lat="48.68396" lon="-2.3152">
        <ele>64</ele>
        <time>2016-06-24T11:27:36Z</time>
      </trkpt>
      <trkpt lat="48.684" lon="-2.31524">
        <ele>64</ele>
        <time>2016-06-24T11:27:40Z</time>
      </trkpt>
      <trkpt lat="48.68404" lon="-2.31527">
        <ele>64</ele>
        <time>2016-06-24T11:27:43Z</time>
      </trkpt>
      <trkpt lat="48.68407" lon="-2.31529">
        <ele>64</ele>
        <time>2016-06-24T11:27:46Z</time>
      </trkpt>
      <trkpt lat="48.68411" lon="-2.31529">
        <ele>64</ele>
        <time>2016-06-24T11:27:49Z</time>
      </trkpt>
      <trkpt lat="48.68415" lon="-2.31529">
        <ele>64</ele>
        <time>2016-06-24T11:27:52Z</time>
      </trkpt>
      <trkpt lat="48.6842" lon="-2.31528">
        <ele>64</ele>
        <time>2016-06-24T11:27:55Z</time>
      </trkpt>
      <trkpt lat="48.68424" lon="-2.31527">
        <ele>64</ele>
        <time>2016-06-24T11:27:58Z</time>
      </trkpt>
      <trkpt lat="48.68428" lon="-2.31527">
        <ele>64</ele>
        <time>2016-06-24T11:28:01Z</time>
      </trkpt>
      <trkpt lat="48.68432" lon="-2.31527">
        <ele>64</ele>
        <time>2016-06-24T11:28:04Z</time>
      </trkpt>
      <trkpt lat="48.68436" lon="-2.31527">
        <ele>64</ele>
        <time>2016-06-24T11:28:08Z</time>
      </trkpt>
      <trkpt lat="48.68441" lon="-2.31526">
        <ele>64</ele>
        <time>2016-06-24T11:28:11Z</time>
      </trkpt>
      <trkpt lat="48.68444" lon="-2.31527">
        <ele>63</ele>
        <time>2016-06-24T11:28:14Z</time>
      </trkpt>
      <trkpt lat="48.68448" lon="-2.31528">
        <ele>63</ele>
        <time>2016-06-24T11:28:17Z</time>
      </trkpt>
      <trkpt lat="48.68452" lon="-2.3153">
        <ele>63</ele>
        <time>2016-06-24T11:28:20Z</time>
      </trkpt>
      <trkpt lat="48.68455" lon="-2.31534">
        <ele>63</ele>
        <time>2016-06-24T11:28:23Z</time>
      </trkpt>
      <trkpt lat="48.68458" lon="-2.31538">
        <ele>62</ele>
        <time>2016-06-24T11:28:26Z</time>
      </trkpt>
      <trkpt lat="48.68462" lon="-2.31543">
        <ele>62</ele>
        <time>2016-06-24T11:28:30Z</time>
      </trkpt>
      <trkpt lat="48.68466" lon="-2.31549">
        <ele>62</ele>
        <time>2016-06-24T11:28:34Z</time>
      </trkpt>
      <trkpt lat="48.6847" lon="-2.31553">
        <ele>62</ele>
        <time>2016-06-24T11:28:38Z</time>
      </trkpt>
      <trkpt lat="48.68474" lon="-2.31558">
        <ele>62</ele>
        <time>2016-06-24T11:28:42Z</time>
      </trkpt>
      <trkpt lat="48.68479" lon="-2.31563">
        <ele>62</ele>
        <time>2016-06-24T11:28:46Z</time>
      </trkpt>
      <trkpt lat="48.68482" lon="-2.31568">
        <ele>62</ele>
        <time>2016-06-24T11:28:50Z</time>
      </trkpt>
      <trkpt lat="48.68484" lon="-2.31571">
        <ele>62</ele>
        <time>2016-06-24T11:28:53Z</time>
      </trkpt>
      <trkpt lat="48.68488" lon="-2.31574">
        <ele>62</ele>
        <time>2016-06-24T11:28:56Z</time>
      </trkpt>
      <trkpt lat="48.6849" lon="-2.31577">
        <ele>62</ele>
        <time>2016-06-24T11:29:00Z</time>
      </trkpt>
      <trkpt lat="48.68494" lon="-2.31578">
        <ele>62</ele>
        <time>2016-06-24T11:29:04Z</time>
      </trkpt>
      <trkpt lat="48.68497" lon="-2.31579">
        <ele>62</ele>
        <time>2016-06-24T11:29:08Z</time>
      </trkpt>
      <trkpt lat="48.68499" lon="-2.31581">
        <ele>62</ele>
        <time>2016-06-24T11:29:12Z</time>
      </trkpt>
      <trkpt lat="48.68499" lon="-2.31583">
        <ele>60</ele>
        <time>2016-06-24T11:30:14Z</time>
      </trkpt>
      <trkpt lat="48.68498" lon="-2.31584">
        <ele>60</ele>
        <time>2016-06-24T11:30:19Z</time>
      </trkpt>
      <trkpt lat="48.68499" lon="-2.31582">
        <ele>60</ele>
        <time>2016-06-24T11:31:52Z</time>
      </trkpt>
      <trkpt lat="48.68502" lon="-2.31579">
        <ele>60</ele>
        <time>2016-06-24T11:31:57Z</time>
      </trkpt>
      <trkpt lat="48.685" lon="-2.31578">
        <ele>60</ele>
        <time>2016-06-24T11:32:09Z</time>
      </trkpt>
      <trkpt lat="48.68498" lon="-2.31574">
        <ele>60</ele>
        <time>2016-06-24T11:32:13Z</time>
      </trkpt>
      <trkpt lat="48.68497" lon="-2.31572">
        <ele>60</ele>
        <time>2016-06-24T11:32:16Z</time>
      </trkpt>
      <trkpt lat="48.68499" lon="-2.31571">
        <ele>60</ele>
        <time>2016-06-24T11:32:20Z</time>
      </trkpt>
      <trkpt lat="48.685" lon="-2.3157">
        <ele>60</ele>
        <time>2016-06-24T11:32:35Z</time>
      </trkpt>
      <trkpt lat="48.68499" lon="-2.31573">
        <ele>60</ele>
        <time>2016-06-24T11:32:53Z</time>
      </trkpt>
      <trkpt lat="48.68497" lon="-2.31578">
        <ele>60</ele>
        <time>2016-06-24T11:32:57Z</time>
      </trkpt>
      <trkpt lat="48.68497" lon="-2.31582">
        <ele>60</ele>
        <time>2016-06-24T11:33:01Z</time>
      </trkpt>
      <trkpt lat="48.68498" lon="-2.31583">
        <ele>60</ele>
        <time>2016-06-24T11:33:36Z</time>
      </trkpt>
      <trkpt lat="48.68499" lon="-2.31581">
        <ele>60</ele>
        <time>2016-06-24T11:33:44Z</time>
      </trkpt>
      <trkpt lat="48.685" lon="-2.31582">
        <ele>60</ele>
        <time>2016-06-24T11:33:54Z</time>
      </trkpt>
      <trkpt lat="48.68503" lon="-2.31584">
        <ele>60</ele>
        <time>2016-06-24T11:34:00Z</time>
      </trkpt>
      <trkpt lat="48.68506" lon="-2.31586">
        <ele>60</ele>
        <time>2016-06-24T11:34:04Z</time>
      </trkpt>
      <trkpt lat="48.6851" lon="-2.31589">
        <ele>60</ele>
        <time>2016-06-24T11:34:08Z</time>
      </trkpt>
      <trkpt lat="48.68511" lon="-2.31593">
        <ele>60</ele>
        <time>2016-06-24T11:34:11Z</time>
      </trkpt>
      <trkpt lat="48.68511" lon="-2.31598">
        <ele>60</ele>
        <time>2016-06-24T11:34:15Z</time>
      </trkpt>
      <trkpt lat="48.68512" lon="-2.31603">
        <ele>60</ele>
        <time>2016-06-24T11:34:20Z</time>
      </trkpt>
      <trkpt lat="48.68512" lon="-2.31606">
        <ele>60</ele>
        <time>2016-06-24T11:34:23Z</time>
      </trkpt>
      <trkpt lat="48.68513" lon="-2.3161">
        <ele>60</ele>
        <time>2016-06-24T11:34:27Z</time>
      </trkpt>
      <trkpt lat="48.68516" lon="-2.31613">
        <ele>60</ele>
        <time>2016-06-24T11:34:31Z</time>
      </trkpt>
      <trkpt lat="48.6852" lon="-2.31617">
        <ele>60</ele>
        <time>2016-06-24T11:34:35Z</time>
      </trkpt>
      <trkpt lat="48.68523" lon="-2.31619">
        <ele>60</ele>
        <time>2016-06-24T11:34:39Z</time>
      </trkpt>
      <trkpt lat="48.68526" lon="-2.31623">
        <ele>60</ele>
        <time>2016-06-24T11:34:43Z</time>
      </trkpt>
      <trkpt lat="48.68529" lon="-2.31627">
        <ele>60</ele>
        <time>2016-06-24T11:34:47Z</time>
      </trkpt>
      <trkpt lat="48.68532" lon="-2.31632">
        <ele>60</ele>
        <time>2016-06-24T11:34:51Z</time>
      </trkpt>
      <trkpt lat="48.68534" lon="-2.31637">
        <ele>60</ele>
        <time>2016-06-24T11:34:55Z</time>
      </trkpt>
      <trkpt lat="48.68536" lon="-2.3164">
        <ele>60</ele>
        <time>2016-06-24T11:34:59Z</time>
      </trkpt>
      <trkpt lat="48.68539" lon="-2.31644">
        <ele>60</ele>
        <time>2016-06-24T11:35:03Z</time>
      </trkpt>
      <trkpt lat="48.68541" lon="-2.31648">
        <ele>60</ele>
        <time>2016-06-24T11:35:07Z</time>
      </trkpt>
      <trkpt lat="48.68543" lon="-2.31653">
        <ele>60</ele>
        <time>2016-06-24T11:35:11Z</time>
      </trkpt>
      <trkpt lat="48.68547" lon="-2.31658">
        <ele>60</ele>
        <time>2016-06-24T11:35:15Z</time>
      </trkpt>
      <trkpt lat="48.68549" lon="-2.31663">
        <ele>60</ele>
        <time>2016-06-24T11:35:19Z</time>
      </trkpt>
      <trkpt lat="48.68552" lon="-2.31666">
        <ele>60</ele>
        <time>2016-06-24T11:35:23Z</time>
      </trkpt>
      <trkpt lat="48.68555" lon="-2.31667">
        <ele>60</ele>
        <time>2016-06-24T11:35:26Z</time>
      </trkpt>
      <trkpt lat="48.68558" lon="-2.31665">
        <ele>60</ele>
        <time>2016-06-24T11:35:29Z</time>
      </trkpt>
      <trkpt lat="48.68562" lon="-2.31662">
        <ele>60</ele>
        <time>2016-06-24T11:35:32Z</time>
      </trkpt>
      <trkpt lat="48.68565" lon="-2.3166">
        <ele>60</ele>
        <time>2016-06-24T11:35:35Z</time>
      </trkpt>
      <trkpt lat="48.68568" lon="-2.31655">
        <ele>60</ele>
        <time>2016-06-24T11:35:39Z</time>
      </trkpt>
      <trkpt lat="48.68571" lon="-2.3165">
        <ele>60</ele>
        <time>2016-06-24T11:35:43Z</time>
      </trkpt>
      <trkpt lat="48.68575" lon="-2.31646">
        <ele>60</ele>
        <time>2016-06-24T11:35:47Z</time>
      </trkpt>
      <trkpt lat="48.68579" lon="-2.31644">
        <ele>60</ele>
        <time>2016-06-24T11:35:51Z</time>
      </trkpt>
      <trkpt lat="48.68583" lon="-2.31642">
        <ele>60</ele>
        <time>2016-06-24T11:35:54Z</time>
      </trkpt>
      <trkpt lat="48.68587" lon="-2.3164">
        <ele>60</ele>
        <time>2016-06-24T11:35:58Z</time>
      </trkpt>
      <trkpt lat="48.68591" lon="-2.31638">
        <ele>60</ele>
        <time>2016-06-24T11:36:02Z</time>
      </trkpt>
      <trkpt lat="48.68595" lon="-2.31637">
        <ele>60</ele>
        <time>2016-06-24T11:36:06Z</time>
      </trkpt>
      <trkpt lat="48.68598" lon="-2.31637">
        <ele>60</ele>
        <time>2016-06-24T11:36:09Z</time>
      </trkpt>
      <trkpt lat="48.68601" lon="-2.31637">
        <ele>60</ele>
        <time>2016-06-24T11:36:13Z</time>
      </trkpt>
      <trkpt lat="48.68603" lon="-2.31634">
        <ele>60</ele>
        <time>2016-06-24T11:36:35Z</time>
      </trkpt>
      <trkpt lat="48.68604" lon="-2.31634">
        <ele>60</ele>
        <time>2016-06-24T11:36:38Z</time>
      </trkpt>
      <trkpt lat="48.68605" lon="-2.31636">
        <ele>60</ele>
        <time>2016-06-24T11:36:58Z</time>
      </trkpt>
      <trkpt lat="48.68606" lon="-2.31637">
        <ele>60</ele>
        <time>2016-06-24T11:37:14Z</time>
      </trkpt>
      <trkpt lat="48.68608" lon="-2.31637">
        <ele>60</ele>
        <time>2016-06-24T11:37:18Z</time>
      </trkpt>
      <trkpt lat="48.6861" lon="-2.31636">
        <ele>60</ele>
        <time>2016-06-24T11:37:31Z</time>
      </trkpt>
      <trkpt lat="48.68612" lon="-2.31637">
        <ele>60</ele>
        <time>2016-06-24T11:37:35Z</time>
      </trkpt>
      <trkpt lat="48.68615" lon="-2.31637">
        <ele>60</ele>
        <time>2016-06-24T11:38:41Z</time>
      </trkpt>
      <trkpt lat="48.68616" lon="-2.31637">
        <ele>60</ele>
        <time>2016-06-24T11:39:38Z</time>
      </trkpt>
      <trkpt lat="48.6862" lon="-2.31637">
        <ele>60</ele>
        <time>2016-06-24T11:39:42Z</time>
      </trkpt>
      <trkpt lat="48.68622" lon="-2.3164">
        <ele>60</ele>
        <time>2016-06-24T11:39:46Z</time>
      </trkpt>
      <trkpt lat="48.68625" lon="-2.31641">
        <ele>60</ele>
        <time>2016-06-24T11:39:50Z</time>
      </trkpt>
      <trkpt lat="48.68626" lon="-2.31642">
        <ele>60</ele>
        <time>2016-06-24T11:39:53Z</time>
      </trkpt>
      <trkpt lat="48.68628" lon="-2.31644">
        <ele>60</ele>
        <time>2016-06-24T11:39:56Z</time>
      </trkpt>
      <trkpt lat="48.68631" lon="-2.31646">
        <ele>60</ele>
        <time>2016-06-24T11:40:00Z</time>
      </trkpt>
      <trkpt lat="48.68635" lon="-2.31647">
        <ele>60</ele>
        <time>2016-06-24T11:40:04Z</time>
      </trkpt>
      <trkpt lat="48.68638" lon="-2.31648">
        <ele>60</ele>
        <time>2016-06-24T11:40:07Z</time>
      </trkpt>
      <trkpt lat="48.68642" lon="-2.31648">
        <ele>60</ele>
        <time>2016-06-24T11:40:10Z</time>
      </trkpt>
      <trkpt lat="48.68645" lon="-2.31647">
        <ele>60</ele>
        <time>2016-06-24T11:40:14Z</time>
      </trkpt>
      <trkpt lat="48.68649" lon="-2.31647">
        <ele>60</ele>
        <time>2016-06-24T11:40:17Z</time>
      </trkpt>
      <trkpt lat="48.68652" lon="-2.31648">
        <ele>60</ele>
        <time>2016-06-24T11:40:21Z</time>
      </trkpt>
      <trkpt lat="48.68654" lon="-2.31648">
        <ele>60</ele>
        <time>2016-06-24T11:40:25Z</time>
      </trkpt>
      <trkpt lat="48.68658" lon="-2.31649">
        <ele>60</ele>
        <time>2016-06-24T11:40:29Z</time>
      </trkpt>
      <trkpt lat="48.68661" lon="-2.31647">
        <ele>60</ele>
        <time>2016-06-24T11:40:32Z</time>
      </trkpt>
      <trkpt lat="48.68666" lon="-2.3165">
        <ele>60</ele>
        <time>2016-06-24T11:40:36Z</time>
      </trkpt>
      <trkpt lat="48.68669" lon="-2.31652">
        <ele>60</ele>
        <time>2016-06-24T11:40:39Z</time>
      </trkpt>
      <trkpt lat="48.68674" lon="-2.31654">
        <ele>60</ele>
        <time>2016-06-24T11:40:43Z</time>
      </trkpt>
      <trkpt lat="48.68678" lon="-2.31655">
        <ele>60</ele>
        <time>2016-06-24T11:40:46Z</time>
      </trkpt>
      <trkpt lat="48.68682" lon="-2.31655">
        <ele>60</ele>
        <time>2016-06-24T11:40:49Z</time>
      </trkpt>
      <trkpt lat="48.68686" lon="-2.31655">
        <ele>60</ele>
        <time>2016-06-24T11:40:52Z</time>
      </trkpt>
      <trkpt lat="48.6869" lon="-2.31657">
        <ele>60</ele>
        <time>2016-06-24T11:40:56Z</time>
      </trkpt>
      <trkpt lat="48.68692" lon="-2.3166">
        <ele>60</ele>
        <time>2016-06-24T11:41:00Z</time>
      </trkpt>
      <trkpt lat="48.68694" lon="-2.31662">
        <ele>60</ele>
        <time>2016-06-24T11:41:07Z</time>
      </trkpt>
      <trkpt lat="48.68696" lon="-2.31666">
        <ele>60</ele>
        <time>2016-06-24T11:41:10Z</time>
      </trkpt>
      <trkpt lat="48.68699" lon="-2.31671">
        <ele>60</ele>
        <time>2016-06-24T11:41:14Z</time>
      </trkpt>
      <trkpt lat="48.68703" lon="-2.31674">
        <ele>60</ele>
        <time>2016-06-24T11:41:18Z</time>
      </trkpt>
      <trkpt lat="48.68702" lon="-2.31674">
        <ele>60</ele>
        <time>2016-06-24T11:41:30Z</time>
      </trkpt>
      <trkpt lat="48.68703" lon="-2.31674">
        <ele>60</ele>
        <time>2016-06-24T11:41:37Z</time>
      </trkpt>
      <trkpt lat="48.68707" lon="-2.31677">
        <ele>60</ele>
        <time>2016-06-24T11:41:41Z</time>
      </trkpt>
      <trkpt lat="48.6871" lon="-2.3168">
        <ele>60</ele>
        <time>2016-06-24T11:41:45Z</time>
      </trkpt>
      <trkpt lat="48.68714" lon="-2.31683">
        <ele>60</ele>
        <time>2016-06-24T11:41:49Z</time>
      </trkpt>
      <trkpt lat="48.68717" lon="-2.31685">
        <ele>60</ele>
        <time>2016-06-24T11:41:53Z</time>
      </trkpt>
      <trkpt lat="48.6872" lon="-2.31686">
        <ele>60</ele>
        <time>2016-06-24T11:41:56Z</time>
      </trkpt>
      <trkpt lat="48.68724" lon="-2.31687">
        <ele>60</ele>
        <time>2016-06-24T11:41:59Z</time>
      </trkpt>
      <trkpt lat="48.68728" lon="-2.31688">
        <ele>60</ele>
        <time>2016-06-24T11:42:03Z</time>
      </trkpt>
      <trkpt lat="48.6873" lon="-2.31692">
        <ele>60</ele>
        <time>2016-06-24T11:42:10Z</time>
      </trkpt>
      <trkpt lat="48.68731" lon="-2.31693">
        <ele>60</ele>
        <time>2016-06-24T11:42:13Z</time>
      </trkpt>
      <trkpt lat="48.68735" lon="-2.31695">
        <ele>60</ele>
        <time>2016-06-24T11:42:17Z</time>
      </trkpt>
      <trkpt lat="48.68739" lon="-2.31699">
        <ele>60</ele>
        <time>2016-06-24T11:42:21Z</time>
      </trkpt>
      <trkpt lat="48.68743" lon="-2.31703">
        <ele>60</ele>
        <time>2016-06-24T11:42:25Z</time>
      </trkpt>
      <trkpt lat="48.68746" lon="-2.31706">
        <ele>60</ele>
        <time>2016-06-24T11:42:29Z</time>
      </trkpt>
      <trkpt lat="48.68749" lon="-2.31708">
        <ele>60</ele>
        <time>2016-06-24T11:42:33Z</time>
      </trkpt>
      <trkpt lat="48.68752" lon="-2.31709">
        <ele>60</ele>
        <time>2016-06-24T11:42:37Z</time>
      </trkpt>
      <trkpt lat="48.68755" lon="-2.31712">
        <ele>60</ele>
        <time>2016-06-24T11:42:41Z</time>
      </trkpt>
      <trkpt lat="48.68755" lon="-2.31714">
        <ele>60</ele>
        <time>2016-06-24T11:42:46Z</time>
      </trkpt>
      <trkpt lat="48.68757" lon="-2.31718">
        <ele>60</ele>
        <time>2016-06-24T11:42:51Z</time>
      </trkpt>
      <trkpt lat="48.68758" lon="-2.31722">
        <ele>60</ele>
        <time>2016-06-24T11:42:55Z</time>
      </trkpt>
      <trkpt lat="48.68759" lon="-2.31723">
        <ele>60</ele>
        <time>2016-06-24T11:43:00Z</time>
      </trkpt>
      <trkpt lat="48.6876" lon="-2.31727">
        <ele>60</ele>
        <time>2016-06-24T11:43:05Z</time>
      </trkpt>
      <trkpt lat="48.68763" lon="-2.31731">
        <ele>60</ele>
        <time>2016-06-24T11:43:10Z</time>
      </trkpt>
      <trkpt lat="48.68765" lon="-2.31735">
        <ele>60</ele>
        <time>2016-06-24T11:43:18Z</time>
      </trkpt>
      <trkpt lat="48.68768" lon="-2.31737">
        <ele>60</ele>
        <time>2016-06-24T11:43:22Z</time>
      </trkpt>
      <trkpt lat="48.68769" lon="-2.31741">
        <ele>60</ele>
        <time>2016-06-24T11:43:33Z</time>
      </trkpt>
      <trkpt lat="48.68769" lon="-2.31746">
        <ele>60</ele>
        <time>2016-06-24T11:43:37Z</time>
      </trkpt>
      <trkpt lat="48.68768" lon="-2.31752">
        <ele>60</ele>
        <time>2016-06-24T11:43:41Z</time>
      </trkpt>
      <trkpt lat="48.68768" lon="-2.31756">
        <ele>60</ele>
        <time>2016-06-24T11:43:44Z</time>
      </trkpt>
      <trkpt lat="48.68767" lon="-2.3176">
        <ele>60</ele>
        <time>2016-06-24T11:43:48Z</time>
      </trkpt>
      <trkpt lat="48.68768" lon="-2.31762">
        <ele>60</ele>
        <time>2016-06-24T11:43:52Z</time>
      </trkpt>
      <trkpt lat="48.68769" lon="-2.31763">
        <ele>60</ele>
        <time>2016-06-24T11:43:55Z</time>
      </trkpt>
      <trkpt lat="48.6877" lon="-2.31764">
        <ele>60</ele>
        <time>2016-06-24T11:43:58Z</time>
      </trkpt>
      <trkpt lat="48.68773" lon="-2.31764">
        <ele>60</ele>
        <time>2016-06-24T11:44:02Z</time>
      </trkpt>
      <trkpt lat="48.68773" lon="-2.31768">
        <ele>60</ele>
        <time>2016-06-24T11:44:06Z</time>
      </trkpt>
      <trkpt lat="48.68773" lon="-2.31769">
        <ele>60</ele>
        <time>2016-06-24T11:44:09Z</time>
      </trkpt>
      <trkpt lat="48.68774" lon="-2.31771">
        <ele>60</ele>
        <time>2016-06-24T11:44:18Z</time>
      </trkpt>
      <trkpt lat="48.68774" lon="-2.31775">
        <ele>60</ele>
        <time>2016-06-24T11:44:22Z</time>
      </trkpt>
      <trkpt lat="48.68775" lon="-2.31779">
        <ele>60</ele>
        <time>2016-06-24T11:45:28Z</time>
      </trkpt>
      <trkpt lat="48.68775" lon="-2.31782">
        <ele>60</ele>
        <time>2016-06-24T11:45:35Z</time>
      </trkpt>
      <trkpt lat="48.68774" lon="-2.31784">
        <ele>60</ele>
        <time>2016-06-24T11:46:07Z</time>
      </trkpt>
      <trkpt lat="48.68772" lon="-2.31784">
        <ele>60</ele>
        <time>2016-06-24T11:46:10Z</time>
      </trkpt>
      <trkpt lat="48.68769" lon="-2.31784">
        <ele>60</ele>
        <time>2016-06-24T11:46:14Z</time>
      </trkpt>
      <trkpt lat="48.68767" lon="-2.31785">
        <ele>60</ele>
        <time>2016-06-24T11:46:18Z</time>
      </trkpt>
      <trkpt lat="48.68766" lon="-2.31784">
        <ele>60</ele>
        <time>2016-06-24T11:46:21Z</time>
      </trkpt>
      <trkpt lat="48.68764" lon="-2.31784">
        <ele>60</ele>
        <time>2016-06-24T11:46:31Z</time>
      </trkpt>
      <trkpt lat="48.68763" lon="-2.31783">
        <ele>60</ele>
        <time>2016-06-24T11:46:34Z</time>
      </trkpt>
      <trkpt lat="48.6876" lon="-2.31782">
        <ele>60</ele>
        <time>2016-06-24T11:46:38Z</time>
      </trkpt>
      <trkpt lat="48.68756" lon="-2.31781">
        <ele>60</ele>
        <time>2016-06-24T11:46:42Z</time>
      </trkpt>
      <trkpt lat="48.68752" lon="-2.31781">
        <ele>60</ele>
        <time>2016-06-24T11:46:46Z</time>
      </trkpt>
      <trkpt lat="48.68748" lon="-2.31781">
        <ele>60</ele>
        <time>2016-06-24T11:46:50Z</time>
      </trkpt>
      <trkpt lat="48.68745" lon="-2.31779">
        <ele>60</ele>
        <time>2016-06-24T11:46:54Z</time>
      </trkpt>
      <trkpt lat="48.68742" lon="-2.31777">
        <ele>60</ele>
        <time>2016-06-24T11:46:58Z</time>
      </trkpt>
      <trkpt lat="48.68739" lon="-2.31776">
        <ele>60</ele>
        <time>2016-06-24T11:47:01Z</time>
      </trkpt>
      <trkpt lat="48.68736" lon="-2.31775">
        <ele>60</ele>
        <time>2016-06-24T11:47:04Z</time>
      </trkpt>
      <trkpt lat="48.68732" lon="-2.31775">
        <ele>60</ele>
        <time>2016-06-24T11:47:07Z</time>
      </trkpt>
      <trkpt lat="48.68728" lon="-2.31775">
        <ele>60</ele>
        <time>2016-06-24T11:47:11Z</time>
      </trkpt>
      <trkpt lat="48.68725" lon="-2.31775">
        <ele>60</ele>
        <time>2016-06-24T11:47:14Z</time>
      </trkpt>
      <trkpt lat="48.68721" lon="-2.31776">
        <ele>60</ele>
        <time>2016-06-24T11:47:17Z</time>
      </trkpt>
      <trkpt lat="48.68717" lon="-2.31776">
        <ele>60</ele>
        <time>2016-06-24T11:47:20Z</time>
      </trkpt>
      <trkpt lat="48.68713" lon="-2.31777">
        <ele>60</ele>
        <time>2016-06-24T11:47:24Z</time>
      </trkpt>
      <trkpt lat="48.68712" lon="-2.31777">
        <ele>60</ele>
        <time>2016-06-24T11:47:27Z</time>
      </trkpt>
      <trkpt lat="48.68713" lon="-2.31779">
        <ele>60</ele>
        <time>2016-06-24T11:47:32Z</time>
      </trkpt>
      <trkpt lat="48.68714" lon="-2.31778">
        <ele>60</ele>
        <time>2016-06-24T11:47:36Z</time>
      </trkpt>
      <trkpt lat="48.68714" lon="-2.3178">
        <ele>60</ele>
        <time>2016-06-24T11:47:51Z</time>
      </trkpt>
      <trkpt lat="48.68715" lon="-2.31782">
        <ele>60</ele>
        <time>2016-06-24T11:47:54Z</time>
      </trkpt>
      <trkpt lat="48.68713" lon="-2.3178">
        <ele>60</ele>
        <time>2016-06-24T11:48:00Z</time>
      </trkpt>
      <trkpt lat="48.68709" lon="-2.31777">
        <ele>60</ele>
        <time>2016-06-24T11:48:03Z</time>
      </trkpt>
      <trkpt lat="48.68704" lon="-2.31775">
        <ele>60</ele>
        <time>2016-06-24T11:48:06Z</time>
      </trkpt>
      <trkpt lat="48.68699" lon="-2.31774">
        <ele>60</ele>
        <time>2016-06-24T11:48:09Z</time>
      </trkpt>
      <trkpt lat="48.68695" lon="-2.31773">
        <ele>60</ele>
        <time>2016-06-24T11:48:12Z</time>
      </trkpt>
      <trkpt lat="48.68691" lon="-2.31773">
        <ele>60</ele>
        <time>2016-06-24T11:48:15Z</time>
      </trkpt>
      <trkpt lat="48.68687" lon="-2.31772">
        <ele>60</ele>
        <time>2016-06-24T11:48:18Z</time>
      </trkpt>
      <trkpt lat="48.68683" lon="-2.31771">
        <ele>60</ele>
        <time>2016-06-24T11:48:21Z</time>
      </trkpt>
      <trkpt lat="48.6868" lon="-2.31769">
        <ele>60</ele>
        <time>2016-06-24T11:48:24Z</time>
      </trkpt>
      <trkpt lat="48.68675" lon="-2.31767">
        <ele>60</ele>
        <time>2016-06-24T11:48:28Z</time>
      </trkpt>
      <trkpt lat="48.68672" lon="-2.31763">
        <ele>60</ele>
        <time>2016-06-24T11:48:32Z</time>
      </trkpt>
      <trkpt lat="48.68671" lon="-2.31765">
        <ele>60</ele>
        <time>2016-06-24T11:48:35Z</time>
      </trkpt>
      <trkpt lat="48.6867" lon="-2.31766">
        <ele>60</ele>
        <time>2016-06-24T11:48:52Z</time>
      </trkpt>
      <trkpt lat="48.68668" lon="-2.31765">
        <ele>60</ele>
        <time>2016-06-24T11:48:56Z</time>
      </trkpt>
      <trkpt lat="48.68665" lon="-2.31763">
        <ele>60</ele>
        <time>2016-06-24T11:49:00Z</time>
      </trkpt>
      <trkpt lat="48.68661" lon="-2.31763">
        <ele>61</ele>
        <time>2016-06-24T11:49:04Z</time>
      </trkpt>
      <trkpt lat="48.68658" lon="-2.31761">
        <ele>61</ele>
        <time>2016-06-24T11:49:08Z</time>
      </trkpt>
      <trkpt lat="48.68654" lon="-2.3176">
        <ele>61</ele>
        <time>2016-06-24T11:49:11Z</time>
      </trkpt>
      <trkpt lat="48.6865" lon="-2.3176">
        <ele>61</ele>
        <time>2016-06-24T11:49:14Z</time>
      </trkpt>
      <trkpt lat="48.68647" lon="-2.31759">
        <ele>61</ele>
        <time>2016-06-24T11:49:17Z</time>
      </trkpt>
      <trkpt lat="48.68643" lon="-2.31758">
        <ele>61</ele>
        <time>2016-06-24T11:49:20Z</time>
      </trkpt>
      <trkpt lat="48.6864" lon="-2.31757">
        <ele>61</ele>
        <time>2016-06-24T11:49:23Z</time>
      </trkpt>
      <trkpt lat="48.68636" lon="-2.31757">
        <ele>61</ele>
        <time>2016-06-24T11:49:26Z</time>
      </trkpt>
      <trkpt lat="48.68632" lon="-2.31756">
        <ele>61</ele>
        <time>2016-06-24T11:49:29Z</time>
      </trkpt>
      <trkpt lat="48.68629" lon="-2.31756">
        <ele>61</ele>
        <time>2016-06-24T11:49:32Z</time>
      </trkpt>
      <trkpt lat="48.68625" lon="-2.31755">
        <ele>61</ele>
        <time>2016-06-24T11:49:35Z</time>
      </trkpt>
      <trkpt lat="48.68621" lon="-2.31754">
        <ele>61</ele>
        <time>2016-06-24T11:49:39Z</time>
      </trkpt>
      <trkpt lat="48.68616" lon="-2.31751">
        <ele>61</ele>
        <time>2016-06-24T11:49:43Z</time>
      </trkpt>
      <trkpt lat="48.68613" lon="-2.31749">
        <ele>61</ele>
        <time>2016-06-24T11:49:46Z</time>
      </trkpt>
      <trkpt lat="48.6861" lon="-2.31748">
        <ele>61</ele>
        <time>2016-06-24T11:49:49Z</time>
      </trkpt>
      <trkpt lat="48.68607" lon="-2.31749">
        <ele>61</ele>
        <time>2016-06-24T11:49:52Z</time>
      </trkpt>
      <trkpt lat="48.68602" lon="-2.31749">
        <ele>61</ele>
        <time>2016-06-24T11:49:56Z</time>
      </trkpt>
      <trkpt lat="48.68599" lon="-2.31747">
        <ele>61</ele>
        <time>2016-06-24T11:49:59Z</time>
      </trkpt>
      <trkpt lat="48.68598" lon="-2.31746">
        <ele>61</ele>
        <time>2016-06-24T11:50:03Z</time>
      </trkpt>
      <trkpt lat="48.68595" lon="-2.31746">
        <ele>61</ele>
        <time>2016-06-24T11:50:07Z</time>
      </trkpt>
      <trkpt lat="48.68591" lon="-2.31745">
        <ele>62</ele>
        <time>2016-06-24T11:50:11Z</time>
      </trkpt>
      <trkpt lat="48.68589" lon="-2.31744">
        <ele>62</ele>
        <time>2016-06-24T11:50:14Z</time>
      </trkpt>
      <trkpt lat="48.68584" lon="-2.31747">
        <ele>62</ele>
        <time>2016-06-24T11:50:18Z</time>
      </trkpt>
      <trkpt lat="48.68579" lon="-2.31751">
        <ele>62</ele>
        <time>2016-06-24T11:50:22Z</time>
      </trkpt>
      <trkpt lat="48.68576" lon="-2.31753">
        <ele>62</ele>
        <time>2016-06-24T11:50:25Z</time>
      </trkpt>
      <trkpt lat="48.68573" lon="-2.31757">
        <ele>62</ele>
        <time>2016-06-24T11:50:29Z</time>
      </trkpt>
      <trkpt lat="48.6857" lon="-2.31761">
        <ele>62</ele>
        <time>2016-06-24T11:50:33Z</time>
      </trkpt>
      <trkpt lat="48.68567" lon="-2.31764">
        <ele>62</ele>
        <time>2016-06-24T11:50:36Z</time>
      </trkpt>
      <trkpt lat="48.68562" lon="-2.31768">
        <ele>62</ele>
        <time>2016-06-24T11:50:40Z</time>
      </trkpt>
      <trkpt lat="48.68559" lon="-2.31772">
        <ele>62</ele>
        <time>2016-06-24T11:50:43Z</time>
      </trkpt>
      <trkpt lat="48.68556" lon="-2.31775">
        <ele>62</ele>
        <time>2016-06-24T11:50:46Z</time>
      </trkpt>
      <trkpt lat="48.68552" lon="-2.31777">
        <ele>62</ele>
        <time>2016-06-24T11:50:49Z</time>
      </trkpt>
      <trkpt lat="48.68549" lon="-2.3178">
        <ele>62</ele>
        <time>2016-06-24T11:50:52Z</time>
      </trkpt>
      <trkpt lat="48.68545" lon="-2.31783">
        <ele>62</ele>
        <time>2016-06-24T11:50:56Z</time>
      </trkpt>
      <trkpt lat="48.68542" lon="-2.31787">
        <ele>63</ele>
        <time>2016-06-24T11:51:00Z</time>
      </trkpt>
      <trkpt lat="48.68539" lon="-2.3179">
        <ele>63</ele>
        <time>2016-06-24T11:51:03Z</time>
      </trkpt>
      <trkpt lat="48.68535" lon="-2.31795">
        <ele>63</ele>
        <time>2016-06-24T11:51:07Z</time>
      </trkpt>
      <trkpt lat="48.68531" lon="-2.31799">
        <ele>64</ele>
        <time>2016-06-24T11:51:11Z</time>
      </trkpt>
      <trkpt lat="48.68528" lon="-2.31802">
        <ele>64</ele>
        <time>2016-06-24T11:51:14Z</time>
      </trkpt>
      <trkpt lat="48.68525" lon="-2.31806">
        <ele>64</ele>
        <time>2016-06-24T11:51:17Z</time>
      </trkpt>
      <trkpt lat="48.68521" lon="-2.3181">
        <ele>64</ele>
        <time>2016-06-24T11:51:21Z</time>
      </trkpt>
      <trkpt lat="48.68521" lon="-2.31811">
        <ele>65</ele>
        <time>2016-06-24T11:51:29Z</time>
      </trkpt>
      <trkpt lat="48.68518" lon="-2.31816">
        <ele>65</ele>
        <time>2016-06-24T11:51:33Z</time>
      </trkpt>
      <trkpt lat="48.68515" lon="-2.31818">
        <ele>65</ele>
        <time>2016-06-24T11:51:36Z</time>
      </trkpt>
      <trkpt lat="48.68511" lon="-2.31821">
        <ele>65</ele>
        <time>2016-06-24T11:51:39Z</time>
      </trkpt>
      <trkpt lat="48.68507" lon="-2.31826">
        <ele>65</ele>
        <time>2016-06-24T11:51:43Z</time>
      </trkpt>
      <trkpt lat="48.68504" lon="-2.31831">
        <ele>65</ele>
        <time>2016-06-24T11:51:47Z</time>
      </trkpt>
      <trkpt lat="48.685" lon="-2.31836">
        <ele>65</ele>
        <time>2016-06-24T11:51:51Z</time>
      </trkpt>
      <trkpt lat="48.68496" lon="-2.31841">
        <ele>65</ele>
        <time>2016-06-24T11:51:55Z</time>
      </trkpt>
      <trkpt lat="48.68493" lon="-2.31844">
        <ele>66</ele>
        <time>2016-06-24T11:51:58Z</time>
      </trkpt>
      <trkpt lat="48.68489" lon="-2.31851">
        <ele>66</ele>
        <time>2016-06-24T11:52:02Z</time>
      </trkpt>
      <trkpt lat="48.68485" lon="-2.31856">
        <ele>66</ele>
        <time>2016-06-24T11:52:06Z</time>
      </trkpt>
      <trkpt lat="48.68481" lon="-2.31859">
        <ele>66</ele>
        <time>2016-06-24T11:52:09Z</time>
      </trkpt>
      <trkpt lat="48.68478" lon="-2.31862">
        <ele>66</ele>
        <time>2016-06-24T11:52:12Z</time>
      </trkpt>
      <trkpt lat="48.68475" lon="-2.31866">
        <ele>66</ele>
        <time>2016-06-24T11:52:15Z</time>
      </trkpt>
      <trkpt lat="48.68471" lon="-2.3187">
        <ele>66</ele>
        <time>2016-06-24T11:52:19Z</time>
      </trkpt>
      <trkpt lat="48.68467" lon="-2.31875">
        <ele>66</ele>
        <time>2016-06-24T11:52:23Z</time>
      </trkpt>
      <trkpt lat="48.68463" lon="-2.31878">
        <ele>66</ele>
        <time>2016-06-24T11:52:26Z</time>
      </trkpt>
      <trkpt lat="48.68459" lon="-2.31881">
        <ele>66</ele>
        <time>2016-06-24T11:52:30Z</time>
      </trkpt>
      <trkpt lat="48.68455" lon="-2.31882">
        <ele>66</ele>
        <time>2016-06-24T11:52:34Z</time>
      </trkpt>
      <trkpt lat="48.68453" lon="-2.31883">
        <ele>66</ele>
        <time>2016-06-24T11:52:37Z</time>
      </trkpt>
      <trkpt lat="48.68451" lon="-2.31886">
        <ele>67</ele>
        <time>2016-06-24T11:52:41Z</time>
      </trkpt>
      <trkpt lat="48.68447" lon="-2.3189">
        <ele>67</ele>
        <time>2016-06-24T11:52:45Z</time>
      </trkpt>
      <trkpt lat="48.68444" lon="-2.31893">
        <ele>67</ele>
        <time>2016-06-24T11:52:48Z</time>
      </trkpt>
      <trkpt lat="48.68441" lon="-2.31896">
        <ele>67</ele>
        <time>2016-06-24T11:52:51Z</time>
      </trkpt>
      <trkpt lat="48.68437" lon="-2.319">
        <ele>67</ele>
        <time>2016-06-24T11:52:55Z</time>
      </trkpt>
      <trkpt lat="48.68434" lon="-2.31905">
        <ele>67</ele>
        <time>2016-06-24T11:52:58Z</time>
      </trkpt>
      <trkpt lat="48.68433" lon="-2.3191">
        <ele>68</ele>
        <time>2016-06-24T11:53:01Z</time>
      </trkpt>
      <trkpt lat="48.6843" lon="-2.31916">
        <ele>68</ele>
        <time>2016-06-24T11:53:04Z</time>
      </trkpt>
      <trkpt lat="48.68427" lon="-2.31921">
        <ele>68</ele>
        <time>2016-06-24T11:53:07Z</time>
      </trkpt>
      <trkpt lat="48.68425" lon="-2.31925">
        <ele>68</ele>
        <time>2016-06-24T11:53:10Z</time>
      </trkpt>
      <trkpt lat="48.68423" lon="-2.3193">
        <ele>68</ele>
        <time>2016-06-24T11:53:13Z</time>
      </trkpt>
      <trkpt lat="48.68421" lon="-2.31935">
        <ele>68</ele>
        <time>2016-06-24T11:53:16Z</time>
      </trkpt>
      <trkpt lat="48.68418" lon="-2.3194">
        <ele>68</ele>
        <time>2016-06-24T11:53:20Z</time>
      </trkpt>
      <trkpt lat="48.68414" lon="-2.31944">
        <ele>68</ele>
        <time>2016-06-24T11:53:24Z</time>
      </trkpt>
      <trkpt lat="48.6841" lon="-2.31947">
        <ele>68</ele>
        <time>2016-06-24T11:53:27Z</time>
      </trkpt>
      <trkpt lat="48.68405" lon="-2.31949">
        <ele>69</ele>
        <time>2016-06-24T11:53:31Z</time>
      </trkpt>
      <trkpt lat="48.68399" lon="-2.31951">
        <ele>69</ele>
        <time>2016-06-24T11:53:36Z</time>
      </trkpt>
      <trkpt lat="48.68398" lon="-2.31955">
        <ele>69</ele>
        <time>2016-06-24T11:53:41Z</time>
      </trkpt>
      <trkpt lat="48.68399" lon="-2.31956">
        <ele>69</ele>
        <time>2016-06-24T11:53:46Z</time>
      </trkpt>
      <trkpt lat="48.684" lon="-2.31956">
        <ele>69</ele>
        <time>2016-06-24T11:53:49Z</time>
      </trkpt>
      <trkpt lat="48.68401" lon="-2.31955">
        <ele>69</ele>
        <time>2016-06-24T11:55:24Z</time>
      </trkpt>
      <trkpt lat="48.684" lon="-2.31957">
        <ele>69</ele>
        <time>2016-06-24T11:55:29Z</time>
      </trkpt>
      <trkpt lat="48.684" lon="-2.31959">
        <ele>69</ele>
        <time>2016-06-24T11:55:32Z</time>
      </trkpt>
      <trkpt lat="48.684" lon="-2.3196">
        <ele>69</ele>
        <time>2016-06-24T11:55:57Z</time>
      </trkpt>
      <trkpt lat="48.68399" lon="-2.31959">
        <ele>69</ele>
        <time>2016-06-24T11:56:08Z</time>
      </trkpt>
      <trkpt lat="48.68396" lon="-2.31961">
        <ele>69</ele>
        <time>2016-06-24T11:56:29Z</time>
      </trkpt>
      <trkpt lat="48.68394" lon="-2.31961">
        <ele>69</ele>
        <time>2016-06-24T11:56:36Z</time>
      </trkpt>
      <trkpt lat="48.68391" lon="-2.31963">
        <ele>69</ele>
        <time>2016-06-24T11:56:40Z</time>
      </trkpt>
      <trkpt lat="48.68388" lon="-2.31965">
        <ele>69</ele>
        <time>2016-06-24T11:56:44Z</time>
      </trkpt>
      <trkpt lat="48.68387" lon="-2.31965">
        <ele>69</ele>
        <time>2016-06-24T11:57:16Z</time>
      </trkpt>
      <trkpt lat="48.68384" lon="-2.31964">
        <ele>69</ele>
        <time>2016-06-24T11:57:21Z</time>
      </trkpt>
      <trkpt lat="48.68382" lon="-2.31966">
        <ele>69</ele>
        <time>2016-06-24T11:57:38Z</time>
      </trkpt>
      <trkpt lat="48.68381" lon="-2.31964">
        <ele>71</ele>
        <time>2016-06-24T11:59:35Z</time>
      </trkpt>
      <trkpt lat="48.68381" lon="-2.31962">
        <ele>73</ele>
        <time>2016-06-24T12:00:55Z</time>
      </trkpt>
      <trkpt lat="48.68382" lon="-2.3196">
        <ele>73</ele>
        <time>2016-06-24T12:01:02Z</time>
      </trkpt>
      <trkpt lat="48.68383" lon="-2.31961">
        <ele>73</ele>
        <time>2016-06-24T12:01:11Z</time>
      </trkpt>
      <trkpt lat="48.68383" lon="-2.31963">
        <ele>73</ele>
        <time>2016-06-24T12:01:15Z</time>
      </trkpt>
      <trkpt lat="48.68381" lon="-2.31965">
        <ele>73</ele>
        <time>2016-06-24T12:01:18Z</time>
      </trkpt>
      <trkpt lat="48.68381" lon="-2.31967">
        <ele>73</ele>
        <time>2016-06-24T12:02:32Z</time>
      </trkpt>
      <trkpt lat="48.68379" lon="-2.31967">
        <ele>73</ele>
        <time>2016-06-24T12:02:37Z</time>
      </trkpt>
      <trkpt lat="48.68378" lon="-2.31968">
        <ele>73</ele>
        <time>2016-06-24T12:03:05Z</time>
      </trkpt>
      <trkpt lat="48.68375" lon="-2.31968">
        <ele>73</ele>
        <time>2016-06-24T12:03:25Z</time>
      </trkpt>
      <trkpt lat="48.6837" lon="-2.31968">
        <ele>73</ele>
        <time>2016-06-24T12:03:30Z</time>
      </trkpt>
      <trkpt lat="48.68366" lon="-2.31971">
        <ele>73</ele>
        <time>2016-06-24T12:03:34Z</time>
      </trkpt>
      <trkpt lat="48.68363" lon="-2.31972">
        <ele>73</ele>
        <time>2016-06-24T12:03:40Z</time>
      </trkpt>
      <trkpt lat="48.68361" lon="-2.31971">
        <ele>73</ele>
        <time>2016-06-24T12:03:43Z</time>
      </trkpt>
      <trkpt lat="48.68357" lon="-2.31971">
        <ele>73</ele>
        <time>2016-06-24T12:03:46Z</time>
      </trkpt>
      <trkpt lat="48.68353" lon="-2.31972">
        <ele>73</ele>
        <time>2016-06-24T12:03:49Z</time>
      </trkpt>
      <trkpt lat="48.68349" lon="-2.31972">
        <ele>73</ele>
        <time>2016-06-24T12:03:52Z</time>
      </trkpt>
      <trkpt lat="48.68345" lon="-2.3197">
        <ele>73</ele>
        <time>2016-06-24T12:03:56Z</time>
      </trkpt>
      <trkpt lat="48.6834" lon="-2.31972">
        <ele>73</ele>
        <time>2016-06-24T12:04:00Z</time>
      </trkpt>
      <trkpt lat="48.68336" lon="-2.31975">
        <ele>73</ele>
        <time>2016-06-24T12:04:03Z</time>
      </trkpt>
      <trkpt lat="48.68332" lon="-2.31975">
        <ele>73</ele>
        <time>2016-06-24T12:04:06Z</time>
      </trkpt>
      <trkpt lat="48.68328" lon="-2.31973">
        <ele>73</ele>
        <time>2016-06-24T12:04:09Z</time>
      </trkpt>
      <trkpt lat="48.68324" lon="-2.31969">
        <ele>73</ele>
        <time>2016-06-24T12:04:13Z</time>
      </trkpt>
      <trkpt lat="48.68321" lon="-2.31969">
        <ele>73</ele>
        <time>2016-06-24T12:04:16Z</time>
      </trkpt>
      <trkpt lat="48.68317" lon="-2.31968">
        <ele>73</ele>
        <time>2016-06-24T12:04:19Z</time>
      </trkpt>
      <trkpt lat="48.68314" lon="-2.31968">
        <ele>73</ele>
        <time>2016-06-24T12:04:22Z</time>
      </trkpt>
      <trkpt lat="48.6831" lon="-2.31968">
        <ele>73</ele>
        <time>2016-06-24T12:04:25Z</time>
      </trkpt>
      <trkpt lat="48.68307" lon="-2.31968">
        <ele>73</ele>
        <time>2016-06-24T12:04:29Z</time>
      </trkpt>
      <trkpt lat="48.68304" lon="-2.31973">
        <ele>73</ele>
        <time>2016-06-24T12:04:33Z</time>
      </trkpt>
      <trkpt lat="48.68301" lon="-2.31978">
        <ele>72</ele>
        <time>2016-06-24T12:04:37Z</time>
      </trkpt>
      <trkpt lat="48.68297" lon="-2.31981">
        <ele>71</ele>
        <time>2016-06-24T12:04:41Z</time>
      </trkpt>
      <trkpt lat="48.68294" lon="-2.31984">
        <ele>71</ele>
        <time>2016-06-24T12:04:45Z</time>
      </trkpt>
      <trkpt lat="48.68291" lon="-2.31987">
        <ele>70</ele>
        <time>2016-06-24T12:04:48Z</time>
      </trkpt>
      <trkpt lat="48.68287" lon="-2.31993">
        <ele>70</ele>
        <time>2016-06-24T12:04:52Z</time>
      </trkpt>
      <trkpt lat="48.68283" lon="-2.31995">
        <ele>69</ele>
        <time>2016-06-24T12:04:55Z</time>
      </trkpt>
      <trkpt lat="48.6828" lon="-2.31998">
        <ele>69</ele>
        <time>2016-06-24T12:04:58Z</time>
      </trkpt>
      <trkpt lat="48.68275" lon="-2.32004">
        <ele>68</ele>
        <time>2016-06-24T12:05:02Z</time>
      </trkpt>
      <trkpt lat="48.68272" lon="-2.32006">
        <ele>68</ele>
        <time>2016-06-24T12:05:05Z</time>
      </trkpt>
      <trkpt lat="48.68268" lon="-2.32008">
        <ele>68</ele>
        <time>2016-06-24T12:05:08Z</time>
      </trkpt>
      <trkpt lat="48.68264" lon="-2.32011">
        <ele>68</ele>
        <time>2016-06-24T12:05:11Z</time>
      </trkpt>
      <trkpt lat="48.6826" lon="-2.32013">
        <ele>68</ele>
        <time>2016-06-24T12:05:14Z</time>
      </trkpt>
      <trkpt lat="48.68257" lon="-2.32017">
        <ele>67</ele>
        <time>2016-06-24T12:05:17Z</time>
      </trkpt>
      <trkpt lat="48.68256" lon="-2.32022">
        <ele>67</ele>
        <time>2016-06-24T12:05:20Z</time>
      </trkpt>
      <trkpt lat="48.68253" lon="-2.32026">
        <ele>66</ele>
        <time>2016-06-24T12:05:23Z</time>
      </trkpt>
      <trkpt lat="48.6825" lon="-2.32031">
        <ele>66</ele>
        <time>2016-06-24T12:05:27Z</time>
      </trkpt>
      <trkpt lat="48.68247" lon="-2.32036">
        <ele>65</ele>
        <time>2016-06-24T12:05:30Z</time>
      </trkpt>
      <trkpt lat="48.68245" lon="-2.32042">
        <ele>65</ele>
        <time>2016-06-24T12:05:33Z</time>
      </trkpt>
      <trkpt lat="48.6824" lon="-2.3205">
        <ele>65</ele>
        <time>2016-06-24T12:05:38Z</time>
      </trkpt>
      <trkpt lat="48.68236" lon="-2.32051">
        <ele>65</ele>
        <time>2016-06-24T12:05:41Z</time>
      </trkpt>
      <trkpt lat="48.68232" lon="-2.32052">
        <ele>65</ele>
        <time>2016-06-24T12:05:44Z</time>
      </trkpt>
      <trkpt lat="48.68228" lon="-2.32055">
        <ele>65</ele>
        <time>2016-06-24T12:05:47Z</time>
      </trkpt>
      <trkpt lat="48.68225" lon="-2.32058">
        <ele>65</ele>
        <time>2016-06-24T12:05:50Z</time>
      </trkpt>
      <trkpt lat="48.68221" lon="-2.32061">
        <ele>65</ele>
        <time>2016-06-24T12:05:53Z</time>
      </trkpt>
      <trkpt lat="48.68218" lon="-2.32065">
        <ele>65</ele>
        <time>2016-06-24T12:05:56Z</time>
      </trkpt>
      <trkpt lat="48.68216" lon="-2.32069">
        <ele>65</ele>
        <time>2016-06-24T12:05:59Z</time>
      </trkpt>
      <trkpt lat="48.68216" lon="-2.32075">
        <ele>65</ele>
        <time>2016-06-24T12:06:02Z</time>
      </trkpt>
      <trkpt lat="48.6822" lon="-2.3208">
        <ele>65</ele>
        <time>2016-06-24T12:06:06Z</time>
      </trkpt>
      <trkpt lat="48.68223" lon="-2.32084">
        <ele>65</ele>
        <time>2016-06-24T12:06:09Z</time>
      </trkpt>
      <trkpt lat="48.68227" lon="-2.32089">
        <ele>65</ele>
        <time>2016-06-24T12:06:13Z</time>
      </trkpt>
      <trkpt lat="48.68231" lon="-2.32094">
        <ele>65</ele>
        <time>2016-06-24T12:06:17Z</time>
      </trkpt>
      <trkpt lat="48.68234" lon="-2.321">
        <ele>65</ele>
        <time>2016-06-24T12:06:21Z</time>
      </trkpt>
      <trkpt lat="48.68237" lon="-2.32104">
        <ele>65</ele>
        <time>2016-06-24T12:06:25Z</time>
      </trkpt>
      <trkpt lat="48.68238" lon="-2.3211">
        <ele>65</ele>
        <time>2016-06-24T12:06:28Z</time>
      </trkpt>
      <trkpt lat="48.6824" lon="-2.32116">
        <ele>65</ele>
        <time>2016-06-24T12:06:31Z</time>
      </trkpt>
      <trkpt lat="48.68242" lon="-2.32121">
        <ele>65</ele>
        <time>2016-06-24T12:06:34Z</time>
      </trkpt>
      <trkpt lat="48.68243" lon="-2.32127">
        <ele>65</ele>
        <time>2016-06-24T12:06:37Z</time>
      </trkpt>
      <trkpt lat="48.68244" lon="-2.32133">
        <ele>65</ele>
        <time>2016-06-24T12:06:40Z</time>
      </trkpt>
      <trkpt lat="48.68245" lon="-2.32139">
        <ele>65</ele>
        <time>2016-06-24T12:06:43Z</time>
      </trkpt>
      <trkpt lat="48.68246" lon="-2.32145">
        <ele>65</ele>
        <time>2016-06-24T12:06:46Z</time>
      </trkpt>
      <trkpt lat="48.68246" lon="-2.32151">
        <ele>65</ele>
        <time>2016-06-24T12:06:49Z</time>
      </trkpt>
      <trkpt lat="48.68245" lon="-2.32156">
        <ele>66</ele>
        <time>2016-06-24T12:06:52Z</time>
      </trkpt>
      <trkpt lat="48.68245" lon="-2.32163">
        <ele>66</ele>
        <time>2016-06-24T12:06:56Z</time>
      </trkpt>
      <trkpt lat="48.68248" lon="-2.32167">
        <ele>66</ele>
        <time>2016-06-24T12:07:00Z</time>
      </trkpt>
      <trkpt lat="48.68251" lon="-2.32169">
        <ele>66</ele>
        <time>2016-06-24T12:07:03Z</time>
      </trkpt>
      <trkpt lat="48.68255" lon="-2.32172">
        <ele>66</ele>
        <time>2016-06-24T12:07:07Z</time>
      </trkpt>
      <trkpt lat="48.68258" lon="-2.32178">
        <ele>66</ele>
        <time>2016-06-24T12:07:11Z</time>
      </trkpt>
      <trkpt lat="48.68258" lon="-2.32184">
        <ele>66</ele>
        <time>2016-06-24T12:07:15Z</time>
      </trkpt>
      <trkpt lat="48.68254" lon="-2.32188">
        <ele>66</ele>
        <time>2016-06-24T12:07:18Z</time>
      </trkpt>
      <trkpt lat="48.68251" lon="-2.3219">
        <ele>66</ele>
        <time>2016-06-24T12:07:21Z</time>
      </trkpt>
      <trkpt lat="48.68247" lon="-2.32191">
        <ele>66</ele>
        <time>2016-06-24T12:07:24Z</time>
      </trkpt>
      <trkpt lat="48.68243" lon="-2.3219">
        <ele>66</ele>
        <time>2016-06-24T12:07:27Z</time>
      </trkpt>
      <trkpt lat="48.68239" lon="-2.32189">
        <ele>66</ele>
        <time>2016-06-24T12:07:30Z</time>
      </trkpt>
      <trkpt lat="48.68235" lon="-2.3219">
        <ele>66</ele>
        <time>2016-06-24T12:07:33Z</time>
      </trkpt>
      <trkpt lat="48.68231" lon="-2.3219">
        <ele>66</ele>
        <time>2016-06-24T12:07:36Z</time>
      </trkpt>
      <trkpt lat="48.68227" lon="-2.32191">
        <ele>66</ele>
        <time>2016-06-24T12:07:39Z</time>
      </trkpt>
      <trkpt lat="48.68223" lon="-2.32191">
        <ele>66</ele>
        <time>2016-06-24T12:07:42Z</time>
      </trkpt>
      <trkpt lat="48.68219" lon="-2.32192">
        <ele>66</ele>
        <time>2016-06-24T12:07:45Z</time>
      </trkpt>
      <trkpt lat="48.68215" lon="-2.32194">
        <ele>66</ele>
        <time>2016-06-24T12:07:48Z</time>
      </trkpt>
      <trkpt lat="48.68211" lon="-2.32195">
        <ele>66</ele>
        <time>2016-06-24T12:07:51Z</time>
      </trkpt>
      <trkpt lat="48.68208" lon="-2.32198">
        <ele>66</ele>
        <time>2016-06-24T12:07:54Z</time>
      </trkpt>
      <trkpt lat="48.68204" lon="-2.32201">
        <ele>66</ele>
        <time>2016-06-24T12:07:57Z</time>
      </trkpt>
      <trkpt lat="48.68201" lon="-2.32203">
        <ele>66</ele>
        <time>2016-06-24T12:08:00Z</time>
      </trkpt>
      <trkpt lat="48.68197" lon="-2.32203">
        <ele>66</ele>
        <time>2016-06-24T12:08:03Z</time>
      </trkpt>
      <trkpt lat="48.68194" lon="-2.32205">
        <ele>66</ele>
        <time>2016-06-24T12:08:06Z</time>
      </trkpt>
      <trkpt lat="48.6819" lon="-2.32206">
        <ele>66</ele>
        <time>2016-06-24T12:08:09Z</time>
      </trkpt>
      <trkpt lat="48.68186" lon="-2.32204">
        <ele>66</ele>
        <time>2016-06-24T12:08:12Z</time>
      </trkpt>
      <trkpt lat="48.68182" lon="-2.32201">
        <ele>66</ele>
        <time>2016-06-24T12:08:15Z</time>
      </trkpt>
      <trkpt lat="48.68178" lon="-2.32199">
        <ele>66</ele>
        <time>2016-06-24T12:08:18Z</time>
      </trkpt>
      <trkpt lat="48.68174" lon="-2.32199">
        <ele>66</ele>
        <time>2016-06-24T12:08:21Z</time>
      </trkpt>
      <trkpt lat="48.68169" lon="-2.322">
        <ele>66</ele>
        <time>2016-06-24T12:08:24Z</time>
      </trkpt>
      <trkpt lat="48.68165" lon="-2.322">
        <ele>66</ele>
        <time>2016-06-24T12:08:27Z</time>
      </trkpt>
      <trkpt lat="48.68161" lon="-2.32199">
        <ele>66</ele>
        <time>2016-06-24T12:08:32Z</time>
      </trkpt>
      <trkpt lat="48.68158" lon="-2.32199">
        <ele>66</ele>
        <time>2016-06-24T12:08:35Z</time>
      </trkpt>
      <trkpt lat="48.68155" lon="-2.32198">
        <ele>66</ele>
        <time>2016-06-24T12:08:38Z</time>
      </trkpt>
      <trkpt lat="48.68151" lon="-2.32198">
        <ele>66</ele>
        <time>2016-06-24T12:08:41Z</time>
      </trkpt>
      <trkpt lat="48.68149" lon="-2.32199">
        <ele>66</ele>
        <time>2016-06-24T12:08:44Z</time>
      </trkpt>
      <trkpt lat="48.68148" lon="-2.32205">
        <ele>66</ele>
        <time>2016-06-24T12:08:48Z</time>
      </trkpt>
      <trkpt lat="48.6815" lon="-2.32207">
        <ele>66</ele>
        <time>2016-06-24T12:08:58Z</time>
      </trkpt>
      <trkpt lat="48.68151" lon="-2.32212">
        <ele>66</ele>
        <time>2016-06-24T12:09:02Z</time>
      </trkpt>
      <trkpt lat="48.6815" lon="-2.32214">
        <ele>66</ele>
        <time>2016-06-24T12:09:05Z</time>
      </trkpt>
      <trkpt lat="48.68146" lon="-2.32211">
        <ele>66</ele>
        <time>2016-06-24T12:09:08Z</time>
      </trkpt>
      <trkpt lat="48.68143" lon="-2.32209">
        <ele>66</ele>
        <time>2016-06-24T12:09:11Z</time>
      </trkpt>
      <trkpt lat="48.68139" lon="-2.32213">
        <ele>66</ele>
        <time>2016-06-24T12:09:15Z</time>
      </trkpt>
      <trkpt lat="48.68135" lon="-2.32218">
        <ele>65</ele>
        <time>2016-06-24T12:09:19Z</time>
      </trkpt>
      <trkpt lat="48.68132" lon="-2.32224">
        <ele>64</ele>
        <time>2016-06-24T12:09:23Z</time>
      </trkpt>
      <trkpt lat="48.6813" lon="-2.32228">
        <ele>64</ele>
        <time>2016-06-24T12:09:26Z</time>
      </trkpt>
      <trkpt lat="48.6813" lon="-2.3223">
        <ele>64</ele>
        <time>2016-06-24T12:09:29Z</time>
      </trkpt>
      <trkpt lat="48.6813" lon="-2.32235">
        <ele>63</ele>
        <time>2016-06-24T12:09:32Z</time>
      </trkpt>
      <trkpt lat="48.68132" lon="-2.3224">
        <ele>63</ele>
        <time>2016-06-24T12:09:35Z</time>
      </trkpt>
      <trkpt lat="48.68135" lon="-2.32246">
        <ele>63</ele>
        <time>2016-06-24T12:09:39Z</time>
      </trkpt>
      <trkpt lat="48.68139" lon="-2.32251">
        <ele>63</ele>
        <time>2016-06-24T12:09:43Z</time>
      </trkpt>
      <trkpt lat="48.68142" lon="-2.32255">
        <ele>63</ele>
        <time>2016-06-24T12:09:47Z</time>
      </trkpt>
      <trkpt lat="48.68143" lon="-2.32257">
        <ele>63</ele>
        <time>2016-06-24T12:10:00Z</time>
      </trkpt>
      <trkpt lat="48.68145" lon="-2.32259">
        <ele>63</ele>
        <time>2016-06-24T12:10:03Z</time>
      </trkpt>
      <trkpt lat="48.68148" lon="-2.32264">
        <ele>63</ele>
        <time>2016-06-24T12:10:07Z</time>
      </trkpt>
      <trkpt lat="48.6815" lon="-2.32269">
        <ele>63</ele>
        <time>2016-06-24T12:10:11Z</time>
      </trkpt>
      <trkpt lat="48.68153" lon="-2.32274">
        <ele>63</ele>
        <time>2016-06-24T12:10:15Z</time>
      </trkpt>
      <trkpt lat="48.68156" lon="-2.32279">
        <ele>63</ele>
        <time>2016-06-24T12:10:19Z</time>
      </trkpt>
      <trkpt lat="48.68154" lon="-2.32284">
        <ele>63</ele>
        <time>2016-06-24T12:10:22Z</time>
      </trkpt>
      <trkpt lat="48.68153" lon="-2.3229">
        <ele>63</ele>
        <time>2016-06-24T12:10:26Z</time>
      </trkpt>
      <trkpt lat="48.68151" lon="-2.32295">
        <ele>63</ele>
        <time>2016-06-24T12:10:29Z</time>
      </trkpt>
      <trkpt lat="48.68149" lon="-2.32299">
        <ele>63</ele>
        <time>2016-06-24T12:10:32Z</time>
      </trkpt>
      <trkpt lat="48.68147" lon="-2.32306">
        <ele>63</ele>
        <time>2016-06-24T12:10:36Z</time>
      </trkpt>
      <trkpt lat="48.68143" lon="-2.3231">
        <ele>63</ele>
        <time>2016-06-24T12:10:40Z</time>
      </trkpt>
      <trkpt lat="48.68142" lon="-2.32312">
        <ele>63</ele>
        <time>2016-06-24T12:10:43Z</time>
      </trkpt>
      <trkpt lat="48.68141" lon="-2.32313">
        <ele>63</ele>
        <time>2016-06-24T12:10:58Z</time>
      </trkpt>
      <trkpt lat="48.68141" lon="-2.32315">
        <ele>62</ele>
        <time>2016-06-24T12:11:26Z</time>
      </trkpt>
      <trkpt lat="48.6814" lon="-2.32317">
        <ele>62</ele>
        <time>2016-06-24T12:11:29Z</time>
      </trkpt>
      <trkpt lat="48.68139" lon="-2.32322">
        <ele>62</ele>
        <time>2016-06-24T12:11:33Z</time>
      </trkpt>
      <trkpt lat="48.68137" lon="-2.32325">
        <ele>62</ele>
        <time>2016-06-24T12:11:37Z</time>
      </trkpt>
      <trkpt lat="48.68136" lon="-2.3233">
        <ele>62</ele>
        <time>2016-06-24T12:11:41Z</time>
      </trkpt>
      <trkpt lat="48.68134" lon="-2.32335">
        <ele>62</ele>
        <time>2016-06-24T12:11:44Z</time>
      </trkpt>
      <trkpt lat="48.68133" lon="-2.32341">
        <ele>62</ele>
        <time>2016-06-24T12:11:47Z</time>
      </trkpt>
      <trkpt lat="48.68132" lon="-2.32346">
        <ele>62</ele>
        <time>2016-06-24T12:11:50Z</time>
      </trkpt>
      <trkpt lat="48.6813" lon="-2.3235">
        <ele>62</ele>
        <time>2016-06-24T12:11:53Z</time>
      </trkpt>
      <trkpt lat="48.68129" lon="-2.32355">
        <ele>62</ele>
        <time>2016-06-24T12:11:56Z</time>
      </trkpt>
      <trkpt lat="48.68127" lon="-2.32359">
        <ele>62</ele>
        <time>2016-06-24T12:12:01Z</time>
      </trkpt>
      <trkpt lat="48.68124" lon="-2.32364">
        <ele>62</ele>
        <time>2016-06-24T12:12:05Z</time>
      </trkpt>
      <trkpt lat="48.68122" lon="-2.32368">
        <ele>62</ele>
        <time>2016-06-24T12:12:09Z</time>
      </trkpt>
      <trkpt lat="48.68119" lon="-2.32374">
        <ele>62</ele>
        <time>2016-06-24T12:12:13Z</time>
      </trkpt>
      <trkpt lat="48.68116" lon="-2.3238">
        <ele>62</ele>
        <time>2016-06-24T12:12:17Z</time>
      </trkpt>
      <trkpt lat="48.68112" lon="-2.32382">
        <ele>62</ele>
        <time>2016-06-24T12:12:21Z</time>
      </trkpt>
      <trkpt lat="48.68109" lon="-2.32381">
        <ele>62</ele>
        <time>2016-06-24T12:12:24Z</time>
      </trkpt>
      <trkpt lat="48.68104" lon="-2.32382">
        <ele>62</ele>
        <time>2016-06-24T12:12:28Z</time>
      </trkpt>
      <trkpt lat="48.68101" lon="-2.32383">
        <ele>62</ele>
        <time>2016-06-24T12:12:31Z</time>
      </trkpt>
      <trkpt lat="48.68098" lon="-2.32386">
        <ele>62</ele>
        <time>2016-06-24T12:12:35Z</time>
      </trkpt>
      <trkpt lat="48.68096" lon="-2.32388">
        <ele>62</ele>
        <time>2016-06-24T12:12:38Z</time>
      </trkpt>
      <trkpt lat="48.68092" lon="-2.32392">
        <ele>62</ele>
        <time>2016-06-24T12:12:42Z</time>
      </trkpt>
      <trkpt lat="48.68089" lon="-2.32395">
        <ele>62</ele>
        <time>2016-06-24T12:12:45Z</time>
      </trkpt>
      <trkpt lat="48.68085" lon="-2.32396">
        <ele>62</ele>
        <time>2016-06-24T12:12:48Z</time>
      </trkpt>
      <trkpt lat="48.68081" lon="-2.32396">
        <ele>62</ele>
        <time>2016-06-24T12:12:51Z</time>
      </trkpt>
      <trkpt lat="48.68078" lon="-2.32398">
        <ele>62</ele>
        <time>2016-06-24T12:12:54Z</time>
      </trkpt>
      <trkpt lat="48.68074" lon="-2.32399">
        <ele>62</ele>
        <time>2016-06-24T12:12:57Z</time>
      </trkpt>
      <trkpt lat="48.68069" lon="-2.32398">
        <ele>62</ele>
        <time>2016-06-24T12:13:00Z</time>
      </trkpt>
      <trkpt lat="48.68065" lon="-2.32399">
        <ele>62</ele>
        <time>2016-06-24T12:13:04Z</time>
      </trkpt>
      <trkpt lat="48.68062" lon="-2.324">
        <ele>62</ele>
        <time>2016-06-24T12:13:08Z</time>
      </trkpt>
      <trkpt lat="48.68058" lon="-2.324">
        <ele>62</ele>
        <time>2016-06-24T12:13:12Z</time>
      </trkpt>
      <trkpt lat="48.68055" lon="-2.32399">
        <ele>62</ele>
        <time>2016-06-24T12:13:16Z</time>
      </trkpt>
      <trkpt lat="48.68051" lon="-2.32399">
        <ele>62</ele>
        <time>2016-06-24T12:13:19Z</time>
      </trkpt>
      <trkpt lat="48.68047" lon="-2.324">
        <ele>62</ele>
        <time>2016-06-24T12:13:22Z</time>
      </trkpt>
      <trkpt lat="48.68045" lon="-2.32402">
        <ele>62</ele>
        <time>2016-06-24T12:13:27Z</time>
      </trkpt>
      <trkpt lat="48.68043" lon="-2.32403">
        <ele>62</ele>
        <time>2016-06-24T12:13:30Z</time>
      </trkpt>
      <trkpt lat="48.6804" lon="-2.32403">
        <ele>62</ele>
        <time>2016-06-24T12:13:34Z</time>
      </trkpt>
      <trkpt lat="48.68036" lon="-2.32404">
        <ele>62</ele>
        <time>2016-06-24T12:13:37Z</time>
      </trkpt>
      <trkpt lat="48.68033" lon="-2.32405">
        <ele>62</ele>
        <time>2016-06-24T12:13:41Z</time>
      </trkpt>
      <trkpt lat="48.6803" lon="-2.32406">
        <ele>62</ele>
        <time>2016-06-24T12:13:44Z</time>
      </trkpt>
      <trkpt lat="48.68029" lon="-2.32406">
        <ele>62</ele>
        <time>2016-06-24T12:13:48Z</time>
      </trkpt>
      <trkpt lat="48.68025" lon="-2.32405">
        <ele>62</ele>
        <time>2016-06-24T12:13:52Z</time>
      </trkpt>
      <trkpt lat="48.68021" lon="-2.32405">
        <ele>62</ele>
        <time>2016-06-24T12:13:56Z</time>
      </trkpt>
      <trkpt lat="48.68018" lon="-2.32405">
        <ele>62</ele>
        <time>2016-06-24T12:14:04Z</time>
      </trkpt>
      <trkpt lat="48.68015" lon="-2.32406">
        <ele>62</ele>
        <time>2016-06-24T12:14:07Z</time>
      </trkpt>
      <trkpt lat="48.68012" lon="-2.32408">
        <ele>62</ele>
        <time>2016-06-24T12:14:10Z</time>
      </trkpt>
      <trkpt lat="48.6801" lon="-2.32413">
        <ele>62</ele>
        <time>2016-06-24T12:14:13Z</time>
      </trkpt>
      <trkpt lat="48.68009" lon="-2.32419">
        <ele>62</ele>
        <time>2016-06-24T12:14:16Z</time>
      </trkpt>
      <trkpt lat="48.68007" lon="-2.32424">
        <ele>62</ele>
        <time>2016-06-24T12:14:19Z</time>
      </trkpt>
      <trkpt lat="48.68005" lon="-2.32427">
        <ele>62</ele>
        <time>2016-06-24T12:14:23Z</time>
      </trkpt>
      <trkpt lat="48.68004" lon="-2.32432">
        <ele>62</ele>
        <time>2016-06-24T12:14:47Z</time>
      </trkpt>
      <trkpt lat="48.68006" lon="-2.32437">
        <ele>62</ele>
        <time>2016-06-24T12:14:50Z</time>
      </trkpt>
      <trkpt lat="48.68007" lon="-2.32442">
        <ele>62</ele>
        <time>2016-06-24T12:14:56Z</time>
      </trkpt>
      <trkpt lat="48.6801" lon="-2.32449">
        <ele>62</ele>
        <time>2016-06-24T12:15:00Z</time>
      </trkpt>
      <trkpt lat="48.68011" lon="-2.32454">
        <ele>62</ele>
        <time>2016-06-24T12:15:03Z</time>
      </trkpt>
      <trkpt lat="48.68013" lon="-2.32459">
        <ele>62</ele>
        <time>2016-06-24T12:15:06Z</time>
      </trkpt>
      <trkpt lat="48.68015" lon="-2.32464">
        <ele>62</ele>
        <time>2016-06-24T12:15:09Z</time>
      </trkpt>
      <trkpt lat="48.68016" lon="-2.3247">
        <ele>62</ele>
        <time>2016-06-24T12:15:12Z</time>
      </trkpt>
      <trkpt lat="48.68018" lon="-2.32475">
        <ele>62</ele>
        <time>2016-06-24T12:15:15Z</time>
      </trkpt>
      <trkpt lat="48.68021" lon="-2.32481">
        <ele>62</ele>
        <time>2016-06-24T12:15:18Z</time>
      </trkpt>
      <trkpt lat="48.68023" lon="-2.32486">
        <ele>62</ele>
        <time>2016-06-24T12:15:21Z</time>
      </trkpt>
      <trkpt lat="48.68025" lon="-2.32491">
        <ele>62</ele>
        <time>2016-06-24T12:15:24Z</time>
      </trkpt>
      <trkpt lat="48.68029" lon="-2.32498">
        <ele>62</ele>
        <time>2016-06-24T12:15:28Z</time>
      </trkpt>
      <trkpt lat="48.68034" lon="-2.32504">
        <ele>62</ele>
        <time>2016-06-24T12:15:32Z</time>
      </trkpt>
      <trkpt lat="48.68037" lon="-2.3251">
        <ele>62</ele>
        <time>2016-06-24T12:15:36Z</time>
      </trkpt>
      <trkpt lat="48.6804" lon="-2.32514">
        <ele>62</ele>
        <time>2016-06-24T12:15:39Z</time>
      </trkpt>
      <trkpt lat="48.68045" lon="-2.32519">
        <ele>62</ele>
        <time>2016-06-24T12:15:43Z</time>
      </trkpt>
      <trkpt lat="48.68048" lon="-2.32523">
        <ele>62</ele>
        <time>2016-06-24T12:15:46Z</time>
      </trkpt>
      <trkpt lat="48.68052" lon="-2.32526">
        <ele>63</ele>
        <time>2016-06-24T12:15:49Z</time>
      </trkpt>
      <trkpt lat="48.68055" lon="-2.32529">
        <ele>63</ele>
        <time>2016-06-24T12:15:52Z</time>
      </trkpt>
      <trkpt lat="48.68059" lon="-2.32533">
        <ele>63</ele>
        <time>2016-06-24T12:15:55Z</time>
      </trkpt>
      <trkpt lat="48.68063" lon="-2.32537">
        <ele>64</ele>
        <time>2016-06-24T12:15:59Z</time>
      </trkpt>
      <trkpt lat="48.68067" lon="-2.3254">
        <ele>64</ele>
        <time>2016-06-24T12:16:02Z</time>
      </trkpt>
      <trkpt lat="48.68071" lon="-2.32542">
        <ele>64</ele>
        <time>2016-06-24T12:16:05Z</time>
      </trkpt>
      <trkpt lat="48.68075" lon="-2.32545">
        <ele>64</ele>
        <time>2016-06-24T12:16:08Z</time>
      </trkpt>
      <trkpt lat="48.68079" lon="-2.32548">
        <ele>64</ele>
        <time>2016-06-24T12:16:12Z</time>
      </trkpt>
      <trkpt lat="48.68083" lon="-2.32551">
        <ele>64</ele>
        <time>2016-06-24T12:16:16Z</time>
      </trkpt>
      <trkpt lat="48.68087" lon="-2.32553">
        <ele>64</ele>
        <time>2016-06-24T12:16:19Z</time>
      </trkpt>
      <trkpt lat="48.68091" lon="-2.32556">
        <ele>64</ele>
        <time>2016-06-24T12:16:23Z</time>
      </trkpt>
      <trkpt lat="48.68095" lon="-2.3256">
        <ele>64</ele>
        <time>2016-06-24T12:16:27Z</time>
      </trkpt>
      <trkpt lat="48.68098" lon="-2.32565">
        <ele>64</ele>
        <time>2016-06-24T12:16:31Z</time>
      </trkpt>
      <trkpt lat="48.681" lon="-2.32569">
        <ele>64</ele>
        <time>2016-06-24T12:16:35Z</time>
      </trkpt>
      <trkpt lat="48.68104" lon="-2.32571">
        <ele>64</ele>
        <time>2016-06-24T12:16:39Z</time>
      </trkpt>
      <trkpt lat="48.68107" lon="-2.32573">
        <ele>64</ele>
        <time>2016-06-24T12:16:47Z</time>
      </trkpt>
      <trkpt lat="48.6811" lon="-2.32575">
        <ele>64</ele>
        <time>2016-06-24T12:16:51Z</time>
      </trkpt>
      <trkpt lat="48.68112" lon="-2.32579">
        <ele>64</ele>
        <time>2016-06-24T12:16:55Z</time>
      </trkpt>
      <trkpt lat="48.68115" lon="-2.32583">
        <ele>64</ele>
        <time>2016-06-24T12:16:59Z</time>
      </trkpt>
      <trkpt lat="48.68118" lon="-2.32587">
        <ele>64</ele>
        <time>2016-06-24T12:17:03Z</time>
      </trkpt>
      <trkpt lat="48.68121" lon="-2.32588">
        <ele>64</ele>
        <time>2016-06-24T12:17:07Z</time>
      </trkpt>
      <trkpt lat="48.68124" lon="-2.32592">
        <ele>64</ele>
        <time>2016-06-24T12:17:13Z</time>
      </trkpt>
      <trkpt lat="48.68125" lon="-2.32595">
        <ele>64</ele>
        <time>2016-06-24T12:17:17Z</time>
      </trkpt>
      <trkpt lat="48.68125" lon="-2.32598">
        <ele>64</ele>
        <time>2016-06-24T12:17:21Z</time>
      </trkpt>
      <trkpt lat="48.68125" lon="-2.32604">
        <ele>64</ele>
        <time>2016-06-24T12:17:25Z</time>
      </trkpt>
      <trkpt lat="48.68127" lon="-2.32609">
        <ele>64</ele>
        <time>2016-06-24T12:17:29Z</time>
      </trkpt>
      <trkpt lat="48.6813" lon="-2.32614">
        <ele>64</ele>
        <time>2016-06-24T12:17:33Z</time>
      </trkpt>
      <trkpt lat="48.68133" lon="-2.32619">
        <ele>64</ele>
        <time>2016-06-24T12:17:37Z</time>
      </trkpt>
      <trkpt lat="48.68135" lon="-2.32624">
        <ele>64</ele>
        <time>2016-06-24T12:17:41Z</time>
      </trkpt>
      <trkpt lat="48.68137" lon="-2.32628">
        <ele>64</ele>
        <time>2016-06-24T12:17:45Z</time>
      </trkpt>
      <trkpt lat="48.68142" lon="-2.32632">
        <ele>64</ele>
        <time>2016-06-24T12:17:49Z</time>
      </trkpt>
      <trkpt lat="48.68145" lon="-2.32637">
        <ele>64</ele>
        <time>2016-06-24T12:17:53Z</time>
      </trkpt>
      <trkpt lat="48.68148" lon="-2.32642">
        <ele>64</ele>
        <time>2016-06-24T12:17:57Z</time>
      </trkpt>
      <trkpt lat="48.68151" lon="-2.32646">
        <ele>64</ele>
        <time>2016-06-24T12:18:01Z</time>
      </trkpt>
      <trkpt lat="48.68154" lon="-2.32651">
        <ele>64</ele>
        <time>2016-06-24T12:18:05Z</time>
      </trkpt>
      <trkpt lat="48.68158" lon="-2.32656">
        <ele>64</ele>
        <time>2016-06-24T12:18:09Z</time>
      </trkpt>
      <trkpt lat="48.68163" lon="-2.3266">
        <ele>64</ele>
        <time>2016-06-24T12:18:13Z</time>
      </trkpt>
      <trkpt lat="48.68166" lon="-2.32663">
        <ele>64</ele>
        <time>2016-06-24T12:18:16Z</time>
      </trkpt>
      <trkpt lat="48.6817" lon="-2.32666">
        <ele>64</ele>
        <time>2016-06-24T12:18:20Z</time>
      </trkpt>
      <trkpt lat="48.68174" lon="-2.32667">
        <ele>64</ele>
        <time>2016-06-24T12:18:24Z</time>
      </trkpt>
      <trkpt lat="48.68178" lon="-2.32667">
        <ele>64</ele>
        <time>2016-06-24T12:18:28Z</time>
      </trkpt>
      <trkpt lat="48.68181" lon="-2.32667">
        <ele>64</ele>
        <time>2016-06-24T12:18:31Z</time>
      </trkpt>
      <trkpt lat="48.68185" lon="-2.32669">
        <ele>64</ele>
        <time>2016-06-24T12:18:35Z</time>
      </trkpt>
      <trkpt lat="48.68187" lon="-2.32674">
        <ele>64</ele>
        <time>2016-06-24T12:18:39Z</time>
      </trkpt>
      <trkpt lat="48.68189" lon="-2.32679">
        <ele>64</ele>
        <time>2016-06-24T12:18:44Z</time>
      </trkpt>
      <trkpt lat="48.6819" lon="-2.3268">
        <ele>64</ele>
        <time>2016-06-24T12:18:47Z</time>
      </trkpt>
      <trkpt lat="48.68192" lon="-2.32681">
        <ele>64</ele>
        <time>2016-06-24T12:18:51Z</time>
      </trkpt>
      <trkpt lat="48.68193" lon="-2.32683">
        <ele>64</ele>
        <time>2016-06-24T12:18:59Z</time>
      </trkpt>
      <trkpt lat="48.68194" lon="-2.32682">
        <ele>64</ele>
        <time>2016-06-24T12:19:19Z</time>
      </trkpt>
      <trkpt lat="48.68193" lon="-2.32683">
        <ele>64</ele>
        <time>2016-06-24T12:19:39Z</time>
      </trkpt>
      <trkpt lat="48.68192" lon="-2.32683">
        <ele>64</ele>
        <time>2016-06-24T12:20:01Z</time>
      </trkpt>
      <trkpt lat="48.68192" lon="-2.32681">
        <ele>64</ele>
        <time>2016-06-24T12:20:24Z</time>
      </trkpt>
      <trkpt lat="48.68193" lon="-2.32681">
        <ele>64</ele>
        <time>2016-06-24T12:20:45Z</time>
      </trkpt>
      <trkpt lat="48.68192" lon="-2.3268">
        <ele>64</ele>
        <time>2016-06-24T12:20:53Z</time>
      </trkpt>
      <trkpt lat="48.68189" lon="-2.32679">
        <ele>64</ele>
        <time>2016-06-24T12:20:57Z</time>
      </trkpt>
      <trkpt lat="48.68186" lon="-2.32676">
        <ele>64</ele>
        <time>2016-06-24T12:21:01Z</time>
      </trkpt>
      <trkpt lat="48.68185" lon="-2.32674">
        <ele>64</ele>
        <time>2016-06-24T12:21:04Z</time>
      </trkpt>
      <trkpt lat="48.68183" lon="-2.32669">
        <ele>64</ele>
        <time>2016-06-24T12:21:08Z</time>
      </trkpt>
      <trkpt lat="48.6818" lon="-2.32668">
        <ele>64</ele>
        <time>2016-06-24T12:21:11Z</time>
      </trkpt>
      <trkpt lat="48.68176" lon="-2.32667">
        <ele>64</ele>
        <time>2016-06-24T12:21:15Z</time>
      </trkpt>
      <trkpt lat="48.68172" lon="-2.32668">
        <ele>64</ele>
        <time>2016-06-24T12:21:18Z</time>
      </trkpt>
      <trkpt lat="48.68168" lon="-2.32666">
        <ele>64</ele>
        <time>2016-06-24T12:21:22Z</time>
      </trkpt>
      <trkpt lat="48.68165" lon="-2.32664">
        <ele>64</ele>
        <time>2016-06-24T12:21:25Z</time>
      </trkpt>
      <trkpt lat="48.68162" lon="-2.32662">
        <ele>64</ele>
        <time>2016-06-24T12:21:28Z</time>
      </trkpt>
      <trkpt lat="48.68159" lon="-2.32659">
        <ele>64</ele>
        <time>2016-06-24T12:21:31Z</time>
      </trkpt>
      <trkpt lat="48.68156" lon="-2.32655">
        <ele>64</ele>
        <time>2016-06-24T12:21:34Z</time>
      </trkpt>
      <trkpt lat="48.68152" lon="-2.3265">
        <ele>64</ele>
        <time>2016-06-24T12:21:38Z</time>
      </trkpt>
      <trkpt lat="48.68148" lon="-2.32644">
        <ele>64</ele>
        <time>2016-06-24T12:21:42Z</time>
      </trkpt>
      <trkpt lat="48.68145" lon="-2.32639">
        <ele>64</ele>
        <time>2016-06-24T12:21:46Z</time>
      </trkpt>
      <trkpt lat="48.68141" lon="-2.32633">
        <ele>64</ele>
        <time>2016-06-24T12:21:50Z</time>
      </trkpt>
      <trkpt lat="48.68137" lon="-2.3263">
        <ele>64</ele>
        <time>2016-06-24T12:21:54Z</time>
      </trkpt>
      <trkpt lat="48.68135" lon="-2.32626">
        <ele>64</ele>
        <time>2016-06-24T12:21:58Z</time>
      </trkpt>
      <trkpt lat="48.68132" lon="-2.3262">
        <ele>64</ele>
        <time>2016-06-24T12:22:02Z</time>
      </trkpt>
      <trkpt lat="48.68129" lon="-2.32614">
        <ele>64</ele>
        <time>2016-06-24T12:22:06Z</time>
      </trkpt>
      <trkpt lat="48.68127" lon="-2.32608">
        <ele>64</ele>
        <time>2016-06-24T12:22:10Z</time>
      </trkpt>
      <trkpt lat="48.68125" lon="-2.32602">
        <ele>64</ele>
        <time>2016-06-24T12:22:14Z</time>
      </trkpt>
      <trkpt lat="48.68124" lon="-2.32595">
        <ele>65</ele>
        <time>2016-06-24T12:22:18Z</time>
      </trkpt>
      <trkpt lat="48.68123" lon="-2.32592">
        <ele>66</ele>
        <time>2016-06-24T12:22:22Z</time>
      </trkpt>
      <trkpt lat="48.68122" lon="-2.3259">
        <ele>66</ele>
        <time>2016-06-24T12:22:25Z</time>
      </trkpt>
      <trkpt lat="48.68121" lon="-2.32589">
        <ele>66</ele>
        <time>2016-06-24T12:22:28Z</time>
      </trkpt>
      <trkpt lat="48.68119" lon="-2.32588">
        <ele>66</ele>
        <time>2016-06-24T12:22:31Z</time>
      </trkpt>
      <trkpt lat="48.68117" lon="-2.32586">
        <ele>66</ele>
        <time>2016-06-24T12:22:43Z</time>
      </trkpt>
      <trkpt lat="48.68114" lon="-2.32582">
        <ele>66</ele>
        <time>2016-06-24T12:22:47Z</time>
      </trkpt>
      <trkpt lat="48.68111" lon="-2.3258">
        <ele>66</ele>
        <time>2016-06-24T12:22:51Z</time>
      </trkpt>
      <trkpt lat="48.68108" lon="-2.3258">
        <ele>66</ele>
        <time>2016-06-24T12:22:55Z</time>
      </trkpt>
      <trkpt lat="48.68105" lon="-2.32579">
        <ele>66</ele>
        <time>2016-06-24T12:22:59Z</time>
      </trkpt>
      <trkpt lat="48.68104" lon="-2.32576">
        <ele>66</ele>
        <time>2016-06-24T12:23:05Z</time>
      </trkpt>
      <trkpt lat="48.68101" lon="-2.32572">
        <ele>66</ele>
        <time>2016-06-24T12:23:09Z</time>
      </trkpt>
      <trkpt lat="48.68098" lon="-2.32568">
        <ele>66</ele>
        <time>2016-06-24T12:23:12Z</time>
      </trkpt>
      <trkpt lat="48.68095" lon="-2.32564">
        <ele>66</ele>
        <time>2016-06-24T12:23:15Z</time>
      </trkpt>
      <trkpt lat="48.68093" lon="-2.32559">
        <ele>66</ele>
        <time>2016-06-24T12:23:18Z</time>
      </trkpt>
      <trkpt lat="48.68089" lon="-2.32555">
        <ele>66</ele>
        <time>2016-06-24T12:23:22Z</time>
      </trkpt>
      <trkpt lat="48.68085" lon="-2.32552">
        <ele>66</ele>
        <time>2016-06-24T12:23:26Z</time>
      </trkpt>
      <trkpt lat="48.68082" lon="-2.32552">
        <ele>66</ele>
        <time>2016-06-24T12:23:33Z</time>
      </trkpt>
      <trkpt lat="48.68079" lon="-2.3255">
        <ele>66</ele>
        <time>2016-06-24T12:23:36Z</time>
      </trkpt>
      <trkpt lat="48.68076" lon="-2.32547">
        <ele>66</ele>
        <time>2016-06-24T12:23:40Z</time>
      </trkpt>
      <trkpt lat="48.68072" lon="-2.32544">
        <ele>66</ele>
        <time>2016-06-24T12:23:44Z</time>
      </trkpt>
      <trkpt lat="48.68068" lon="-2.32541">
        <ele>66</ele>
        <time>2016-06-24T12:23:48Z</time>
      </trkpt>
      <trkpt lat="48.68065" lon="-2.32539">
        <ele>66</ele>
        <time>2016-06-24T12:23:52Z</time>
      </trkpt>
      <trkpt lat="48.68061" lon="-2.32535">
        <ele>66</ele>
        <time>2016-06-24T12:23:56Z</time>
      </trkpt>
      <trkpt lat="48.68056" lon="-2.32531">
        <ele>66</ele>
        <time>2016-06-24T12:24:00Z</time>
      </trkpt>
      <trkpt lat="48.68053" lon="-2.32528">
        <ele>66</ele>
        <time>2016-06-24T12:24:03Z</time>
      </trkpt>
      <trkpt lat="48.68049" lon="-2.32525">
        <ele>66</ele>
        <time>2016-06-24T12:24:06Z</time>
      </trkpt>
      <trkpt lat="48.68045" lon="-2.32522">
        <ele>66</ele>
        <time>2016-06-24T12:24:09Z</time>
      </trkpt>
      <trkpt lat="48.68042" lon="-2.32518">
        <ele>66</ele>
        <time>2016-06-24T12:24:12Z</time>
      </trkpt>
      <trkpt lat="48.68037" lon="-2.32513">
        <ele>66</ele>
        <time>2016-06-24T12:24:16Z</time>
      </trkpt>
      <trkpt lat="48.68034" lon="-2.32508">
        <ele>66</ele>
        <time>2016-06-24T12:24:20Z</time>
      </trkpt>
      <trkpt lat="48.68031" lon="-2.32504">
        <ele>66</ele>
        <time>2016-06-24T12:24:24Z</time>
      </trkpt>
      <trkpt lat="48.68028" lon="-2.32499">
        <ele>66</ele>
        <time>2016-06-24T12:24:27Z</time>
      </trkpt>
      <trkpt lat="48.68026" lon="-2.32494">
        <ele>66</ele>
        <time>2016-06-24T12:24:30Z</time>
      </trkpt>
      <trkpt lat="48.68024" lon="-2.32489">
        <ele>66</ele>
        <time>2016-06-24T12:24:33Z</time>
      </trkpt>
      <trkpt lat="48.68021" lon="-2.32484">
        <ele>66</ele>
        <time>2016-06-24T12:24:36Z</time>
      </trkpt>
      <trkpt lat="48.68019" lon="-2.32478">
        <ele>66</ele>
        <time>2016-06-24T12:24:39Z</time>
      </trkpt>
      <trkpt lat="48.68018" lon="-2.32473">
        <ele>66</ele>
        <time>2016-06-24T12:24:42Z</time>
      </trkpt>
      <trkpt lat="48.68016" lon="-2.32468">
        <ele>66</ele>
        <time>2016-06-24T12:24:45Z</time>
      </trkpt>
      <trkpt lat="48.68014" lon="-2.32462">
        <ele>66</ele>
        <time>2016-06-24T12:24:48Z</time>
      </trkpt>
      <trkpt lat="48.68012" lon="-2.32456">
        <ele>66</ele>
        <time>2016-06-24T12:24:51Z</time>
      </trkpt>
      <trkpt lat="48.6801" lon="-2.32451">
        <ele>66</ele>
        <time>2016-06-24T12:24:54Z</time>
      </trkpt>
      <trkpt lat="48.68009" lon="-2.32447">
        <ele>66</ele>
        <time>2016-06-24T12:24:59Z</time>
      </trkpt>
      <trkpt lat="48.68007" lon="-2.32441">
        <ele>66</ele>
        <time>2016-06-24T12:25:03Z</time>
      </trkpt>
      <trkpt lat="48.68005" lon="-2.32437">
        <ele>66</ele>
        <time>2016-06-24T12:25:06Z</time>
      </trkpt>
      <trkpt lat="48.68003" lon="-2.32431">
        <ele>66</ele>
        <time>2016-06-24T12:25:10Z</time>
      </trkpt>
      <trkpt lat="48.68" lon="-2.32431">
        <ele>66</ele>
        <time>2016-06-24T12:25:14Z</time>
      </trkpt>
      <trkpt lat="48.67996" lon="-2.32435">
        <ele>66</ele>
        <time>2016-06-24T12:25:18Z</time>
      </trkpt>
      <trkpt lat="48.67993" lon="-2.32437">
        <ele>66</ele>
        <time>2016-06-24T12:25:21Z</time>
      </trkpt>
      <trkpt lat="48.67989" lon="-2.32438">
        <ele>66</ele>
        <time>2016-06-24T12:25:24Z</time>
      </trkpt>
      <trkpt lat="48.67985" lon="-2.3244">
        <ele>65</ele>
        <time>2016-06-24T12:25:28Z</time>
      </trkpt>
      <trkpt lat="48.67981" lon="-2.32441">
        <ele>65</ele>
        <time>2016-06-24T12:25:31Z</time>
      </trkpt>
      <trkpt lat="48.67978" lon="-2.32442">
        <ele>65</ele>
        <time>2016-06-24T12:25:34Z</time>
      </trkpt>
      <trkpt lat="48.67974" lon="-2.32444">
        <ele>65</ele>
        <time>2016-06-24T12:25:38Z</time>
      </trkpt>
      <trkpt lat="48.6797" lon="-2.32446">
        <ele>65</ele>
        <time>2016-06-24T12:25:41Z</time>
      </trkpt>
      <trkpt lat="48.67966" lon="-2.32448">
        <ele>65</ele>
        <time>2016-06-24T12:25:44Z</time>
      </trkpt>
      <trkpt lat="48.67962" lon="-2.3245">
        <ele>64</ele>
        <time>2016-06-24T12:25:47Z</time>
      </trkpt>
      <trkpt lat="48.67958" lon="-2.32452">
        <ele>64</ele>
        <time>2016-06-24T12:25:50Z</time>
      </trkpt>
      <trkpt lat="48.67954" lon="-2.32455">
        <ele>63</ele>
        <time>2016-06-24T12:25:53Z</time>
      </trkpt>
      <trkpt lat="48.67949" lon="-2.32457">
        <ele>63</ele>
        <time>2016-06-24T12:25:56Z</time>
      </trkpt>
      <trkpt lat="48.67946" lon="-2.32459">
        <ele>63</ele>
        <time>2016-06-24T12:25:59Z</time>
      </trkpt>
      <trkpt lat="48.67942" lon="-2.32462">
        <ele>63</ele>
        <time>2016-06-24T12:26:03Z</time>
      </trkpt>
      <trkpt lat="48.67938" lon="-2.32465">
        <ele>63</ele>
        <time>2016-06-24T12:26:06Z</time>
      </trkpt>
      <trkpt lat="48.67934" lon="-2.32468">
        <ele>62</ele>
        <time>2016-06-24T12:26:09Z</time>
      </trkpt>
      <trkpt lat="48.6793" lon="-2.32471">
        <ele>62</ele>
        <time>2016-06-24T12:26:12Z</time>
      </trkpt>
      <trkpt lat="48.67926" lon="-2.32473">
        <ele>62</ele>
        <time>2016-06-24T12:26:15Z</time>
      </trkpt>
      <trkpt lat="48.67922" lon="-2.32476">
        <ele>62</ele>
        <time>2016-06-24T12:26:18Z</time>
      </trkpt>
      <trkpt lat="48.67918" lon="-2.32478">
        <ele>62</ele>
        <time>2016-06-24T12:26:21Z</time>
      </trkpt>
      <trkpt lat="48.67914" lon="-2.32482">
        <ele>62</ele>
        <time>2016-06-24T12:26:24Z</time>
      </trkpt>
      <trkpt lat="48.6791" lon="-2.32485">
        <ele>61</ele>
        <time>2016-06-24T12:26:27Z</time>
      </trkpt>
      <trkpt lat="48.67905" lon="-2.32488">
        <ele>61</ele>
        <time>2016-06-24T12:26:30Z</time>
      </trkpt>
      <trkpt lat="48.67901" lon="-2.32489">
        <ele>61</ele>
        <time>2016-06-24T12:26:33Z</time>
      </trkpt>
      <trkpt lat="48.67897" lon="-2.32491">
        <ele>61</ele>
        <time>2016-06-24T12:26:36Z</time>
      </trkpt>
      <trkpt lat="48.67894" lon="-2.32492">
        <ele>61</ele>
        <time>2016-06-24T12:26:39Z</time>
      </trkpt>
      <trkpt lat="48.67889" lon="-2.32493">
        <ele>61</ele>
        <time>2016-06-24T12:26:42Z</time>
      </trkpt>
      <trkpt lat="48.67886" lon="-2.32493">
        <ele>61</ele>
        <time>2016-06-24T12:26:45Z</time>
      </trkpt>
      <trkpt lat="48.67881" lon="-2.32493">
        <ele>61</ele>
        <time>2016-06-24T12:26:48Z</time>
      </trkpt>
      <trkpt lat="48.67878" lon="-2.3249">
        <ele>61</ele>
        <time>2016-06-24T12:26:52Z</time>
      </trkpt>
      <trkpt lat="48.67876" lon="-2.32488">
        <ele>61</ele>
        <time>2016-06-24T12:26:57Z</time>
      </trkpt>
      <trkpt lat="48.67873" lon="-2.32483">
        <ele>61</ele>
        <time>2016-06-24T12:27:01Z</time>
      </trkpt>
      <trkpt lat="48.6787" lon="-2.32477">
        <ele>61</ele>
        <time>2016-06-24T12:27:05Z</time>
      </trkpt>
      <trkpt lat="48.67868" lon="-2.32472">
        <ele>61</ele>
        <time>2016-06-24T12:27:08Z</time>
      </trkpt>
      <trkpt lat="48.67864" lon="-2.32467">
        <ele>61</ele>
        <time>2016-06-24T12:27:12Z</time>
      </trkpt>
      <trkpt lat="48.6786" lon="-2.32464">
        <ele>61</ele>
        <time>2016-06-24T12:27:15Z</time>
      </trkpt>
      <trkpt lat="48.67856" lon="-2.32465">
        <ele>61</ele>
        <time>2016-06-24T12:27:18Z</time>
      </trkpt>
      <trkpt lat="48.67852" lon="-2.32466">
        <ele>61</ele>
        <time>2016-06-24T12:27:21Z</time>
      </trkpt>
      <trkpt lat="48.67848" lon="-2.32465">
        <ele>61</ele>
        <time>2016-06-24T12:27:24Z</time>
      </trkpt>
      <trkpt lat="48.67844" lon="-2.32467">
        <ele>61</ele>
        <time>2016-06-24T12:27:28Z</time>
      </trkpt>
      <trkpt lat="48.6784" lon="-2.3247">
        <ele>61</ele>
        <time>2016-06-24T12:27:31Z</time>
      </trkpt>
      <trkpt lat="48.67836" lon="-2.32475">
        <ele>61</ele>
        <time>2016-06-24T12:27:35Z</time>
      </trkpt>
      <trkpt lat="48.67831" lon="-2.32479">
        <ele>61</ele>
        <time>2016-06-24T12:27:38Z</time>
      </trkpt>
      <trkpt lat="48.67828" lon="-2.32482">
        <ele>61</ele>
        <time>2016-06-24T12:27:41Z</time>
      </trkpt>
      <trkpt lat="48.67823" lon="-2.32485">
        <ele>61</ele>
        <time>2016-06-24T12:27:45Z</time>
      </trkpt>
      <trkpt lat="48.6782" lon="-2.32485">
        <ele>61</ele>
        <time>2016-06-24T12:27:48Z</time>
      </trkpt>
      <trkpt lat="48.67816" lon="-2.32485">
        <ele>61</ele>
        <time>2016-06-24T12:27:51Z</time>
      </trkpt>
      <trkpt lat="48.67812" lon="-2.32485">
        <ele>61</ele>
        <time>2016-06-24T12:27:55Z</time>
      </trkpt>
      <trkpt lat="48.67808" lon="-2.32486">
        <ele>61</ele>
        <time>2016-06-24T12:27:58Z</time>
      </trkpt>
      <trkpt lat="48.67804" lon="-2.32487">
        <ele>61</ele>
        <time>2016-06-24T12:28:01Z</time>
      </trkpt>
      <trkpt lat="48.67801" lon="-2.32488">
        <ele>61</ele>
        <time>2016-06-24T12:28:04Z</time>
      </trkpt>
      <trkpt lat="48.67797" lon="-2.32486">
        <ele>61</ele>
        <time>2016-06-24T12:28:07Z</time>
      </trkpt>
      <trkpt lat="48.67794" lon="-2.32484">
        <ele>61</ele>
        <time>2016-06-24T12:28:10Z</time>
      </trkpt>
      <trkpt lat="48.67791" lon="-2.32482">
        <ele>61</ele>
        <time>2016-06-24T12:28:13Z</time>
      </trkpt>
      <trkpt lat="48.67787" lon="-2.32482">
        <ele>61</ele>
        <time>2016-06-24T12:28:16Z</time>
      </trkpt>
      <trkpt lat="48.67783" lon="-2.32482">
        <ele>61</ele>
        <time>2016-06-24T12:28:19Z</time>
      </trkpt>
      <trkpt lat="48.67779" lon="-2.32483">
        <ele>61</ele>
        <time>2016-06-24T12:28:22Z</time>
      </trkpt>
      <trkpt lat="48.67776" lon="-2.32485">
        <ele>61</ele>
        <time>2016-06-24T12:28:25Z</time>
      </trkpt>
      <trkpt lat="48.67771" lon="-2.32487">
        <ele>61</ele>
        <time>2016-06-24T12:28:28Z</time>
      </trkpt>
      <trkpt lat="48.67768" lon="-2.32488">
        <ele>61</ele>
        <time>2016-06-24T12:28:31Z</time>
      </trkpt>
      <trkpt lat="48.67764" lon="-2.32488">
        <ele>61</ele>
        <time>2016-06-24T12:28:34Z</time>
      </trkpt>
      <trkpt lat="48.6776" lon="-2.32489">
        <ele>61</ele>
        <time>2016-06-24T12:28:37Z</time>
      </trkpt>
      <trkpt lat="48.67757" lon="-2.32488">
        <ele>61</ele>
        <time>2016-06-24T12:28:40Z</time>
      </trkpt>
      <trkpt lat="48.67754" lon="-2.32488">
        <ele>61</ele>
        <time>2016-06-24T12:28:43Z</time>
      </trkpt>
      <trkpt lat="48.6775" lon="-2.32487">
        <ele>61</ele>
        <time>2016-06-24T12:28:46Z</time>
      </trkpt>
      <trkpt lat="48.67746" lon="-2.32487">
        <ele>61</ele>
        <time>2016-06-24T12:28:49Z</time>
      </trkpt>
      <trkpt lat="48.67743" lon="-2.32488">
        <ele>61</ele>
        <time>2016-06-24T12:28:52Z</time>
      </trkpt>
      <trkpt lat="48.67739" lon="-2.3249">
        <ele>61</ele>
        <time>2016-06-24T12:28:55Z</time>
      </trkpt>
      <trkpt lat="48.67735" lon="-2.32491">
        <ele>61</ele>
        <time>2016-06-24T12:28:58Z</time>
      </trkpt>
      <trkpt lat="48.67731" lon="-2.32493">
        <ele>61</ele>
        <time>2016-06-24T12:29:01Z</time>
      </trkpt>
      <trkpt lat="48.67726" lon="-2.32494">
        <ele>60</ele>
        <time>2016-06-24T12:29:05Z</time>
      </trkpt>
      <trkpt lat="48.67723" lon="-2.32497">
        <ele>60</ele>
        <time>2016-06-24T12:29:09Z</time>
      </trkpt>
      <trkpt lat="48.6772" lon="-2.32503">
        <ele>60</ele>
        <time>2016-06-24T12:29:13Z</time>
      </trkpt>
      <trkpt lat="48.67717" lon="-2.32507">
        <ele>59</ele>
        <time>2016-06-24T12:29:16Z</time>
      </trkpt>
      <trkpt lat="48.67712" lon="-2.32512">
        <ele>59</ele>
        <time>2016-06-24T12:29:20Z</time>
      </trkpt>
      <trkpt lat="48.67709" lon="-2.32515">
        <ele>59</ele>
        <time>2016-06-24T12:29:23Z</time>
      </trkpt>
      <trkpt lat="48.67706" lon="-2.32518">
        <ele>59</ele>
        <time>2016-06-24T12:29:26Z</time>
      </trkpt>
      <trkpt lat="48.67702" lon="-2.32521">
        <ele>58</ele>
        <time>2016-06-24T12:29:29Z</time>
      </trkpt>
      <trkpt lat="48.67697" lon="-2.32524">
        <ele>58</ele>
        <time>2016-06-24T12:29:32Z</time>
      </trkpt>
      <trkpt lat="48.67693" lon="-2.32526">
        <ele>58</ele>
        <time>2016-06-24T12:29:35Z</time>
      </trkpt>
      <trkpt lat="48.6769" lon="-2.32528">
        <ele>58</ele>
        <time>2016-06-24T12:29:38Z</time>
      </trkpt>
      <trkpt lat="48.67686" lon="-2.32531">
        <ele>58</ele>
        <time>2016-06-24T12:29:41Z</time>
      </trkpt>
      <trkpt lat="48.67682" lon="-2.32536">
        <ele>58</ele>
        <time>2016-06-24T12:29:45Z</time>
      </trkpt>
      <trkpt lat="48.67679" lon="-2.3254">
        <ele>57</ele>
        <time>2016-06-24T12:29:48Z</time>
      </trkpt>
      <trkpt lat="48.67677" lon="-2.32546">
        <ele>57</ele>
        <time>2016-06-24T12:29:51Z</time>
      </trkpt>
      <trkpt lat="48.67676" lon="-2.32552">
        <ele>57</ele>
        <time>2016-06-24T12:29:54Z</time>
      </trkpt>
      <trkpt lat="48.67675" lon="-2.32558">
        <ele>57</ele>
        <time>2016-06-24T12:29:57Z</time>
      </trkpt>
      <trkpt lat="48.67676" lon="-2.32564">
        <ele>57</ele>
        <time>2016-06-24T12:30:00Z</time>
      </trkpt>
      <trkpt lat="48.67678" lon="-2.3257">
        <ele>57</ele>
        <time>2016-06-24T12:30:04Z</time>
      </trkpt>
      <trkpt lat="48.6768" lon="-2.32572">
        <ele>57</ele>
        <time>2016-06-24T12:30:13Z</time>
      </trkpt>
      <trkpt lat="48.67681" lon="-2.32576">
        <ele>57</ele>
        <time>2016-06-24T12:30:16Z</time>
      </trkpt>
      <trkpt lat="48.67681" lon="-2.32579">
        <ele>57</ele>
        <time>2016-06-24T12:30:19Z</time>
      </trkpt>
      <trkpt lat="48.67682" lon="-2.32582">
        <ele>57</ele>
        <time>2016-06-24T12:30:22Z</time>
      </trkpt>
      <trkpt lat="48.67682" lon="-2.32587">
        <ele>57</ele>
        <time>2016-06-24T12:30:25Z</time>
      </trkpt>
      <trkpt lat="48.6768" lon="-2.32593">
        <ele>57</ele>
        <time>2016-06-24T12:30:29Z</time>
      </trkpt>
      <trkpt lat="48.67677" lon="-2.32596">
        <ele>57</ele>
        <time>2016-06-24T12:30:33Z</time>
      </trkpt>
      <trkpt lat="48.67673" lon="-2.326">
        <ele>57</ele>
        <time>2016-06-24T12:30:37Z</time>
      </trkpt>
      <trkpt lat="48.67669" lon="-2.32603">
        <ele>57</ele>
        <time>2016-06-24T12:30:40Z</time>
      </trkpt>
      <trkpt lat="48.67665" lon="-2.32606">
        <ele>57</ele>
        <time>2016-06-24T12:30:43Z</time>
      </trkpt>
      <trkpt lat="48.67662" lon="-2.32608">
        <ele>57</ele>
        <time>2016-06-24T12:30:46Z</time>
      </trkpt>
      <trkpt lat="48.67657" lon="-2.32611">
        <ele>57</ele>
        <time>2016-06-24T12:30:49Z</time>
      </trkpt>
      <trkpt lat="48.67654" lon="-2.32613">
        <ele>57</ele>
        <time>2016-06-24T12:30:52Z</time>
      </trkpt>
      <trkpt lat="48.67651" lon="-2.32615">
        <ele>57</ele>
        <time>2016-06-24T12:30:55Z</time>
      </trkpt>
      <trkpt lat="48.67646" lon="-2.32619">
        <ele>57</ele>
        <time>2016-06-24T12:30:59Z</time>
      </trkpt>
      <trkpt lat="48.67642" lon="-2.32625">
        <ele>57</ele>
        <time>2016-06-24T12:31:03Z</time>
      </trkpt>
      <trkpt lat="48.6764" lon="-2.32629">
        <ele>57</ele>
        <time>2016-06-24T12:31:06Z</time>
      </trkpt>
      <trkpt lat="48.67638" lon="-2.32635">
        <ele>57</ele>
        <time>2016-06-24T12:31:09Z</time>
      </trkpt>
      <trkpt lat="48.67637" lon="-2.32641">
        <ele>57</ele>
        <time>2016-06-24T12:31:12Z</time>
      </trkpt>
      <trkpt lat="48.67635" lon="-2.32646">
        <ele>57</ele>
        <time>2016-06-24T12:31:15Z</time>
      </trkpt>
      <trkpt lat="48.67633" lon="-2.32651">
        <ele>57</ele>
        <time>2016-06-24T12:31:18Z</time>
      </trkpt>
      <trkpt lat="48.6763" lon="-2.32657">
        <ele>57</ele>
        <time>2016-06-24T12:31:21Z</time>
      </trkpt>
      <trkpt lat="48.67627" lon="-2.32663">
        <ele>57</ele>
        <time>2016-06-24T12:31:25Z</time>
      </trkpt>
      <trkpt lat="48.67624" lon="-2.32669">
        <ele>57</ele>
        <time>2016-06-24T12:31:28Z</time>
      </trkpt>
      <trkpt lat="48.67622" lon="-2.32674">
        <ele>57</ele>
        <time>2016-06-24T12:31:31Z</time>
      </trkpt>
      <trkpt lat="48.6762" lon="-2.3268">
        <ele>57</ele>
        <time>2016-06-24T12:31:34Z</time>
      </trkpt>
      <trkpt lat="48.67618" lon="-2.32686">
        <ele>57</ele>
        <time>2016-06-24T12:31:37Z</time>
      </trkpt>
      <trkpt lat="48.67617" lon="-2.32691">
        <ele>57</ele>
        <time>2016-06-24T12:31:40Z</time>
      </trkpt>
      <trkpt lat="48.67614" lon="-2.32697">
        <ele>57</ele>
        <time>2016-06-24T12:31:44Z</time>
      </trkpt>
      <trkpt lat="48.67611" lon="-2.32701">
        <ele>56</ele>
        <time>2016-06-24T12:31:48Z</time>
      </trkpt>
      <trkpt lat="48.67608" lon="-2.32704">
        <ele>55</ele>
        <time>2016-06-24T12:31:52Z</time>
      </trkpt>
      <trkpt lat="48.67605" lon="-2.32708">
        <ele>54</ele>
        <time>2016-06-24T12:31:56Z</time>
      </trkpt>
      <trkpt lat="48.67601" lon="-2.32709">
        <ele>54</ele>
        <time>2016-06-24T12:32:00Z</time>
      </trkpt>
      <trkpt lat="48.67602" lon="-2.32703">
        <ele>54</ele>
        <time>2016-06-24T12:32:03Z</time>
      </trkpt>
      <trkpt lat="48.67604" lon="-2.32698">
        <ele>54</ele>
        <time>2016-06-24T12:32:06Z</time>
      </trkpt>
      <trkpt lat="48.67606" lon="-2.32691">
        <ele>53</ele>
        <time>2016-06-24T12:32:10Z</time>
      </trkpt>
      <trkpt lat="48.67609" lon="-2.32686">
        <ele>53</ele>
        <time>2016-06-24T12:32:13Z</time>
      </trkpt>
      <trkpt lat="48.67612" lon="-2.3268">
        <ele>53</ele>
        <time>2016-06-24T12:32:17Z</time>
      </trkpt>
      <trkpt lat="48.67615" lon="-2.32675">
        <ele>53</ele>
        <time>2016-06-24T12:32:20Z</time>
      </trkpt>
      <trkpt lat="48.67617" lon="-2.3267">
        <ele>53</ele>
        <time>2016-06-24T12:32:23Z</time>
      </trkpt>
      <trkpt lat="48.67619" lon="-2.32663">
        <ele>53</ele>
        <time>2016-06-24T12:32:27Z</time>
      </trkpt>
      <trkpt lat="48.67621" lon="-2.32658">
        <ele>53</ele>
        <time>2016-06-24T12:32:30Z</time>
      </trkpt>
      <trkpt lat="48.67622" lon="-2.32652">
        <ele>53</ele>
        <time>2016-06-24T12:32:33Z</time>
      </trkpt>
      <trkpt lat="48.67623" lon="-2.32646">
        <ele>53</ele>
        <time>2016-06-24T12:32:36Z</time>
      </trkpt>
      <trkpt lat="48.67624" lon="-2.3264">
        <ele>53</ele>
        <time>2016-06-24T12:32:39Z</time>
      </trkpt>
      <trkpt lat="48.67624" lon="-2.32633">
        <ele>53</ele>
        <time>2016-06-24T12:32:42Z</time>
      </trkpt>
      <trkpt lat="48.67624" lon="-2.32627">
        <ele>53</ele>
        <time>2016-06-24T12:32:45Z</time>
      </trkpt>
      <trkpt lat="48.67625" lon="-2.32621">
        <ele>53</ele>
        <time>2016-06-24T12:32:48Z</time>
      </trkpt>
      <trkpt lat="48.67625" lon="-2.32615">
        <ele>53</ele>
        <time>2016-06-24T12:32:51Z</time>
      </trkpt>
      <trkpt lat="48.67624" lon="-2.32611">
        <ele>53</ele>
        <time>2016-06-24T12:32:54Z</time>
      </trkpt>
      <trkpt lat="48.67621" lon="-2.32614">
        <ele>53</ele>
        <time>2016-06-24T12:32:58Z</time>
      </trkpt>
      <trkpt lat="48.67619" lon="-2.32618">
        <ele>53</ele>
        <time>2016-06-24T12:33:01Z</time>
      </trkpt>
      <trkpt lat="48.67615" lon="-2.32618">
        <ele>52</ele>
        <time>2016-06-24T12:33:04Z</time>
      </trkpt>
      <trkpt lat="48.67611" lon="-2.32615">
        <ele>52</ele>
        <time>2016-06-24T12:33:07Z</time>
      </trkpt>
      <trkpt lat="48.67607" lon="-2.32613">
        <ele>51</ele>
        <time>2016-06-24T12:33:10Z</time>
      </trkpt>
      <trkpt lat="48.67603" lon="-2.32613">
        <ele>51</ele>
        <time>2016-06-24T12:33:13Z</time>
      </trkpt>
      <trkpt lat="48.676" lon="-2.32616">
        <ele>51</ele>
        <time>2016-06-24T12:33:16Z</time>
      </trkpt>
      <trkpt lat="48.67596" lon="-2.32622">
        <ele>51</ele>
        <time>2016-06-24T12:33:20Z</time>
      </trkpt>
      <trkpt lat="48.67595" lon="-2.32628">
        <ele>51</ele>
        <time>2016-06-24T12:33:24Z</time>
      </trkpt>
      <trkpt lat="48.67594" lon="-2.32633">
        <ele>51</ele>
        <time>2016-06-24T12:33:28Z</time>
      </trkpt>
      <trkpt lat="48.67591" lon="-2.3264">
        <ele>50</ele>
        <time>2016-06-24T12:33:32Z</time>
      </trkpt>
      <trkpt lat="48.67588" lon="-2.32644">
        <ele>50</ele>
        <time>2016-06-24T12:33:35Z</time>
      </trkpt>
      <trkpt lat="48.67583" lon="-2.32648">
        <ele>50</ele>
        <time>2016-06-24T12:33:38Z</time>
      </trkpt>
      <trkpt lat="48.6758" lon="-2.32651">
        <ele>50</ele>
        <time>2016-06-24T12:33:41Z</time>
      </trkpt>
      <trkpt lat="48.67577" lon="-2.32655">
        <ele>50</ele>
        <time>2016-06-24T12:33:44Z</time>
      </trkpt>
      <trkpt lat="48.67573" lon="-2.32659">
        <ele>50</ele>
        <time>2016-06-24T12:33:47Z</time>
      </trkpt>
      <trkpt lat="48.67569" lon="-2.32664">
        <ele>50</ele>
        <time>2016-06-24T12:33:51Z</time>
      </trkpt>
      <trkpt lat="48.67564" lon="-2.32668">
        <ele>50</ele>
        <time>2016-06-24T12:33:55Z</time>
      </trkpt>
      <trkpt lat="48.6756" lon="-2.3267">
        <ele>50</ele>
        <time>2016-06-24T12:33:58Z</time>
      </trkpt>
      <trkpt lat="48.67556" lon="-2.32675">
        <ele>50</ele>
        <time>2016-06-24T12:34:02Z</time>
      </trkpt>
      <trkpt lat="48.67552" lon="-2.32677">
        <ele>50</ele>
        <time>2016-06-24T12:34:05Z</time>
      </trkpt>
      <trkpt lat="48.67548" lon="-2.3268">
        <ele>50</ele>
        <time>2016-06-24T12:34:08Z</time>
      </trkpt>
      <trkpt lat="48.67545" lon="-2.32683">
        <ele>50</ele>
        <time>2016-06-24T12:34:11Z</time>
      </trkpt>
      <trkpt lat="48.6754" lon="-2.32683">
        <ele>50</ele>
        <time>2016-06-24T12:34:15Z</time>
      </trkpt>
      <trkpt lat="48.67537" lon="-2.32681">
        <ele>50</ele>
        <time>2016-06-24T12:34:19Z</time>
      </trkpt>
      <trkpt lat="48.67534" lon="-2.32679">
        <ele>50</ele>
        <time>2016-06-24T12:34:22Z</time>
      </trkpt>
      <trkpt lat="48.67531" lon="-2.32678">
        <ele>50</ele>
        <time>2016-06-24T12:34:26Z</time>
      </trkpt>
      <trkpt lat="48.67528" lon="-2.32677">
        <ele>50</ele>
        <time>2016-06-24T12:34:29Z</time>
      </trkpt>
      <trkpt lat="48.67525" lon="-2.32678">
        <ele>51</ele>
        <time>2016-06-24T12:34:32Z</time>
      </trkpt>
      <trkpt lat="48.67522" lon="-2.32684">
        <ele>52</ele>
        <time>2016-06-24T12:34:36Z</time>
      </trkpt>
      <trkpt lat="48.67519" lon="-2.32689">
        <ele>52</ele>
        <time>2016-06-24T12:34:39Z</time>
      </trkpt>
      <trkpt lat="48.67517" lon="-2.32694">
        <ele>52</ele>
        <time>2016-06-24T12:34:42Z</time>
      </trkpt>
      <trkpt lat="48.67514" lon="-2.32698">
        <ele>52</ele>
        <time>2016-06-24T12:34:45Z</time>
      </trkpt>
      <trkpt lat="48.6751" lon="-2.32704">
        <ele>52</ele>
        <time>2016-06-24T12:34:49Z</time>
      </trkpt>
      <trkpt lat="48.67506" lon="-2.3271">
        <ele>52</ele>
        <time>2016-06-24T12:34:53Z</time>
      </trkpt>
      <trkpt lat="48.67504" lon="-2.32715">
        <ele>52</ele>
        <time>2016-06-24T12:34:56Z</time>
      </trkpt>
      <trkpt lat="48.675" lon="-2.32717">
        <ele>52</ele>
        <time>2016-06-24T12:35:00Z</time>
      </trkpt>
      <trkpt lat="48.67497" lon="-2.32721">
        <ele>52</ele>
        <time>2016-06-24T12:35:03Z</time>
      </trkpt>
      <trkpt lat="48.67493" lon="-2.32725">
        <ele>52</ele>
        <time>2016-06-24T12:35:07Z</time>
      </trkpt>
      <trkpt lat="48.67491" lon="-2.32726">
        <ele>52</ele>
        <time>2016-06-24T12:35:21Z</time>
      </trkpt>
      <trkpt lat="48.67489" lon="-2.32727">
        <ele>52</ele>
        <time>2016-06-24T12:35:26Z</time>
      </trkpt>
      <trkpt lat="48.67488" lon="-2.32729">
        <ele>52</ele>
        <time>2016-06-24T12:35:30Z</time>
      </trkpt>
      <trkpt lat="48.67485" lon="-2.32731">
        <ele>52</ele>
        <time>2016-06-24T12:35:34Z</time>
      </trkpt>
      <trkpt lat="48.67482" lon="-2.32734">
        <ele>52</ele>
        <time>2016-06-24T12:35:44Z</time>
      </trkpt>
      <trkpt lat="48.67482" lon="-2.32732">
        <ele>52</ele>
        <time>2016-06-24T12:36:24Z</time>
      </trkpt>
      <trkpt lat="48.67481" lon="-2.32732">
        <ele>52</ele>
        <time>2016-06-24T12:36:59Z</time>
      </trkpt>
      <trkpt lat="48.6748" lon="-2.32733">
        <ele>52</ele>
        <time>2016-06-24T12:38:32Z</time>
      </trkpt>
      <trkpt lat="48.67476" lon="-2.32734">
        <ele>52</ele>
        <time>2016-06-24T12:38:35Z</time>
      </trkpt>
      <trkpt lat="48.67472" lon="-2.32731">
        <ele>52</ele>
        <time>2016-06-24T12:38:38Z</time>
      </trkpt>
      <trkpt lat="48.67467" lon="-2.32728">
        <ele>52</ele>
        <time>2016-06-24T12:38:41Z</time>
      </trkpt>
      <trkpt lat="48.67463" lon="-2.32726">
        <ele>52</ele>
        <time>2016-06-24T12:38:44Z</time>
      </trkpt>
      <trkpt lat="48.67459" lon="-2.32724">
        <ele>52</ele>
        <time>2016-06-24T12:38:47Z</time>
      </trkpt>
      <trkpt lat="48.67454" lon="-2.32724">
        <ele>53</ele>
        <time>2016-06-24T12:38:50Z</time>
      </trkpt>
      <trkpt lat="48.6745" lon="-2.32724">
        <ele>53</ele>
        <time>2016-06-24T12:38:53Z</time>
      </trkpt>
      <trkpt lat="48.67446" lon="-2.32723">
        <ele>53</ele>
        <time>2016-06-24T12:38:56Z</time>
      </trkpt>
      <trkpt lat="48.67442" lon="-2.32722">
        <ele>53</ele>
        <time>2016-06-24T12:38:59Z</time>
      </trkpt>
      <trkpt lat="48.67437" lon="-2.32721">
        <ele>54</ele>
        <time>2016-06-24T12:39:02Z</time>
      </trkpt>
      <trkpt lat="48.67433" lon="-2.3272">
        <ele>54</ele>
        <time>2016-06-24T12:39:05Z</time>
      </trkpt>
      <trkpt lat="48.67429" lon="-2.32718">
        <ele>54</ele>
        <time>2016-06-24T12:39:08Z</time>
      </trkpt>
      <trkpt lat="48.67424" lon="-2.32716">
        <ele>54</ele>
        <time>2016-06-24T12:39:11Z</time>
      </trkpt>
      <trkpt lat="48.6742" lon="-2.32714">
        <ele>55</ele>
        <time>2016-06-24T12:39:14Z</time>
      </trkpt>
      <trkpt lat="48.67416" lon="-2.32712">
        <ele>55</ele>
        <time>2016-06-24T12:39:17Z</time>
      </trkpt>
      <trkpt lat="48.67412" lon="-2.3271">
        <ele>55</ele>
        <time>2016-06-24T12:39:20Z</time>
      </trkpt>
      <trkpt lat="48.67408" lon="-2.32706">
        <ele>56</ele>
        <time>2016-06-24T12:39:23Z</time>
      </trkpt>
      <trkpt lat="48.67404" lon="-2.32704">
        <ele>56</ele>
        <time>2016-06-24T12:39:26Z</time>
      </trkpt>
      <trkpt lat="48.674" lon="-2.32703">
        <ele>56</ele>
        <time>2016-06-24T12:39:29Z</time>
      </trkpt>
      <trkpt lat="48.67396" lon="-2.327">
        <ele>57</ele>
        <time>2016-06-24T12:39:32Z</time>
      </trkpt>
      <trkpt lat="48.67392" lon="-2.32698">
        <ele>57</ele>
        <time>2016-06-24T12:39:35Z</time>
      </trkpt>
      <trkpt lat="48.67388" lon="-2.32696">
        <ele>57</ele>
        <time>2016-06-24T12:39:38Z</time>
      </trkpt>
      <trkpt lat="48.67384" lon="-2.32695">
        <ele>57</ele>
        <time>2016-06-24T12:39:41Z</time>
      </trkpt>
      <trkpt lat="48.6738" lon="-2.32694">
        <ele>57</ele>
        <time>2016-06-24T12:39:44Z</time>
      </trkpt>
      <trkpt lat="48.67376" lon="-2.32693">
        <ele>57</ele>
        <time>2016-06-24T12:39:47Z</time>
      </trkpt>
      <trkpt lat="48.67372" lon="-2.32691">
        <ele>57</ele>
        <time>2016-06-24T12:39:50Z</time>
      </trkpt>
      <trkpt lat="48.67368" lon="-2.3269">
        <ele>57</ele>
        <time>2016-06-24T12:39:53Z</time>
      </trkpt>
      <trkpt lat="48.67364" lon="-2.32689">
        <ele>57</ele>
        <time>2016-06-24T12:39:56Z</time>
      </trkpt>
      <trkpt lat="48.6736" lon="-2.32687">
        <ele>57</ele>
        <time>2016-06-24T12:39:59Z</time>
      </trkpt>
      <trkpt lat="48.67357" lon="-2.32686">
        <ele>57</ele>
        <time>2016-06-24T12:40:02Z</time>
      </trkpt>
      <trkpt lat="48.67353" lon="-2.32683">
        <ele>57</ele>
        <time>2016-06-24T12:40:05Z</time>
      </trkpt>
      <trkpt lat="48.6735" lon="-2.3268">
        <ele>57</ele>
        <time>2016-06-24T12:40:08Z</time>
      </trkpt>
      <trkpt lat="48.67345" lon="-2.32677">
        <ele>57</ele>
        <time>2016-06-24T12:40:11Z</time>
      </trkpt>
      <trkpt lat="48.67342" lon="-2.32675">
        <ele>57</ele>
        <time>2016-06-24T12:40:14Z</time>
      </trkpt>
      <trkpt lat="48.67338" lon="-2.32673">
        <ele>57</ele>
        <time>2016-06-24T12:40:17Z</time>
      </trkpt>
      <trkpt lat="48.67334" lon="-2.32673">
        <ele>57</ele>
        <time>2016-06-24T12:40:20Z</time>
      </trkpt>
      <trkpt lat="48.6733" lon="-2.32675">
        <ele>57</ele>
        <time>2016-06-24T12:40:23Z</time>
      </trkpt>
      <trkpt lat="48.67326" lon="-2.3268">
        <ele>57</ele>
        <time>2016-06-24T12:40:27Z</time>
      </trkpt>
      <trkpt lat="48.67322" lon="-2.32683">
        <ele>57</ele>
        <time>2016-06-24T12:40:31Z</time>
      </trkpt>
      <trkpt lat="48.67317" lon="-2.32687">
        <ele>57</ele>
        <time>2016-06-24T12:40:35Z</time>
      </trkpt>
      <trkpt lat="48.67313" lon="-2.32688">
        <ele>57</ele>
        <time>2016-06-24T12:40:38Z</time>
      </trkpt>
      <trkpt lat="48.6731" lon="-2.32691">
        <ele>57</ele>
        <time>2016-06-24T12:40:41Z</time>
      </trkpt>
      <trkpt lat="48.67305" lon="-2.32697">
        <ele>57</ele>
        <time>2016-06-24T12:40:45Z</time>
      </trkpt>
      <trkpt lat="48.67303" lon="-2.32701">
        <ele>57</ele>
        <time>2016-06-24T12:40:48Z</time>
      </trkpt>
      <trkpt lat="48.67299" lon="-2.32707">
        <ele>56</ele>
        <time>2016-06-24T12:40:52Z</time>
      </trkpt>
      <trkpt lat="48.67295" lon="-2.3271">
        <ele>56</ele>
        <time>2016-06-24T12:40:55Z</time>
      </trkpt>
      <trkpt lat="48.67292" lon="-2.32713">
        <ele>56</ele>
        <time>2016-06-24T12:40:58Z</time>
      </trkpt>
      <trkpt lat="48.67288" lon="-2.32716">
        <ele>56</ele>
        <time>2016-06-24T12:41:01Z</time>
      </trkpt>
      <trkpt lat="48.67284" lon="-2.3272">
        <ele>56</ele>
        <time>2016-06-24T12:41:05Z</time>
      </trkpt>
      <trkpt lat="48.67281" lon="-2.32723">
        <ele>56</ele>
        <time>2016-06-24T12:41:08Z</time>
      </trkpt>
      <trkpt lat="48.67276" lon="-2.32728">
        <ele>56</ele>
        <time>2016-06-24T12:41:12Z</time>
      </trkpt>
      <trkpt lat="48.67273" lon="-2.32732">
        <ele>56</ele>
        <time>2016-06-24T12:41:15Z</time>
      </trkpt>
      <trkpt lat="48.6727" lon="-2.32738">
        <ele>56</ele>
        <time>2016-06-24T12:41:19Z</time>
      </trkpt>
      <trkpt lat="48.67267" lon="-2.32743">
        <ele>55</ele>
        <time>2016-06-24T12:41:22Z</time>
      </trkpt>
      <trkpt lat="48.67264" lon="-2.32749">
        <ele>55</ele>
        <time>2016-06-24T12:41:26Z</time>
      </trkpt>
      <trkpt lat="48.67261" lon="-2.32754">
        <ele>54</ele>
        <time>2016-06-24T12:41:29Z</time>
      </trkpt>
      <trkpt lat="48.67259" lon="-2.32759">
        <ele>54</ele>
        <time>2016-06-24T12:41:32Z</time>
      </trkpt>
      <trkpt lat="48.67256" lon="-2.32763">
        <ele>54</ele>
        <time>2016-06-24T12:41:35Z</time>
      </trkpt>
      <trkpt lat="48.67253" lon="-2.32769">
        <ele>54</ele>
        <time>2016-06-24T12:41:38Z</time>
      </trkpt>
      <trkpt lat="48.67251" lon="-2.32774">
        <ele>53</ele>
        <time>2016-06-24T12:41:41Z</time>
      </trkpt>
      <trkpt lat="48.67248" lon="-2.32781">
        <ele>53</ele>
        <time>2016-06-24T12:41:45Z</time>
      </trkpt>
      <trkpt lat="48.67245" lon="-2.32785">
        <ele>53</ele>
        <time>2016-06-24T12:41:48Z</time>
      </trkpt>
      <trkpt lat="48.67242" lon="-2.32791">
        <ele>52</ele>
        <time>2016-06-24T12:41:51Z</time>
      </trkpt>
      <trkpt lat="48.6724" lon="-2.32796">
        <ele>52</ele>
        <time>2016-06-24T12:41:54Z</time>
      </trkpt>
      <trkpt lat="48.67237" lon="-2.32802">
        <ele>52</ele>
        <time>2016-06-24T12:41:57Z</time>
      </trkpt>
      <trkpt lat="48.67235" lon="-2.32808">
        <ele>52</ele>
        <time>2016-06-24T12:42:00Z</time>
      </trkpt>
      <trkpt lat="48.67234" lon="-2.32815">
        <ele>52</ele>
        <time>2016-06-24T12:42:03Z</time>
      </trkpt>
      <trkpt lat="48.67231" lon="-2.32821">
        <ele>52</ele>
        <time>2016-06-24T12:42:07Z</time>
      </trkpt>
      <trkpt lat="48.67228" lon="-2.32826">
        <ele>52</ele>
        <time>2016-06-24T12:42:10Z</time>
      </trkpt>
      <trkpt lat="48.67226" lon="-2.32831">
        <ele>52</ele>
        <time>2016-06-24T12:42:13Z</time>
      </trkpt>
      <trkpt lat="48.67223" lon="-2.32836">
        <ele>52</ele>
        <time>2016-06-24T12:42:16Z</time>
      </trkpt>
      <trkpt lat="48.67221" lon="-2.32841">
        <ele>52</ele>
        <time>2016-06-24T12:42:19Z</time>
      </trkpt>
      <trkpt lat="48.67217" lon="-2.32848">
        <ele>52</ele>
        <time>2016-06-24T12:42:23Z</time>
      </trkpt>
      <trkpt lat="48.67214" lon="-2.32855">
        <ele>52</ele>
        <time>2016-06-24T12:42:27Z</time>
      </trkpt>
      <trkpt lat="48.6721" lon="-2.3286">
        <ele>52</ele>
        <time>2016-06-24T12:42:31Z</time>
      </trkpt>
      <trkpt lat="48.67206" lon="-2.32867">
        <ele>52</ele>
        <time>2016-06-24T12:42:35Z</time>
      </trkpt>
      <trkpt lat="48.67202" lon="-2.32873">
        <ele>52</ele>
        <time>2016-06-24T12:42:39Z</time>
      </trkpt>
      <trkpt lat="48.67199" lon="-2.32879">
        <ele>52</ele>
        <time>2016-06-24T12:42:43Z</time>
      </trkpt>
      <trkpt lat="48.67196" lon="-2.32884">
        <ele>52</ele>
        <time>2016-06-24T12:42:46Z</time>
      </trkpt>
      <trkpt lat="48.67192" lon="-2.3289">
        <ele>52</ele>
        <time>2016-06-24T12:42:50Z</time>
      </trkpt>
      <trkpt lat="48.67188" lon="-2.32896">
        <ele>52</ele>
        <time>2016-06-24T12:42:54Z</time>
      </trkpt>
      <trkpt lat="48.67184" lon="-2.32901">
        <ele>52</ele>
        <time>2016-06-24T12:42:58Z</time>
      </trkpt>
      <trkpt lat="48.67181" lon="-2.32905">
        <ele>52</ele>
        <time>2016-06-24T12:43:01Z</time>
      </trkpt>
      <trkpt lat="48.67177" lon="-2.3291">
        <ele>52</ele>
        <time>2016-06-24T12:43:05Z</time>
      </trkpt>
      <trkpt lat="48.67173" lon="-2.32915">
        <ele>52</ele>
        <time>2016-06-24T12:43:08Z</time>
      </trkpt>
      <trkpt lat="48.6717" lon="-2.32921">
        <ele>52</ele>
        <time>2016-06-24T12:43:12Z</time>
      </trkpt>
      <trkpt lat="48.67167" lon="-2.32926">
        <ele>52</ele>
        <time>2016-06-24T12:43:15Z</time>
      </trkpt>
      <trkpt lat="48.67163" lon="-2.32932">
        <ele>52</ele>
        <time>2016-06-24T12:43:19Z</time>
      </trkpt>
      <trkpt lat="48.6716" lon="-2.32938">
        <ele>52</ele>
        <time>2016-06-24T12:43:23Z</time>
      </trkpt>
      <trkpt lat="48.67158" lon="-2.32943">
        <ele>52</ele>
        <time>2016-06-24T12:43:26Z</time>
      </trkpt>
      <trkpt lat="48.67156" lon="-2.32948">
        <ele>52</ele>
        <time>2016-06-24T12:43:29Z</time>
      </trkpt>
      <trkpt lat="48.67154" lon="-2.32953">
        <ele>51</ele>
        <time>2016-06-24T12:43:32Z</time>
      </trkpt>
      <trkpt lat="48.6715" lon="-2.32959">
        <ele>51</ele>
        <time>2016-06-24T12:43:35Z</time>
      </trkpt>
      <trkpt lat="48.67148" lon="-2.32964">
        <ele>51</ele>
        <time>2016-06-24T12:43:38Z</time>
      </trkpt>
      <trkpt lat="48.67144" lon="-2.3297">
        <ele>50</ele>
        <time>2016-06-24T12:43:42Z</time>
      </trkpt>
      <trkpt lat="48.67142" lon="-2.32977">
        <ele>50</ele>
        <time>2016-06-24T12:43:45Z</time>
      </trkpt>
      <trkpt lat="48.67139" lon="-2.32984">
        <ele>50</ele>
        <time>2016-06-24T12:43:48Z</time>
      </trkpt>
      <trkpt lat="48.67138" lon="-2.3299">
        <ele>50</ele>
        <time>2016-06-24T12:43:51Z</time>
      </trkpt>
      <trkpt lat="48.67135" lon="-2.32996">
        <ele>50</ele>
        <time>2016-06-24T12:43:54Z</time>
      </trkpt>
      <trkpt lat="48.67132" lon="-2.33002">
        <ele>50</ele>
        <time>2016-06-24T12:43:57Z</time>
      </trkpt>
      <trkpt lat="48.67131" lon="-2.33008">
        <ele>50</ele>
        <time>2016-06-24T12:44:00Z</time>
      </trkpt>
      <trkpt lat="48.67129" lon="-2.33014">
        <ele>50</ele>
        <time>2016-06-24T12:44:04Z</time>
      </trkpt>
      <trkpt lat="48.67127" lon="-2.33019">
        <ele>50</ele>
        <time>2016-06-24T12:44:07Z</time>
      </trkpt>
      <trkpt lat="48.67126" lon="-2.33025">
        <ele>50</ele>
        <time>2016-06-24T12:44:11Z</time>
      </trkpt>
      <trkpt lat="48.67124" lon="-2.33031">
        <ele>50</ele>
        <time>2016-06-24T12:44:14Z</time>
      </trkpt>
      <trkpt lat="48.6712" lon="-2.33033">
        <ele>50</ele>
        <time>2016-06-24T12:44:17Z</time>
      </trkpt>
      <trkpt lat="48.67117" lon="-2.33038">
        <ele>50</ele>
        <time>2016-06-24T12:44:20Z</time>
      </trkpt>
      <trkpt lat="48.67116" lon="-2.33044">
        <ele>49</ele>
        <time>2016-06-24T12:44:23Z</time>
      </trkpt>
      <trkpt lat="48.67115" lon="-2.3305">
        <ele>49</ele>
        <time>2016-06-24T12:44:26Z</time>
      </trkpt>
      <trkpt lat="48.67114" lon="-2.33057">
        <ele>49</ele>
        <time>2016-06-24T12:44:29Z</time>
      </trkpt>
      <trkpt lat="48.67112" lon="-2.33062">
        <ele>49</ele>
        <time>2016-06-24T12:44:32Z</time>
      </trkpt>
      <trkpt lat="48.67108" lon="-2.33068">
        <ele>49</ele>
        <time>2016-06-24T12:44:36Z</time>
      </trkpt>
      <trkpt lat="48.67104" lon="-2.3307">
        <ele>49</ele>
        <time>2016-06-24T12:44:39Z</time>
      </trkpt>
      <trkpt lat="48.671" lon="-2.33073">
        <ele>49</ele>
        <time>2016-06-24T12:44:42Z</time>
      </trkpt>
      <trkpt lat="48.67096" lon="-2.33075">
        <ele>49</ele>
        <time>2016-06-24T12:44:45Z</time>
      </trkpt>
      <trkpt lat="48.67092" lon="-2.33078">
        <ele>49</ele>
        <time>2016-06-24T12:44:48Z</time>
      </trkpt>
      <trkpt lat="48.67087" lon="-2.33078">
        <ele>49</ele>
        <time>2016-06-24T12:44:52Z</time>
      </trkpt>
      <trkpt lat="48.67083" lon="-2.33077">
        <ele>49</ele>
        <time>2016-06-24T12:44:55Z</time>
      </trkpt>
      <trkpt lat="48.67079" lon="-2.33077">
        <ele>49</ele>
        <time>2016-06-24T12:44:58Z</time>
      </trkpt>
      <trkpt lat="48.67075" lon="-2.33077">
        <ele>49</ele>
        <time>2016-06-24T12:45:01Z</time>
      </trkpt>
      <trkpt lat="48.67071" lon="-2.33077">
        <ele>49</ele>
        <time>2016-06-24T12:45:04Z</time>
      </trkpt>
      <trkpt lat="48.67067" lon="-2.33078">
        <ele>49</ele>
        <time>2016-06-24T12:45:07Z</time>
      </trkpt>
      <trkpt lat="48.67063" lon="-2.3308">
        <ele>49</ele>
        <time>2016-06-24T12:45:10Z</time>
      </trkpt>
      <trkpt lat="48.67059" lon="-2.33082">
        <ele>49</ele>
        <time>2016-06-24T12:45:13Z</time>
      </trkpt>
      <trkpt lat="48.67055" lon="-2.33085">
        <ele>49</ele>
        <time>2016-06-24T12:45:16Z</time>
      </trkpt>
      <trkpt lat="48.67051" lon="-2.33086">
        <ele>49</ele>
        <time>2016-06-24T12:45:19Z</time>
      </trkpt>
      <trkpt lat="48.67046" lon="-2.3309">
        <ele>49</ele>
        <time>2016-06-24T12:45:23Z</time>
      </trkpt>
      <trkpt lat="48.67042" lon="-2.33094">
        <ele>49</ele>
        <time>2016-06-24T12:45:26Z</time>
      </trkpt>
      <trkpt lat="48.67038" lon="-2.33098">
        <ele>49</ele>
        <time>2016-06-24T12:45:31Z</time>
      </trkpt>
      <trkpt lat="48.67036" lon="-2.33104">
        <ele>49</ele>
        <time>2016-06-24T12:45:34Z</time>
      </trkpt>
      <trkpt lat="48.67033" lon="-2.3311">
        <ele>49</ele>
        <time>2016-06-24T12:45:39Z</time>
      </trkpt>
      <trkpt lat="48.67031" lon="-2.33116">
        <ele>49</ele>
        <time>2016-06-24T12:45:42Z</time>
      </trkpt>
      <trkpt lat="48.67029" lon="-2.3312">
        <ele>49</ele>
        <time>2016-06-24T12:45:45Z</time>
      </trkpt>
      <trkpt lat="48.67029" lon="-2.33123">
        <ele>49</ele>
        <time>2016-06-24T12:45:48Z</time>
      </trkpt>
      <trkpt lat="48.67027" lon="-2.33129">
        <ele>49</ele>
        <time>2016-06-24T12:45:51Z</time>
      </trkpt>
      <trkpt lat="48.67025" lon="-2.33134">
        <ele>49</ele>
        <time>2016-06-24T12:45:54Z</time>
      </trkpt>
      <trkpt lat="48.67022" lon="-2.33138">
        <ele>49</ele>
        <time>2016-06-24T12:45:57Z</time>
      </trkpt>
      <trkpt lat="48.6702" lon="-2.33143">
        <ele>49</ele>
        <time>2016-06-24T12:46:00Z</time>
      </trkpt>
      <trkpt lat="48.67015" lon="-2.33147">
        <ele>49</ele>
        <time>2016-06-24T12:46:03Z</time>
      </trkpt>
      <trkpt lat="48.67011" lon="-2.3315">
        <ele>49</ele>
        <time>2016-06-24T12:46:06Z</time>
      </trkpt>
      <trkpt lat="48.67007" lon="-2.33152">
        <ele>49</ele>
        <time>2016-06-24T12:46:11Z</time>
      </trkpt>
      <trkpt lat="48.67003" lon="-2.33157">
        <ele>49</ele>
        <time>2016-06-24T12:46:14Z</time>
      </trkpt>
      <trkpt lat="48.66999" lon="-2.33161">
        <ele>49</ele>
        <time>2016-06-24T12:46:19Z</time>
      </trkpt>
      <trkpt lat="48.66996" lon="-2.33164">
        <ele>49</ele>
        <time>2016-06-24T12:46:22Z</time>
      </trkpt>
      <trkpt lat="48.66994" lon="-2.33169">
        <ele>49</ele>
        <time>2016-06-24T12:46:25Z</time>
      </trkpt>
      <trkpt lat="48.66993" lon="-2.33174">
        <ele>49</ele>
        <time>2016-06-24T12:46:28Z</time>
      </trkpt>
      <trkpt lat="48.66991" lon="-2.3318">
        <ele>49</ele>
        <time>2016-06-24T12:46:31Z</time>
      </trkpt>
      <trkpt lat="48.6699" lon="-2.33186">
        <ele>49</ele>
        <time>2016-06-24T12:46:34Z</time>
      </trkpt>
      <trkpt lat="48.66988" lon="-2.33192">
        <ele>49</ele>
        <time>2016-06-24T12:46:37Z</time>
      </trkpt>
      <trkpt lat="48.66985" lon="-2.33197">
        <ele>49</ele>
        <time>2016-06-24T12:46:40Z</time>
      </trkpt>
      <trkpt lat="48.66983" lon="-2.33203">
        <ele>49</ele>
        <time>2016-06-24T12:46:43Z</time>
      </trkpt>
      <trkpt lat="48.66982" lon="-2.33209">
        <ele>49</ele>
        <time>2016-06-24T12:46:46Z</time>
      </trkpt>
      <trkpt lat="48.66981" lon="-2.33215">
        <ele>49</ele>
        <time>2016-06-24T12:46:49Z</time>
      </trkpt>
      <trkpt lat="48.66981" lon="-2.33222">
        <ele>49</ele>
        <time>2016-06-24T12:46:52Z</time>
      </trkpt>
      <trkpt lat="48.6698" lon="-2.33228">
        <ele>49</ele>
        <time>2016-06-24T12:46:55Z</time>
      </trkpt>
      <trkpt lat="48.66979" lon="-2.33236">
        <ele>49</ele>
        <time>2016-06-24T12:46:59Z</time>
      </trkpt>
      <trkpt lat="48.66978" lon="-2.33241">
        <ele>49</ele>
        <time>2016-06-24T12:47:02Z</time>
      </trkpt>
      <trkpt lat="48.66978" lon="-2.33247">
        <ele>49</ele>
        <time>2016-06-24T12:47:06Z</time>
      </trkpt>
      <trkpt lat="48.66978" lon="-2.33253">
        <ele>49</ele>
        <time>2016-06-24T12:47:09Z</time>
      </trkpt>
      <trkpt lat="48.66979" lon="-2.33259">
        <ele>49</ele>
        <time>2016-06-24T12:47:12Z</time>
      </trkpt>
      <trkpt lat="48.66979" lon="-2.33267">
        <ele>49</ele>
        <time>2016-06-24T12:47:16Z</time>
      </trkpt>
      <trkpt lat="48.66979" lon="-2.33273">
        <ele>48</ele>
        <time>2016-06-24T12:47:19Z</time>
      </trkpt>
      <trkpt lat="48.66978" lon="-2.33279">
        <ele>48</ele>
        <time>2016-06-24T12:47:22Z</time>
      </trkpt>
      <trkpt lat="48.6698" lon="-2.33285">
        <ele>48</ele>
        <time>2016-06-24T12:47:25Z</time>
      </trkpt>
      <trkpt lat="48.66982" lon="-2.3329">
        <ele>48</ele>
        <time>2016-06-24T12:47:28Z</time>
      </trkpt>
      <trkpt lat="48.66983" lon="-2.33295">
        <ele>48</ele>
        <time>2016-06-24T12:47:31Z</time>
      </trkpt>
      <trkpt lat="48.66984" lon="-2.33302">
        <ele>48</ele>
        <time>2016-06-24T12:47:34Z</time>
      </trkpt>
      <trkpt lat="48.66983" lon="-2.33308">
        <ele>47</ele>
        <time>2016-06-24T12:47:37Z</time>
      </trkpt>
      <trkpt lat="48.66985" lon="-2.33313">
        <ele>47</ele>
        <time>2016-06-24T12:47:40Z</time>
      </trkpt>
      <trkpt lat="48.66985" lon="-2.3332">
        <ele>47</ele>
        <time>2016-06-24T12:47:43Z</time>
      </trkpt>
      <trkpt lat="48.66983" lon="-2.33326">
        <ele>47</ele>
        <time>2016-06-24T12:47:46Z</time>
      </trkpt>
      <trkpt lat="48.66982" lon="-2.33331">
        <ele>46</ele>
        <time>2016-06-24T12:47:49Z</time>
      </trkpt>
      <trkpt lat="48.6698" lon="-2.33336">
        <ele>46</ele>
        <time>2016-06-24T12:47:52Z</time>
      </trkpt>
      <trkpt lat="48.6698" lon="-2.33342">
        <ele>46</ele>
        <time>2016-06-24T12:47:55Z</time>
      </trkpt>
      <trkpt lat="48.66982" lon="-2.33349">
        <ele>46</ele>
        <time>2016-06-24T12:47:59Z</time>
      </trkpt>
      <trkpt lat="48.66984" lon="-2.33355">
        <ele>46</ele>
        <time>2016-06-24T12:48:02Z</time>
      </trkpt>
      <trkpt lat="48.66984" lon="-2.33361">
        <ele>46</ele>
        <time>2016-06-24T12:48:05Z</time>
      </trkpt>
      <trkpt lat="48.66985" lon="-2.33369">
        <ele>46</ele>
        <time>2016-06-24T12:48:09Z</time>
      </trkpt>
      <trkpt lat="48.66987" lon="-2.33378">
        <ele>46</ele>
        <time>2016-06-24T12:48:12Z</time>
      </trkpt>
      <trkpt lat="48.66988" lon="-2.33383">
        <ele>46</ele>
        <time>2016-06-24T12:48:15Z</time>
      </trkpt>
      <trkpt lat="48.6699" lon="-2.33389">
        <ele>46</ele>
        <time>2016-06-24T12:48:18Z</time>
      </trkpt>
      <trkpt lat="48.66992" lon="-2.33395">
        <ele>46</ele>
        <time>2016-06-24T12:48:21Z</time>
      </trkpt>
      <trkpt lat="48.66995" lon="-2.334">
        <ele>46</ele>
        <time>2016-06-24T12:48:25Z</time>
      </trkpt>
      <trkpt lat="48.66998" lon="-2.33404">
        <ele>46</ele>
        <time>2016-06-24T12:48:29Z</time>
      </trkpt>
      <trkpt lat="48.67001" lon="-2.33407">
        <ele>46</ele>
        <time>2016-06-24T12:48:33Z</time>
      </trkpt>
      <trkpt lat="48.67005" lon="-2.33407">
        <ele>46</ele>
        <time>2016-06-24T12:48:37Z</time>
      </trkpt>
      <trkpt lat="48.67008" lon="-2.33406">
        <ele>46</ele>
        <time>2016-06-24T12:48:40Z</time>
      </trkpt>
      <trkpt lat="48.67013" lon="-2.33405">
        <ele>46</ele>
        <time>2016-06-24T12:48:44Z</time>
      </trkpt>
      <trkpt lat="48.67017" lon="-2.33404">
        <ele>46</ele>
        <time>2016-06-24T12:48:48Z</time>
      </trkpt>
      <trkpt lat="48.6702" lon="-2.33403">
        <ele>46</ele>
        <time>2016-06-24T12:48:53Z</time>
      </trkpt>
      <trkpt lat="48.67022" lon="-2.33405">
        <ele>46</ele>
        <time>2016-06-24T12:48:57Z</time>
      </trkpt>
      <trkpt lat="48.67022" lon="-2.33408">
        <ele>46</ele>
        <time>2016-06-24T12:49:06Z</time>
      </trkpt>
      <trkpt lat="48.6702" lon="-2.33413">
        <ele>46</ele>
        <time>2016-06-24T12:49:09Z</time>
      </trkpt>
      <trkpt lat="48.6702" lon="-2.33418">
        <ele>46</ele>
        <time>2016-06-24T12:49:14Z</time>
      </trkpt>
      <trkpt lat="48.67019" lon="-2.33422">
        <ele>45</ele>
        <time>2016-06-24T12:49:18Z</time>
      </trkpt>
      <trkpt lat="48.6702" lon="-2.33426">
        <ele>44</ele>
        <time>2016-06-24T12:49:40Z</time>
      </trkpt>
      <trkpt lat="48.67023" lon="-2.33427">
        <ele>44</ele>
        <time>2016-06-24T12:49:45Z</time>
      </trkpt>
      <trkpt lat="48.67027" lon="-2.33428">
        <ele>44</ele>
        <time>2016-06-24T12:49:48Z</time>
      </trkpt>
      <trkpt lat="48.67029" lon="-2.33431">
        <ele>44</ele>
        <time>2016-06-24T12:49:52Z</time>
      </trkpt>
      <trkpt lat="48.67033" lon="-2.33431">
        <ele>44</ele>
        <time>2016-06-24T12:49:56Z</time>
      </trkpt>
      <trkpt lat="48.67037" lon="-2.33432">
        <ele>43</ele>
        <time>2016-06-24T12:50:00Z</time>
      </trkpt>
      <trkpt lat="48.67041" lon="-2.33434">
        <ele>43</ele>
        <time>2016-06-24T12:50:04Z</time>
      </trkpt>
      <trkpt lat="48.67044" lon="-2.33436">
        <ele>43</ele>
        <time>2016-06-24T12:50:08Z</time>
      </trkpt>
      <trkpt lat="48.67044" lon="-2.33434">
        <ele>42</ele>
        <time>2016-06-24T12:50:35Z</time>
      </trkpt>
      <trkpt lat="48.67045" lon="-2.3343">
        <ele>42</ele>
        <time>2016-06-24T12:50:40Z</time>
      </trkpt>
      <trkpt lat="48.67046" lon="-2.33426">
        <ele>42</ele>
        <time>2016-06-24T12:50:43Z</time>
      </trkpt>
      <trkpt lat="48.67044" lon="-2.33424">
        <ele>42</ele>
        <time>2016-06-24T12:50:48Z</time>
      </trkpt>
      <trkpt lat="48.67043" lon="-2.33424">
        <ele>42</ele>
        <time>2016-06-24T12:51:05Z</time>
      </trkpt>
      <trkpt lat="48.67041" lon="-2.33423">
        <ele>42</ele>
        <time>2016-06-24T12:51:11Z</time>
      </trkpt>
      <trkpt lat="48.67037" lon="-2.33426">
        <ele>42</ele>
        <time>2016-06-24T12:51:16Z</time>
      </trkpt>
      <trkpt lat="48.67034" lon="-2.33429">
        <ele>42</ele>
        <time>2016-06-24T12:51:19Z</time>
      </trkpt>
      <trkpt lat="48.67033" lon="-2.33432">
        <ele>42</ele>
        <time>2016-06-24T12:51:23Z</time>
      </trkpt>
      <trkpt lat="48.67031" lon="-2.33433">
        <ele>42</ele>
        <time>2016-06-24T12:51:27Z</time>
      </trkpt>
      <trkpt lat="48.67029" lon="-2.33431">
        <ele>42</ele>
        <time>2016-06-24T12:51:41Z</time>
      </trkpt>
      <trkpt lat="48.67027" lon="-2.3343">
        <ele>42</ele>
        <time>2016-06-24T12:51:45Z</time>
      </trkpt>
      <trkpt lat="48.67025" lon="-2.33429">
        <ele>42</ele>
        <time>2016-06-24T12:52:11Z</time>
      </trkpt>
      <trkpt lat="48.67024" lon="-2.33426">
        <ele>42</ele>
        <time>2016-06-24T12:52:15Z</time>
      </trkpt>
      <trkpt lat="48.67023" lon="-2.33426">
        <ele>42</ele>
        <time>2016-06-24T12:52:19Z</time>
      </trkpt>
      <trkpt lat="48.6702" lon="-2.33427">
        <ele>42</ele>
        <time>2016-06-24T12:52:23Z</time>
      </trkpt>
      <trkpt lat="48.67017" lon="-2.33424">
        <ele>42</ele>
        <time>2016-06-24T12:52:43Z</time>
      </trkpt>
      <trkpt lat="48.67016" lon="-2.33424">
        <ele>42</ele>
        <time>2016-06-24T12:52:47Z</time>
      </trkpt>
      <trkpt lat="48.67014" lon="-2.33424">
        <ele>42</ele>
        <time>2016-06-24T12:52:57Z</time>
      </trkpt>
      <trkpt lat="48.67012" lon="-2.33423">
        <ele>42</ele>
        <time>2016-06-24T12:53:09Z</time>
      </trkpt>
      <trkpt lat="48.6701" lon="-2.33422">
        <ele>42</ele>
        <time>2016-06-24T12:53:15Z</time>
      </trkpt>
      <trkpt lat="48.6701" lon="-2.33419">
        <ele>42</ele>
        <time>2016-06-24T12:53:18Z</time>
      </trkpt>
      <trkpt lat="48.67008" lon="-2.33414">
        <ele>42</ele>
        <time>2016-06-24T12:53:23Z</time>
      </trkpt>
      <trkpt lat="48.67005" lon="-2.3341">
        <ele>42</ele>
        <time>2016-06-24T12:53:27Z</time>
      </trkpt>
      <trkpt lat="48.67002" lon="-2.33409">
        <ele>42</ele>
        <time>2016-06-24T12:53:37Z</time>
      </trkpt>
      <trkpt lat="48.66999" lon="-2.3341">
        <ele>42</ele>
        <time>2016-06-24T12:53:40Z</time>
      </trkpt>
      <trkpt lat="48.66998" lon="-2.33411">
        <ele>42</ele>
        <time>2016-06-24T12:53:43Z</time>
      </trkpt>
      <trkpt lat="48.66994" lon="-2.3341">
        <ele>42</ele>
        <time>2016-06-24T12:53:48Z</time>
      </trkpt>
      <trkpt lat="48.6699" lon="-2.33409">
        <ele>42</ele>
        <time>2016-06-24T12:53:51Z</time>
      </trkpt>
      <trkpt lat="48.66986" lon="-2.3341">
        <ele>42</ele>
        <time>2016-06-24T12:53:55Z</time>
      </trkpt>
      <trkpt lat="48.66983" lon="-2.33412">
        <ele>42</ele>
        <time>2016-06-24T12:53:59Z</time>
      </trkpt>
      <trkpt lat="48.66983" lon="-2.33418">
        <ele>42</ele>
        <time>2016-06-24T12:54:02Z</time>
      </trkpt>
      <trkpt lat="48.66983" lon="-2.33424">
        <ele>42</ele>
        <time>2016-06-24T12:54:05Z</time>
      </trkpt>
      <trkpt lat="48.66983" lon="-2.3343">
        <ele>42</ele>
        <time>2016-06-24T12:54:08Z</time>
      </trkpt>
      <trkpt lat="48.66982" lon="-2.33434">
        <ele>42</ele>
        <time>2016-06-24T12:54:12Z</time>
      </trkpt>
      <trkpt lat="48.66982" lon="-2.3344">
        <ele>42</ele>
        <time>2016-06-24T12:54:15Z</time>
      </trkpt>
      <trkpt lat="48.66981" lon="-2.33447">
        <ele>42</ele>
        <time>2016-06-24T12:54:18Z</time>
      </trkpt>
      <trkpt lat="48.6698" lon="-2.33453">
        <ele>42</ele>
        <time>2016-06-24T12:54:21Z</time>
      </trkpt>
      <trkpt lat="48.6698" lon="-2.33459">
        <ele>42</ele>
        <time>2016-06-24T12:54:24Z</time>
      </trkpt>
      <trkpt lat="48.6698" lon="-2.33465">
        <ele>42</ele>
        <time>2016-06-24T12:54:27Z</time>
      </trkpt>
      <trkpt lat="48.66979" lon="-2.33471">
        <ele>42</ele>
        <time>2016-06-24T12:54:30Z</time>
      </trkpt>
      <trkpt lat="48.66979" lon="-2.33476">
        <ele>42</ele>
        <time>2016-06-24T12:54:33Z</time>
      </trkpt>
      <trkpt lat="48.66978" lon="-2.33482">
        <ele>42</ele>
        <time>2016-06-24T12:54:36Z</time>
      </trkpt>
      <trkpt lat="48.66978" lon="-2.33487">
        <ele>42</ele>
        <time>2016-06-24T12:54:39Z</time>
      </trkpt>
      <trkpt lat="48.66977" lon="-2.33492">
        <ele>42</ele>
        <time>2016-06-24T12:54:42Z</time>
      </trkpt>
      <trkpt lat="48.66974" lon="-2.33497">
        <ele>42</ele>
        <time>2016-06-24T12:54:46Z</time>
      </trkpt>
      <trkpt lat="48.66971" lon="-2.335">
        <ele>42</ele>
        <time>2016-06-24T12:54:49Z</time>
      </trkpt>
      <trkpt lat="48.66967" lon="-2.33503">
        <ele>42</ele>
        <time>2016-06-24T12:54:52Z</time>
      </trkpt>
      <trkpt lat="48.66964" lon="-2.33506">
        <ele>42</ele>
        <time>2016-06-24T12:54:56Z</time>
      </trkpt>
      <trkpt lat="48.6696" lon="-2.3351">
        <ele>42</ele>
        <time>2016-06-24T12:55:00Z</time>
      </trkpt>
      <trkpt lat="48.66957" lon="-2.33513">
        <ele>42</ele>
        <time>2016-06-24T12:55:10Z</time>
      </trkpt>
      <trkpt lat="48.66954" lon="-2.33516">
        <ele>42</ele>
        <time>2016-06-24T12:55:14Z</time>
      </trkpt>
      <trkpt lat="48.66953" lon="-2.33517">
        <ele>42</ele>
        <time>2016-06-24T12:55:21Z</time>
      </trkpt>
      <trkpt lat="48.66949" lon="-2.33521">
        <ele>41</ele>
        <time>2016-06-24T12:55:25Z</time>
      </trkpt>
      <trkpt lat="48.66945" lon="-2.33524">
        <ele>41</ele>
        <time>2016-06-24T12:55:28Z</time>
      </trkpt>
      <trkpt lat="48.66942" lon="-2.33526">
        <ele>41</ele>
        <time>2016-06-24T12:55:31Z</time>
      </trkpt>
      <trkpt lat="48.66938" lon="-2.33529">
        <ele>40</ele>
        <time>2016-06-24T12:55:34Z</time>
      </trkpt>
      <trkpt lat="48.66935" lon="-2.33533">
        <ele>40</ele>
        <time>2016-06-24T12:55:37Z</time>
      </trkpt>
      <trkpt lat="48.66931" lon="-2.33537">
        <ele>40</ele>
        <time>2016-06-24T12:55:41Z</time>
      </trkpt>
      <trkpt lat="48.66927" lon="-2.3354">
        <ele>40</ele>
        <time>2016-06-24T12:55:44Z</time>
      </trkpt>
      <trkpt lat="48.66924" lon="-2.33543">
        <ele>40</ele>
        <time>2016-06-24T12:55:47Z</time>
      </trkpt>
      <trkpt lat="48.66921" lon="-2.33547">
        <ele>40</ele>
        <time>2016-06-24T12:55:50Z</time>
      </trkpt>
      <trkpt lat="48.66917" lon="-2.33549">
        <ele>40</ele>
        <time>2016-06-24T12:55:53Z</time>
      </trkpt>
      <trkpt lat="48.66913" lon="-2.3355">
        <ele>40</ele>
        <time>2016-06-24T12:55:56Z</time>
      </trkpt>
      <trkpt lat="48.66909" lon="-2.3355">
        <ele>40</ele>
        <time>2016-06-24T12:55:59Z</time>
      </trkpt>
      <trkpt lat="48.66904" lon="-2.33549">
        <ele>40</ele>
        <time>2016-06-24T12:56:02Z</time>
      </trkpt>
      <trkpt lat="48.669" lon="-2.33547">
        <ele>40</ele>
        <time>2016-06-24T12:56:05Z</time>
      </trkpt>
      <trkpt lat="48.66896" lon="-2.33546">
        <ele>40</ele>
        <time>2016-06-24T12:56:08Z</time>
      </trkpt>
      <trkpt lat="48.66892" lon="-2.33545">
        <ele>40</ele>
        <time>2016-06-24T12:56:11Z</time>
      </trkpt>
      <trkpt lat="48.66888" lon="-2.33545">
        <ele>40</ele>
        <time>2016-06-24T12:56:14Z</time>
      </trkpt>
      <trkpt lat="48.66884" lon="-2.33545">
        <ele>40</ele>
        <time>2016-06-24T12:56:17Z</time>
      </trkpt>
      <trkpt lat="48.6688" lon="-2.3355">
        <ele>40</ele>
        <time>2016-06-24T12:56:21Z</time>
      </trkpt>
      <trkpt lat="48.66877" lon="-2.33555">
        <ele>40</ele>
        <time>2016-06-24T12:56:24Z</time>
      </trkpt>
      <trkpt lat="48.66875" lon="-2.3356">
        <ele>40</ele>
        <time>2016-06-24T12:56:27Z</time>
      </trkpt>
      <trkpt lat="48.66872" lon="-2.33566">
        <ele>40</ele>
        <time>2016-06-24T12:56:31Z</time>
      </trkpt>
      <trkpt lat="48.6687" lon="-2.33572">
        <ele>40</ele>
        <time>2016-06-24T12:56:34Z</time>
      </trkpt>
      <trkpt lat="48.66866" lon="-2.33577">
        <ele>40</ele>
        <time>2016-06-24T12:56:38Z</time>
      </trkpt>
      <trkpt lat="48.66864" lon="-2.33582">
        <ele>40</ele>
        <time>2016-06-24T12:56:41Z</time>
      </trkpt>
      <trkpt lat="48.66862" lon="-2.33588">
        <ele>40</ele>
        <time>2016-06-24T12:56:44Z</time>
      </trkpt>
      <trkpt lat="48.66859" lon="-2.33592">
        <ele>40</ele>
        <time>2016-06-24T12:56:47Z</time>
      </trkpt>
      <trkpt lat="48.66855" lon="-2.33598">
        <ele>40</ele>
        <time>2016-06-24T12:56:51Z</time>
      </trkpt>
      <trkpt lat="48.66851" lon="-2.33604">
        <ele>40</ele>
        <time>2016-06-24T12:56:55Z</time>
      </trkpt>
      <trkpt lat="48.66847" lon="-2.33609">
        <ele>40</ele>
        <time>2016-06-24T12:56:59Z</time>
      </trkpt>
      <trkpt lat="48.66844" lon="-2.33613">
        <ele>40</ele>
        <time>2016-06-24T12:57:02Z</time>
      </trkpt>
      <trkpt lat="48.66841" lon="-2.33617">
        <ele>40</ele>
        <time>2016-06-24T12:57:05Z</time>
      </trkpt>
      <trkpt lat="48.66839" lon="-2.33623">
        <ele>40</ele>
        <time>2016-06-24T12:57:08Z</time>
      </trkpt>
      <trkpt lat="48.66837" lon="-2.33628">
        <ele>40</ele>
        <time>2016-06-24T12:57:11Z</time>
      </trkpt>
      <trkpt lat="48.66834" lon="-2.33631">
        <ele>40</ele>
        <time>2016-06-24T12:57:14Z</time>
      </trkpt>
      <trkpt lat="48.6683" lon="-2.33633">
        <ele>40</ele>
        <time>2016-06-24T12:57:17Z</time>
      </trkpt>
      <trkpt lat="48.66826" lon="-2.33637">
        <ele>40</ele>
        <time>2016-06-24T12:57:21Z</time>
      </trkpt>
      <trkpt lat="48.66825" lon="-2.33645">
        <ele>40</ele>
        <time>2016-06-24T12:57:24Z</time>
      </trkpt>
      <trkpt lat="48.66825" lon="-2.33652">
        <ele>40</ele>
        <time>2016-06-24T12:57:27Z</time>
      </trkpt>
      <trkpt lat="48.66824" lon="-2.33658">
        <ele>40</ele>
        <time>2016-06-24T12:57:30Z</time>
      </trkpt>
      <trkpt lat="48.66821" lon="-2.33664">
        <ele>40</ele>
        <time>2016-06-24T12:57:33Z</time>
      </trkpt>
      <trkpt lat="48.66817" lon="-2.33669">
        <ele>40</ele>
        <time>2016-06-24T12:57:37Z</time>
      </trkpt>
      <trkpt lat="48.66814" lon="-2.33676">
        <ele>40</ele>
        <time>2016-06-24T12:57:41Z</time>
      </trkpt>
      <trkpt lat="48.66812" lon="-2.33681">
        <ele>40</ele>
        <time>2016-06-24T12:57:44Z</time>
      </trkpt>
      <trkpt lat="48.6681" lon="-2.33685">
        <ele>40</ele>
        <time>2016-06-24T12:57:47Z</time>
      </trkpt>
      <trkpt lat="48.66808" lon="-2.33691">
        <ele>40</ele>
        <time>2016-06-24T12:57:50Z</time>
      </trkpt>
      <trkpt lat="48.66805" lon="-2.33695">
        <ele>40</ele>
        <time>2016-06-24T12:57:53Z</time>
      </trkpt>
      <trkpt lat="48.66802" lon="-2.33699">
        <ele>40</ele>
        <time>2016-06-24T12:57:56Z</time>
      </trkpt>
      <trkpt lat="48.66798" lon="-2.33704">
        <ele>40</ele>
        <time>2016-06-24T12:58:00Z</time>
      </trkpt>
      <trkpt lat="48.66796" lon="-2.33709">
        <ele>40</ele>
        <time>2016-06-24T12:58:03Z</time>
      </trkpt>
      <trkpt lat="48.66794" lon="-2.33715">
        <ele>40</ele>
        <time>2016-06-24T12:58:06Z</time>
      </trkpt>
      <trkpt lat="48.66792" lon="-2.3372">
        <ele>40</ele>
        <time>2016-06-24T12:58:10Z</time>
      </trkpt>
      <trkpt lat="48.66791" lon="-2.33722">
        <ele>40</ele>
        <time>2016-06-24T12:58:13Z</time>
      </trkpt>
      <trkpt lat="48.66789" lon="-2.33727">
        <ele>40</ele>
        <time>2016-06-24T12:58:16Z</time>
      </trkpt>
      <trkpt lat="48.66788" lon="-2.33733">
        <ele>40</ele>
        <time>2016-06-24T12:58:19Z</time>
      </trkpt>
      <trkpt lat="48.66786" lon="-2.33737">
        <ele>40</ele>
        <time>2016-06-24T12:58:22Z</time>
      </trkpt>
      <trkpt lat="48.66782" lon="-2.33742">
        <ele>40</ele>
        <time>2016-06-24T12:58:26Z</time>
      </trkpt>
      <trkpt lat="48.66779" lon="-2.33743">
        <ele>40</ele>
        <time>2016-06-24T12:58:29Z</time>
      </trkpt>
      <trkpt lat="48.66774" lon="-2.33742">
        <ele>40</ele>
        <time>2016-06-24T12:58:33Z</time>
      </trkpt>
      <trkpt lat="48.66771" lon="-2.33741">
        <ele>40</ele>
        <time>2016-06-24T12:58:36Z</time>
      </trkpt>
      <trkpt lat="48.66768" lon="-2.3374">
        <ele>40</ele>
        <time>2016-06-24T12:58:39Z</time>
      </trkpt>
      <trkpt lat="48.66764" lon="-2.33739">
        <ele>40</ele>
        <time>2016-06-24T12:58:42Z</time>
      </trkpt>
      <trkpt lat="48.6676" lon="-2.33737">
        <ele>40</ele>
        <time>2016-06-24T12:58:45Z</time>
      </trkpt>
      <trkpt lat="48.66756" lon="-2.33737">
        <ele>40</ele>
        <time>2016-06-24T12:58:48Z</time>
      </trkpt>
      <trkpt lat="48.66752" lon="-2.33737">
        <ele>40</ele>
        <time>2016-06-24T12:58:51Z</time>
      </trkpt>
      <trkpt lat="48.66749" lon="-2.33739">
        <ele>40</ele>
        <time>2016-06-24T12:58:54Z</time>
      </trkpt>
      <trkpt lat="48.66745" lon="-2.3374">
        <ele>40</ele>
        <time>2016-06-24T12:58:57Z</time>
      </trkpt>
      <trkpt lat="48.66742" lon="-2.33742">
        <ele>39</ele>
        <time>2016-06-24T12:59:00Z</time>
      </trkpt>
      <trkpt lat="48.66739" lon="-2.33744">
        <ele>39</ele>
        <time>2016-06-24T12:59:03Z</time>
      </trkpt>
      <trkpt lat="48.66735" lon="-2.33745">
        <ele>39</ele>
        <time>2016-06-24T12:59:06Z</time>
      </trkpt>
      <trkpt lat="48.66732" lon="-2.33746">
        <ele>39</ele>
        <time>2016-06-24T12:59:10Z</time>
      </trkpt>
      <trkpt lat="48.66728" lon="-2.33751">
        <ele>39</ele>
        <time>2016-06-24T12:59:14Z</time>
      </trkpt>
      <trkpt lat="48.66726" lon="-2.33757">
        <ele>39</ele>
        <time>2016-06-24T12:59:17Z</time>
      </trkpt>
      <trkpt lat="48.66724" lon="-2.33762">
        <ele>39</ele>
        <time>2016-06-24T12:59:20Z</time>
      </trkpt>
      <trkpt lat="48.66722" lon="-2.33768">
        <ele>38</ele>
        <time>2016-06-24T12:59:23Z</time>
      </trkpt>
      <trkpt lat="48.66721" lon="-2.33773">
        <ele>38</ele>
        <time>2016-06-24T12:59:26Z</time>
      </trkpt>
      <trkpt lat="48.66719" lon="-2.33779">
        <ele>38</ele>
        <time>2016-06-24T12:59:29Z</time>
      </trkpt>
      <trkpt lat="48.66718" lon="-2.33785">
        <ele>37</ele>
        <time>2016-06-24T12:59:32Z</time>
      </trkpt>
      <trkpt lat="48.66716" lon="-2.3379">
        <ele>37</ele>
        <time>2016-06-24T12:59:35Z</time>
      </trkpt>
      <trkpt lat="48.66714" lon="-2.33795">
        <ele>37</ele>
        <time>2016-06-24T12:59:38Z</time>
      </trkpt>
      <trkpt lat="48.66713" lon="-2.33801">
        <ele>37</ele>
        <time>2016-06-24T12:59:41Z</time>
      </trkpt>
      <trkpt lat="48.66711" lon="-2.33807">
        <ele>37</ele>
        <time>2016-06-24T12:59:44Z</time>
      </trkpt>
      <trkpt lat="48.6671" lon="-2.33813">
        <ele>37</ele>
        <time>2016-06-24T12:59:47Z</time>
      </trkpt>
      <trkpt lat="48.66709" lon="-2.33819">
        <ele>37</ele>
        <time>2016-06-24T12:59:50Z</time>
      </trkpt>
      <trkpt lat="48.66707" lon="-2.33824">
        <ele>37</ele>
        <time>2016-06-24T12:59:53Z</time>
      </trkpt>
      <trkpt lat="48.66705" lon="-2.3383">
        <ele>37</ele>
        <time>2016-06-24T12:59:56Z</time>
      </trkpt>
      <trkpt lat="48.66704" lon="-2.33836">
        <ele>37</ele>
        <time>2016-06-24T12:59:59Z</time>
      </trkpt>
      <trkpt lat="48.66706" lon="-2.33841">
        <ele>37</ele>
        <time>2016-06-24T13:00:03Z</time>
      </trkpt>
      <trkpt lat="48.66709" lon="-2.33844">
        <ele>36</ele>
        <time>2016-06-24T13:00:07Z</time>
      </trkpt>
      <trkpt lat="48.66711" lon="-2.33849">
        <ele>36</ele>
        <time>2016-06-24T13:00:11Z</time>
      </trkpt>
      <trkpt lat="48.66713" lon="-2.33855">
        <ele>36</ele>
        <time>2016-06-24T13:00:14Z</time>
      </trkpt>
      <trkpt lat="48.66715" lon="-2.3386">
        <ele>36</ele>
        <time>2016-06-24T13:00:17Z</time>
      </trkpt>
      <trkpt lat="48.66718" lon="-2.33865">
        <ele>36</ele>
        <time>2016-06-24T13:00:20Z</time>
      </trkpt>
      <trkpt lat="48.66721" lon="-2.33869">
        <ele>36</ele>
        <time>2016-06-24T13:00:23Z</time>
      </trkpt>
      <trkpt lat="48.66723" lon="-2.33873">
        <ele>36</ele>
        <time>2016-06-24T13:00:26Z</time>
      </trkpt>
      <trkpt lat="48.66724" lon="-2.33879">
        <ele>36</ele>
        <time>2016-06-24T13:00:29Z</time>
      </trkpt>
      <trkpt lat="48.66727" lon="-2.33883">
        <ele>36</ele>
        <time>2016-06-24T13:00:32Z</time>
      </trkpt>
      <trkpt lat="48.66731" lon="-2.33883">
        <ele>36</ele>
        <time>2016-06-24T13:00:35Z</time>
      </trkpt>
      <trkpt lat="48.66735" lon="-2.33882">
        <ele>36</ele>
        <time>2016-06-24T13:00:38Z</time>
      </trkpt>
      <trkpt lat="48.66739" lon="-2.33884">
        <ele>36</ele>
        <time>2016-06-24T13:00:41Z</time>
      </trkpt>
      <trkpt lat="48.66743" lon="-2.33885">
        <ele>36</ele>
        <time>2016-06-24T13:00:44Z</time>
      </trkpt>
      <trkpt lat="48.66747" lon="-2.33885">
        <ele>36</ele>
        <time>2016-06-24T13:00:47Z</time>
      </trkpt>
      <trkpt lat="48.66751" lon="-2.33885">
        <ele>36</ele>
        <time>2016-06-24T13:00:50Z</time>
      </trkpt>
      <trkpt lat="48.66755" lon="-2.33884">
        <ele>36</ele>
        <time>2016-06-24T13:00:53Z</time>
      </trkpt>
      <trkpt lat="48.66759" lon="-2.33885">
        <ele>36</ele>
        <time>2016-06-24T13:00:56Z</time>
      </trkpt>
      <trkpt lat="48.66763" lon="-2.33886">
        <ele>36</ele>
        <time>2016-06-24T13:00:59Z</time>
      </trkpt>
      <trkpt lat="48.66767" lon="-2.33886">
        <ele>36</ele>
        <time>2016-06-24T13:01:02Z</time>
      </trkpt>
      <trkpt lat="48.66771" lon="-2.33887">
        <ele>36</ele>
        <time>2016-06-24T13:01:05Z</time>
      </trkpt>
      <trkpt lat="48.66775" lon="-2.33888">
        <ele>36</ele>
        <time>2016-06-24T13:01:08Z</time>
      </trkpt>
      <trkpt lat="48.66779" lon="-2.33889">
        <ele>36</ele>
        <time>2016-06-24T13:01:11Z</time>
      </trkpt>
      <trkpt lat="48.66783" lon="-2.33889">
        <ele>36</ele>
        <time>2016-06-24T13:01:14Z</time>
      </trkpt>
      <trkpt lat="48.66787" lon="-2.33889">
        <ele>36</ele>
        <time>2016-06-24T13:01:17Z</time>
      </trkpt>
      <trkpt lat="48.6679" lon="-2.33889">
        <ele>36</ele>
        <time>2016-06-24T13:01:20Z</time>
      </trkpt>
      <trkpt lat="48.66794" lon="-2.33889">
        <ele>36</ele>
        <time>2016-06-24T13:01:23Z</time>
      </trkpt>
      <trkpt lat="48.66798" lon="-2.3389">
        <ele>36</ele>
        <time>2016-06-24T13:01:26Z</time>
      </trkpt>
      <trkpt lat="48.66802" lon="-2.3389">
        <ele>36</ele>
        <time>2016-06-24T13:01:29Z</time>
      </trkpt>
      <trkpt lat="48.66806" lon="-2.3389">
        <ele>36</ele>
        <time>2016-06-24T13:01:32Z</time>
      </trkpt>
      <trkpt lat="48.6681" lon="-2.3389">
        <ele>36</ele>
        <time>2016-06-24T13:01:35Z</time>
      </trkpt>
      <trkpt lat="48.66814" lon="-2.33889">
        <ele>36</ele>
        <time>2016-06-24T13:01:38Z</time>
      </trkpt>
      <trkpt lat="48.66818" lon="-2.33889">
        <ele>36</ele>
        <time>2016-06-24T13:01:41Z</time>
      </trkpt>
      <trkpt lat="48.66823" lon="-2.3389">
        <ele>36</ele>
        <time>2016-06-24T13:01:44Z</time>
      </trkpt>
      <trkpt lat="48.66827" lon="-2.3389">
        <ele>36</ele>
        <time>2016-06-24T13:01:47Z</time>
      </trkpt>
      <trkpt lat="48.6683" lon="-2.33892">
        <ele>36</ele>
        <time>2016-06-24T13:01:50Z</time>
      </trkpt>
      <trkpt lat="48.66833" lon="-2.33896">
        <ele>36</ele>
        <time>2016-06-24T13:01:53Z</time>
      </trkpt>
      <trkpt lat="48.66834" lon="-2.33902">
        <ele>36</ele>
        <time>2016-06-24T13:01:56Z</time>
      </trkpt>
      <trkpt lat="48.66833" lon="-2.33908">
        <ele>36</ele>
        <time>2016-06-24T13:01:59Z</time>
      </trkpt>
      <trkpt lat="48.66832" lon="-2.33914">
        <ele>36</ele>
        <time>2016-06-24T13:02:02Z</time>
      </trkpt>
      <trkpt lat="48.6683" lon="-2.3392">
        <ele>36</ele>
        <time>2016-06-24T13:02:05Z</time>
      </trkpt>
      <trkpt lat="48.66828" lon="-2.33925">
        <ele>36</ele>
        <time>2016-06-24T13:02:08Z</time>
      </trkpt>
      <trkpt lat="48.66825" lon="-2.33929">
        <ele>36</ele>
        <time>2016-06-24T13:02:11Z</time>
      </trkpt>
      <trkpt lat="48.66823" lon="-2.33934">
        <ele>36</ele>
        <time>2016-06-24T13:02:14Z</time>
      </trkpt>
      <trkpt lat="48.66819" lon="-2.33938">
        <ele>36</ele>
        <time>2016-06-24T13:02:17Z</time>
      </trkpt>
      <trkpt lat="48.66815" lon="-2.33943">
        <ele>36</ele>
        <time>2016-06-24T13:02:21Z</time>
      </trkpt>
      <trkpt lat="48.66813" lon="-2.33949">
        <ele>36</ele>
        <time>2016-06-24T13:02:25Z</time>
      </trkpt>
      <trkpt lat="48.66813" lon="-2.33955">
        <ele>36</ele>
        <time>2016-06-24T13:02:28Z</time>
      </trkpt>
      <trkpt lat="48.66812" lon="-2.33961">
        <ele>36</ele>
        <time>2016-06-24T13:02:31Z</time>
      </trkpt>
      <trkpt lat="48.66813" lon="-2.33965">
        <ele>36</ele>
        <time>2016-06-24T13:02:34Z</time>
      </trkpt>
      <trkpt lat="48.66813" lon="-2.33971">
        <ele>36</ele>
        <time>2016-06-24T13:02:37Z</time>
      </trkpt>
      <trkpt lat="48.66813" lon="-2.33976">
        <ele>36</ele>
        <time>2016-06-24T13:02:40Z</time>
      </trkpt>
      <trkpt lat="48.66813" lon="-2.33982">
        <ele>36</ele>
        <time>2016-06-24T13:02:43Z</time>
      </trkpt>
      <trkpt lat="48.66812" lon="-2.33988">
        <ele>36</ele>
        <time>2016-06-24T13:02:46Z</time>
      </trkpt>
      <trkpt lat="48.66813" lon="-2.33993">
        <ele>36</ele>
        <time>2016-06-24T13:02:49Z</time>
      </trkpt>
      <trkpt lat="48.66812" lon="-2.34">
        <ele>36</ele>
        <time>2016-06-24T13:02:53Z</time>
      </trkpt>
      <trkpt lat="48.66811" lon="-2.34005">
        <ele>36</ele>
        <time>2016-06-24T13:02:56Z</time>
      </trkpt>
      <trkpt lat="48.66809" lon="-2.3401">
        <ele>36</ele>
        <time>2016-06-24T13:02:59Z</time>
      </trkpt>
      <trkpt lat="48.66807" lon="-2.34015">
        <ele>36</ele>
        <time>2016-06-24T13:03:02Z</time>
      </trkpt>
      <trkpt lat="48.66805" lon="-2.34022">
        <ele>36</ele>
        <time>2016-06-24T13:03:06Z</time>
      </trkpt>
      <trkpt lat="48.66803" lon="-2.34027">
        <ele>36</ele>
        <time>2016-06-24T13:03:10Z</time>
      </trkpt>
      <trkpt lat="48.66801" lon="-2.34031">
        <ele>36</ele>
        <time>2016-06-24T13:03:13Z</time>
      </trkpt>
      <trkpt lat="48.66798" lon="-2.34037">
        <ele>36</ele>
        <time>2016-06-24T13:03:17Z</time>
      </trkpt>
      <trkpt lat="48.66794" lon="-2.3404">
        <ele>36</ele>
        <time>2016-06-24T13:03:21Z</time>
      </trkpt>
      <trkpt lat="48.66791" lon="-2.34043">
        <ele>36</ele>
        <time>2016-06-24T13:03:24Z</time>
      </trkpt>
      <trkpt lat="48.66787" lon="-2.34043">
        <ele>36</ele>
        <time>2016-06-24T13:03:27Z</time>
      </trkpt>
      <trkpt lat="48.66783" lon="-2.34044">
        <ele>36</ele>
        <time>2016-06-24T13:03:30Z</time>
      </trkpt>
      <trkpt lat="48.66779" lon="-2.34044">
        <ele>36</ele>
        <time>2016-06-24T13:03:33Z</time>
      </trkpt>
      <trkpt lat="48.66775" lon="-2.34044">
        <ele>36</ele>
        <time>2016-06-24T13:03:36Z</time>
      </trkpt>
      <trkpt lat="48.66771" lon="-2.34045">
        <ele>36</ele>
        <time>2016-06-24T13:03:39Z</time>
      </trkpt>
      <trkpt lat="48.66767" lon="-2.34046">
        <ele>36</ele>
        <time>2016-06-24T13:03:42Z</time>
      </trkpt>
      <trkpt lat="48.66764" lon="-2.34047">
        <ele>36</ele>
        <time>2016-06-24T13:03:45Z</time>
      </trkpt>
      <trkpt lat="48.6676" lon="-2.34048">
        <ele>36</ele>
        <time>2016-06-24T13:03:48Z</time>
      </trkpt>
      <trkpt lat="48.66756" lon="-2.34051">
        <ele>36</ele>
        <time>2016-06-24T13:03:52Z</time>
      </trkpt>
      <trkpt lat="48.66753" lon="-2.34052">
        <ele>36</ele>
        <time>2016-06-24T13:03:55Z</time>
      </trkpt>
      <trkpt lat="48.66749" lon="-2.34052">
        <ele>36</ele>
        <time>2016-06-24T13:03:58Z</time>
      </trkpt>
      <trkpt lat="48.66744" lon="-2.34053">
        <ele>36</ele>
        <time>2016-06-24T13:04:02Z</time>
      </trkpt>
      <trkpt lat="48.66741" lon="-2.34054">
        <ele>36</ele>
        <time>2016-06-24T13:04:05Z</time>
      </trkpt>
      <trkpt lat="48.66737" lon="-2.34055">
        <ele>36</ele>
        <time>2016-06-24T13:04:08Z</time>
      </trkpt>
      <trkpt lat="48.66732" lon="-2.34058">
        <ele>36</ele>
        <time>2016-06-24T13:04:12Z</time>
      </trkpt>
      <trkpt lat="48.66728" lon="-2.3406">
        <ele>36</ele>
        <time>2016-06-24T13:04:16Z</time>
      </trkpt>
      <trkpt lat="48.66724" lon="-2.34062">
        <ele>36</ele>
        <time>2016-06-24T13:04:20Z</time>
      </trkpt>
      <trkpt lat="48.6672" lon="-2.34064">
        <ele>36</ele>
        <time>2016-06-24T13:04:24Z</time>
      </trkpt>
      <trkpt lat="48.66717" lon="-2.34067">
        <ele>36</ele>
        <time>2016-06-24T13:04:28Z</time>
      </trkpt>
      <trkpt lat="48.66713" lon="-2.34069">
        <ele>36</ele>
        <time>2016-06-24T13:04:32Z</time>
      </trkpt>
      <trkpt lat="48.6671" lon="-2.34071">
        <ele>36</ele>
        <time>2016-06-24T13:04:36Z</time>
      </trkpt>
      <trkpt lat="48.66708" lon="-2.34073">
        <ele>36</ele>
        <time>2016-06-24T13:04:42Z</time>
      </trkpt>
      <trkpt lat="48.66706" lon="-2.34075">
        <ele>36</ele>
        <time>2016-06-24T13:04:45Z</time>
      </trkpt>
      <trkpt lat="48.66704" lon="-2.34078">
        <ele>36</ele>
        <time>2016-06-24T13:04:49Z</time>
      </trkpt>
      <trkpt lat="48.66701" lon="-2.34082">
        <ele>36</ele>
        <time>2016-06-24T13:04:53Z</time>
      </trkpt>
      <trkpt lat="48.667" lon="-2.34084">
        <ele>36</ele>
        <time>2016-06-24T13:04:56Z</time>
      </trkpt>
      <trkpt lat="48.66698" lon="-2.34089">
        <ele>36</ele>
        <time>2016-06-24T13:05:00Z</time>
      </trkpt>
      <trkpt lat="48.66698" lon="-2.34094">
        <ele>36</ele>
        <time>2016-06-24T13:05:03Z</time>
      </trkpt>
      <trkpt lat="48.66699" lon="-2.34099">
        <ele>36</ele>
        <time>2016-06-24T13:05:06Z</time>
      </trkpt>
      <trkpt lat="48.667" lon="-2.34105">
        <ele>36</ele>
        <time>2016-06-24T13:05:09Z</time>
      </trkpt>
      <trkpt lat="48.66702" lon="-2.3411">
        <ele>36</ele>
        <time>2016-06-24T13:05:12Z</time>
      </trkpt>
      <trkpt lat="48.66704" lon="-2.34115">
        <ele>36</ele>
        <time>2016-06-24T13:05:15Z</time>
      </trkpt>
      <trkpt lat="48.66708" lon="-2.3412">
        <ele>36</ele>
        <time>2016-06-24T13:05:19Z</time>
      </trkpt>
      <trkpt lat="48.66707" lon="-2.34123">
        <ele>36</ele>
        <time>2016-06-24T13:05:22Z</time>
      </trkpt>
      <trkpt lat="48.66708" lon="-2.34125">
        <ele>36</ele>
        <time>2016-06-24T13:05:29Z</time>
      </trkpt>
      <trkpt lat="48.66708" lon="-2.3413">
        <ele>36</ele>
        <time>2016-06-24T13:05:32Z</time>
      </trkpt>
      <trkpt lat="48.66709" lon="-2.34136">
        <ele>36</ele>
        <time>2016-06-24T13:05:35Z</time>
      </trkpt>
      <trkpt lat="48.66711" lon="-2.34141">
        <ele>36</ele>
        <time>2016-06-24T13:05:38Z</time>
      </trkpt>
      <trkpt lat="48.66712" lon="-2.34146">
        <ele>36</ele>
        <time>2016-06-24T13:05:41Z</time>
      </trkpt>
      <trkpt lat="48.66711" lon="-2.34152">
        <ele>36</ele>
        <time>2016-06-24T13:05:44Z</time>
      </trkpt>
      <trkpt lat="48.6671" lon="-2.34157">
        <ele>36</ele>
        <time>2016-06-24T13:05:47Z</time>
      </trkpt>
      <trkpt lat="48.66709" lon="-2.34163">
        <ele>36</ele>
        <time>2016-06-24T13:05:50Z</time>
      </trkpt>
      <trkpt lat="48.66709" lon="-2.34169">
        <ele>36</ele>
        <time>2016-06-24T13:05:53Z</time>
      </trkpt>
      <trkpt lat="48.66709" lon="-2.34175">
        <ele>36</ele>
        <time>2016-06-24T13:05:56Z</time>
      </trkpt>
      <trkpt lat="48.66709" lon="-2.3418">
        <ele>36</ele>
        <time>2016-06-24T13:05:59Z</time>
      </trkpt>
      <trkpt lat="48.66707" lon="-2.34186">
        <ele>36</ele>
        <time>2016-06-24T13:06:02Z</time>
      </trkpt>
      <trkpt lat="48.66706" lon="-2.3419">
        <ele>36</ele>
        <time>2016-06-24T13:06:05Z</time>
      </trkpt>
      <trkpt lat="48.66703" lon="-2.34196">
        <ele>36</ele>
        <time>2016-06-24T13:06:09Z</time>
      </trkpt>
      <trkpt lat="48.66699" lon="-2.34202">
        <ele>36</ele>
        <time>2016-06-24T13:06:13Z</time>
      </trkpt>
      <trkpt lat="48.66696" lon="-2.34207">
        <ele>36</ele>
        <time>2016-06-24T13:06:17Z</time>
      </trkpt>
      <trkpt lat="48.66693" lon="-2.34211">
        <ele>36</ele>
        <time>2016-06-24T13:06:21Z</time>
      </trkpt>
      <trkpt lat="48.6669" lon="-2.34217">
        <ele>36</ele>
        <time>2016-06-24T13:06:25Z</time>
      </trkpt>
      <trkpt lat="48.66687" lon="-2.34222">
        <ele>36</ele>
        <time>2016-06-24T13:06:29Z</time>
      </trkpt>
      <trkpt lat="48.66684" lon="-2.34226">
        <ele>36</ele>
        <time>2016-06-24T13:06:33Z</time>
      </trkpt>
      <trkpt lat="48.66684" lon="-2.34227">
        <ele>36</ele>
        <time>2016-06-24T13:06:36Z</time>
      </trkpt>
      <trkpt lat="48.66684" lon="-2.34229">
        <ele>36</ele>
        <time>2016-06-24T13:06:39Z</time>
      </trkpt>
      <trkpt lat="48.66682" lon="-2.34228">
        <ele>37</ele>
        <time>2016-06-24T13:07:29Z</time>
      </trkpt>
      <trkpt lat="48.66679" lon="-2.34231">
        <ele>37</ele>
        <time>2016-06-24T13:07:33Z</time>
      </trkpt>
      <trkpt lat="48.66676" lon="-2.34232">
        <ele>37</ele>
        <time>2016-06-24T13:07:36Z</time>
      </trkpt>
      <trkpt lat="48.66672" lon="-2.34231">
        <ele>37</ele>
        <time>2016-06-24T13:07:39Z</time>
      </trkpt>
      <trkpt lat="48.66668" lon="-2.34229">
        <ele>37</ele>
        <time>2016-06-24T13:07:42Z</time>
      </trkpt>
      <trkpt lat="48.66665" lon="-2.34228">
        <ele>37</ele>
        <time>2016-06-24T13:07:45Z</time>
      </trkpt>
      <trkpt lat="48.66661" lon="-2.34226">
        <ele>37</ele>
        <time>2016-06-24T13:07:48Z</time>
      </trkpt>
      <trkpt lat="48.66657" lon="-2.34226">
        <ele>37</ele>
        <time>2016-06-24T13:07:51Z</time>
      </trkpt>
      <trkpt lat="48.66653" lon="-2.34227">
        <ele>37</ele>
        <time>2016-06-24T13:07:54Z</time>
      </trkpt>
      <trkpt lat="48.66649" lon="-2.34227">
        <ele>37</ele>
        <time>2016-06-24T13:07:57Z</time>
      </trkpt>
      <trkpt lat="48.66645" lon="-2.34228">
        <ele>37</ele>
        <time>2016-06-24T13:08:00Z</time>
      </trkpt>
      <trkpt lat="48.66641" lon="-2.34226">
        <ele>37</ele>
        <time>2016-06-24T13:08:03Z</time>
      </trkpt>
      <trkpt lat="48.66637" lon="-2.34226">
        <ele>37</ele>
        <time>2016-06-24T13:08:06Z</time>
      </trkpt>
      <trkpt lat="48.66633" lon="-2.34227">
        <ele>37</ele>
        <time>2016-06-24T13:08:09Z</time>
      </trkpt>
      <trkpt lat="48.6663" lon="-2.34229">
        <ele>37</ele>
        <time>2016-06-24T13:08:12Z</time>
      </trkpt>
      <trkpt lat="48.66626" lon="-2.3423">
        <ele>37</ele>
        <time>2016-06-24T13:08:15Z</time>
      </trkpt>
      <trkpt lat="48.66622" lon="-2.34231">
        <ele>37</ele>
        <time>2016-06-24T13:08:18Z</time>
      </trkpt>
      <trkpt lat="48.66618" lon="-2.34232">
        <ele>37</ele>
        <time>2016-06-24T13:08:21Z</time>
      </trkpt>
      <trkpt lat="48.66615" lon="-2.34233">
        <ele>37</ele>
        <time>2016-06-24T13:08:24Z</time>
      </trkpt>
      <trkpt lat="48.6661" lon="-2.34237">
        <ele>36</ele>
        <time>2016-06-24T13:08:28Z</time>
      </trkpt>
      <trkpt lat="48.66607" lon="-2.34241">
        <ele>35</ele>
        <time>2016-06-24T13:08:31Z</time>
      </trkpt>
      <trkpt lat="48.66603" lon="-2.34244">
        <ele>35</ele>
        <time>2016-06-24T13:08:34Z</time>
      </trkpt>
      <trkpt lat="48.666" lon="-2.34246">
        <ele>35</ele>
        <time>2016-06-24T13:08:37Z</time>
      </trkpt>
      <trkpt lat="48.66595" lon="-2.34246">
        <ele>35</ele>
        <time>2016-06-24T13:08:40Z</time>
      </trkpt>
      <trkpt lat="48.66592" lon="-2.34244">
        <ele>35</ele>
        <time>2016-06-24T13:08:43Z</time>
      </trkpt>
      <trkpt lat="48.66589" lon="-2.34242">
        <ele>35</ele>
        <time>2016-06-24T13:08:47Z</time>
      </trkpt>
      <trkpt lat="48.66584" lon="-2.34244">
        <ele>35</ele>
        <time>2016-06-24T13:08:51Z</time>
      </trkpt>
      <trkpt lat="48.6658" lon="-2.34245">
        <ele>35</ele>
        <time>2016-06-24T13:08:54Z</time>
      </trkpt>
      <trkpt lat="48.66576" lon="-2.34247">
        <ele>35</ele>
        <time>2016-06-24T13:08:57Z</time>
      </trkpt>
      <trkpt lat="48.66573" lon="-2.34248">
        <ele>35</ele>
        <time>2016-06-24T13:09:00Z</time>
      </trkpt>
      <trkpt lat="48.66569" lon="-2.3425">
        <ele>35</ele>
        <time>2016-06-24T13:09:03Z</time>
      </trkpt>
      <trkpt lat="48.66566" lon="-2.34253">
        <ele>35</ele>
        <time>2016-06-24T13:09:06Z</time>
      </trkpt>
      <trkpt lat="48.66562" lon="-2.34255">
        <ele>35</ele>
        <time>2016-06-24T13:09:09Z</time>
      </trkpt>
      <trkpt lat="48.66558" lon="-2.34251">
        <ele>35</ele>
        <time>2016-06-24T13:09:13Z</time>
      </trkpt>
      <trkpt lat="48.66555" lon="-2.34246">
        <ele>35</ele>
        <time>2016-06-24T13:09:17Z</time>
      </trkpt>
      <trkpt lat="48.66551" lon="-2.34243">
        <ele>35</ele>
        <time>2016-06-24T13:09:20Z</time>
      </trkpt>
      <trkpt lat="48.66548" lon="-2.34241">
        <ele>35</ele>
        <time>2016-06-24T13:09:23Z</time>
      </trkpt>
      <trkpt lat="48.66544" lon="-2.34242">
        <ele>35</ele>
        <time>2016-06-24T13:09:26Z</time>
      </trkpt>
      <trkpt lat="48.66541" lon="-2.34244">
        <ele>35</ele>
        <time>2016-06-24T13:09:29Z</time>
      </trkpt>
      <trkpt lat="48.66536" lon="-2.34246">
        <ele>35</ele>
        <time>2016-06-24T13:09:32Z</time>
      </trkpt>
      <trkpt lat="48.66533" lon="-2.34248">
        <ele>35</ele>
        <time>2016-06-24T13:09:35Z</time>
      </trkpt>
      <trkpt lat="48.66529" lon="-2.34251">
        <ele>35</ele>
        <time>2016-06-24T13:09:38Z</time>
      </trkpt>
      <trkpt lat="48.66526" lon="-2.34253">
        <ele>35</ele>
        <time>2016-06-24T13:09:47Z</time>
      </trkpt>
      <trkpt lat="48.66523" lon="-2.34255">
        <ele>35</ele>
        <time>2016-06-24T13:09:50Z</time>
      </trkpt>
      <trkpt lat="48.66519" lon="-2.34257">
        <ele>35</ele>
        <time>2016-06-24T13:09:53Z</time>
      </trkpt>
      <trkpt lat="48.66515" lon="-2.3426">
        <ele>35</ele>
        <time>2016-06-24T13:09:56Z</time>
      </trkpt>
      <trkpt lat="48.66512" lon="-2.34262">
        <ele>35</ele>
        <time>2016-06-24T13:09:59Z</time>
      </trkpt>
      <trkpt lat="48.66508" lon="-2.34265">
        <ele>35</ele>
        <time>2016-06-24T13:10:02Z</time>
      </trkpt>
      <trkpt lat="48.66504" lon="-2.34266">
        <ele>35</ele>
        <time>2016-06-24T13:10:05Z</time>
      </trkpt>
      <trkpt lat="48.665" lon="-2.34268">
        <ele>35</ele>
        <time>2016-06-24T13:10:08Z</time>
      </trkpt>
      <trkpt lat="48.66496" lon="-2.34271">
        <ele>35</ele>
        <time>2016-06-24T13:10:11Z</time>
      </trkpt>
      <trkpt lat="48.66492" lon="-2.34273">
        <ele>35</ele>
        <time>2016-06-24T13:10:14Z</time>
      </trkpt>
      <trkpt lat="48.66488" lon="-2.34275">
        <ele>35</ele>
        <time>2016-06-24T13:10:17Z</time>
      </trkpt>
      <trkpt lat="48.66484" lon="-2.34276">
        <ele>35</ele>
        <time>2016-06-24T13:10:20Z</time>
      </trkpt>
      <trkpt lat="48.6648" lon="-2.34277">
        <ele>35</ele>
        <time>2016-06-24T13:10:23Z</time>
      </trkpt>
      <trkpt lat="48.66475" lon="-2.34279">
        <ele>36</ele>
        <time>2016-06-24T13:10:26Z</time>
      </trkpt>
      <trkpt lat="48.66471" lon="-2.3428">
        <ele>36</ele>
        <time>2016-06-24T13:10:29Z</time>
      </trkpt>
      <trkpt lat="48.66467" lon="-2.34281">
        <ele>36</ele>
        <time>2016-06-24T13:10:32Z</time>
      </trkpt>
      <trkpt lat="48.66462" lon="-2.34282">
        <ele>37</ele>
        <time>2016-06-24T13:10:35Z</time>
      </trkpt>
      <trkpt lat="48.66458" lon="-2.34283">
        <ele>37</ele>
        <time>2016-06-24T13:10:38Z</time>
      </trkpt>
      <trkpt lat="48.66454" lon="-2.34284">
        <ele>37</ele>
        <time>2016-06-24T13:10:41Z</time>
      </trkpt>
      <trkpt lat="48.6645" lon="-2.34284">
        <ele>38</ele>
        <time>2016-06-24T13:10:44Z</time>
      </trkpt>
      <trkpt lat="48.66446" lon="-2.34285">
        <ele>38</ele>
        <time>2016-06-24T13:10:47Z</time>
      </trkpt>
      <trkpt lat="48.66442" lon="-2.34285">
        <ele>38</ele>
        <time>2016-06-24T13:10:50Z</time>
      </trkpt>
      <trkpt lat="48.66439" lon="-2.34285">
        <ele>38</ele>
        <time>2016-06-24T13:10:53Z</time>
      </trkpt>
      <trkpt lat="48.66436" lon="-2.34286">
        <ele>38</ele>
        <time>2016-06-24T13:10:56Z</time>
      </trkpt>
      <trkpt lat="48.66432" lon="-2.34286">
        <ele>38</ele>
        <time>2016-06-24T13:10:59Z</time>
      </trkpt>
      <trkpt lat="48.66428" lon="-2.34286">
        <ele>38</ele>
        <time>2016-06-24T13:11:02Z</time>
      </trkpt>
      <trkpt lat="48.66424" lon="-2.34287">
        <ele>38</ele>
        <time>2016-06-24T13:11:05Z</time>
      </trkpt>
      <trkpt lat="48.6642" lon="-2.34287">
        <ele>38</ele>
        <time>2016-06-24T13:11:08Z</time>
      </trkpt>
      <trkpt lat="48.66416" lon="-2.34288">
        <ele>38</ele>
        <time>2016-06-24T13:11:12Z</time>
      </trkpt>
      <trkpt lat="48.66413" lon="-2.34288">
        <ele>39</ele>
        <time>2016-06-24T13:11:19Z</time>
      </trkpt>
      <trkpt lat="48.6641" lon="-2.34288">
        <ele>39</ele>
        <time>2016-06-24T13:11:22Z</time>
      </trkpt>
      <trkpt lat="48.66406" lon="-2.34288">
        <ele>39</ele>
        <time>2016-06-24T13:11:25Z</time>
      </trkpt>
      <trkpt lat="48.66403" lon="-2.34289">
        <ele>39</ele>
        <time>2016-06-24T13:11:28Z</time>
      </trkpt>
      <trkpt lat="48.66399" lon="-2.34289">
        <ele>39</ele>
        <time>2016-06-24T13:11:32Z</time>
      </trkpt>
      <trkpt lat="48.66395" lon="-2.3429">
        <ele>39</ele>
        <time>2016-06-24T13:11:35Z</time>
      </trkpt>
      <trkpt lat="48.66391" lon="-2.3429">
        <ele>39</ele>
        <time>2016-06-24T13:11:38Z</time>
      </trkpt>
      <trkpt lat="48.66387" lon="-2.3429">
        <ele>39</ele>
        <time>2016-06-24T13:11:41Z</time>
      </trkpt>
      <trkpt lat="48.66383" lon="-2.34291">
        <ele>39</ele>
        <time>2016-06-24T13:11:44Z</time>
      </trkpt>
      <trkpt lat="48.6638" lon="-2.34292">
        <ele>39</ele>
        <time>2016-06-24T13:11:47Z</time>
      </trkpt>
      <trkpt lat="48.66376" lon="-2.34293">
        <ele>39</ele>
        <time>2016-06-24T13:11:50Z</time>
      </trkpt>
      <trkpt lat="48.66371" lon="-2.34294">
        <ele>39</ele>
        <time>2016-06-24T13:11:54Z</time>
      </trkpt>
      <trkpt lat="48.66368" lon="-2.34296">
        <ele>39</ele>
        <time>2016-06-24T13:11:57Z</time>
      </trkpt>
      <trkpt lat="48.66364" lon="-2.34297">
        <ele>39</ele>
        <time>2016-06-24T13:12:00Z</time>
      </trkpt>
      <trkpt lat="48.6636" lon="-2.34298">
        <ele>39</ele>
        <time>2016-06-24T13:12:03Z</time>
      </trkpt>
      <trkpt lat="48.66357" lon="-2.343">
        <ele>39</ele>
        <time>2016-06-24T13:12:06Z</time>
      </trkpt>
      <trkpt lat="48.66353" lon="-2.34302">
        <ele>39</ele>
        <time>2016-06-24T13:12:09Z</time>
      </trkpt>
      <trkpt lat="48.66349" lon="-2.34305">
        <ele>39</ele>
        <time>2016-06-24T13:12:12Z</time>
      </trkpt>
      <trkpt lat="48.66346" lon="-2.34307">
        <ele>39</ele>
        <time>2016-06-24T13:12:15Z</time>
      </trkpt>
      <trkpt lat="48.66343" lon="-2.3431">
        <ele>39</ele>
        <time>2016-06-24T13:12:19Z</time>
      </trkpt>
      <trkpt lat="48.66339" lon="-2.34313">
        <ele>39</ele>
        <time>2016-06-24T13:12:22Z</time>
      </trkpt>
      <trkpt lat="48.66335" lon="-2.34317">
        <ele>39</ele>
        <time>2016-06-24T13:12:26Z</time>
      </trkpt>
      <trkpt lat="48.66331" lon="-2.34321">
        <ele>39</ele>
        <time>2016-06-24T13:12:30Z</time>
      </trkpt>
      <trkpt lat="48.66328" lon="-2.34326">
        <ele>39</ele>
        <time>2016-06-24T13:12:34Z</time>
      </trkpt>
      <trkpt lat="48.66325" lon="-2.3433">
        <ele>39</ele>
        <time>2016-06-24T13:12:37Z</time>
      </trkpt>
      <trkpt lat="48.66322" lon="-2.34335">
        <ele>39</ele>
        <time>2016-06-24T13:12:40Z</time>
      </trkpt>
      <trkpt lat="48.66319" lon="-2.34341">
        <ele>39</ele>
        <time>2016-06-24T13:12:44Z</time>
      </trkpt>
      <trkpt lat="48.66317" lon="-2.34346">
        <ele>39</ele>
        <time>2016-06-24T13:12:48Z</time>
      </trkpt>
      <trkpt lat="48.66314" lon="-2.34352">
        <ele>39</ele>
        <time>2016-06-24T13:12:51Z</time>
      </trkpt>
      <trkpt lat="48.66312" lon="-2.34357">
        <ele>39</ele>
        <time>2016-06-24T13:12:54Z</time>
      </trkpt>
      <trkpt lat="48.6631" lon="-2.34362">
        <ele>39</ele>
        <time>2016-06-24T13:12:57Z</time>
      </trkpt>
      <trkpt lat="48.66309" lon="-2.34368">
        <ele>39</ele>
        <time>2016-06-24T13:13:00Z</time>
      </trkpt>
      <trkpt lat="48.66307" lon="-2.34373">
        <ele>39</ele>
        <time>2016-06-24T13:13:03Z</time>
      </trkpt>
      <trkpt lat="48.66305" lon="-2.3438">
        <ele>39</ele>
        <time>2016-06-24T13:13:06Z</time>
      </trkpt>
      <trkpt lat="48.66304" lon="-2.34385">
        <ele>39</ele>
        <time>2016-06-24T13:13:09Z</time>
      </trkpt>
      <trkpt lat="48.66304" lon="-2.34391">
        <ele>39</ele>
        <time>2016-06-24T13:13:12Z</time>
      </trkpt>
      <trkpt lat="48.66302" lon="-2.34398">
        <ele>39</ele>
        <time>2016-06-24T13:13:15Z</time>
      </trkpt>
      <trkpt lat="48.66301" lon="-2.34404">
        <ele>39</ele>
        <time>2016-06-24T13:13:18Z</time>
      </trkpt>
      <trkpt lat="48.66301" lon="-2.3441">
        <ele>39</ele>
        <time>2016-06-24T13:13:21Z</time>
      </trkpt>
      <trkpt lat="48.66301" lon="-2.34416">
        <ele>39</ele>
        <time>2016-06-24T13:13:24Z</time>
      </trkpt>
      <trkpt lat="48.66301" lon="-2.34422">
        <ele>39</ele>
        <time>2016-06-24T13:13:27Z</time>
      </trkpt>
      <trkpt lat="48.66301" lon="-2.34428">
        <ele>39</ele>
        <time>2016-06-24T13:13:30Z</time>
      </trkpt>
      <trkpt lat="48.66302" lon="-2.34434">
        <ele>39</ele>
        <time>2016-06-24T13:13:33Z</time>
      </trkpt>
      <trkpt lat="48.66302" lon="-2.3444">
        <ele>39</ele>
        <time>2016-06-24T13:13:36Z</time>
      </trkpt>
      <trkpt lat="48.66303" lon="-2.34446">
        <ele>39</ele>
        <time>2016-06-24T13:13:39Z</time>
      </trkpt>
      <trkpt lat="48.66304" lon="-2.34452">
        <ele>39</ele>
        <time>2016-06-24T13:13:42Z</time>
      </trkpt>
      <trkpt lat="48.66305" lon="-2.34458">
        <ele>39</ele>
        <time>2016-06-24T13:13:45Z</time>
      </trkpt>
      <trkpt lat="48.66306" lon="-2.34464">
        <ele>39</ele>
        <time>2016-06-24T13:13:48Z</time>
      </trkpt>
      <trkpt lat="48.66308" lon="-2.34469">
        <ele>39</ele>
        <time>2016-06-24T13:13:51Z</time>
      </trkpt>
      <trkpt lat="48.6631" lon="-2.34476">
        <ele>39</ele>
        <time>2016-06-24T13:13:55Z</time>
      </trkpt>
      <trkpt lat="48.66311" lon="-2.34482">
        <ele>39</ele>
        <time>2016-06-24T13:13:59Z</time>
      </trkpt>
      <trkpt lat="48.66312" lon="-2.34488">
        <ele>39</ele>
        <time>2016-06-24T13:14:02Z</time>
      </trkpt>
      <trkpt lat="48.66313" lon="-2.34493">
        <ele>39</ele>
        <time>2016-06-24T13:14:05Z</time>
      </trkpt>
      <trkpt lat="48.66314" lon="-2.34499">
        <ele>39</ele>
        <time>2016-06-24T13:14:08Z</time>
      </trkpt>
      <trkpt lat="48.66315" lon="-2.34505">
        <ele>38</ele>
        <time>2016-06-24T13:14:11Z</time>
      </trkpt>
      <trkpt lat="48.66317" lon="-2.3451">
        <ele>38</ele>
        <time>2016-06-24T13:14:14Z</time>
      </trkpt>
      <trkpt lat="48.66318" lon="-2.34516">
        <ele>38</ele>
        <time>2016-06-24T13:14:17Z</time>
      </trkpt>
      <trkpt lat="48.66319" lon="-2.34521">
        <ele>37</ele>
        <time>2016-06-24T13:14:20Z</time>
      </trkpt>
      <trkpt lat="48.6632" lon="-2.34526">
        <ele>37</ele>
        <time>2016-06-24T13:14:23Z</time>
      </trkpt>
      <trkpt lat="48.66321" lon="-2.34532">
        <ele>37</ele>
        <time>2016-06-24T13:14:26Z</time>
      </trkpt>
      <trkpt lat="48.66322" lon="-2.34538">
        <ele>36</ele>
        <time>2016-06-24T13:14:29Z</time>
      </trkpt>
      <trkpt lat="48.66323" lon="-2.34543">
        <ele>36</ele>
        <time>2016-06-24T13:14:32Z</time>
      </trkpt>
      <trkpt lat="48.66324" lon="-2.34549">
        <ele>36</ele>
        <time>2016-06-24T13:14:35Z</time>
      </trkpt>
      <trkpt lat="48.66325" lon="-2.34555">
        <ele>36</ele>
        <time>2016-06-24T13:14:38Z</time>
      </trkpt>
      <trkpt lat="48.66327" lon="-2.3456">
        <ele>35</ele>
        <time>2016-06-24T13:14:41Z</time>
      </trkpt>
      <trkpt lat="48.66328" lon="-2.34565">
        <ele>35</ele>
        <time>2016-06-24T13:14:44Z</time>
      </trkpt>
      <trkpt lat="48.66329" lon="-2.34571">
        <ele>34</ele>
        <time>2016-06-24T13:14:47Z</time>
      </trkpt>
      <trkpt lat="48.6633" lon="-2.34577">
        <ele>34</ele>
        <time>2016-06-24T13:14:50Z</time>
      </trkpt>
      <trkpt lat="48.66331" lon="-2.34581">
        <ele>34</ele>
        <time>2016-06-24T13:14:53Z</time>
      </trkpt>
      <trkpt lat="48.66332" lon="-2.34587">
        <ele>34</ele>
        <time>2016-06-24T13:14:56Z</time>
      </trkpt>
      <trkpt lat="48.66333" lon="-2.34593">
        <ele>33</ele>
        <time>2016-06-24T13:14:59Z</time>
      </trkpt>
      <trkpt lat="48.66334" lon="-2.34598">
        <ele>33</ele>
        <time>2016-06-24T13:15:02Z</time>
      </trkpt>
      <trkpt lat="48.66335" lon="-2.34604">
        <ele>33</ele>
        <time>2016-06-24T13:15:05Z</time>
      </trkpt>
      <trkpt lat="48.66336" lon="-2.3461">
        <ele>32</ele>
        <time>2016-06-24T13:15:08Z</time>
      </trkpt>
      <trkpt lat="48.66337" lon="-2.34615">
        <ele>32</ele>
        <time>2016-06-24T13:15:11Z</time>
      </trkpt>
      <trkpt lat="48.66338" lon="-2.34621">
        <ele>31</ele>
        <time>2016-06-24T13:15:14Z</time>
      </trkpt>
      <trkpt lat="48.66338" lon="-2.34627">
        <ele>31</ele>
        <time>2016-06-24T13:15:17Z</time>
      </trkpt>
      <trkpt lat="48.66339" lon="-2.34633">
        <ele>31</ele>
        <time>2016-06-24T13:15:20Z</time>
      </trkpt>
      <trkpt lat="48.6634" lon="-2.34639">
        <ele>31</ele>
        <time>2016-06-24T13:15:23Z</time>
      </trkpt>
      <trkpt lat="48.6634" lon="-2.34645">
        <ele>31</ele>
        <time>2016-06-24T13:15:26Z</time>
      </trkpt>
      <trkpt lat="48.66341" lon="-2.3465">
        <ele>30</ele>
        <time>2016-06-24T13:15:29Z</time>
      </trkpt>
      <trkpt lat="48.66341" lon="-2.34656">
        <ele>30</ele>
        <time>2016-06-24T13:15:32Z</time>
      </trkpt>
      <trkpt lat="48.66341" lon="-2.34662">
        <ele>30</ele>
        <time>2016-06-24T13:15:35Z</time>
      </trkpt>
      <trkpt lat="48.66341" lon="-2.34668">
        <ele>30</ele>
        <time>2016-06-24T13:15:38Z</time>
      </trkpt>
      <trkpt lat="48.66341" lon="-2.34673">
        <ele>29</ele>
        <time>2016-06-24T13:15:41Z</time>
      </trkpt>
      <trkpt lat="48.66339" lon="-2.34679">
        <ele>29</ele>
        <time>2016-06-24T13:15:44Z</time>
      </trkpt>
      <trkpt lat="48.66339" lon="-2.34685">
        <ele>29</ele>
        <time>2016-06-24T13:15:47Z</time>
      </trkpt>
      <trkpt lat="48.66338" lon="-2.3469">
        <ele>29</ele>
        <time>2016-06-24T13:15:50Z</time>
      </trkpt>
      <trkpt lat="48.66337" lon="-2.34696">
        <ele>29</ele>
        <time>2016-06-24T13:15:53Z</time>
      </trkpt>
      <trkpt lat="48.66336" lon="-2.34702">
        <ele>29</ele>
        <time>2016-06-24T13:15:56Z</time>
      </trkpt>
      <trkpt lat="48.66335" lon="-2.34707">
        <ele>28</ele>
        <time>2016-06-24T13:15:59Z</time>
      </trkpt>
      <trkpt lat="48.66333" lon="-2.34713">
        <ele>28</ele>
        <time>2016-06-24T13:16:02Z</time>
      </trkpt>
      <trkpt lat="48.66332" lon="-2.34718">
        <ele>28</ele>
        <time>2016-06-24T13:16:05Z</time>
      </trkpt>
      <trkpt lat="48.66331" lon="-2.34723">
        <ele>28</ele>
        <time>2016-06-24T13:16:08Z</time>
      </trkpt>
      <trkpt lat="48.66329" lon="-2.34728">
        <ele>28</ele>
        <time>2016-06-24T13:16:11Z</time>
      </trkpt>
      <trkpt lat="48.66328" lon="-2.34734">
        <ele>27</ele>
        <time>2016-06-24T13:16:14Z</time>
      </trkpt>
      <trkpt lat="48.66326" lon="-2.34739">
        <ele>27</ele>
        <time>2016-06-24T13:16:17Z</time>
      </trkpt>
      <trkpt lat="48.66325" lon="-2.34745">
        <ele>26</ele>
        <time>2016-06-24T13:16:20Z</time>
      </trkpt>
      <trkpt lat="48.66322" lon="-2.34751">
        <ele>26</ele>
        <time>2016-06-24T13:16:24Z</time>
      </trkpt>
      <trkpt lat="48.66321" lon="-2.34756">
        <ele>26</ele>
        <time>2016-06-24T13:16:27Z</time>
      </trkpt>
      <trkpt lat="48.66318" lon="-2.34763">
        <ele>25</ele>
        <time>2016-06-24T13:16:31Z</time>
      </trkpt>
      <trkpt lat="48.66315" lon="-2.34769">
        <ele>25</ele>
        <time>2016-06-24T13:16:35Z</time>
      </trkpt>
      <trkpt lat="48.66312" lon="-2.34775">
        <ele>25</ele>
        <time>2016-06-24T13:16:39Z</time>
      </trkpt>
      <trkpt lat="48.66309" lon="-2.34781">
        <ele>24</ele>
        <time>2016-06-24T13:16:43Z</time>
      </trkpt>
      <trkpt lat="48.66305" lon="-2.34786">
        <ele>24</ele>
        <time>2016-06-24T13:16:47Z</time>
      </trkpt>
      <trkpt lat="48.66301" lon="-2.34791">
        <ele>24</ele>
        <time>2016-06-24T13:16:51Z</time>
      </trkpt>
      <trkpt lat="48.66298" lon="-2.34794">
        <ele>23</ele>
        <time>2016-06-24T13:16:54Z</time>
      </trkpt>
      <trkpt lat="48.66295" lon="-2.34798">
        <ele>23</ele>
        <time>2016-06-24T13:16:57Z</time>
      </trkpt>
      <trkpt lat="48.66291" lon="-2.34803">
        <ele>23</ele>
        <time>2016-06-24T13:17:01Z</time>
      </trkpt>
      <trkpt lat="48.66287" lon="-2.34806">
        <ele>23</ele>
        <time>2016-06-24T13:17:04Z</time>
      </trkpt>
      <trkpt lat="48.66284" lon="-2.34809">
        <ele>23</ele>
        <time>2016-06-24T13:17:07Z</time>
      </trkpt>
      <trkpt lat="48.6628" lon="-2.34812">
        <ele>23</ele>
        <time>2016-06-24T13:17:11Z</time>
      </trkpt>
      <trkpt lat="48.66276" lon="-2.34817">
        <ele>23</ele>
        <time>2016-06-24T13:17:15Z</time>
      </trkpt>
      <trkpt lat="48.66272" lon="-2.34819">
        <ele>22</ele>
        <time>2016-06-24T13:17:18Z</time>
      </trkpt>
      <trkpt lat="48.66269" lon="-2.34822">
        <ele>22</ele>
        <time>2016-06-24T13:17:21Z</time>
      </trkpt>
      <trkpt lat="48.66265" lon="-2.34824">
        <ele>22</ele>
        <time>2016-06-24T13:17:24Z</time>
      </trkpt>
      <trkpt lat="48.66261" lon="-2.34826">
        <ele>22</ele>
        <time>2016-06-24T13:17:27Z</time>
      </trkpt>
      <trkpt lat="48.66257" lon="-2.34829">
        <ele>22</ele>
        <time>2016-06-24T13:17:30Z</time>
      </trkpt>
      <trkpt lat="48.66254" lon="-2.3483">
        <ele>22</ele>
        <time>2016-06-24T13:17:33Z</time>
      </trkpt>
      <trkpt lat="48.6625" lon="-2.34832">
        <ele>22</ele>
        <time>2016-06-24T13:17:36Z</time>
      </trkpt>
      <trkpt lat="48.66246" lon="-2.34834">
        <ele>21</ele>
        <time>2016-06-24T13:17:39Z</time>
      </trkpt>
      <trkpt lat="48.66242" lon="-2.34835">
        <ele>21</ele>
        <time>2016-06-24T13:17:42Z</time>
      </trkpt>
      <trkpt lat="48.66238" lon="-2.34836">
        <ele>20</ele>
        <time>2016-06-24T13:17:45Z</time>
      </trkpt>
      <trkpt lat="48.66234" lon="-2.34837">
        <ele>20</ele>
        <time>2016-06-24T13:17:48Z</time>
      </trkpt>
      <trkpt lat="48.6623" lon="-2.34837">
        <ele>20</ele>
        <time>2016-06-24T13:17:51Z</time>
      </trkpt>
      <trkpt lat="48.66227" lon="-2.34837">
        <ele>20</ele>
        <time>2016-06-24T13:17:54Z</time>
      </trkpt>
      <trkpt lat="48.66223" lon="-2.34837">
        <ele>20</ele>
        <time>2016-06-24T13:17:57Z</time>
      </trkpt>
      <trkpt lat="48.6622" lon="-2.34836">
        <ele>19</ele>
        <time>2016-06-24T13:18:02Z</time>
      </trkpt>
      <trkpt lat="48.66217" lon="-2.34836">
        <ele>19</ele>
        <time>2016-06-24T13:18:06Z</time>
      </trkpt>
      <trkpt lat="48.66213" lon="-2.34836">
        <ele>19</ele>
        <time>2016-06-24T13:18:10Z</time>
      </trkpt>
      <trkpt lat="48.66209" lon="-2.34835">
        <ele>19</ele>
        <time>2016-06-24T13:18:13Z</time>
      </trkpt>
      <trkpt lat="48.66208" lon="-2.34839">
        <ele>18</ele>
        <time>2016-06-24T13:18:17Z</time>
      </trkpt>
      <trkpt lat="48.66211" lon="-2.34842">
        <ele>18</ele>
        <time>2016-06-24T13:18:20Z</time>
      </trkpt>
      <trkpt lat="48.66215" lon="-2.34843">
        <ele>18</ele>
        <time>2016-06-24T13:18:23Z</time>
      </trkpt>
      <trkpt lat="48.66219" lon="-2.34844">
        <ele>17</ele>
        <time>2016-06-24T13:18:26Z</time>
      </trkpt>
      <trkpt lat="48.66223" lon="-2.34844">
        <ele>17</ele>
        <time>2016-06-24T13:18:30Z</time>
      </trkpt>
      <trkpt lat="48.66227" lon="-2.34845">
        <ele>17</ele>
        <time>2016-06-24T13:18:33Z</time>
      </trkpt>
      <trkpt lat="48.66231" lon="-2.34845">
        <ele>17</ele>
        <time>2016-06-24T13:18:36Z</time>
      </trkpt>
      <trkpt lat="48.66235" lon="-2.34845">
        <ele>16</ele>
        <time>2016-06-24T13:18:39Z</time>
      </trkpt>
      <trkpt lat="48.66239" lon="-2.34845">
        <ele>16</ele>
        <time>2016-06-24T13:18:42Z</time>
      </trkpt>
      <trkpt lat="48.66243" lon="-2.34846">
        <ele>16</ele>
        <time>2016-06-24T13:18:45Z</time>
      </trkpt>
      <trkpt lat="48.66246" lon="-2.34846">
        <ele>15</ele>
        <time>2016-06-24T13:18:48Z</time>
      </trkpt>
      <trkpt lat="48.6625" lon="-2.34847">
        <ele>15</ele>
        <time>2016-06-24T13:18:51Z</time>
      </trkpt>
      <trkpt lat="48.66254" lon="-2.34848">
        <ele>15</ele>
        <time>2016-06-24T13:18:54Z</time>
      </trkpt>
      <trkpt lat="48.66258" lon="-2.34849">
        <ele>14</ele>
        <time>2016-06-24T13:18:57Z</time>
      </trkpt>
      <trkpt lat="48.66262" lon="-2.34851">
        <ele>13</ele>
        <time>2016-06-24T13:19:00Z</time>
      </trkpt>
      <trkpt lat="48.66265" lon="-2.34852">
        <ele>12</ele>
        <time>2016-06-24T13:19:03Z</time>
      </trkpt>
      <trkpt lat="48.66269" lon="-2.34854">
        <ele>11</ele>
        <time>2016-06-24T13:19:06Z</time>
      </trkpt>
      <trkpt lat="48.66272" lon="-2.34857">
        <ele>10</ele>
        <time>2016-06-24T13:19:09Z</time>
      </trkpt>
      <trkpt lat="48.66275" lon="-2.34859">
        <ele>10</ele>
        <time>2016-06-24T13:19:12Z</time>
      </trkpt>
      <trkpt lat="48.66278" lon="-2.34862">
        <ele>9</ele>
        <time>2016-06-24T13:19:15Z</time>
      </trkpt>
      <trkpt lat="48.66281" lon="-2.34867">
        <ele>9</ele>
        <time>2016-06-24T13:19:18Z</time>
      </trkpt>
      <trkpt lat="48.66282" lon="-2.34873">
        <ele>8</ele>
        <time>2016-06-24T13:19:21Z</time>
      </trkpt>
      <trkpt lat="48.66283" lon="-2.34878">
        <ele>7</ele>
        <time>2016-06-24T13:19:24Z</time>
      </trkpt>
      <trkpt lat="48.66282" lon="-2.34883">
        <ele>7</ele>
        <time>2016-06-24T13:19:27Z</time>
      </trkpt>
      <trkpt lat="48.66281" lon="-2.34889">
        <ele>7</ele>
        <time>2016-06-24T13:19:30Z</time>
      </trkpt>
      <trkpt lat="48.66281" lon="-2.34894">
        <ele>7</ele>
        <time>2016-06-24T13:19:33Z</time>
      </trkpt>
      <trkpt lat="48.6628" lon="-2.34899">
        <ele>7</ele>
        <time>2016-06-24T13:19:36Z</time>
      </trkpt>
      <trkpt lat="48.6628" lon="-2.34905">
        <ele>7</ele>
        <time>2016-06-24T13:19:39Z</time>
      </trkpt>
      <trkpt lat="48.66279" lon="-2.3491">
        <ele>7</ele>
        <time>2016-06-24T13:19:42Z</time>
      </trkpt>
      <trkpt lat="48.66278" lon="-2.34915">
        <ele>7</ele>
        <time>2016-06-24T13:19:45Z</time>
      </trkpt>
      <trkpt lat="48.66275" lon="-2.34922">
        <ele>6</ele>
        <time>2016-06-24T13:19:49Z</time>
      </trkpt>
      <trkpt lat="48.66273" lon="-2.34927">
        <ele>6</ele>
        <time>2016-06-24T13:19:52Z</time>
      </trkpt>
      <trkpt lat="48.66271" lon="-2.34931">
        <ele>6</ele>
        <time>2016-06-24T13:19:55Z</time>
      </trkpt>
      <trkpt lat="48.6627" lon="-2.34935">
        <ele>6</ele>
        <time>2016-06-24T13:19:59Z</time>
      </trkpt>
      <trkpt lat="48.66268" lon="-2.3494">
        <ele>6</ele>
        <time>2016-06-24T13:20:02Z</time>
      </trkpt>
      <trkpt lat="48.66266" lon="-2.34945">
        <ele>6</ele>
        <time>2016-06-24T13:20:05Z</time>
      </trkpt>
      <trkpt lat="48.66264" lon="-2.3495">
        <ele>6</ele>
        <time>2016-06-24T13:20:08Z</time>
      </trkpt>
      <trkpt lat="48.66262" lon="-2.34955">
        <ele>6</ele>
        <time>2016-06-24T13:20:11Z</time>
      </trkpt>
      <trkpt lat="48.66261" lon="-2.3496">
        <ele>6</ele>
        <time>2016-06-24T13:20:14Z</time>
      </trkpt>
      <trkpt lat="48.66259" lon="-2.34965">
        <ele>6</ele>
        <time>2016-06-24T13:20:17Z</time>
      </trkpt>
      <trkpt lat="48.66257" lon="-2.34971">
        <ele>6</ele>
        <time>2016-06-24T13:20:20Z</time>
      </trkpt>
      <trkpt lat="48.66255" lon="-2.34976">
        <ele>6</ele>
        <time>2016-06-24T13:20:23Z</time>
      </trkpt>
      <trkpt lat="48.66253" lon="-2.34981">
        <ele>5</ele>
        <time>2016-06-24T13:20:26Z</time>
      </trkpt>
      <trkpt lat="48.6625" lon="-2.34986">
        <ele>5</ele>
        <time>2016-06-24T13:20:29Z</time>
      </trkpt>
      <trkpt lat="48.66248" lon="-2.34992">
        <ele>5</ele>
        <time>2016-06-24T13:20:32Z</time>
      </trkpt>
      <trkpt lat="48.66245" lon="-2.34996">
        <ele>5</ele>
        <time>2016-06-24T13:20:35Z</time>
      </trkpt>
      <trkpt lat="48.66243" lon="-2.35001">
        <ele>5</ele>
        <time>2016-06-24T13:20:38Z</time>
      </trkpt>
      <trkpt lat="48.66241" lon="-2.35006">
        <ele>5</ele>
        <time>2016-06-24T13:20:41Z</time>
      </trkpt>
      <trkpt lat="48.66238" lon="-2.35011">
        <ele>5</ele>
        <time>2016-06-24T13:20:44Z</time>
      </trkpt>
      <trkpt lat="48.66236" lon="-2.35017">
        <ele>4</ele>
        <time>2016-06-24T13:20:47Z</time>
      </trkpt>
      <trkpt lat="48.66233" lon="-2.35023">
        <ele>4</ele>
        <time>2016-06-24T13:20:51Z</time>
      </trkpt>
      <trkpt lat="48.66231" lon="-2.35028">
        <ele>4</ele>
        <time>2016-06-24T13:20:54Z</time>
      </trkpt>
      <trkpt lat="48.66228" lon="-2.35034">
        <ele>4</ele>
        <time>2016-06-24T13:20:58Z</time>
      </trkpt>
      <trkpt lat="48.66226" lon="-2.35039">
        <ele>4</ele>
        <time>2016-06-24T13:21:01Z</time>
      </trkpt>
      <trkpt lat="48.66224" lon="-2.35043">
        <ele>4</ele>
        <time>2016-06-24T13:21:04Z</time>
      </trkpt>
      <trkpt lat="48.66222" lon="-2.35048">
        <ele>4</ele>
        <time>2016-06-24T13:21:07Z</time>
      </trkpt>
      <trkpt lat="48.66219" lon="-2.35052">
        <ele>4</ele>
        <time>2016-06-24T13:21:10Z</time>
      </trkpt>
      <trkpt lat="48.66216" lon="-2.35058">
        <ele>4</ele>
        <time>2016-06-24T13:21:14Z</time>
      </trkpt>
      <trkpt lat="48.66212" lon="-2.35063">
        <ele>4</ele>
        <time>2016-06-24T13:21:18Z</time>
      </trkpt>
      <trkpt lat="48.66209" lon="-2.35069">
        <ele>4</ele>
        <time>2016-06-24T13:21:22Z</time>
      </trkpt>
      <trkpt lat="48.66206" lon="-2.35075">
        <ele>4</ele>
        <time>2016-06-24T13:21:26Z</time>
      </trkpt>
      <trkpt lat="48.66204" lon="-2.3508">
        <ele>4</ele>
        <time>2016-06-24T13:21:29Z</time>
      </trkpt>
      <trkpt lat="48.66201" lon="-2.35086">
        <ele>4</ele>
        <time>2016-06-24T13:21:33Z</time>
      </trkpt>
      <trkpt lat="48.66199" lon="-2.35091">
        <ele>4</ele>
        <time>2016-06-24T13:21:36Z</time>
      </trkpt>
      <trkpt lat="48.66197" lon="-2.35096">
        <ele>4</ele>
        <time>2016-06-24T13:21:40Z</time>
      </trkpt>
      <trkpt lat="48.66195" lon="-2.35101">
        <ele>4</ele>
        <time>2016-06-24T13:21:43Z</time>
      </trkpt>
      <trkpt lat="48.66194" lon="-2.35105">
        <ele>4</ele>
        <time>2016-06-24T13:21:46Z</time>
      </trkpt>
      <trkpt lat="48.66192" lon="-2.35111">
        <ele>4</ele>
        <time>2016-06-24T13:21:49Z</time>
      </trkpt>
      <trkpt lat="48.66191" lon="-2.35115">
        <ele>3</ele>
        <time>2016-06-24T13:21:52Z</time>
      </trkpt>
      <trkpt lat="48.6619" lon="-2.35121">
        <ele>3</ele>
        <time>2016-06-24T13:21:55Z</time>
      </trkpt>
      <trkpt lat="48.66189" lon="-2.35126">
        <ele>3</ele>
        <time>2016-06-24T13:21:59Z</time>
      </trkpt>
      <trkpt lat="48.66188" lon="-2.35132">
        <ele>3</ele>
        <time>2016-06-24T13:22:02Z</time>
      </trkpt>
      <trkpt lat="48.66187" lon="-2.35138">
        <ele>3</ele>
        <time>2016-06-24T13:22:06Z</time>
      </trkpt>
      <trkpt lat="48.66185" lon="-2.35144">
        <ele>3</ele>
        <time>2016-06-24T13:22:09Z</time>
      </trkpt>
      <trkpt lat="48.66184" lon="-2.35149">
        <ele>3</ele>
        <time>2016-06-24T13:22:12Z</time>
      </trkpt>
      <trkpt lat="48.66183" lon="-2.35154">
        <ele>3</ele>
        <time>2016-06-24T13:22:15Z</time>
      </trkpt>
      <trkpt lat="48.66182" lon="-2.35159">
        <ele>3</ele>
        <time>2016-06-24T13:22:18Z</time>
      </trkpt>
      <trkpt lat="48.6618" lon="-2.35165">
        <ele>3</ele>
        <time>2016-06-24T13:22:21Z</time>
      </trkpt>
      <trkpt lat="48.66178" lon="-2.3517">
        <ele>3</ele>
        <time>2016-06-24T13:22:24Z</time>
      </trkpt>
      <trkpt lat="48.66177" lon="-2.35175">
        <ele>3</ele>
        <time>2016-06-24T13:22:27Z</time>
      </trkpt>
      <trkpt lat="48.66175" lon="-2.35182">
        <ele>3</ele>
        <time>2016-06-24T13:22:31Z</time>
      </trkpt>
      <trkpt lat="48.66174" lon="-2.35187">
        <ele>3</ele>
        <time>2016-06-24T13:22:34Z</time>
      </trkpt>
      <trkpt lat="48.66172" lon="-2.35192">
        <ele>3</ele>
        <time>2016-06-24T13:22:37Z</time>
      </trkpt>
      <trkpt lat="48.6617" lon="-2.35199">
        <ele>3</ele>
        <time>2016-06-24T13:22:41Z</time>
      </trkpt>
      <trkpt lat="48.66168" lon="-2.35204">
        <ele>3</ele>
        <time>2016-06-24T13:22:44Z</time>
      </trkpt>
      <trkpt lat="48.66167" lon="-2.35209">
        <ele>3</ele>
        <time>2016-06-24T13:22:47Z</time>
      </trkpt>
      <trkpt lat="48.66167" lon="-2.35214">
        <ele>3</ele>
        <time>2016-06-24T13:22:50Z</time>
      </trkpt>
      <trkpt lat="48.66166" lon="-2.35221">
        <ele>3</ele>
        <time>2016-06-24T13:22:53Z</time>
      </trkpt>
      <trkpt lat="48.66165" lon="-2.35226">
        <ele>3</ele>
        <time>2016-06-24T13:22:56Z</time>
      </trkpt>
      <trkpt lat="48.66163" lon="-2.35231">
        <ele>3</ele>
        <time>2016-06-24T13:22:59Z</time>
      </trkpt>
      <trkpt lat="48.66161" lon="-2.35237">
        <ele>3</ele>
        <time>2016-06-24T13:23:02Z</time>
      </trkpt>
      <trkpt lat="48.6616" lon="-2.35241">
        <ele>3</ele>
        <time>2016-06-24T13:23:05Z</time>
      </trkpt>
      <trkpt lat="48.66159" lon="-2.35245">
        <ele>3</ele>
        <time>2016-06-24T13:23:08Z</time>
      </trkpt>
      <trkpt lat="48.66159" lon="-2.35247">
        <ele>3</ele>
        <time>2016-06-24T13:23:11Z</time>
      </trkpt>
      <trkpt lat="48.66157" lon="-2.35252">
        <ele>3</ele>
        <time>2016-06-24T13:23:15Z</time>
      </trkpt>
      <trkpt lat="48.66154" lon="-2.35259">
        <ele>3</ele>
        <time>2016-06-24T13:23:19Z</time>
      </trkpt>
      <trkpt lat="48.66152" lon="-2.35263">
        <ele>3</ele>
        <time>2016-06-24T13:23:22Z</time>
      </trkpt>
      <trkpt lat="48.66151" lon="-2.35268">
        <ele>3</ele>
        <time>2016-06-24T13:23:25Z</time>
      </trkpt>
      <trkpt lat="48.66148" lon="-2.35274">
        <ele>3</ele>
        <time>2016-06-24T13:23:29Z</time>
      </trkpt>
      <trkpt lat="48.66147" lon="-2.3528">
        <ele>3</ele>
        <time>2016-06-24T13:23:33Z</time>
      </trkpt>
      <trkpt lat="48.66148" lon="-2.35286">
        <ele>3</ele>
        <time>2016-06-24T13:23:36Z</time>
      </trkpt>
      <trkpt lat="48.66151" lon="-2.35293">
        <ele>3</ele>
        <time>2016-06-24T13:23:40Z</time>
      </trkpt>
      <trkpt lat="48.66153" lon="-2.35298">
        <ele>3</ele>
        <time>2016-06-24T13:23:43Z</time>
      </trkpt>
      <trkpt lat="48.66156" lon="-2.35304">
        <ele>3</ele>
        <time>2016-06-24T13:23:47Z</time>
      </trkpt>
      <trkpt lat="48.66159" lon="-2.3531">
        <ele>3</ele>
        <time>2016-06-24T13:23:50Z</time>
      </trkpt>
      <trkpt lat="48.66159" lon="-2.35316">
        <ele>3</ele>
        <time>2016-06-24T13:23:53Z</time>
      </trkpt>
      <trkpt lat="48.66159" lon="-2.3532">
        <ele>3</ele>
        <time>2016-06-24T13:23:56Z</time>
      </trkpt>
      <trkpt lat="48.66157" lon="-2.35324">
        <ele>3</ele>
        <time>2016-06-24T13:23:59Z</time>
      </trkpt>
      <trkpt lat="48.66154" lon="-2.35324">
        <ele>3</ele>
        <time>2016-06-24T13:24:02Z</time>
      </trkpt>
      <trkpt lat="48.66154" lon="-2.35326">
        <ele>3</ele>
        <time>2016-06-24T13:24:07Z</time>
      </trkpt>
      <trkpt lat="48.66153" lon="-2.35331">
        <ele>3</ele>
        <time>2016-06-24T13:24:12Z</time>
      </trkpt>
      <trkpt lat="48.66153" lon="-2.35332">
        <ele>3</ele>
        <time>2016-06-24T13:24:15Z</time>
      </trkpt>
      <trkpt lat="48.6615" lon="-2.35337">
        <ele>3</ele>
        <time>2016-06-24T13:24:19Z</time>
      </trkpt>
      <trkpt lat="48.66146" lon="-2.35343">
        <ele>3</ele>
        <time>2016-06-24T13:24:23Z</time>
      </trkpt>
      <trkpt lat="48.66143" lon="-2.35348">
        <ele>3</ele>
        <time>2016-06-24T13:24:27Z</time>
      </trkpt>
      <trkpt lat="48.66141" lon="-2.35353">
        <ele>3</ele>
        <time>2016-06-24T13:24:30Z</time>
      </trkpt>
      <trkpt lat="48.66139" lon="-2.35358">
        <ele>3</ele>
        <time>2016-06-24T13:24:33Z</time>
      </trkpt>
      <trkpt lat="48.66136" lon="-2.35364">
        <ele>3</ele>
        <time>2016-06-24T13:24:37Z</time>
      </trkpt>
      <trkpt lat="48.66133" lon="-2.35369">
        <ele>3</ele>
        <time>2016-06-24T13:24:41Z</time>
      </trkpt>
      <trkpt lat="48.66131" lon="-2.35373">
        <ele>3</ele>
        <time>2016-06-24T13:24:45Z</time>
      </trkpt>
      <trkpt lat="48.66129" lon="-2.35378">
        <ele>3</ele>
        <time>2016-06-24T13:24:49Z</time>
      </trkpt>
      <trkpt lat="48.66126" lon="-2.35383">
        <ele>3</ele>
        <time>2016-06-24T13:24:53Z</time>
      </trkpt>
      <trkpt lat="48.66123" lon="-2.35388">
        <ele>3</ele>
        <time>2016-06-24T13:24:57Z</time>
      </trkpt>
      <trkpt lat="48.66123" lon="-2.3539">
        <ele>3</ele>
        <time>2016-06-24T13:25:05Z</time>
      </trkpt>
      <trkpt lat="48.66123" lon="-2.35392">
        <ele>3</ele>
        <time>2016-06-24T13:25:17Z</time>
      </trkpt>
      <trkpt lat="48.66119" lon="-2.35397">
        <ele>3</ele>
        <time>2016-06-24T13:25:21Z</time>
      </trkpt>
      <trkpt lat="48.66116" lon="-2.35401">
        <ele>3</ele>
        <time>2016-06-24T13:25:25Z</time>
      </trkpt>
      <trkpt lat="48.66113" lon="-2.35406">
        <ele>2</ele>
        <time>2016-06-24T13:25:29Z</time>
      </trkpt>
      <trkpt lat="48.66109" lon="-2.35411">
        <ele>2</ele>
        <time>2016-06-24T13:25:33Z</time>
      </trkpt>
      <trkpt lat="48.66106" lon="-2.35417">
        <ele>2</ele>
        <time>2016-06-24T13:25:37Z</time>
      </trkpt>
      <trkpt lat="48.66103" lon="-2.35422">
        <ele>2</ele>
        <time>2016-06-24T13:25:41Z</time>
      </trkpt>
      <trkpt lat="48.661" lon="-2.35426">
        <ele>2</ele>
        <time>2016-06-24T13:25:44Z</time>
      </trkpt>
      <trkpt lat="48.66098" lon="-2.35431">
        <ele>2</ele>
        <time>2016-06-24T13:25:47Z</time>
      </trkpt>
      <trkpt lat="48.66094" lon="-2.35436">
        <ele>2</ele>
        <time>2016-06-24T13:25:51Z</time>
      </trkpt>
      <trkpt lat="48.66091" lon="-2.35442">
        <ele>2</ele>
        <time>2016-06-24T13:25:55Z</time>
      </trkpt>
      <trkpt lat="48.66087" lon="-2.35447">
        <ele>2</ele>
        <time>2016-06-24T13:25:59Z</time>
      </trkpt>
      <trkpt lat="48.66083" lon="-2.35452">
        <ele>2</ele>
        <time>2016-06-24T13:26:03Z</time>
      </trkpt>
      <trkpt lat="48.6608" lon="-2.35456">
        <ele>2</ele>
        <time>2016-06-24T13:26:06Z</time>
      </trkpt>
      <trkpt lat="48.66076" lon="-2.35461">
        <ele>2</ele>
        <time>2016-06-24T13:26:10Z</time>
      </trkpt>
      <trkpt lat="48.66072" lon="-2.35467">
        <ele>2</ele>
        <time>2016-06-24T13:26:14Z</time>
      </trkpt>
      <trkpt lat="48.66069" lon="-2.35472">
        <ele>2</ele>
        <time>2016-06-24T13:26:18Z</time>
      </trkpt>
      <trkpt lat="48.66065" lon="-2.35477">
        <ele>2</ele>
        <time>2016-06-24T13:26:22Z</time>
      </trkpt>
      <trkpt lat="48.66062" lon="-2.35483">
        <ele>2</ele>
        <time>2016-06-24T13:26:25Z</time>
      </trkpt>
      <trkpt lat="48.6606" lon="-2.35488">
        <ele>2</ele>
        <time>2016-06-24T13:26:28Z</time>
      </trkpt>
      <trkpt lat="48.66058" lon="-2.35492">
        <ele>2</ele>
        <time>2016-06-24T13:26:31Z</time>
      </trkpt>
      <trkpt lat="48.66057" lon="-2.35498">
        <ele>2</ele>
        <time>2016-06-24T13:26:34Z</time>
      </trkpt>
      <trkpt lat="48.66056" lon="-2.35503">
        <ele>2</ele>
        <time>2016-06-24T13:26:37Z</time>
      </trkpt>
      <trkpt lat="48.66055" lon="-2.35509">
        <ele>2</ele>
        <time>2016-06-24T13:26:40Z</time>
      </trkpt>
      <trkpt lat="48.66054" lon="-2.35514">
        <ele>2</ele>
        <time>2016-06-24T13:26:43Z</time>
      </trkpt>
      <trkpt lat="48.66053" lon="-2.35519">
        <ele>2</ele>
        <time>2016-06-24T13:26:46Z</time>
      </trkpt>
      <trkpt lat="48.66052" lon="-2.35525">
        <ele>2</ele>
        <time>2016-06-24T13:26:49Z</time>
      </trkpt>
      <trkpt lat="48.66051" lon="-2.3553">
        <ele>2</ele>
        <time>2016-06-24T13:26:52Z</time>
      </trkpt>
      <trkpt lat="48.6605" lon="-2.35535">
        <ele>2</ele>
        <time>2016-06-24T13:26:55Z</time>
      </trkpt>
      <trkpt lat="48.66048" lon="-2.3554">
        <ele>2</ele>
        <time>2016-06-24T13:26:58Z</time>
      </trkpt>
      <trkpt lat="48.66047" lon="-2.35546">
        <ele>2</ele>
        <time>2016-06-24T13:27:01Z</time>
      </trkpt>
      <trkpt lat="48.66046" lon="-2.35551">
        <ele>2</ele>
        <time>2016-06-24T13:27:04Z</time>
      </trkpt>
      <trkpt lat="48.66044" lon="-2.35557">
        <ele>2</ele>
        <time>2016-06-24T13:27:07Z</time>
      </trkpt>
      <trkpt lat="48.66043" lon="-2.35563">
        <ele>2</ele>
        <time>2016-06-24T13:27:10Z</time>
      </trkpt>
      <trkpt lat="48.66042" lon="-2.35568">
        <ele>2</ele>
        <time>2016-06-24T13:27:13Z</time>
      </trkpt>
      <trkpt lat="48.66041" lon="-2.35574">
        <ele>2</ele>
        <time>2016-06-24T13:27:16Z</time>
      </trkpt>
      <trkpt lat="48.66042" lon="-2.3558">
        <ele>2</ele>
        <time>2016-06-24T13:27:19Z</time>
      </trkpt>
      <trkpt lat="48.66043" lon="-2.35586">
        <ele>2</ele>
        <time>2016-06-24T13:27:22Z</time>
      </trkpt>
      <trkpt lat="48.66044" lon="-2.35592">
        <ele>2</ele>
        <time>2016-06-24T13:27:25Z</time>
      </trkpt>
      <trkpt lat="48.66045" lon="-2.35598">
        <ele>2</ele>
        <time>2016-06-24T13:27:28Z</time>
      </trkpt>
      <trkpt lat="48.66045" lon="-2.35604">
        <ele>2</ele>
        <time>2016-06-24T13:27:31Z</time>
      </trkpt>
      <trkpt lat="48.66044" lon="-2.3561">
        <ele>2</ele>
        <time>2016-06-24T13:27:34Z</time>
      </trkpt>
      <trkpt lat="48.66042" lon="-2.35614">
        <ele>2</ele>
        <time>2016-06-24T13:27:37Z</time>
      </trkpt>
      <trkpt lat="48.66038" lon="-2.35617">
        <ele>2</ele>
        <time>2016-06-24T13:27:41Z</time>
      </trkpt>
      <trkpt lat="48.66035" lon="-2.3562">
        <ele>2</ele>
        <time>2016-06-24T13:27:45Z</time>
      </trkpt>
      <trkpt lat="48.66031" lon="-2.35623">
        <ele>2</ele>
        <time>2016-06-24T13:27:49Z</time>
      </trkpt>
      <trkpt lat="48.66027" lon="-2.35625">
        <ele>2</ele>
        <time>2016-06-24T13:27:53Z</time>
      </trkpt>
      <trkpt lat="48.66025" lon="-2.3563">
        <ele>2</ele>
        <time>2016-06-24T13:27:56Z</time>
      </trkpt>
      <trkpt lat="48.66023" lon="-2.35635">
        <ele>2</ele>
        <time>2016-06-24T13:27:59Z</time>
      </trkpt>
      <trkpt lat="48.66021" lon="-2.3564">
        <ele>2</ele>
        <time>2016-06-24T13:28:02Z</time>
      </trkpt>
      <trkpt lat="48.6602" lon="-2.35645">
        <ele>2</ele>
        <time>2016-06-24T13:28:05Z</time>
      </trkpt>
      <trkpt lat="48.66019" lon="-2.3565">
        <ele>2</ele>
        <time>2016-06-24T13:28:08Z</time>
      </trkpt>
      <trkpt lat="48.66018" lon="-2.35655">
        <ele>2</ele>
        <time>2016-06-24T13:28:11Z</time>
      </trkpt>
      <trkpt lat="48.66017" lon="-2.35661">
        <ele>2</ele>
        <time>2016-06-24T13:28:14Z</time>
      </trkpt>
      <trkpt lat="48.66016" lon="-2.35666">
        <ele>2</ele>
        <time>2016-06-24T13:28:17Z</time>
      </trkpt>
      <trkpt lat="48.66014" lon="-2.35672">
        <ele>2</ele>
        <time>2016-06-24T13:28:21Z</time>
      </trkpt>
      <trkpt lat="48.66013" lon="-2.35678">
        <ele>2</ele>
        <time>2016-06-24T13:28:24Z</time>
      </trkpt>
      <trkpt lat="48.66011" lon="-2.35683">
        <ele>2</ele>
        <time>2016-06-24T13:28:27Z</time>
      </trkpt>
      <trkpt lat="48.66009" lon="-2.35688">
        <ele>2</ele>
        <time>2016-06-24T13:28:30Z</time>
      </trkpt>
      <trkpt lat="48.66007" lon="-2.35693">
        <ele>2</ele>
        <time>2016-06-24T13:28:33Z</time>
      </trkpt>
      <trkpt lat="48.66005" lon="-2.35698">
        <ele>1</ele>
        <time>2016-06-24T13:28:36Z</time>
      </trkpt>
      <trkpt lat="48.66004" lon="-2.35703">
        <ele>1</ele>
        <time>2016-06-24T13:28:39Z</time>
      </trkpt>
      <trkpt lat="48.66002" lon="-2.35708">
        <ele>1</ele>
        <time>2016-06-24T13:28:42Z</time>
      </trkpt>
      <trkpt lat="48.66" lon="-2.35714">
        <ele>1</ele>
        <time>2016-06-24T13:28:45Z</time>
      </trkpt>
      <trkpt lat="48.65997" lon="-2.3572">
        <ele>1</ele>
        <time>2016-06-24T13:28:49Z</time>
      </trkpt>
      <trkpt lat="48.65995" lon="-2.35725">
        <ele>1</ele>
        <time>2016-06-24T13:28:52Z</time>
      </trkpt>
      <trkpt lat="48.65992" lon="-2.3573">
        <ele>1</ele>
        <time>2016-06-24T13:28:55Z</time>
      </trkpt>
      <trkpt lat="48.6599" lon="-2.35734">
        <ele>1</ele>
        <time>2016-06-24T13:28:58Z</time>
      </trkpt>
      <trkpt lat="48.65986" lon="-2.35741">
        <ele>1</ele>
        <time>2016-06-24T13:29:02Z</time>
      </trkpt>
      <trkpt lat="48.65983" lon="-2.35747">
        <ele>1</ele>
        <time>2016-06-24T13:29:06Z</time>
      </trkpt>
      <trkpt lat="48.6598" lon="-2.35751">
        <ele>1</ele>
        <time>2016-06-24T13:29:09Z</time>
      </trkpt>
      <trkpt lat="48.65976" lon="-2.35757">
        <ele>1</ele>
        <time>2016-06-24T13:29:13Z</time>
      </trkpt>
      <trkpt lat="48.65972" lon="-2.35762">
        <ele>1</ele>
        <time>2016-06-24T13:29:17Z</time>
      </trkpt>
      <trkpt lat="48.65968" lon="-2.35767">
        <ele>1</ele>
        <time>2016-06-24T13:29:21Z</time>
      </trkpt>
      <trkpt lat="48.65964" lon="-2.35771">
        <ele>1</ele>
        <time>2016-06-24T13:29:25Z</time>
      </trkpt>
      <trkpt lat="48.6596" lon="-2.35776">
        <ele>1</ele>
        <time>2016-06-24T13:29:29Z</time>
      </trkpt>
      <trkpt lat="48.65956" lon="-2.35781">
        <ele>1</ele>
        <time>2016-06-24T13:29:33Z</time>
      </trkpt>
      <trkpt lat="48.65952" lon="-2.35786">
        <ele>1</ele>
        <time>2016-06-24T13:29:37Z</time>
      </trkpt>
      <trkpt lat="48.65948" lon="-2.35792">
        <ele>1</ele>
        <time>2016-06-24T13:29:41Z</time>
      </trkpt>
      <trkpt lat="48.65945" lon="-2.35798">
        <ele>1</ele>
        <time>2016-06-24T13:29:45Z</time>
      </trkpt>
      <trkpt lat="48.65942" lon="-2.35802">
        <ele>1</ele>
        <time>2016-06-24T13:29:48Z</time>
      </trkpt>
      <trkpt lat="48.65938" lon="-2.35808">
        <ele>1</ele>
        <time>2016-06-24T13:29:52Z</time>
      </trkpt>
      <trkpt lat="48.65935" lon="-2.35814">
        <ele>1</ele>
        <time>2016-06-24T13:29:56Z</time>
      </trkpt>
      <trkpt lat="48.65932" lon="-2.35819">
        <ele>1</ele>
        <time>2016-06-24T13:29:59Z</time>
      </trkpt>
      <trkpt lat="48.65929" lon="-2.35825">
        <ele>1</ele>
        <time>2016-06-24T13:30:03Z</time>
      </trkpt>
      <trkpt lat="48.65926" lon="-2.35829">
        <ele>1</ele>
        <time>2016-06-24T13:30:06Z</time>
      </trkpt>
      <trkpt lat="48.65921" lon="-2.35834">
        <time>2016-06-24T13:30:10Z</time>
      </trkpt>
      <trkpt lat="48.65918" lon="-2.35837">
        <time>2016-06-24T13:30:13Z</time>
      </trkpt>
      <trkpt lat="48.65915" lon="-2.3584">
        <time>2016-06-24T13:30:16Z</time>
      </trkpt>
      <trkpt lat="48.65911" lon="-2.35843">
        <time>2016-06-24T13:30:19Z</time>
      </trkpt>
      <trkpt lat="48.65908" lon="-2.35847">
        <time>2016-06-24T13:30:22Z</time>
      </trkpt>
      <trkpt lat="48.65903" lon="-2.35852">
        <time>2016-06-24T13:30:26Z</time>
      </trkpt>
      <trkpt lat="48.659" lon="-2.35855">
        <time>2016-06-24T13:30:29Z</time>
      </trkpt>
      <trkpt lat="48.65896" lon="-2.35858">
        <time>2016-06-24T13:30:32Z</time>
      </trkpt>
      <trkpt lat="48.65892" lon="-2.35862">
        <time>2016-06-24T13:30:36Z</time>
      </trkpt>
      <trkpt lat="48.65889" lon="-2.35866">
        <time>2016-06-24T13:30:39Z</time>
      </trkpt>
      <trkpt lat="48.65885" lon="-2.35869">
        <time>2016-06-24T13:30:42Z</time>
      </trkpt>
      <trkpt lat="48.65881" lon="-2.35874">
        <time>2016-06-24T13:30:46Z</time>
      </trkpt>
      <trkpt lat="48.65877" lon="-2.35879">
        <time>2016-06-24T13:30:50Z</time>
      </trkpt>
      <trkpt lat="48.65873" lon="-2.35884">
        <time>2016-06-24T13:30:54Z</time>
      </trkpt>
      <trkpt lat="48.65868" lon="-2.35889">
        <time>2016-06-24T13:30:58Z</time>
      </trkpt>
      <trkpt lat="48.65865" lon="-2.35893">
        <time>2016-06-24T13:31:01Z</time>
      </trkpt>
      <trkpt lat="48.65862" lon="-2.35896">
        <time>2016-06-24T13:31:04Z</time>
      </trkpt>
      <trkpt lat="48.65859" lon="-2.359">
        <time>2016-06-24T13:31:07Z</time>
      </trkpt>
      <trkpt lat="48.65855" lon="-2.35904">
        <time>2016-06-24T13:31:10Z</time>
      </trkpt>
      <trkpt lat="48.65851" lon="-2.3591">
        <time>2016-06-24T13:31:14Z</time>
      </trkpt>
      <trkpt lat="48.65848" lon="-2.35913">
        <time>2016-06-24T13:31:17Z</time>
      </trkpt>
      <trkpt lat="48.65844" lon="-2.35918">
        <time>2016-06-24T13:31:20Z</time>
      </trkpt>
      <trkpt lat="48.65841" lon="-2.35922">
        <time>2016-06-24T13:31:23Z</time>
      </trkpt>
      <trkpt lat="48.65837" lon="-2.35925">
        <time>2016-06-24T13:31:26Z</time>
      </trkpt>
      <trkpt lat="48.65834" lon="-2.35929">
        <time>2016-06-24T13:31:29Z</time>
      </trkpt>
      <trkpt lat="48.65831" lon="-2.35932">
        <time>2016-06-24T13:31:32Z</time>
      </trkpt>
      <trkpt lat="48.65826" lon="-2.35937">
        <time>2016-06-24T13:31:36Z</time>
      </trkpt>
      <trkpt lat="48.65822" lon="-2.35943">
        <time>2016-06-24T13:31:40Z</time>
      </trkpt>
      <trkpt lat="48.65818" lon="-2.35947">
        <time>2016-06-24T13:31:44Z</time>
      </trkpt>
      <trkpt lat="48.65815" lon="-2.35952">
        <time>2016-06-24T13:31:47Z</time>
      </trkpt>
      <trkpt lat="48.65812" lon="-2.35955">
        <time>2016-06-24T13:31:50Z</time>
      </trkpt>
      <trkpt lat="48.65808" lon="-2.35959">
        <time>2016-06-24T13:31:53Z</time>
      </trkpt>
      <trkpt lat="48.65805" lon="-2.35962">
        <time>2016-06-24T13:31:56Z</time>
      </trkpt>
      <trkpt lat="48.65802" lon="-2.35966">
        <time>2016-06-24T13:31:59Z</time>
      </trkpt>
      <trkpt lat="48.65799" lon="-2.35969">
        <time>2016-06-24T13:32:02Z</time>
      </trkpt>
      <trkpt lat="48.65795" lon="-2.35975">
        <time>2016-06-24T13:32:06Z</time>
      </trkpt>
      <trkpt lat="48.65791" lon="-2.35981">
        <time>2016-06-24T13:32:10Z</time>
      </trkpt>
      <trkpt lat="48.65788" lon="-2.35986">
        <time>2016-06-24T13:32:13Z</time>
      </trkpt>
      <trkpt lat="48.65785" lon="-2.35992">
        <time>2016-06-24T13:32:17Z</time>
      </trkpt>
      <trkpt lat="48.65781" lon="-2.35998">
        <time>2016-06-24T13:32:21Z</time>
      </trkpt>
      <trkpt lat="48.65777" lon="-2.36003">
        <time>2016-06-24T13:32:25Z</time>
      </trkpt>
      <trkpt lat="48.65774" lon="-2.36009">
        <time>2016-06-24T13:32:29Z</time>
      </trkpt>
      <trkpt lat="48.6577" lon="-2.36012">
        <time>2016-06-24T13:32:32Z</time>
      </trkpt>
      <trkpt lat="48.65767" lon="-2.36018">
        <time>2016-06-24T13:32:36Z</time>
      </trkpt>
      <trkpt lat="48.65763" lon="-2.36023">
        <time>2016-06-24T13:32:40Z</time>
      </trkpt>
      <trkpt lat="48.6576" lon="-2.36028">
        <time>2016-06-24T13:32:43Z</time>
      </trkpt>
      <trkpt lat="48.65756" lon="-2.36034">
        <time>2016-06-24T13:32:47Z</time>
      </trkpt>
      <trkpt lat="48.65753" lon="-2.36039">
        <time>2016-06-24T13:32:50Z</time>
      </trkpt>
      <trkpt lat="48.6575" lon="-2.36045">
        <time>2016-06-24T13:32:54Z</time>
      </trkpt>
      <trkpt lat="48.65746" lon="-2.3605">
        <time>2016-06-24T13:32:58Z</time>
      </trkpt>
      <trkpt lat="48.65742" lon="-2.36055">
        <time>2016-06-24T13:33:02Z</time>
      </trkpt>
      <trkpt lat="48.65738" lon="-2.36061">
        <time>2016-06-24T13:33:06Z</time>
      </trkpt>
      <trkpt lat="48.65736" lon="-2.36066">
        <time>2016-06-24T13:33:09Z</time>
      </trkpt>
      <trkpt lat="48.65732" lon="-2.36072">
        <time>2016-06-24T13:33:13Z</time>
      </trkpt>
      <trkpt lat="48.65728" lon="-2.36077">
        <time>2016-06-24T13:33:17Z</time>
      </trkpt>
      <trkpt lat="48.65725" lon="-2.36082">
        <time>2016-06-24T13:33:20Z</time>
      </trkpt>
      <trkpt lat="48.65722" lon="-2.36088">
        <time>2016-06-24T13:33:24Z</time>
      </trkpt>
      <trkpt lat="48.65718" lon="-2.36093">
        <time>2016-06-24T13:33:28Z</time>
      </trkpt>
      <trkpt lat="48.65715" lon="-2.36099">
        <time>2016-06-24T13:33:32Z</time>
      </trkpt>
      <trkpt lat="48.65711" lon="-2.36105">
        <time>2016-06-24T13:33:36Z</time>
      </trkpt>
      <trkpt lat="48.65707" lon="-2.3611">
        <time>2016-06-24T13:33:40Z</time>
      </trkpt>
      <trkpt lat="48.65704" lon="-2.36116">
        <time>2016-06-24T13:33:44Z</time>
      </trkpt>
      <trkpt lat="48.65701" lon="-2.36121">
        <time>2016-06-24T13:33:48Z</time>
      </trkpt>
      <trkpt lat="48.65698" lon="-2.36126">
        <time>2016-06-24T13:33:51Z</time>
      </trkpt>
      <trkpt lat="48.65695" lon="-2.36132">
        <time>2016-06-24T13:33:55Z</time>
      </trkpt>
      <trkpt lat="48.65691" lon="-2.36139">
        <time>2016-06-24T13:33:59Z</time>
      </trkpt>
      <trkpt lat="48.65688" lon="-2.36144">
        <time>2016-06-24T13:34:03Z</time>
      </trkpt>
      <trkpt lat="48.65685" lon="-2.36149">
        <time>2016-06-24T13:34:06Z</time>
      </trkpt>
      <trkpt lat="48.65682" lon="-2.36155">
        <time>2016-06-24T13:34:10Z</time>
      </trkpt>
      <trkpt lat="48.65679" lon="-2.3616">
        <time>2016-06-24T13:34:13Z</time>
      </trkpt>
      <trkpt lat="48.65677" lon="-2.36166">
        <time>2016-06-24T13:34:17Z</time>
      </trkpt>
      <trkpt lat="48.65674" lon="-2.36173">
        <time>2016-06-24T13:34:21Z</time>
      </trkpt>
      <trkpt lat="48.65672" lon="-2.36177">
        <time>2016-06-24T13:34:25Z</time>
      </trkpt>
      <trkpt lat="48.65669" lon="-2.36181">
        <time>2016-06-24T13:34:28Z</time>
      </trkpt>
      <trkpt lat="48.65666" lon="-2.36188">
        <time>2016-06-24T13:34:32Z</time>
      </trkpt>
      <trkpt lat="48.65663" lon="-2.36193">
        <time>2016-06-24T13:34:35Z</time>
      </trkpt>
      <trkpt lat="48.6566" lon="-2.36199">
        <time>2016-06-24T13:34:39Z</time>
      </trkpt>
      <trkpt lat="48.65657" lon="-2.36205">
        <time>2016-06-24T13:34:43Z</time>
      </trkpt>
      <trkpt lat="48.65653" lon="-2.36211">
        <time>2016-06-24T13:34:47Z</time>
      </trkpt>
      <trkpt lat="48.65651" lon="-2.36216">
        <time>2016-06-24T13:34:50Z</time>
      </trkpt>
      <trkpt lat="48.65648" lon="-2.36223">
        <time>2016-06-24T13:34:54Z</time>
      </trkpt>
      <trkpt lat="48.65645" lon="-2.36228">
        <time>2016-06-24T13:34:57Z</time>
      </trkpt>
      <trkpt lat="48.65643" lon="-2.36234">
        <time>2016-06-24T13:35:00Z</time>
      </trkpt>
      <trkpt lat="48.65641" lon="-2.36239">
        <time>2016-06-24T13:35:03Z</time>
      </trkpt>
      <trkpt lat="48.65639" lon="-2.36244">
        <time>2016-06-24T13:35:06Z</time>
      </trkpt>
      <trkpt lat="48.65636" lon="-2.3625">
        <time>2016-06-24T13:35:10Z</time>
      </trkpt>
      <trkpt lat="48.65633" lon="-2.36255">
        <time>2016-06-24T13:35:13Z</time>
      </trkpt>
      <trkpt lat="48.65631" lon="-2.36261">
        <time>2016-06-24T13:35:16Z</time>
      </trkpt>
      <trkpt lat="48.65628" lon="-2.36266">
        <time>2016-06-24T13:35:19Z</time>
      </trkpt>
      <trkpt lat="48.65626" lon="-2.36271">
        <time>2016-06-24T13:35:22Z</time>
      </trkpt>
      <trkpt lat="48.65623" lon="-2.36277">
        <time>2016-06-24T13:35:25Z</time>
      </trkpt>
      <trkpt lat="48.65621" lon="-2.36281">
        <time>2016-06-24T13:35:28Z</time>
      </trkpt>
      <trkpt lat="48.65619" lon="-2.36286">
        <time>2016-06-24T13:35:31Z</time>
      </trkpt>
      <trkpt lat="48.65616" lon="-2.36292">
        <time>2016-06-24T13:35:34Z</time>
      </trkpt>
      <trkpt lat="48.65613" lon="-2.36298">
        <time>2016-06-24T13:35:38Z</time>
      </trkpt>
      <trkpt lat="48.65611" lon="-2.36303">
        <time>2016-06-24T13:35:41Z</time>
      </trkpt>
      <trkpt lat="48.65608" lon="-2.36308">
        <time>2016-06-24T13:35:44Z</time>
      </trkpt>
      <trkpt lat="48.65606" lon="-2.36313">
        <time>2016-06-24T13:35:47Z</time>
      </trkpt>
      <trkpt lat="48.65602" lon="-2.36318">
        <time>2016-06-24T13:35:51Z</time>
      </trkpt>
      <trkpt lat="48.65598" lon="-2.36324">
        <time>2016-06-24T13:35:55Z</time>
      </trkpt>
      <trkpt lat="48.65594" lon="-2.3633">
        <time>2016-06-24T13:35:59Z</time>
      </trkpt>
      <trkpt lat="48.65591" lon="-2.36336">
        <time>2016-06-24T13:36:03Z</time>
      </trkpt>
      <trkpt lat="48.65588" lon="-2.36341">
        <time>2016-06-24T13:36:06Z</time>
      </trkpt>
      <trkpt lat="48.65585" lon="-2.36346">
        <time>2016-06-24T13:36:09Z</time>
      </trkpt>
      <trkpt lat="48.65582" lon="-2.36351">
        <ele>1</ele>
        <time>2016-06-24T13:36:13Z</time>
      </trkpt>
      <trkpt lat="48.65578" lon="-2.36357">
        <ele>1</ele>
        <time>2016-06-24T13:36:17Z</time>
      </trkpt>
      <trkpt lat="48.65574" lon="-2.36362">
        <ele>1</ele>
        <time>2016-06-24T13:36:21Z</time>
      </trkpt>
      <trkpt lat="48.6557" lon="-2.36366">
        <ele>1</ele>
        <time>2016-06-24T13:36:25Z</time>
      </trkpt>
      <trkpt lat="48.65566" lon="-2.3637">
        <ele>1</ele>
        <time>2016-06-24T13:36:29Z</time>
      </trkpt>
      <trkpt lat="48.65563" lon="-2.36374">
        <ele>1</ele>
        <time>2016-06-24T13:36:32Z</time>
      </trkpt>
      <trkpt lat="48.65559" lon="-2.36379">
        <ele>1</ele>
        <time>2016-06-24T13:36:36Z</time>
      </trkpt>
      <trkpt lat="48.65555" lon="-2.36383">
        <ele>1</ele>
        <time>2016-06-24T13:36:40Z</time>
      </trkpt>
      <trkpt lat="48.65552" lon="-2.36386">
        <ele>1.1</ele>
        <time>2016-06-24T13:36:43Z</time>
      </trkpt>
      <trkpt lat="48.65548" lon="-2.3639">
        <ele>1.3</ele>
        <time>2016-06-24T13:36:47Z</time>
      </trkpt>
      <trkpt lat="48.65544" lon="-2.36393">
        <ele>1.5</ele>
        <time>2016-06-24T13:36:51Z</time>
      </trkpt>
      <trkpt lat="48.65541" lon="-2.36396">
        <ele>1.7</ele>
        <time>2016-06-24T13:36:54Z</time>
      </trkpt>
      <trkpt lat="48.65538" lon="-2.36398">
        <ele>1.8</ele>
        <time>2016-06-24T13:36:57Z</time>
      </trkpt>
      <trkpt lat="48.65534" lon="-2.36401">
        <ele>1.9</ele>
        <time>2016-06-24T13:37:00Z</time>
      </trkpt>
      <trkpt lat="48.6553" lon="-2.36405">
        <ele>2</ele>
        <time>2016-06-24T13:37:04Z</time>
      </trkpt>
      <trkpt lat="48.65526" lon="-2.36409">
        <ele>2.2</ele>
        <time>2016-06-24T13:37:08Z</time>
      </trkpt>
      <trkpt lat="48.65522" lon="-2.36414">
        <ele>2.6</ele>
        <time>2016-06-24T13:37:12Z</time>
      </trkpt>
      <trkpt lat="48.65519" lon="-2.36417">
        <ele>3</ele>
        <time>2016-06-24T13:37:15Z</time>
      </trkpt>
      <trkpt lat="48.65515" lon="-2.3642">
        <ele>3.4</ele>
        <time>2016-06-24T13:37:18Z</time>
      </trkpt>
      <trkpt lat="48.65511" lon="-2.36424">
        <ele>3.9</ele>
        <time>2016-06-24T13:37:22Z</time>
      </trkpt>
      <trkpt lat="48.65508" lon="-2.36428">
        <ele>4.2</ele>
        <time>2016-06-24T13:37:25Z</time>
      </trkpt>
      <trkpt lat="48.65504" lon="-2.36432">
        <ele>4.5</ele>
        <time>2016-06-24T13:37:28Z</time>
      </trkpt>
      <trkpt lat="48.65501" lon="-2.36435">
        <ele>4.9</ele>
        <time>2016-06-24T13:37:31Z</time>
      </trkpt>
      <trkpt lat="48.65498" lon="-2.36438">
        <ele>5.3</ele>
        <time>2016-06-24T13:37:34Z</time>
      </trkpt>
      <trkpt lat="48.65493" lon="-2.36441">
        <ele>1</ele>
        <time>2016-06-24T13:37:38Z</time>
      </trkpt>
      <trkpt lat="48.6549" lon="-2.36444">
        <ele>2</ele>
        <time>2016-06-24T13:37:42Z</time>
      </trkpt>
      <trkpt lat="48.65486" lon="-2.36446">
        <ele>2</ele>
        <time>2016-06-24T13:37:46Z</time>
      </trkpt>
      <trkpt lat="48.65482" lon="-2.36448">
        <ele>2</ele>
        <time>2016-06-24T13:37:50Z</time>
      </trkpt>
      <trkpt lat="48.65479" lon="-2.3645">
        <ele>3</ele>
        <time>2016-06-24T13:37:54Z</time>
      </trkpt>
      <trkpt lat="48.65477" lon="-2.36454">
        <ele>3</ele>
        <time>2016-06-24T13:37:58Z</time>
      </trkpt>
      <trkpt lat="48.65476" lon="-2.36459">
        <ele>3</ele>
        <time>2016-06-24T13:38:01Z</time>
      </trkpt>
      <trkpt lat="48.65475" lon="-2.36465">
        <ele>4</ele>
        <time>2016-06-24T13:38:04Z</time>
      </trkpt>
      <trkpt lat="48.65475" lon="-2.36471">
        <ele>4</ele>
        <time>2016-06-24T13:38:07Z</time>
      </trkpt>
      <trkpt lat="48.65474" lon="-2.36475">
        <ele>4</ele>
        <time>2016-06-24T13:38:10Z</time>
      </trkpt>
      <trkpt lat="48.65472" lon="-2.3648">
        <ele>5</ele>
        <time>2016-06-24T13:38:14Z</time>
      </trkpt>
      <trkpt lat="48.65469" lon="-2.36485">
        <ele>6</ele>
        <time>2016-06-24T13:38:18Z</time>
      </trkpt>
      <trkpt lat="48.65466" lon="-2.36486">
        <ele>6</ele>
        <time>2016-06-24T13:38:21Z</time>
      </trkpt>
      <trkpt lat="48.65461" lon="-2.36489">
        <ele>6</ele>
        <time>2016-06-24T13:38:25Z</time>
      </trkpt>
      <trkpt lat="48.65458" lon="-2.36492">
        <ele>6</ele>
        <time>2016-06-24T13:38:29Z</time>
      </trkpt>
      <trkpt lat="48.65455" lon="-2.36493">
        <ele>6</ele>
        <time>2016-06-24T13:38:40Z</time>
      </trkpt>
      <trkpt lat="48.65452" lon="-2.36492">
        <ele>6</ele>
        <time>2016-06-24T13:38:44Z</time>
      </trkpt>
      <trkpt lat="48.65448" lon="-2.36493">
        <ele>6</ele>
        <time>2016-06-24T13:38:48Z</time>
      </trkpt>
      <trkpt lat="48.65448" lon="-2.36491">
        <ele>7</ele>
        <time>2016-06-24T13:38:55Z</time>
      </trkpt>
      <trkpt lat="48.65446" lon="-2.36492">
        <ele>7</ele>
        <time>2016-06-24T13:39:14Z</time>
      </trkpt>
      <trkpt lat="48.65446" lon="-2.36494">
        <ele>7</ele>
        <time>2016-06-24T13:39:21Z</time>
      </trkpt>
      <trkpt lat="48.65444" lon="-2.36494">
        <ele>7</ele>
        <time>2016-06-24T13:39:27Z</time>
      </trkpt>
      <trkpt lat="48.65441" lon="-2.36496">
        <ele>7</ele>
        <time>2016-06-24T13:39:31Z</time>
      </trkpt>
      <trkpt lat="48.65441" lon="-2.36497">
        <ele>8</ele>
        <time>2016-06-24T13:39:40Z</time>
      </trkpt>
      <trkpt lat="48.65444" lon="-2.36499">
        <ele>8</ele>
        <time>2016-06-24T13:39:46Z</time>
      </trkpt>
      <trkpt lat="48.65445" lon="-2.36497">
        <ele>8</ele>
        <time>2016-06-24T13:39:52Z</time>
      </trkpt>
      <trkpt lat="48.65444" lon="-2.36495">
        <ele>8</ele>
        <time>2016-06-24T13:39:55Z</time>
      </trkpt>
      <trkpt lat="48.65443" lon="-2.36496">
        <ele>8</ele>
        <time>2016-06-24T13:40:00Z</time>
      </trkpt>
      <trkpt lat="48.6544" lon="-2.36493">
        <ele>8</ele>
        <time>2016-06-24T13:40:04Z</time>
      </trkpt>
      <trkpt lat="48.65437" lon="-2.36494">
        <ele>8</ele>
        <time>2016-06-24T13:40:08Z</time>
      </trkpt>
      <trkpt lat="48.65435" lon="-2.36493">
        <ele>8</ele>
        <time>2016-06-24T13:40:12Z</time>
      </trkpt>
      <trkpt lat="48.65431" lon="-2.36492">
        <ele>8</ele>
        <time>2016-06-24T13:40:16Z</time>
      </trkpt>
      <trkpt lat="48.65428" lon="-2.36492">
        <ele>8</ele>
        <time>2016-06-24T13:40:19Z</time>
      </trkpt>
      <trkpt lat="48.65425" lon="-2.36494">
        <ele>8</ele>
        <time>2016-06-24T13:40:23Z</time>
      </trkpt>
      <trkpt lat="48.65423" lon="-2.36498">
        <ele>9</ele>
        <time>2016-06-24T13:40:26Z</time>
      </trkpt>
      <trkpt lat="48.65422" lon="-2.36503">
        <ele>9</ele>
        <time>2016-06-24T13:40:30Z</time>
      </trkpt>
      <trkpt lat="48.65421" lon="-2.36506">
        <ele>10</ele>
        <time>2016-06-24T13:40:33Z</time>
      </trkpt>
      <trkpt lat="48.6542" lon="-2.36509">
        <ele>11</ele>
        <time>2016-06-24T13:40:37Z</time>
      </trkpt>
      <trkpt lat="48.65418" lon="-2.36513">
        <ele>11</ele>
        <time>2016-06-24T13:40:41Z</time>
      </trkpt>
      <trkpt lat="48.65414" lon="-2.36515">
        <ele>12</ele>
        <time>2016-06-24T13:40:45Z</time>
      </trkpt>
      <trkpt lat="48.65413" lon="-2.36516">
        <ele>12</ele>
        <time>2016-06-24T13:40:48Z</time>
      </trkpt>
    </trkseg>
  </trk>
</gpx>